Daily Reports


METAR STATION :  PALERMO BOCCADIFALCO

 

Date / Time           Temp   Dew  HtIx Chill %Rh Press  Rain  Wind  Wind  Wind Visib Cloud Sky/Weather
                        C    C    C    C   %   hPa    mm   Dir   Spd  Gust    km    km ---/---

01/01/2008 06:55      10.0   8.0  12.9  10.0  87  1016   ---     N     0     0   ---   0.6 Broken Clouds/
01/01/2008 07:55      10.0   8.0  12.9   5.3  87  1016   ---   SSE    10    10   ---   0.7 Broken Clouds/
01/01/2008 08:55      10.0   8.0  12.9  10.0  87  1016   ---     N     0     0   ---   0.7 Broken Clouds/
01/01/2008 09:55      11.0   9.0  13.9   4.9  87  1016   ---   WNW    13    13   ---   --- Overcast/ Light Rain
01/01/2008 10:55      11.0   9.0  13.9   6.5  87  1016   ---   NNW    10    10   ---   0.7 Broken Clouds/
01/01/2008 11:55      12.0   8.0  14.1   5.3  77  1017   ---     W    14    14   ---   0.7 Broken Clouds/
01/01/2008 12:55      13.0   7.0  14.4   5.5  67  1016   ---   WNW    18    18   ---   0.7 Scattered Clouds/
01/01/2008 14:55      12.0   6.0  13.4   4.1  67  1016   ---     W    18    18   ---   0.7 Broken Clouds/
01/01/2008 15:55      11.0   6.0  12.7   4.0  71  1016   ---     W    14    14   ---   0.7 Scattered Clouds/
01/01/2008 16:55      10.0   7.0  12.5   6.2  82  1017   ---     W     8     8   ---   0.7 Scattered Clouds/
01/01/2008 17:55      10.0   7.0  12.5   5.3  82  1017   ---     W    10    10   ---   0.7 Scattered Clouds/
01/01/2008 18:55       9.0   7.0  11.9   9.0  87  1017   ---     W     5     5   ---   0.7 Scattered Clouds/
02/01/2008 06:55       8.0   5.0  10.5   5.7  81  1017   ---    SW     6     6   ---   0.7 Broken Clouds/
02/01/2008 07:55       7.0   5.0   9.9   7.0  87  1018   ---   WSW     5     5   ---   0.7 Scattered Clouds/
02/01/2008 08:55       9.0   5.0  11.1   9.0  76  1019   ---     W     3     3   ---   0.7 Broken Clouds/
02/01/2008 09:55      10.0   5.0  11.7  10.0  71  1019   ---     W     3     3   ---   0.7 Broken Clouds/
02/01/2008 10:55      12.0   5.0  13.1   6.2  62  1019   ---   WSW    13    13   ---   0.8 Broken Clouds/
02/01/2008 11:55      12.0   5.0  13.1  12.0  62  1018   ---   WSW     5     5   ---   0.8 Broken Clouds/
02/01/2008 12:55      12.0   5.0  13.1   8.5  62  1018   ---    NW     8     8   ---   0.8 Broken Clouds/
02/01/2008 13:55      12.0   4.0  12.9  12.0  58  1017   ---   WNW     3     3   ---   0.8 Broken Clouds/
02/01/2008 14:55      12.0   5.0  13.1   8.5  62  1017   ---     E     8     8   ---   0.8 Broken Clouds/
02/01/2008 15:55      12.0   5.0  13.1   8.5  62  1017   ---   ENE     8     8   ---   0.8 Broken Clouds/
02/01/2008 16:55      11.0   5.0  12.4  11.0  66  1017   ---     N     0     0   ---   0.8 Scattered Clouds/
02/01/2008 17:55       9.0   5.0  11.1   6.8  76  1017   ---     S     6     6   ---   --- /
02/01/2008 18:55       9.0   5.0  11.1   5.0  76  1017   ---     S     8     8   ----32740.7 Few Clouds/
02/01/2008 06:55       8.0   5.0  10.5   5.7  81  1017   ---    SW     6     6   ---   0.7 Broken Clouds/
03/01/2008 06:55       8.0   4.0  10.0   8.0  76  1013   ---     N     0     0   ---   0.7 Broken Clouds/
03/01/2008 07:55       8.0   5.0  10.5   8.0  81  1013   ---   ---     0     0   ---   0.7 Broken Clouds/
03/01/2008 08:55       8.0   6.0  10.9   8.0  87  1013   ---     W     5     5   ---   0.7 Broken Clouds/
03/01/2008 10:55      11.0   8.0  13.5   4.9  82  1013   ---     S    13    13   ---   0.7 Broken Clouds/
03/01/2008 11:55      12.0   7.0  13.7   7.7  71  1013   ---     S    10    10   ---   0.7 Broken Clouds/
03/01/2008 12:55      13.0   6.0  14.2   7.4  62  1012   ---    SW    13    13   ---   0.7 Broken Clouds/
03/01/2008 13:55      14.0   7.0  15.2  10.8  63  1011   ---     S     8     8   ----32742.4 Scattered Clouds/
03/01/2008 14:55      15.0   8.0  16.2  10.0  63  1011   ---     W    13    13   ----32741.5 Scattered Clouds/
03/01/2008 15:55      14.0   8.0  15.5   8.7  67  1011   ---   SSE    13    13   ----3274--- Scattered Clouds/
03/01/2008 16:55      13.0   8.0  14.8  13.0  72  1011   ---     W     3     3   ---   --- /
03/01/2008 17:55      12.0   8.0  14.1   8.5  77  1011   ---     E     8     8   ---   --- /
03/01/2008 18:55      11.0   7.0  13.1   4.9  76  1012   ---   SSW    13    13   ---   --- /
04/01/2008 06:55      12.0   8.0  14.1  10.1  77  1011   ---     W     6     6   ---   0.7 Broken Clouds/
04/01/2008 07:55      12.0   9.0  14.5  10.1  82  1011   ---     W     6     6   ---   0.8 Broken Clouds/
04/01/2008 08:55      12.0   9.0  14.5  12.0  82  1012   ---     W     5     5   ---   0.9 Overcast/
04/01/2008 10:55      14.0   7.0  15.2  10.8  63  1013   ---     N     8     8   ---   0.9 Overcast/
04/01/2008 11:55      15.0   8.0  16.2  15.0  63  1012   ---     N     0     0   ---   0.9 Broken Clouds/
04/01/2008 12:55      15.0   7.0  15.9  13.3  59  1012   ---    SE     6     6   ---   0.9 Broken Clouds/
04/01/2008 13:55      17.0   7.0  17.5  14.3  52  1012   ---   ESE     8     8   ---   0.9 Broken Clouds/
04/01/2008 14:55      17.0   5.0  17.2   9.8  45  1011   ---     S    23    45   ---   0.8 Broken Clouds/
04/01/2008 15:55      17.0   6.0  17.4  11.9  48  1012   ---    SE    14    14   ---   0.8 Broken Clouds/
04/01/2008 16:55      15.0   7.0  15.9  13.3  59  1012   ---     E     6     6   ---   0.8 Broken Clouds/
04/01/2008 17:55      15.0   7.0  15.9  15.0  59  1013   ---     N     0     0   ---   0.8 Broken Clouds/
04/01/2008 18:55      15.0   5.0  15.5   8.6  51  1014   ---     S    16    42   ---   0.8 Broken Clouds/
05/01/2008 06:55      12.0   9.0  14.5  12.0  82  1019   ---   WSW     3     3   ----3274--- Broken Clouds/
05/01/2008 07:55      12.0   9.0  14.5  10.1  82  1019   ---     S     6     6   ---   0.6 Broken Clouds/
05/01/2008 08:55      13.0   9.0  15.1  11.2  77  1019   ---     S     6     6   ---   0.6 Overcast/
05/01/2008 09:55      14.0  10.0  16.1  14.0  77  1020   ---     N     0     0   ---   0.6 Broken Clouds/
05/01/2008 10:55      17.0   9.0  18.0  10.1  59  1020   ---   SSE    21    21   ---   0.6 Broken Clouds/
05/01/2008 11:55      17.0  10.0  18.2  11.0  63  1020   ---    SE    18    18   ---   0.6 Broken Clouds/
05/01/2008 12:55      18.0   9.0  18.8  11.3  56  1019   ---     S    23    50   ---   0.6 Overcast/
05/01/2008 13:55      18.0   9.0  18.8  11.3  56  1019   ---   WSW    23    23   ---   0.6 Broken Clouds/
05/01/2008 14:55      18.0   9.0  18.8  13.8  56  1019   ---   WSW    13    13   ---   0.6 Broken Clouds/
05/01/2008 15:55      18.0  10.0  19.0  12.6  60  1020   ---    SW    16    16   ---   0.6 Broken Clouds/
05/01/2008 17:55      17.0   9.0  18.0  15.5  59  1020   ---     W     6     6   ---   0.6 Few Clouds/
05/01/2008 18:55      15.0   8.0  16.2  15.0  63  1021   ---   WSW     5     5   ---   --- /
06/01/2008 06:55      12.0   8.0  14.1  12.0  77  1023   ---     N     0     0   ---   --- /
06/01/2008 07:55      12.0   8.0  14.1  10.1  77  1023   ---   ENE     6     6   ---   0.7 Scattered Clouds/
06/01/2008 08:55      14.0   9.0  15.8   8.7  72  1023   ---     W    13    13   ---   0.7 Scattered Clouds/
06/01/2008 10:55      17.0   9.0  18.0  10.4  59  1024   ---     W    19    19   ---   0.7 Few Clouds/
06/01/2008 11:55      18.0  10.0  19.0  12.6  60  1024   ---   SSW    16    16   ---   0.7 Few Clouds/
06/01/2008 12:55      18.0   9.0  18.8  12.6  56  1023   ---    SW    16    16   ---   0.7 Few Clouds/
06/01/2008 13:55      18.0   8.0  18.6  11.8  52  1022   ---    SW    19    19   ---   0.7 Few Clouds/
06/01/2008 14:55      18.0   9.0  18.8  15.5  56  1022   ---   SSW     8     8   ---   0.7 Few Clouds/
06/01/2008 15:55      17.0   9.0  18.0  17.0  59  1022   ---    SW     5     5   ---   --- /
06/01/2008 16:55      15.0   9.0  16.5  10.0  67  1022   ---     W    13    13   ---   --- /
06/01/2008 17:55      14.0   8.0  15.5  10.8  67  1023   ---   SSW     8     8   ---   --- /
06/01/2008 18:55      13.0   8.0  14.8   9.7  72  1023   ---     W     8     8   ---   --- /
07/01/2008 06:55      13.0   9.0  15.1  11.2  77  1023   ---     S     6     6   ---   --- /
07/01/2008 07:55      12.0   8.0  14.1   7.7  77  1023   ---     S    10    10   ---   --- /
07/01/2008 08:55      13.0   9.0  15.1  13.0  77  1023   ---     N     0     0   ---   0.9 Scattered Clouds/
07/01/2008 09:55      16.0   9.0  17.2  16.0  63  1023   ---   ESE     5     5   ---   0.9 Scattered Clouds/
07/01/2008 11:55      18.0  11.0  19.2  10.8  64  1023   ---     W    26    26   ---   0.9 Few Clouds/
07/01/2008 12:55      18.0  12.0  19.5  13.2  68  1022   ---     W    14    14   ---   0.9 Few Clouds/
07/01/2008 13:55      19.0  12.0  20.2  13.2  64  1022   ---     W    19    19   ---   0.9 Broken Clouds/
07/01/2008 14:55      18.0  12.0  19.5  13.2  68  1022   ---     W    14    14   ---   0.7 Broken Clouds/
07/01/2008 15:55      17.0  12.0  18.8  11.9  72  1021   ---     W    14    14   ---   0.7 Broken Clouds/
07/01/2008 16:55      16.0  12.0  18.1  13.2  77  1021   ---     W     8     8   ---   0.7 Broken Clouds/
07/01/2008 17:55      16.0  11.0  17.8  14.4  72  1021   ---    SW     6     6   ---   0.7 Broken Clouds/
07/01/2008 18:55      14.0  10.0  16.1  14.0  77  1021   ---     W     5     5   ---   --- /
07/01/2008 15:55      17.0  12.0  18.8  11.9  72  1021   ---     W    14    14   ---   0.7 Broken Clouds/
08/01/2008 06:55      12.0   8.0  14.1  12.0  77  1021   ---     W     3     3   ----32740.6 Few Clouds/
08/01/2008 07:55      12.0   8.0  14.1  10.1  77  1021   ---   WSW     6     6   ----32740.6 Few Clouds/
08/01/2008 08:55      13.0   9.0  15.1  11.2  77  1022   ---   WSW     6     6   ----32740.6 Few Clouds/
08/01/2008 10:55      16.0  11.0  17.8  13.2  72  1022   ---   NNE     8     8   ----32740.6 Few Clouds/
08/01/2008 11:55      17.0  12.0  18.8  15.5  72  1021   ---     E     6     6   ---   0.6 Scattered Clouds/
08/01/2008 12:55      16.0  12.0  18.1  11.3  77  1021   ---     E    13    13   ---   0.6 Scattered Clouds/
08/01/2008 13:55      16.0  12.0  18.1  11.3  77  1021   ---     E    13    13   ---   0.6 Scattered Clouds/
08/01/2008 14:55      16.0  12.0  18.1  14.4  77  1021   ---     E     6     6   ---   0.6 Scattered Clouds/
08/01/2008 15:55      15.0  12.0  17.5  15.0  82  1020   ---    SE     5     5   ---   0.4 Scattered Clouds/
08/01/2008 16:55      14.0  10.0  16.1  14.0  77  1020   ---     N     0     0   ---   0.4 Scattered Clouds/
08/01/2008 17:55      13.0  10.0  15.5  13.0  82  1020   ---   ---     0     0   ---   0.0 Broken Clouds/
08/01/2008 18:55      13.0  10.0  15.5  13.0  82  1021   ---   ---     0     0   ---   0.0 Broken Clouds/
08/01/2008 12:55      16.0  12.0  18.1  11.3  77  1021   ---     E    13    13   ---   0.6 Scattered Clouds/
08/01/2008 18:55      13.0  10.0  15.5  13.0  82  1021   ---     N     0     0   ---   0.0 Broken Clouds/
09/01/2008 06:55      10.0   8.0  12.9   6.2  87  1021   ---   WSW     8     8   ----32740.6 Scattered Clouds/
09/01/2008 07:55      10.0   8.0  12.9   7.9  87  1021   ---   WSW     6     6   ----32740.6 Scattered Clouds/
09/01/2008 08:55      12.0   9.0  14.5  12.0  82  1022   ---     N     0     0   ----32741.2 Scattered Clouds/
09/01/2008 10:55      16.0  11.0  17.8  16.0  72  1022   ---   ---     0     0   ----32741.2 Scattered Clouds/
09/01/2008 11:55      17.0  10.0  18.2  15.5  63  1022   ---     E     6     6   ----32741.2 Scattered Clouds/
09/01/2008 12:55      17.0  11.0  18.5  13.8  68  1022   ---     E    10    10   ----32741.2 Scattered Clouds/
09/01/2008 13:55      16.0  11.0  17.8  13.2  72  1021   ---   ESE     8     8   ---   0.7 Few Clouds/
09/01/2008 14:55      16.0  12.0  18.1  16.0  77  1021   ---     E     3     3   ---   0.7 Scattered Clouds/
09/01/2008 15:55      16.0  12.0  18.1  16.0  77  1021   ---     N     0     0   ---   0.7 Broken Clouds/
09/01/2008 16:55      15.0  11.0  17.1  15.0  77  1022   ---   ---     0     0   ---   0.7 Broken Clouds/
09/01/2008 17:55      14.0  11.0  16.5  14.0  82  1022   ---   ---     0     0   ---   0.7 Broken Clouds/
09/01/2008 18:55      13.0  11.0  15.9  13.0  88  1022   ---    SW     5     5   ---   0.7 Broken Clouds/
10/01/2008 06:55      12.0  10.0  14.9  12.0  88  1024   ---   SSW     3     3   ---   0.9 Scattered Clouds/
10/01/2008 07:55      12.0  10.0  14.9   8.5  88  1024   ---   WSW     8     8   ---   0.9 Broken Clouds/
10/01/2008 08:55      13.0  11.0  15.9  11.2  88  1025   ---    SW     6     6   ---   0.9 Broken Clouds/
10/01/2008 10:55      16.0  11.0  17.8  16.0  72  1025   ---     N     0     0   ----32740.7 Scattered Clouds/
10/01/2008 11:55      16.0  11.0  17.8  16.0  72  1025   ---   ---     0     0   ----32740.7 Broken Clouds/
10/01/2008 12:55      17.0  12.0  18.8  13.8  72  1025   ---   ENE    10    10   ---   0.7 Scattered Clouds/
10/01/2008 13:55      17.0  12.0  18.8  14.3  72  1025   ---     E     8     8   ---   0.7 Scattered Clouds/
10/01/2008 14:55      16.0  12.0  18.1  13.2  77  1025   ---   ESE     8     8   ---   0.7 Broken Clouds/
10/01/2008 15:55      15.0  12.0  17.5  15.0  82  1024   ---     N     0     0   ---   0.7 Broken Clouds/
10/01/2008 16:55      15.0  12.0  17.5  15.0  82  1025   ---   ---     0     0   ---   0.7 Broken Clouds/
10/01/2008 17:55      13.0  11.0  15.9  13.0  88  1025   ---    SW     5     5   ---   0.7 Broken Clouds/
10/01/2008 18:55      13.0  11.0  15.9  13.0  88  1025   ---    SW     5     5   ---   0.7 Broken Clouds/
11/01/2008 06:55      11.0   9.0  13.9   7.3  87  1024   ---    SW     8     8   ----3274--- Scattered Clouds/
11/01/2008 07:55      11.0   8.0  13.5   6.5  82  1024   ---     W    10    10   ----3274--- Broken Clouds/
11/01/2008 08:55      12.0   9.0  14.5   8.5  82  1024   ---   WSW     8     8   ----3274--- Broken Clouds/
11/01/2008 10:55      16.0  10.0  17.5  16.0  68  1025   ---     N     0     0   ---   0.7 Scattered Clouds/
11/01/2008 11:55      18.0  10.0  19.0  18.0  60  1024   ---   ---     0     0   ---   0.7 Scattered Clouds/
11/01/2008 12:55      18.0  10.0  19.0  18.0  60  1023   ---   ---     0     0   ---   0.7 Scattered Clouds/
11/01/2008 13:55      18.0  11.0  19.2  15.0  64  1023   ---   ENE    10    10   ---   0.7 Broken Clouds/
11/01/2008 14:55      16.0  10.0  17.5  14.4  68  1023   ---     E     6     6   ---   0.7 Broken Clouds/
11/01/2008 15:55      15.0  11.0  17.1  15.0  77  1023   ---     N     0     0   ---   0.7 Broken Clouds/
11/01/2008 18:55      12.0   8.0  14.1   8.5  77  1023   ---    SW     8     8   ----32740.9 Few Clouds/
12/01/2008 07:55      14.0   8.0  15.5   6.9  67  1019   ---     S    18    18   ----32740.6 Scattered Clouds/
12/01/2008 08:55      15.0   7.0  15.9   8.2  59  1019   ---     S    18    18   ---   --- /
12/01/2008 10:55      16.0   9.0  17.2   7.6  63  1019   ---   SSW    27    27   ---   0.7 Few Clouds/
12/01/2008 11:55      17.0  10.0  18.2   9.3  63  1017   ---     W    26    26   ---   0.7 Scattered Clouds/
12/01/2008 13:55      16.0  10.0  17.5   7.2  68  1016   ---   WSW    31    53   ---   0.7 Broken Clouds/
12/01/2008 14:55      16.0  11.0  17.8   9.0  72  1015   ---   SSW    19    19   ---   0.7 Scattered Clouds/
12/01/2008 15:55      16.0  10.0  17.5  14.4  68  1015   ---   NNE     6     6   ---   0.7 Broken Clouds/
12/01/2008 16:55      15.0  10.0  16.8   6.4  72  1015   ---   WSW    26    26   ---   0.7 Broken Clouds/
12/01/2008 18:55      13.0  10.0  15.5   3.4  82  1016   ---     W    26    26   ---   0.7 Broken Clouds/
12/01/2008 13:55      16.0  10.0  17.5   7.2  68  1016   ---   WSW    31    53   ---   0.7 Broken Clouds/
13/01/2008 06:55      10.0   4.0  11.4   5.3  66  1018   ---   SSW    10    10   ---   0.7 Scattered Clouds/
13/01/2008 07:55      10.0   4.0  11.4   5.3  66  1019   ---   WSW    10    10   ---   0.7 Scattered Clouds/
13/01/2008 08:55      11.0   6.0  12.7   2.7  71  1019   ---     S    18    18   ---   0.8 Scattered Clouds/
13/01/2008 10:55      11.0   8.0  13.5   2.7  82  1021   ---   WSW    18    18   ---   0.7 Broken Clouds/
13/01/2008 11:55      11.0   7.0  13.1   6.5  76  1020   ---     S    10    10   ---   0.7 Broken Clouds/
13/01/2008 12:55      12.0   7.0  13.7   1.6  71  1020   ---    SW    27    27   ---   0.8 Broken Clouds/
13/01/2008 13:55      12.0   6.0  13.4   3.0  67  1018   ---     S    21    21   ---   0.8 Scattered Clouds/
13/01/2008 14:55      13.0   6.0  14.2   8.9  62  1018   ---   SSW    10    10   ---   0.8 Few Clouds/
13/01/2008 15:55      12.0   6.0  13.4   7.7  67  1018   ---    SW    10    10   ---   0.8 Scattered Clouds/
13/01/2008 17:55      10.0   7.0  12.5   2.7  82  1019   ---    SW    14    14   ---   --- Overcast/ Light Rain
13/01/2008 18:55       8.0   6.0  10.9   2.9  87  1019   ---   WSW    10    10   ---   0.7 Few Clouds/
13/01/2008 08:55      11.0   6.0  12.7   2.7  71  1019   ---     S    18    18   ---   0.8 Scattered Clouds/
14/01/2008 08:55      13.0   8.0  14.8  11.2  72  1020   ---     S     6     6   ---   0.8 Scattered Clouds/
14/01/2008 11:55      16.0   8.0  16.9   9.9  59  1021   ---     W    16    16   ---   0.8 Scattered Clouds/
14/01/2008 13:55      15.0   8.0  16.2  15.0  63  1020   ---     E     5     5   ---   0.8 Scattered Clouds/
14/01/2008 14:55      14.0   9.0  15.8  10.1  72  1020   ---   SSE    10    10   ---   0.8 Scattered Clouds/
14/01/2008 15:55      13.0   8.0  14.8  11.2  72  1020   ---   SSE     6     6   ---   0.8 Scattered Clouds/
14/01/2008 17:55      12.0   9.0  14.5  12.0  82  1020   ---     N     0     0   ---   0.8 Broken Clouds/
14/01/2008 18:55      11.0   8.0  13.5  11.0  82  1021   ---   SSW     5     5   ---   0.7 Broken Clouds/
14/01/2008 14:55      14.0   9.0  15.8  10.1  72  1020   ---   SSE    10    10   ---   0.8 Scattered Clouds/
14/01/2008 18:55      11.0   8.0  13.5  11.0  82  1021   ---   SSW     5     5   ---   0.7 Broken Clouds/
15/01/2008 06:55       8.0   4.0  10.0   5.7  76  1020   ---   WSW     6     6   ----3274--- Scattered Clouds/
15/01/2008 07:55       8.0   4.0  10.0   3.8  76  1020   ---   WSW     8     8   ----32741.2 Broken Clouds/
15/01/2008 08:55      10.0   5.0  11.7   7.9  71  1020   ---     W     6     6   ----32741.2 Broken Clouds/
15/01/2008 09:55      13.0   6.0  14.2  13.0  62  1021   ---     N     0     0   ----32741.2 Scattered Clouds/
15/01/2008 10:55      15.0   5.0  15.5  15.0  51  1020   ---   ---     0     0   ----32741.2 Broken Clouds/
15/01/2008 11:55      16.0   7.0  16.7  16.0  55  1020   ---     E     3     3   ----32741.2 Broken Clouds/
15/01/2008 13:55      16.0   9.0  17.2  14.4  63  1019   ---   ESE     6     6   ---   0.7 Broken Clouds/
15/01/2008 14:55      16.0  10.0  17.5  13.2  68  1019   ---   ESE     8     8   ---   0.7 Broken Clouds/
15/01/2008 16:55      14.0   9.0  15.8  14.0  72  1019   ---   WSW     5     5   ----3274--- Scattered Clouds/
15/01/2008 17:55      12.0   8.0  14.1  12.0  77  1019   ---   WSW     5     5   ----3274--- Scattered Clouds/
15/01/2008 18:55      11.0   8.0  13.5   7.3  82  1019   ---   WSW     8     8   ---   --- /
16/01/2008 07:55      12.0   4.0  12.9   8.5  58  1017   ---   ESE     8     8   ---   0.7 Few Clouds/
16/01/2008 08:55      13.0   6.0  14.2  13.0  62  1017   ---   WSW     3     3   ---   0.7 Broken Clouds/
16/01/2008 10:55      14.0   8.0  15.5  10.1  67  1018   ---   SSW    10    10   ----3274--- Broken Clouds/
16/01/2008 10:55      14.0   8.0  15.5  10.1  67  1018   ---   SSW    10    10   ---   1.0 Broken Clouds/None reported
16/01/2008 11:55      14.0   8.0  15.5   5.8  67  1017   ---    SW    21    21   ---   0.9 Broken Clouds/
16/01/2008 13:55      15.0   8.0  16.2   7.6  63  1014   ---    SW    19    19   ----3274--- Broken Clouds/
16/01/2008 14:55      15.0   9.0  16.5   7.6  67  1014   ---    SW    19    19   ---   0.7 Broken Clouds/
16/01/2008 16:55      15.0   8.0  16.2   8.2  63  1013   ---    SW    18    18   ----3274--- Broken Clouds/
16/01/2008 17:55      14.0   8.0  15.5  10.1  67  1013   ---    SW    10    10   ----3274--- Scattered Clouds/
16/01/2008 16:55      15.0   8.0  16.2   8.2  63  1013   ---    SW    18    18   ----3274--- Broken Clouds/
16/01/2008 17:55      14.0   8.0  15.5  10.1  67  1013   ---    SW    10    10   ----3274--- Scattered Clouds/
17/01/2008 06:55      12.0   9.0  14.5  12.0  82  1011   ---   SSW     3     3   ---   --- Overcast/ Light Rain
17/01/2008 07:55      11.0   9.0  13.9  11.0  87  1011   ---     N     0     0   ---   --- Overcast/ Light Rain
17/01/2008 09:55      11.0   9.0  13.9  11.0  87  1013   ---   ---     0     0   ---   0.7 Overcast/
17/01/2008 11:55      12.0   9.0  14.5  12.0  82  1013   ---   ESE     5     5   ---   0.7 Overcast/
17/01/2008 12:55      13.0   8.0  14.8  13.0  72  1013   ---     N     0     0   ---   0.7 Overcast/
17/01/2008 13:55      13.0   9.0  15.1  11.2  77  1013   ---     N     6     6   ---   --- Overcast/ Light Rain
17/01/2008 14:55      11.0   9.0  13.9   7.3  87  1013   ---     N     8     8   ---   --- Overcast/ Light Rain
17/01/2008 16:55      11.0   9.0  13.9   6.5  87  1014   ---   SSW    10    10   ---   0.4 Overcast/
17/01/2008 17:55      11.0   9.0  13.9  11.0  87  1014   ---     N     0     0   ---   0.4 Broken Clouds/
17/01/2008 18:55      11.0   9.0  13.9  11.0  87  1015   ---   ---     0     0   ---   0.4 Overcast/
17/01/2008 17:55      11.0   9.0  13.9  11.0  87  1014   ---   ---     0     0   ---   0.4 Broken Clouds/
17/01/2008 18:55      11.0   9.0  13.9  11.0  87  1015   ---   ---     0     0   ---   0.4 Overcast/
18/01/2008 06:55       9.0   6.0  11.5   5.0  81  1018   ---   WSW     8     8   ---   0.7 Scattered Clouds/
18/01/2008 08:55      10.0   8.0  12.9   7.9  87  1019   ---     W     6     6   ---   0.7 Scattered Clouds/
18/01/2008 10:55      15.0  10.0  16.8  13.3  72  1021   ---     E     6     6   ---   0.7 Broken Clouds/
18/01/2008 11:55      14.0  10.0  16.1   7.2  77  1021   ---   NNE    16    16   ---   0.7 Broken Clouds/
18/01/2008 12:55      13.0  10.0  15.5  11.2  82  1021   ---   NNW     6     6   ---   --- Overcast/ Light Rain
18/01/2008 13:55      13.0  10.0  15.5   8.9  82  1021   ---     N    10    10   ---   0.7 Broken Clouds/
18/01/2008 14:55      13.0   9.0  15.1   8.9  77  1021   ---     N    10    10   ---   0.7 Broken Clouds/
18/01/2008 15:55      13.0  10.0  15.5  11.2  82  1021   ---     N     6     6   ---   0.7 Broken Clouds/
18/01/2008 16:55      13.0   9.0  15.1  11.2  77  1022   ---     N     6     6   ---   0.7 Broken Clouds/
18/01/2008 17:55      12.0  10.0  14.9  12.0  88  1022   ---     W     5     5   ---   0.7 Broken Clouds/
18/01/2008 18:55      11.0   9.0  13.9  11.0  87  1023   ---     N     0     0   ---   0.7 Broken Clouds/
19/01/2008 06:55      10.0   7.0  12.5   3.6  82  1026   ---   WSW    13    13   ---   0.6 Broken Clouds/
19/01/2008 07:55      10.0   8.0  12.9   5.3  87  1026   ---   WSW    10    10   ---   0.7 Scattered Clouds/
19/01/2008 08:55      12.0   9.0  14.5  12.0  82  1027   ---   WSW     5     5   ---   0.7 Few Clouds/
19/01/2008 11:55      16.0  10.0  17.5  16.0  68  1027   ---     N     0     0   ---   0.7 Scattered Clouds/
19/01/2008 12:55      16.0  10.0  17.5  16.0  68  1027   ---   ---     0     0   ---   0.7 Scattered Clouds/
19/01/2008 13:55      15.0  10.0  16.8  11.3  72  1027   ---   WSW    10    10   ---   0.6 Scattered Clouds/
19/01/2008 14:55      14.0  10.0  16.1   8.7  77  1027   ---   NNE    13    13   ---   0.6 Scattered Clouds/
19/01/2008 15:55      13.0   9.0  15.1   8.9  77  1027   ---   NNE    10    10   ---   0.6 Scattered Clouds/
19/01/2008 17:55      11.0   8.0  13.5  11.0  82  1028   ---     N     0     0   ---   0.6 Scattered Clouds/
19/01/2008 18:55      11.0   8.0  13.5  11.0  82  1028   ---   ---     0     0   ---   0.6 Broken Clouds/
20/01/2008 06:55      10.0   7.0  12.5   5.3  82  1028   ---    SW    10    10   ---   0.5 Scattered Clouds/
20/01/2008 07:55      10.0   7.0  12.5  10.0  82  1028   ---    SW     5     5   ---   0.5 Scattered Clouds/
20/01/2008 08:55      11.0   8.0  13.5   9.0  82  1029   ---   WSW     6     6   ---   0.5 Few Clouds/
20/01/2008 09:55      14.0   9.0  15.8  14.0  72  1029   ---     N     0     0   ---   0.5 Few Clouds/
20/01/2008 11:55      15.0  10.0  16.8  13.3  72  1029   ---   ESE     6     6   ---   0.6 Scattered Clouds/
20/01/2008 12:55      16.0  10.0  17.5  13.2  68  1029   ---     E     8     8   ---   0.6 Scattered Clouds/
20/01/2008 13:55      15.0  10.0  16.8  12.0  72  1029   ---     E     8     8   ---   0.6 Scattered Clouds/
20/01/2008 14:55      15.0  11.0  17.1  12.0  77  1028   ---   SSE     8     8   ---   0.6 Scattered Clouds/
20/01/2008 15:55      14.0  10.0  16.1  12.3  77  1028   ---   ESE     6     6   ---   0.6 Few Clouds/
20/01/2008 16:55      13.0  10.0  15.5  13.0  82  1028   ---     E     3     3   ---   0.5 Scattered Clouds/
20/01/2008 18:55      12.0   9.0  14.5  12.0  82  1029   ---   WSW     5     5   ---   0.4 Few Clouds/
21/01/2008 06:55       9.0   6.0  11.5   2.3  81  1028   ---   WSW    13    13   ---   0.6 Broken Clouds/
21/01/2008 07:55      10.0   7.0  12.5   6.2  82  1028   ---   WSW     8     8   ---   0.6 Broken Clouds/
21/01/2008 08:55      11.0   8.0  13.5   4.9  82  1029   ---    SW    13    13   ---   0.7 Scattered Clouds/
21/01/2008 09:55      13.0   9.0  15.1  11.2  77  1029   ---    SW     6     6   ---   0.7 Few Clouds/
21/01/2008 11:55      15.0   9.0  16.5  15.0  67  1028   ---     N     0     0   ---   --- /
21/01/2008 12:55      15.0  10.0  16.8  11.3  72  1027   ---     E    10    10   ---   --- /
21/01/2008 13:55      15.0  10.0  16.8   9.3  72  1027   ---     E    14    14   ---   --- /
21/01/2008 14:55      14.0  10.0  16.1  10.1  77  1026   ---     E    10    10   ---   0.7 Few Clouds/
21/01/2008 15:55      13.0   9.0  15.1  11.2  77  1026   ---   ESE     6     6   ---   0.7 Broken Clouds/
21/01/2008 17:55      12.0   9.0  14.5  12.0  82  1026   ---   ESE     5     5   ---   0.7 Broken Clouds/
21/01/2008 18:55      12.0   9.0  14.5  12.0  82  1026   ---     N     0     0   ---   0.7 Broken Clouds/
22/01/2008 06:55       9.0   7.0  11.9   9.0  87  1020   ---   ---     0     0   ---   0.7 Broken Clouds/
22/01/2008 07:55      10.0   7.0  12.5  10.0  82  1019   ---   ---     0     0   ---   0.7 Broken Clouds/
22/01/2008 08:55      11.0   7.0  13.1  11.0  76  1019   ---   ---     0     0   ---   0.7 Broken Clouds/
22/01/2008 09:55      13.0   8.0  14.8   8.9  72  1018   ---     W    10    10   ---   0.7 Broken Clouds/
22/01/2008 12:55      16.0  10.0  17.5  10.6  68  1015   ---     S    14    14   ---   0.8 Scattered Clouds/
22/01/2008 13:55      17.0  10.0  18.2  11.0  63  1012   ---     S    18    18   ---   0.8 Scattered Clouds/
22/01/2008 14:55      17.0  10.0  18.2  11.0  63  1012   ---   WNW    18    18   ---   0.8 Broken Clouds/
22/01/2008 16:55      15.0   9.0  16.5   4.7  67  1010   ---   WNW    40    66   ---   0.7 Broken Clouds/
22/01/2008 17:55      14.0   9.0  15.8   3.3  72  1010   ---   WNW    39    39   ---   0.7 Broken Clouds/
22/01/2008 18:55      14.0  11.0  16.5   3.4  82  1010   ---   WNW    37    37   ---   0.7 Broken Clouds/
22/01/2008 18:55      14.0  11.0  16.5   3.4  82  1010   ---   WNW    37    37   ---   0.7 Broken Clouds/None reported
23/01/2008 06:55      12.0   8.0  14.1   0.8  77  1011   ---   NNE    32    63   ---   0.6 Broken Clouds/
23/01/2008 07:55      11.0   7.0  13.1   0.4  76  1012   ---   NNE    26    43   ---   0.6 Broken Clouds/
23/01/2008 08:55      11.0   5.0  12.4   1.1  66  1013   ---   NNE    23    23   ---   0.6 Broken Clouds/
23/01/2008 10:55      12.0   4.0  12.9   1.6  58  1014   ---   NNE    27    45   ---   0.7 Broken Clouds/
23/01/2008 11:55      12.0   5.0  13.1   2.6  62  1015   ---    NE    23    23   ---   0.7 Broken Clouds/
23/01/2008 12:55      13.0   6.0  14.2   2.9  62  1015   ---    NE    29    53   ---   0.7 Scattered Clouds/
23/01/2008 13:55      11.0   4.0  12.1   0.1  62  1015   ---     N    27    27   ---   0.7 Scattered Clouds/
23/01/2008 14:55      11.0   5.0  12.4   0.1  66  1015   ---   NNE    27    27   ---   0.7 Scattered Clouds/
23/01/2008 15:55      11.0   5.0  12.4   1.5  66  1015   ---   NNE    21    21   ---   0.7 Broken Clouds/
23/01/2008 16:55      11.0   5.0  12.4   0.4  66  1016   ---   NNE    26    43   ---   0.7 Broken Clouds/
23/01/2008 17:55      11.0   4.0  12.1  -0.1  62  1017   ---   NNE    29    51   ---   0.7 Broken Clouds/
23/01/2008 18:55      11.0   5.0  12.4  -1.3  66  1018   ---   NNE    37    58   ---   0.7 Broken Clouds/
23/01/2008 16:55      11.0   5.0  12.4   0.4  66  1016   ---   NNE    26    43   ---   0.7 Broken Clouds/
24/01/2008 06:55       9.0   4.0  10.7   0.4  71  1022   ---     W    16    16   ---   0.7 Scattered Clouds/
24/01/2008 07:55      10.0   4.0  11.4   5.3  66  1023   ---     E    10    10   ---   0.7 Scattered Clouds/
24/01/2008 09:55      12.0   5.0  13.1   5.3  62  1024   ---   ENE    14    14   ---   0.7 Scattered Clouds/
24/01/2008 11:55      12.0   6.0  13.4   5.3  67  1025   ---   ENE    14    14   ---   0.7 Scattered Clouds/
24/01/2008 12:55      12.0   6.0  13.4   4.1  67  1025   ---    NE    18    18   ---   0.7 Scattered Clouds/
24/01/2008 13:55      12.0   6.0  13.4   5.3  67  1025   ---   ENE    14    14   ---   0.7 Scattered Clouds/
24/01/2008 14:55      12.0   6.0  13.4   6.2  67  1025   ---   ENE    13    13   ---   0.7 Scattered Clouds/
24/01/2008 15:55      12.0   6.0  13.4   5.3  67  1026   ---   ENE    14    14   ---   0.7 Scattered Clouds/
24/01/2008 16:55      11.0   7.0  13.1   4.9  76  1026   ---   ENE    13    13   ---   0.7 Scattered Clouds/
24/01/2008 17:55      11.0   7.0  13.1  11.0  76  1026   ---     E     5     5   ---   0.7 Scattered Clouds/
24/01/2008 18:55      11.0   8.0  13.5  11.0  82  1027   ---     N     0     0   ---   0.7 Broken Clouds/
25/01/2008 06:55       8.0   5.0  10.5   2.9  81  1029   ---   WSW    10    10   ---   --- /
25/01/2008 07:55       8.0   5.0  10.5   8.0  81  1029   ---   WSW     3     3   ---   0.7 Scattered Clouds/
25/01/2008 09:55      10.0   7.0  12.5  10.0  82  1030   ---     N     0     0   ---   0.7 Broken Clouds/
25/01/2008 10:55      12.0   7.0  13.7  10.1  71  1030   ---     N     6     6   ---   0.7 Broken Clouds/
25/01/2008 11:55      12.0   7.0  13.7   7.7  71  1030   ---     N    10    10   ---   0.7 Broken Clouds/
25/01/2008 12:55      13.0   8.0  14.8  13.0  72  1030   ---     N     5     5   ---   0.7 Broken Clouds/
25/01/2008 13:55      13.0   8.0  14.8   7.4  72  1030   ---     N    13    13   ---   0.7 Scattered Clouds/
25/01/2008 14:55      12.0   7.0  13.7   5.3  71  1029   ---     N    14    14   ---   0.6 Scattered Clouds/
25/01/2008 15:55      12.0   6.0  13.4   5.3  67  1029   ---     N    14    14   ---   0.6 Scattered Clouds/
25/01/2008 16:55      11.0   6.0  12.7   6.5  71  1029   ---     N    10    10   ---   0.6 Scattered Clouds/
25/01/2008 17:55      11.0   7.0  13.1  11.0  76  1030   ---    NW     3     3   ---   0.6 Scattered Clouds/
25/01/2008 18:55       9.0   6.0  11.5   9.0  81  1030   ---   WNW     3     3   ---   0.6 Scattered Clouds/
25/01/2008 06:55       8.0   5.0  10.5   2.9  81  1029   ---   WSW    10    10   ---   --- /
25/01/2008 10:55      12.0   7.0  13.7  10.1  71  1030   ---     N     6     6   ---   0.7 Broken Clouds/
26/01/2008 06:55       8.0   4.0  10.0   3.8  76  1031   ---    SW     8     8   ---   0.9 Scattered Clouds/
26/01/2008 07:55       8.0   4.0  10.0   5.7  76  1031   ---     W     6     6   ---   0.9 Scattered Clouds/
26/01/2008 08:55      10.0   6.0  12.1   7.9  76  1031   ---   SSW     6     6   ----32740.7 Scattered Clouds/
26/01/2008 10:55      13.0   7.0  14.4  13.0  67  1031   ---     N     0     0   ----32740.7 Scattered Clouds/
26/01/2008 11:55      14.0   7.0  15.2  12.3  63  1031   ---    NE     6     6   ----32740.7 Scattered Clouds/
26/01/2008 12:55      14.0   7.0  15.2   8.7  63  1031   ---     N    13    13   ----32740.7 Scattered Clouds/
26/01/2008 13:55      14.0   6.0  14.9  10.8  59  1031   ---   NNW     8     8   ----32740.7 Scattered Clouds/
26/01/2008 14:55      14.0   7.0  15.2  12.3  63  1031   ---     E     6     6   ----32740.7 Scattered Clouds/
26/01/2008 15:55      13.0   8.0  14.8  11.2  72  1031   ---     E     6     6   ----32740.7 Scattered Clouds/
26/01/2008 16:55      12.0   7.0  13.7  12.0  71  1031   ---     N     0     0   ----32740.7 Scattered Clouds/
26/01/2008 17:55      10.0   6.0  12.1   7.9  76  1031   ---    SW     6     6   ----32740.9 Scattered Clouds/
26/01/2008 18:55       9.0   5.0  11.1   4.1  76  1031   ---    SW    10    10   ----32740.9 Scattered Clouds/
26/01/2008 14:55      14.0   7.0  15.2  12.3  63  1031   ---     E     6     6   ----32740.9 Scattered Clouds/
27/01/2008 06:55       7.0   1.0   8.4   7.0  66  1030   ---   WSW     5     5   ---   --- /
27/01/2008 07:55       8.0   3.0   9.7   1.0  71  1031   ---    SW    13    13   ---   --- /
27/01/2008 08:55      10.0   4.0  11.4   5.3  66  1031   ---    SW    10    10   ---   0.6 Few Clouds/
27/01/2008 09:55      13.0   8.0  14.8  13.0  72  1031   ---     N     0     0   ---   0.6 Few Clouds/
27/01/2008 11:55      14.0   6.0  14.9  10.8  59  1030   ---    NE     8     8   ---   0.6 Few Clouds/
27/01/2008 12:55      15.0   2.0  15.0  10.0  41  1029   ---     E    13    13   ----32740.9 Few Clouds/
27/01/2008 13:55      15.0   2.0  15.0  10.0  41  1029   ---   NNW    13    13   ----32740.9 Few Clouds/
27/01/2008 14:55      15.0   0.0  14.8   9.3  36  1028   ---   NNW    14    14   ----32740.9 Scattered Clouds/
27/01/2008 15:55      14.0   2.0  14.2   8.0  44  1028   ---   NNW    14    14   ----32740.9 Broken Clouds/
27/01/2008 16:55      13.0   0.0  13.0  13.0  41  1028   ---     N     0     0   ----32744180.0 Broken Clouds/
27/01/2008 17:55      11.0   1.0  11.4  11.0  50  1028   ---   ---     0     0   ----32740.9 Broken Clouds/
27/01/2008 18:55      10.0   2.0  10.9   6.2  58  1027   ---     W     8     8   ----32740.9 Broken Clouds/
28/01/2008 06:55       9.0   1.0   9.8   6.8  57  1023   ---    SW     6     6   ---   --- /
28/01/2008 07:55       9.0   2.0  10.1   9.0  62  1024   ---   WSW     5     5   ---   --- /
28/01/2008 09:55      15.0   5.0  15.5  15.0  51  1024   ---   ENE     5     5   ---   --- /
28/01/2008 11:55      16.0   7.0  16.7  13.2  55  1025   ---   ENE     8     8   ---   --- /
28/01/2008 12:55      16.0   7.0  16.7  13.2  55  1024   ---     E     8     8   ---   --- /
28/01/2008 13:55      16.0   9.0  17.2   9.9  63  1025   ---    NE    16    16   ---   --- /
28/01/2008 14:55      15.0  10.0  16.8   8.6  72  1025   ---   NNE    16    16   ---   --- /
28/01/2008 15:55      15.0  10.0  16.8   9.3  72  1025   ---    NE    14    14   ---   --- /
28/01/2008 16:55      14.0   9.0  15.8  14.0  72  1025   ---     N     0     0   ---   --- /
28/01/2008 17:55      12.0   9.0  14.5  12.0  82  1025   ---   SSW     5     5   ---   --- /
28/01/2008 18:55      11.0   8.0  13.5   7.3  82  1026   ---   WSW     8     8   ---   --- /
29/01/2008 06:55       9.0   6.0  11.5   4.1  81  1028   ---    SW    10    10   ---   --- /
29/01/2008 07:55       9.0   6.0  11.5   4.1  81  1028   ---     W    10    10   ---   --- /
29/01/2008 08:55      12.0   8.0  14.1  12.0  77  1028   ---   WSW     3     3   ---   --- /
29/01/2008 09:55      15.0   8.0  16.2  15.0  63  1029   ---     N     0     0   ---   --- /
29/01/2008 11:55      17.0   8.0  17.7  17.0  55  1029   ---   ESE     3     3   ---   --- /
29/01/2008 12:55      18.0   4.0  17.9  16.6  39  1028   ---   ESE     6     6   ---   --- /
29/01/2008 13:55      18.0   7.0  18.4  15.5  49  1028   ---   ESE     8     8   ---   --- /
29/01/2008 14:55      17.0   7.0  17.5  17.0  52  1028   ---     E     5     5   ---   --- /
29/01/2008 15:55      16.0   9.0  17.2  13.2  63  1028   ---   ESE     8     8   ---   --- /
29/01/2008 16:55      15.0   9.0  16.5  15.0  67  1028   ---    SW     5     5   ---   --- /
29/01/2008 17:55      13.0   8.0  14.8  13.0  72  1028   ---     N     0     0   ---   --- /
29/01/2008 18:55      12.0   8.0  14.1  12.0  77  1028   ---    SW     5     5   ---   --- /
30/01/2008 06:55      10.0   5.0  11.7   5.3  71  1027   ---   WSW    10    10   ---   --- /
30/01/2008 07:55      10.0   5.0  11.7   5.3  71  1027   ---   WSW    10    10   ---   --- /
30/01/2008 08:55      12.0   7.0  13.7  12.0  71  1027   ---     N     0     0   ---   --- /
30/01/2008 09:55      15.0   8.0  16.2  15.0  63  1028   ---   ---     0     0   ---   --- /
30/01/2008 11:55      18.0   7.0  18.4  15.5  49  1026   ---     E     8     8   ---   --- /
30/01/2008 12:55      18.0   7.0  18.4  15.0  49  1026   ---     E    10    10   ---   --- /
30/01/2008 13:55      19.0   8.0  19.4  16.7  49  1025   ---   WSW     8     8   ---   --- /
30/01/2008 14:55      17.0   8.0  17.7  12.5  55  1025   ---     E    13    13   ---   --- /
30/01/2008 15:55      16.0  10.0  17.5  13.2  68  1024   ---   ENE     8     8   ---   --- /
30/01/2008 16:55      15.0  10.0  16.8  15.0  72  1024   ---     N     0     0   ---   --- /
30/01/2008 17:55      13.0   9.0  15.1  13.0  77  1024   ---   ---     0     0   ---   --- /
30/01/2008 18:55      11.0   9.0  13.9   7.3  87  1025   ---     W     8     8   ---   --- /
31/01/2008 06:55      10.0  -2.0  10.1  10.0  43  1022   ---     N     0     0   ----3274--- Scattered Clouds/
31/01/2008 07:55      10.0  -1.0  10.3   7.9  46  1022   ---    SW     6     6   ---   --- /
31/01/2008 08:55      12.0   2.0  12.5  12.0  50  1023   ---    SW     5     5   ---   --- /
31/01/2008 09:55      15.0   5.0  15.5  13.3  51  1023   ---     W     6     6   ---   --- /
31/01/2008 10:55      16.0   7.0  16.7  13.2  55  1023   ---     W     8     8   ---   --- /
31/01/2008 11:55      16.0   8.0  16.9   8.4  59  1023   ---   WSW    23    23   ---   --- /
31/01/2008 12:55      16.0   8.0  16.9   8.7  59  1023   ---   WSW    21    21   ---   0.9 Few Clouds/
31/01/2008 13:55      16.0   8.0  16.9   8.4  59  1022   ---     W    23    23   ---   0.8 Few Clouds/
31/01/2008 14:55      15.0   8.0  16.2  11.3  63  1021   ---     W    10    10   ---   0.8 Broken Clouds/
31/01/2008 15:55      14.0   8.0  15.5  10.8  67  1021   ---    SW     8     8   ---   0.8 Broken Clouds/
31/01/2008 16:55      13.0   8.0  14.8   5.5  72  1021   ---   WSW    18    18   ---   0.8 Scattered Clouds/
31/01/2008 17:55      12.0   7.0  13.7   8.5  71  1021   ---     W     8     8   ---   0.8 Scattered Clouds/
31/01/2008 18:55      11.0   8.0  13.5   7.3  82  1021   ---    SW     8     8   ---   0.8 Scattered Clouds/
01/02/2008 06:55       9.0   5.0  11.1   9.0  76  1021   ---   WSW     5     5   ---   0.6 Few Clouds/
01/02/2008 07:55      10.0   6.0  12.1   6.2  76  1022   ---   WSW     8     8   ---   0.6 Few Clouds/
01/02/2008 08:55      12.0   6.0  13.4   5.3  67  1022   ---     W    14    14   ---   0.6 Few Clouds/
01/02/2008 09:55      13.0   5.0  13.9   8.9  58  1022   ---   SSW    10    10   ---   --- /
01/02/2008 11:55      15.0   5.0  15.5  15.0  51  1022   ---     N     0     0   ---   --- /
01/02/2008 12:55      15.0   4.0  15.3  12.0  48  1021   ---   ENE     8     8   ---   0.6 Few Clouds/
01/02/2008 13:55      14.0   5.0  14.7   8.7  55  1020   ---     E    13    13   ---   0.6 Scattered Clouds/
01/02/2008 14:55      14.0   6.0  14.9  14.0  59  1020   ---     E     5     5   ---   0.7 Scattered Clouds/
01/02/2008 15:55      13.0   8.0  14.8   8.9  72  1020   ---   ESE    10    10   ---   0.7 Few Clouds/
01/02/2008 16:55      12.0   7.0  13.7   7.7  71  1020   ---   WNW    10    10   ---   0.7 Scattered Clouds/
01/02/2008 17:55      12.0   7.0  13.7   8.5  71  1020   ---     W     8     8   ---   0.7 Scattered Clouds/
01/02/2008 18:55      11.0   7.0  13.1   7.3  76  1020   ---     S     8     8   ---   0.7 Scattered Clouds/
01/02/2008 18:55      11.0   7.0  13.1   7.3  76  1020   ---     S     8     8   ---   0.7 Scattered Clouds/None reported
02/02/2008 06:55      11.0   6.0  12.7   4.9  71  1018   ---     W    13    13   ---   0.7 Broken Clouds/
02/02/2008 07:55      11.0   7.0  13.1   4.9  76  1018   ---     W    13    13   ---   0.7 Broken Clouds/
02/02/2008 08:55      13.0   7.0  14.4   6.6  67  1018   ---     W    14    14   ---   0.7 Few Clouds/
02/02/2008 09:55      14.0   7.0  15.2   4.9  63  1018   ---   WSW    26    26   ---   0.7 Few Clouds/
02/02/2008 10:55      15.0   8.0  16.2   8.2  63  1018   ---   SSW    18    18   ---   0.7 Few Clouds/
02/02/2008 11:55      16.0   7.0  16.7   9.0  55  1018   ---   SSW    19    19   ---   0.7 Few Clouds/
02/02/2008 12:55      16.0   7.0  16.7   9.0  55  1017   ---     S    19    19   ---   0.7 Few Clouds/
02/02/2008 13:55      16.0   7.0  16.7   8.4  55  1017   ---     S    23    23   ---   0.7 Few Clouds/
02/02/2008 14:55      17.0   7.0  17.5  11.9  52  1016   ---   SSW    14    14   ---   0.7 Few Clouds/
02/02/2008 15:55      16.0   7.0  16.7  11.3  55  1016   ---     S    13    13   ---   --- /
02/02/2008 16:55      15.0   7.0  15.9  12.0  59  1016   ---    SW     8     8   ---   --- /
02/02/2008 17:55      14.0   7.0  15.2  14.0  63  1017   ---   WSW     5     5   ---   --- /
02/02/2008 18:55      13.0   7.0  14.4   8.9  67  1017   ---     W    10    10   ---   --- /
03/02/2008 06:55      10.0   4.0  11.4   7.9  66  1020   ---    SW     6     6   ----3274--- Scattered Clouds/
03/02/2008 07:55      10.0   4.0  11.4   7.9  66  1021   ---   WSW     6     6   ----3274--- Scattered Clouds/
03/02/2008 08:55      12.0   6.0  13.4  12.0  67  1021   ---     N     0     0   ----3274--- Scattered Clouds/
03/02/2008 10:55      15.0   8.0  16.2  15.0  63  1022   ---   ---     0     0   ----3274--- Broken Clouds/
03/02/2008 12:55      18.0   6.0  18.2  18.0  45  1022   ---   ---     0     0   ---   0.8 Broken Clouds/
03/02/2008 13:55      17.0   6.0  17.4  14.3  48  1021   ---     N     8     8   ---   0.8 Scattered Clouds/
03/02/2008 14:55      17.0   8.0  17.7  14.3  55  1020   ---   NNE     8     8   ---   0.8 Broken Clouds/
03/02/2008 15:55      16.0   8.0  16.9  13.2  59  1020   ---   NNE     8     8   ---   0.8 Scattered Clouds/
03/02/2008 16:55      16.0   8.0  16.9  14.4  59  1020   ---   NNE     6     6   ---   0.7 Scattered Clouds/
03/02/2008 17:55      15.0   8.0  16.2  13.3  63  1021   ---   NNE     6     6   ---   0.7 Scattered Clouds/
03/02/2008 18:55      13.0   9.0  15.1  13.0  77  1021   ---     N     0     0   ---   0.8 Scattered Clouds/
04/02/2008 06:55      11.0   3.0  11.9  11.0  58  1020   ---     W     5     5   ----3274--- Scattered Clouds/
04/02/2008 07:55      11.0   3.0  11.9  11.0  58  1020   ---     N     0     0   ----3274--- Broken Clouds/
04/02/2008 08:55      12.0   4.0  12.9  12.0  58  1021   ---     E     5     5   ---   0.9 Broken Clouds/
04/02/2008 09:55      15.0   5.0  15.5  15.0  51  1021   ---   NNW     5     5   ----3274--- Scattered Clouds/
04/02/2008 10:55      17.0   6.0  17.4  11.0  48  1021   ---   WSW    18    18   ---   0.8 Scattered Clouds/
04/02/2008 11:55      18.0   7.0  18.4  11.3  49  1020   ---   WSW    23    23   ----3274--- Few Clouds/
04/02/2008 12:55      19.0   5.0  18.9  13.0  40  1019   ---   WSW    21    45   ----3274--- Scattered Clouds/
04/02/2008 13:55      19.0   6.0  19.1  14.5  43  1018   ---    SW    14    14   ----3274--- Scattered Clouds/
04/02/2008 15:55      18.0   6.0  18.2  11.8  45  1018   ---   WSW    19    42   ----3274--- Scattered Clouds/
04/02/2008 16:55      17.0   4.0  17.1  14.3  42  1018   ---   WSW     8    40   ----3274--- Few Clouds/
04/02/2008 17:55      16.0   4.0  16.2   9.0  45  1018   ---   WSW    19    19   ---   --- /
04/02/2008 18:55      15.0   5.0  15.5   6.4  51  1018   ---     E    26    43   ---   --- /
05/02/2008 06:55      12.0   7.0  13.7   7.7  71  1020   ---   SSE    10    10   ---   0.7 Scattered Clouds/
05/02/2008 07:55      12.0   7.0  13.7   8.5  71  1021   ---   SSW     8     8   ---   0.7 Scattered Clouds/
05/02/2008 08:55      13.0   5.0  13.9   5.5  58  1022   ---   WNW    18    18   ---   0.7 Scattered Clouds/
05/02/2008 09:55      14.0   4.0  14.5   5.5  51  1022   ---   WNW    23    23   ---   0.7 Scattered Clouds/
05/02/2008 11:55      14.0   5.0  14.7   5.8  55  1022   ---   WNW    21    42   ---   0.7 Scattered Clouds/
05/02/2008 12:55      14.0   6.0  14.9   4.9  59  1022   ---   WNW    26    26   ---   0.6 Scattered Clouds/
05/02/2008 13:55      14.0   6.0  14.9   4.6  59  1022   ---    NW    27    27   ---   0.6 Scattered Clouds/
05/02/2008 14:55      13.0   7.0  14.4   4.0  67  1022   ---    NW    23    42   ---   0.6 Scattered Clouds/
05/02/2008 15:55      13.0   7.0  14.4   4.8  67  1022   ---   NNW    19    19   ---   0.6 Scattered Clouds/
05/02/2008 16:55      13.0   7.0  14.4   5.5  67  1023   ---   WNW    18    18   ---   0.6 Scattered Clouds/
05/02/2008 17:55      12.0   7.0  13.7   4.1  71  1023   ---   WNW    18    18   ---   0.6 Scattered Clouds/
05/02/2008 18:55      12.0   8.0  14.1   5.3  77  1024   ---   WNW    14    14   ---   0.6 Scattered Clouds/
06/02/2008 06:55       9.0   5.0  11.1   6.8  76  1026   ---     W     6     6   ---   0.7 Broken Clouds/
06/02/2008 07:55       9.0   6.0  11.5   9.0  81  1027   ---     W     5     5   ---   0.7 Scattered Clouds/
06/02/2008 08:55      12.0   7.0  13.7  12.0  71  1027   ---   WNW     5     5   ---   0.7 Scattered Clouds/
06/02/2008 11:55      15.0   7.0  15.9   9.3  59  1027   ---    NW    14    14   ---   0.7 Scattered Clouds/
06/02/2008 12:55      15.0   7.0  15.9   8.2  59  1027   ---    NW    18    18   ---   0.7 Scattered Clouds/
06/02/2008 13:55      14.0   8.0  15.5   6.9  67  1027   ---     N    18    18   ---   0.8 Scattered Clouds/
06/02/2008 14:55      14.0   8.0  15.5   6.9  67  1026   ---     N    18    18   ---   0.7 Scattered Clouds/
06/02/2008 15:55      14.0   7.0  15.2   6.2  63  1026   ---   NNW    19    19   ---   0.7 Scattered Clouds/
06/02/2008 16:55      12.0   7.0  13.7   6.2  71  1026   ---    NW    13    13   ---   0.7 Scattered Clouds/
06/02/2008 17:55      12.0   7.0  13.7   8.5  71  1027   ---    NW     8     8   ---   0.7 Scattered Clouds/
06/02/2008 18:55      11.0   8.0  13.5   7.3  82  1027   ---   WNW     8     8   ---   0.7 Scattered Clouds/
07/02/2008 06:55       8.0   3.0   9.7   8.0  71  1022   ---     N     0     0   ---   0.9 Few Clouds/
07/02/2008 07:55       9.0   5.0  11.1   4.1  76  1022   ---   WSW    10    10   ---   0.8 Broken Clouds/
07/02/2008 08:55      11.0   7.0  13.1  11.0  76  1021   ---   NNE     5     5   ---   0.8 Few Clouds/
07/02/2008 10:55      14.0   9.0  15.8   6.9  72  1022   ---   ESE    18    18   ---   0.7 Broken Clouds/
07/02/2008 11:55      14.0  10.0  16.1   4.4  77  1021   ---     W    29    29   ---   0.7 Broken Clouds/
07/02/2008 12:55      14.0  10.0  16.1   4.6  77  1020   ---   WNW    27    27   ---   0.7 Broken Clouds/
07/02/2008 13:55      13.0  10.0  15.5   2.4  82  1020   ---    NW    32    32   ---   0.6 Broken Clouds/
07/02/2008 14:55      13.0   9.0  15.1   1.8  77  1020   ---    NW    37    37   ---   0.5 Broken Clouds/
07/02/2008 15:55      12.0  10.0  14.9   2.6  88  1021   ---     N    23    23   ---   0.5 Broken Clouds/
07/02/2008 16:55      12.0   8.0  14.1   2.6  77  1021   ---     N    23    23   ---   0.6 Broken Clouds/
07/02/2008 17:55      12.0   8.0  14.1   1.6  77  1022   ---     N    27    27   ---   0.6 Broken Clouds/
07/02/2008 18:55      13.0   7.0  14.4   2.6  67  1022   ---     N    31    31   ---   0.7 Broken Clouds/
08/02/2008 06:55       9.0   1.0   9.8  -0.0  57  1021   ---    NE    18    18   ---   0.7 Scattered Clouds/
08/02/2008 07:55      10.0   2.0  10.9  -1.1  58  1021   ---   NNE    26    26   ---   0.7 Scattered Clouds/
08/02/2008 08:55      10.0   3.0  11.1  -1.6  62  1021   ---     N    29    29   ---   0.7 Scattered Clouds/
08/02/2008 10:55      11.0   5.0  12.4   2.7  66  1021   ---   NNE    18    18   ---   0.7 Broken Clouds/
08/02/2008 11:55      12.0   5.0  13.1   3.0  62  1021   ---   NNE    21    21   ---   0.7 Broken Clouds/
08/02/2008 12:55      12.0   5.0  13.1   2.6  62  1021   ---   NNE    23    23   ---   0.7 Broken Clouds/
08/02/2008 13:55      11.0   6.0  12.7   1.5  71  1021   ---   NNE    21    21   ---   0.6 Broken Clouds/
08/02/2008 14:55      12.0   5.0  13.1   3.3  62  1020   ---   NNE    19    19   ---   0.7 Broken Clouds/
08/02/2008 15:55      11.0   5.0  12.4   1.1  66  1021   ---   NNE    23    23   ---   0.7 Broken Clouds/
08/02/2008 16:55      11.0   5.0  12.4   1.9  66  1021   ---    NE    19    19   ---   0.7 Scattered Clouds/
08/02/2008 17:55      11.0   5.0  12.4   1.5  66  1021   ---    NE    21    21   ---   0.7 Scattered Clouds/
08/02/2008 18:55      11.0   6.0  12.7   1.1  71  1021   ---    NE    23    23   ---   0.7 Scattered Clouds/
09/02/2008 06:55      11.0   4.0  12.1   2.7  62  1022   ---    NE    18    18   ---   0.7 Broken Clouds/
09/02/2008 07:55      11.0   4.0  12.1   1.5  62  1023   ---   ENE    21    21   ---   0.6 Broken Clouds/
09/02/2008 08:55      12.0   4.0  12.9   3.0  58  1023   ---   ENE    21    21   ---   0.7 Scattered Clouds/
09/02/2008 09:55      12.0   5.0  13.1   5.3  62  1023   ---   ENE    14    14   ---   0.7 Broken Clouds/
09/02/2008 11:55      12.0   5.0  13.1   3.3  62  1024   ---     E    19    19   ---   0.7 Broken Clouds/
09/02/2008 12:55      12.0   5.0  13.1   1.6  62  1024   ---   ENE    27    27   ---   0.7 Broken Clouds/
09/02/2008 13:55      12.0   4.0  12.9   3.0  58  1023   ---     E    21    21   ---   0.7 Broken Clouds/
09/02/2008 14:55      12.0   4.0  12.9   5.3  58  1023   ---     E    14    14   ---   0.7 Broken Clouds/
09/02/2008 15:55      12.0   5.0  13.1   4.1  62  1023   ---    NE    18    18   ---   0.7 Broken Clouds/
09/02/2008 16:55      11.0   4.0  12.1   3.1  62  1023   ---     N    16    16   ---   0.7 Broken Clouds/
09/02/2008 17:55      11.0   4.0  12.1   2.7  62  1023   ---   NNE    18    18   ---   0.7 Broken Clouds/
09/02/2008 18:55      10.0   4.0  11.4   6.2  66  1024   ---     N     8     8   ---   0.7 Broken Clouds/
10/02/2008 06:55       8.0   5.0  10.5   5.7  81  1024   ---   WSW     6     6   ---   0.8 Broken Clouds/
10/02/2008 07:55       9.0   5.0  11.1   6.8  76  1024   ---     N     6     6   ---   0.8 Broken Clouds/
10/02/2008 08:55      10.0   5.0  11.7  10.0  71  1024   ---     N     0     0   ---   0.8 Broken Clouds/
10/02/2008 10:55      10.0   3.0  11.1   1.4  62  1025   ---     E    18    18   ---   0.8 Broken Clouds/
10/02/2008 11:55      11.0   4.0  12.1  11.0  62  1025   ---   WNW     5     5   ---   0.8 Broken Clouds/
10/02/2008 12:55      11.0   4.0  12.1   6.5  62  1024   ---     E    10    10   ---   0.8 Broken Clouds/
10/02/2008 13:55      11.0   6.0  12.7   3.1  71  1024   ---     E    16    16   ---   0.8 Broken Clouds/
10/02/2008 14:55      11.0   5.0  12.4   9.0  66  1024   ---   ESE     6     6   ---   0.8 Broken Clouds/
10/02/2008 15:55      11.0   5.0  12.4  11.0  66  1024   ---     N     0     0   ---   0.8 Broken Clouds/
10/02/2008 16:55      11.0   5.0  12.4  11.0  66  1024   ---   ---     0     0   ---   0.8 Scattered Clouds/
10/02/2008 17:55       8.0   5.0  10.5   0.0  81  1024   ---     E    14    14   ---   --- Overcast/ Light Rain
10/02/2008 18:55       8.0   4.0  10.0   8.0  76  1025   ---     W     5     5   ---   0.8 Broken Clouds/
11/02/2008 06:55       7.0   5.0   9.9   1.7  87  1024   ---   SSW    10    10   ---   0.9 Broken Clouds/
11/02/2008 07:55       8.0   5.0  10.5   3.8  81  1024   ---    SW     8     8   ---   0.9 Broken Clouds/
11/02/2008 08:55       8.0   6.0  10.9   8.0  87  1024   ---     N     0     0   ---   0.9 Broken Clouds/
11/02/2008 10:55      11.0   5.0  12.4  11.0  66  1024   ---   ---     0     0   ----32741.2 Broken Clouds/
11/02/2008 11:55      12.0   3.0  12.7  12.0  54  1024   ---   ---     0     0   ---   0.7 Few Clouds/
11/02/2008 12:55      13.0   5.0  13.9  13.0  58  1024   ---    SE     5     5   ---   0.7 Scattered Clouds/
11/02/2008 13:55      12.0   5.0  13.1   4.1  62  1023   ---   ESE    18    18   ---   0.7 Scattered Clouds/
11/02/2008 14:55      12.0   3.0  12.7   4.1  54  1023   ---   ESE    18    18   ---   0.7 Broken Clouds/
11/02/2008 15:55      12.0   4.0  12.9   8.5  58  1023   ---   ESE     8     8   ---   0.7 Broken Clouds/
11/02/2008 16:55      11.0   4.0  12.1   4.0  62  1023   ---   ESE    14    14   ---   0.7 Broken Clouds/
11/02/2008 17:55      10.0   4.0  11.4   3.6  66  1024   ---   ESE    13    13   ---   0.7 Scattered Clouds/
11/02/2008 14:55      12.0   3.0  12.7   4.1  54  1023   ---   ESE    18    18   ---   0.7 Broken Clouds/
12/02/2008 06:55       7.0   3.0   9.0   1.7  76  1025   ---     W    10    10   ---   0.9 Few Clouds/
12/02/2008 07:55       7.0   4.0   9.4  -1.3  81  1025   ---     W    14    14   ---   0.9 Few Clouds/
12/02/2008 08:55       9.0   6.0  11.5   5.0  81  1025   ---     W     8     8   ---   0.8 Few Clouds/
12/02/2008 10:55      13.0   3.0  13.5   9.7  51  1027   ---     E     8     8   ---   0.8 Scattered Clouds/
12/02/2008 11:55      13.0   3.0  13.5   6.6  51  1026   ---     E    14    14   ---   0.8 Scattered Clouds/
12/02/2008 12:55      13.0   2.0  13.3   5.5  47  1026   ---     E    18    18   ---   0.8 Scattered Clouds/
12/02/2008 13:55      13.0   3.0  13.5   5.5  51  1025   ---     E    18    18   ---   0.8 Scattered Clouds/
12/02/2008 14:55      13.0   4.0  13.7   5.5  54  1025   ---   ESE    18    18   ---   0.8 Scattered Clouds/
12/02/2008 15:55      12.0   4.0  12.9   4.1  58  1025   ---     E    18    18   ---   0.8 Scattered Clouds/
12/02/2008 16:55      11.0   4.0  12.1   4.0  62  1025   ---   ESE    14    14   ---   0.8 Scattered Clouds/
12/02/2008 17:55      10.0   4.0  11.4  10.0  66  1025   ---     N     0     0   ---   0.7 Scattered Clouds/
12/02/2008 18:55       9.0   6.0  11.5   5.0  81  1026   ---    SW     8     8   ---   0.7 Scattered Clouds/
13/02/2008 06:55       7.0   4.0   9.4  -1.3  81  1027   ---   WSW    14    14   ---   0.8 Scattered Clouds/
13/02/2008 07:55       8.0   4.0  10.0   2.9  76  1028   ---   WSW    10    10   ---   0.8 Scattered Clouds/
13/02/2008 08:55      10.0   6.0  12.1  10.0  76  1029   ---     N     0     0   ---   0.8 Scattered Clouds/
13/02/2008 09:55      11.0   6.0  12.7  11.0  71  1029   ---   ---     0     0   ---   0.8 Scattered Clouds/
13/02/2008 10:55      13.0   5.0  13.9   5.8  58  1029   ---     E    16    16   ---   0.7 Scattered Clouds/
13/02/2008 12:55      13.0   5.0  13.9   6.6  58  1029   ---     E    14    14   ---   0.7 Few Clouds/
13/02/2008 13:55      12.0   4.0  12.9   4.1  58  1029   ---     E    18    18   ---   0.7 Scattered Clouds/
13/02/2008 14:55      12.0   5.0  13.1   3.3  62  1029   ---     E    19    19   ---   0.7 Scattered Clouds/
13/02/2008 15:55      12.0   6.0  13.4   3.3  67  1029   ---   ESE    19    19   ---   0.7 Scattered Clouds/
13/02/2008 16:55      12.0   7.0  13.7   3.0  71  1029   ---     E    21    21   ---   0.7 Scattered Clouds/
13/02/2008 17:55      11.0   6.0  12.7   7.3  71  1029   ---     E     8     8   ---   0.7 Scattered Clouds/
13/02/2008 18:55      10.0   6.0  12.1   5.3  76  1030   ---   SSW    10    10   ---   0.7 Scattered Clouds/
14/02/2008 06:55       7.0   4.0   9.4  -4.2  81  1031   ---   WSW    21    21   ---   --- /
14/02/2008 07:55       7.0   4.0   9.4  -4.2  81  1031   ---    SW    21    21   ---   --- /
14/02/2008 08:55      11.0   5.0  12.4  11.0  66  1032   ---     E     5     5   ---   --- /
14/02/2008 10:55      13.0   4.0  13.7   5.8  54  1032   ---   ESE    16    16   ---   --- /
14/02/2008 12:55      14.0   4.0  14.5   6.9  51  1031   ---     E    18    18   ---   --- /
14/02/2008 13:55      13.0   5.0  13.9   3.4  58  1030   ---     E    26    26   ---   --- /
14/02/2008 14:55      13.0   5.0  13.9   4.0  58  1030   ---   ESE    23    23   ---   --- /
14/02/2008 15:55      12.0   5.0  13.1   4.1  62  1030   ---   ESE    18    18   ---   --- /
14/02/2008 16:55      11.0   5.0  12.4   4.0  66  1030   ---     E    14    14   ----32741.2 Scattered Clouds/
14/02/2008 17:55      10.0   6.0  12.1   5.3  76  1030   ---    SW    10    10   ---   1.2 Scattered Clouds/
14/02/2008 18:55       9.0   6.0  11.5   2.3  81  1030   ---    SW    13    13   ---   --- /
14/02/2008 14:55      13.0   5.0  13.9   4.0  58  1030   ---   ESE    23    23   ---   --- /
15/02/2008 06:55       9.0   6.0  11.5   6.8  81  1026   ---   WSW     6     6   ---   0.6 Broken Clouds/
15/02/2008 07:55       9.0   6.0  11.5   6.8  81  1025   ---    SW     6     6   ---   0.6 Broken Clouds/
15/02/2008 08:55       9.0   7.0  11.9   9.0  87  1025   ---     N     0     0   ---   0.6 Overcast/
15/02/2008 10:55      10.0   7.0  12.5  10.0  82  1025   ---   ---     0     0   ---   0.6 Broken Clouds/
15/02/2008 11:55      11.0   7.0  13.1  11.0  76  1024   ---   ---     0     0   ---   0.5 Overcast/
15/02/2008 12:55      11.0   7.0  13.1  11.0  76  1023   ---   ---     0     0   ---   0.5 Overcast/
15/02/2008 13:55      11.0   8.0  13.5  11.0  82  1022   ---   ---     0     0   ---   0.5 Overcast/
15/02/2008 14:55      10.0   8.0  12.9   6.2  87  1022   ---   NNE     8     8   ---   0.5 Overcast/
15/02/2008 16:55      10.0   8.0  12.9  10.0  87  1021   ---     N     0     0   ---   --- Overcast/ Light Rain
15/02/2008 17:55       9.0   7.0  11.9   1.4  87  1021   ---     E    14    14   ---   --- Overcast/ Light Rain
15/02/2008 18:55       9.0   6.0  11.5   5.0  81  1021   ---     E     8     8   ---   0.5 Overcast/
15/02/2008 13:55      11.0   8.0  13.5  11.0  82  1022   ---     N     0     0   ---   0.5 Overcast/
16/02/2008 06:55      10.0   6.0  12.1   2.7  76  1020   ---    NE    14    14   ---   0.7 Broken Clouds/
16/02/2008 07:55      10.0   7.0  12.5  -2.8  82  1021   ---    NE    37    37   ---   0.7 Broken Clouds/
16/02/2008 08:55      10.0   6.0  12.1  -0.3  76  1022   ---   ENE    23    23   ---   0.7 Broken Clouds/
16/02/2008 10:55      12.0   5.0  13.1   1.6  62  1023   ---    NE    27    27   ---   0.7 Few Clouds/
16/02/2008 11:55      13.0   5.0  13.9   1.8  58  1024   ---     E    39    60   ---   0.7 Scattered Clouds/
16/02/2008 12:55      12.0   5.0  13.1   0.3  62  1024   ---   NNE    37    37   ---   0.7 Broken Clouds/
16/02/2008 13:55      11.0   4.0  12.1  -1.3  62  1024   ---   NNE    37    60   ---   0.7 Broken Clouds/
16/02/2008 14:55      10.0   3.0  11.1  -2.2  62  1025   ---   NNE    32    56   ---   0.7 Scattered Clouds/
16/02/2008 15:55      10.0   2.0  10.9  -2.8  58  1025   ---   NNE    37    37   ---   0.7 Few Clouds/
16/02/2008 16:55       9.0   1.0   9.8  -2.9  57  1026   ---    NE    27    55   ---   0.7 Scattered Clouds/
16/02/2008 17:55       9.0   1.0   9.8  -2.5  57  1026   ---   NNE    26    26   ---   --- /
16/02/2008 18:55       8.0   1.0   9.1  -5.0  61  1027   ---    NE    31    31   ---   0.8 Few Clouds/
17/02/2008 06:55       5.0  -3.0   5.8  -7.6  56  1034   ---   NNE    23    23   ---   0.7 Scattered Clouds/
17/02/2008 07:55       5.0  -3.0   5.8  -8.9  56  1035   ---    NE    27    55   ---   0.7 Scattered Clouds/
17/02/2008 08:55       6.0  -2.0   6.8  -9.1  56  1035   ---     E    37    58   ---   0.7 Scattered Clouds/
17/02/2008 10:55       7.0  -2.0   7.6  -7.9  53  1036   ---   ENE    42    74   ---   0.7 Scattered Clouds/
17/02/2008 11:55       7.0  -1.0   7.8  -7.6  57  1036   ---   ENE    39    60   ---   0.7 Scattered Clouds/
17/02/2008 12:55       7.0  -3.0   7.4  -7.5  49  1036   ---   ENE    37    58   ---   0.7 Scattered Clouds/
17/02/2008 13:55       7.0  -2.0   7.6  -7.9  53  1036   ---     E    42    42   ---   0.8 Scattered Clouds/
17/02/2008 14:55       6.0  -2.0   6.8  -8.0  56  1036   ---   ENE    31    31   ---   0.8 Scattered Clouds/
17/02/2008 15:55       6.0  -2.0   6.8  -7.4  56  1036   ---     N    27    45   ---   0.8 Scattered Clouds/
17/02/2008 16:55       5.0  -2.0   6.0  -7.6  61  1036   ---   NNE    23    23   ---   0.7 Scattered Clouds/
17/02/2008 17:55       5.0  -3.0   5.8  -5.5  56  1036   ---   NNE    18    18   ---   0.8 Scattered Clouds/
17/02/2008 18:55       4.0  -2.0   5.3  -9.0  65  1037   ---   NNE    23    23   ---   0.8 Scattered Clouds/
18/02/2008 06:55       4.0   1.0   6.4  -1.9  81  1034   ---   WSW    10    10   ---   0.7 Scattered Clouds/
18/02/2008 07:55       4.0   1.0   6.4   1.3  81  1034   ---   WSW     6     6   ---   0.7 Scattered Clouds/
18/02/2008 08:55       6.0   2.0   8.0   0.5  75  1034   ---     S    10    10   ---   0.7 Few Clouds/
18/02/2008 10:55       9.0   1.0   9.8  -0.0  57  1034   ---     E    18    18   ---   0.7 Scattered Clouds/
18/02/2008 11:55       9.0   2.0  10.1  -0.9  62  1033   ---   NNE    19    19   ---   0.7 Scattered Clouds/
18/02/2008 12:55      10.0   2.0  10.9  -1.1  58  1033   ---    NE    26    26   ---   0.7 Scattered Clouds/
18/02/2008 13:55      10.0   3.0  11.1   0.5  62  1032   ---    NE    19    19   ---   0.7 Scattered Clouds/
18/02/2008 14:55      10.0   2.0  10.9   2.7  58  1031   ---     E    14    14   ---   0.7 Few Clouds/
18/02/2008 15:55      10.0   2.0  10.9   1.4  58  1031   ---   ESE    18    18   ---   --- /
18/02/2008 16:55       9.0   1.0   9.8   1.4  57  1031   ---     E    14    14   ---   --- /
18/02/2008 17:55       8.0   1.0   9.1   8.0  61  1031   ---   WNW     3     3   ---   --- /
18/02/2008 18:55       6.0   2.0   8.0  -1.5  75  1031   ---   WSW    13    13   ---   --- /
19/02/2008 06:55       4.0   0.0   6.0  -5.2  75  1029   ---    SW    14    14   ---   --- /
19/02/2008 07:55       5.0   1.0   7.0  -6.5  75  1029   ---    SW    19    19   ---   --- /
19/02/2008 08:55       9.0   2.0  10.1   9.0  62  1029   ---   WSW     5     5   ---   --- /
19/02/2008 10:55      11.0   1.0  11.4   4.9  50  1029   ---    NE    13    13   ---   --- /
19/02/2008 12:55      12.0   2.0  12.5   2.6  50  1029   ---     E    23    23   ---   --- /
19/02/2008 13:55      12.0   4.0  12.9   4.5  58  1028   ---     E    16    16   ---   --- /
19/02/2008 14:55      12.0   4.0  12.9   3.0  58  1028   ---   ESE    21    21   ---   --- /
19/02/2008 15:55      11.0   4.0  12.1   2.7  62  1028   ---     E    18    18   ---   --- /
19/02/2008 16:55      10.0   4.0  11.4   5.3  66  1028   ---    SE    10    10   ---   --- /
19/02/2008 17:55       9.0   4.0  10.7   6.8  71  1028   ---   SSW     6     6   ---   --- /
19/02/2008 18:55       8.0   3.0   9.7   1.0  71  1028   ---   WSW    13    13   ---   --- /
19/02/2008 14:55      12.0   4.0  12.9   3.0  58  1028   ---   ESE    21    21   ---   --- /
20/02/2008 06:55       6.0   2.0   8.0  -2.6  75  1026   ---     W    14    14   ---   0.9 Scattered Clouds/
20/02/2008 07:55       8.0   3.0   9.7   2.9  71  1026   ---     W    10    10   ---   1.2 Broken Clouds/
20/02/2008 08:55       9.0   4.0  10.7   9.0  71  1026   ---   WNW     5     5   ---   1.0 Broken Clouds/
20/02/2008 09:55      11.0   5.0  12.4   6.5  66  1026   ---   NNW    10    10   ---   0.9 Broken Clouds/
20/02/2008 11:55      15.0   7.0  15.9  15.0  59  1026   ---   NNW     5     5   ---   0.7 Broken Clouds/
20/02/2008 12:55      16.0   7.0  16.7  12.5  55  1025   ---    NE    10    10   ----32741.2 Broken Clouds/
20/02/2008 15:55      17.0   1.0  16.7  17.0  34  1023   ---     S     5     5   ----32741.2 Broken Clouds/
20/02/2008 16:55      16.0   1.0  15.8  16.0  36  1023   ---   SSW     3     3   ----32741.2 Broken Clouds/
20/02/2008 17:55      14.0   4.0  14.5  14.0  51  1024   ---   SSE     5     5   ----32741.2 Broken Clouds/
20/02/2008 18:55      13.0   1.0  13.1  13.0  44  1024   ---   NNW     5     5   ---   0.9 Broken Clouds/
21/02/2008 06:55      14.0   2.0  14.2   4.4  44  1023   ---   SSW    29    29   ---   1.0 Broken Clouds/
21/02/2008 07:55      14.0   3.0  14.3   4.9  47  1023   ---    SW    26    47   ---   0.9 Broken Clouds/
21/02/2008 08:55      15.0   5.0  15.5  13.3  51  1024   ---     W     6     6   ---   0.9 Broken Clouds/
21/02/2008 10:55      16.0   5.0  16.3  14.4  48  1024   ---    SW     6     6   ---   0.9 Scattered Clouds/
21/02/2008 11:55      17.0   7.0  17.5   7.8  52  1024   ---     S    42    63   ---   0.9 Scattered Clouds/
21/02/2008 12:55      17.0   6.0  17.4  11.0  48  1024   ---   SSW    18    18   ---   0.9 Broken Clouds/
21/02/2008 13:55      18.0   7.0  18.4  11.3  49  1024   ---   WSW    23    23   ---   0.9 Broken Clouds/
21/02/2008 14:55      17.0   7.0  17.5  12.5  52  1024   ---    SW    13    13   ---   0.9 Broken Clouds/
21/02/2008 16:55      16.0   5.0  16.3  11.3  48  1024   ---   WSW    13    13   ---   1.0 Broken Clouds/
21/02/2008 16:55      16.0   5.0  16.3  11.3  48  1024   ---   WSW    13    13   ---   1.0 Broken Clouds/None reported
21/02/2008 17:55      15.0   6.0  15.7  15.0  55  1024   ---     S     3     3   ---   1.0 Broken Clouds/
21/02/2008 18:55      14.0   5.0  14.7   6.2  55  1024   ---   WSW    19    42   ---   1.0 Broken Clouds/
21/02/2008 09:55      16.0   6.0  16.5   9.6  51  1024   ---     W    18    18   ---   0.9 Broken Clouds/
22/02/2008 06:55      12.0   8.0  14.1  12.0  77  1026   ---     W     5     5   ---   --- Overcast/ Light Rain
22/02/2008 07:55      12.0   8.0  14.1  10.1  77  1026   ---     W     6     6   ---   0.8 Broken Clouds/
22/02/2008 08:55      12.0   8.0  14.1  12.0  77  1026   ---    NW     3     3   ---   0.8 Broken Clouds/
22/02/2008 09:55      14.0  11.0  16.5  14.0  82  1026   ---     N     0     0   ---   0.9 Broken Clouds/
22/02/2008 11:55      15.0   9.0  16.5  11.3  67  1027   ---     E    10    10   ---   0.9 Broken Clouds/
22/02/2008 12:55      14.0   9.0  15.8  10.1  72  1027   ---    NE    10    10   ---   0.8 Overcast/
22/02/2008 12:55      14.0   9.0  15.8  10.1  72  1027   ---    NE    10    10   ---   0.8 Overcast/None reported
22/02/2008 13:55      14.0  11.0  16.5  10.1  82  1026   ---     E    10    10   ---   0.8 Overcast/
22/02/2008 14:55      14.0  10.0  16.1  14.0  77  1026   ---     N     0     0   ---   0.7 Overcast/
22/02/2008 15:55      13.0  10.0  15.5   6.6  82  1026   ---     S    14    14   ---   0.7 Overcast/
22/02/2008 16:55      13.0  10.0  15.5   7.4  82  1026   ---     S    13    13   ---   0.7 Overcast/
22/02/2008 17:55      13.0  10.0  15.5  13.0  82  1027   ---     N     0     0   ---   0.7 Overcast/
22/02/2008 18:55      12.0  10.0  14.9   7.7  88  1027   ---     S    10    10   ---   0.7 Overcast/
23/02/2008 06:55       9.0   7.0  11.9  -0.0  87  1027   ---    SW    18    18   ---   --- /
23/02/2008 07:55      11.0   8.0  13.5   9.0  82  1028   ---   NNE     6     6   ---   --- /
23/02/2008 08:55      13.0  10.0  15.5  13.0  82  1028   ---     N     0     0   ---   0.6 Few Clouds/
23/02/2008 10:55      14.0  11.0  16.5  10.8  82  1029   ---     N     8     8   ---   0.6 Broken Clouds/
23/02/2008 11:55      15.0  10.0  16.8   9.3  72  1029   ---     E    14    14   ---   0.6 Broken Clouds/
23/02/2008 12:55      16.0  10.0  17.5   8.7  68  1029   ---     E    21    21   ---   0.6 Broken Clouds/
23/02/2008 13:55      15.0  11.0  17.1   7.3  77  1028   ---   ESE    21    21   ---   0.6 Scattered Clouds/
23/02/2008 14:55      14.0  11.0  16.5   5.8  82  1027   ---     E    21    21   ---   0.6 Scattered Clouds/
23/02/2008 15:55      14.0  11.0  16.5   6.2  82  1028   ---     E    19    19   ---   0.5 Broken Clouds/
23/02/2008 16:55      13.0  10.0  15.5   7.4  82  1028   ---   ESE    13    13   ---   0.5 Scattered Clouds/
23/02/2008 17:55      12.0   9.0  14.5  12.0  82  1028   ---     N     0     0   ---   0.5 Few Clouds/
23/02/2008 18:55      12.0   9.0  14.5  12.0  82  1028   ---   ---     0     0   ---   --- /
24/02/2008 06:55       9.0   6.0  11.5   9.0  81  1029   ---   ---     0     0   ---   --- /
24/02/2008 07:55      10.0   7.0  12.5  10.0  82  1029   ---   ---     0     0   ---   --- /
24/02/2008 08:55      12.0   9.0  14.5  12.0  82  1029   ---   ---     0     0   ---   0.7 Few Clouds/
24/02/2008 10:55      15.0  10.0  16.8   8.6  72  1030   ---     E    16    16   ---   0.7 Few Clouds/
24/02/2008 11:55      15.0  10.0  16.8   7.6  72  1030   ---     E    19    19   ---   0.7 Few Clouds/
24/02/2008 12:55      15.0  11.0  17.1  12.0  77  1030   ---     E     8     8   ---   --- /
24/02/2008 13:55      16.0  10.0  17.5   8.7  68  1029   ---     E    21    21   ---   --- /
24/02/2008 14:55      16.0  10.0  17.5   9.0  68  1028   ---     E    19    19   ---   --- /
24/02/2008 15:55      16.0  11.0  17.8  12.5  72  1028   ---     E    10    10   ---   --- /
24/02/2008 16:55      14.0  10.0  16.1   7.2  77  1028   ---     E    16    16   ---   --- /
24/02/2008 17:55      13.0   9.0  15.1  13.0  77  1028   ---   ESE     5     5   ---   --- /
24/02/2008 18:55      12.0   9.0  14.5  12.0  82  1028   ---     N     0     0   ---   --- /
25/02/2008 06:55       9.0   7.0  11.9   2.3  87  1027   ---    SW    13    13   ---   --- /
25/02/2008 07:55      11.0   8.0  13.5   7.3  82  1027   ---    SW     8     8   ---   --- /
25/02/2008 08:55      13.0  10.0  15.5  13.0  82  1028   ---     N     0     0   ---   --- /
25/02/2008 10:55      17.0  10.0  18.2  15.5  63  1027   ---   ENE     6     6   ---   --- /
25/02/2008 11:55      18.0  10.0  19.0  12.6  60  1026   ---   ENE    16    16   ---   --- /
25/02/2008 12:55      17.0  11.0  18.5  10.4  68  1026   ---     E    19    19   ---   --- /
25/02/2008 13:55      17.0  11.0  18.5  10.4  68  1025   ---    SE    19    19   ---   0.7 Few Clouds/
25/02/2008 14:55      16.0  12.0  18.1   9.0  77  1025   ---     E    19    19   ---   0.7 Few Clouds/
25/02/2008 15:55      15.0  12.0  17.5   8.6  82  1024   ---   ESE    16    16   ---   0.4 Scattered Clouds/
25/02/2008 16:55      14.0  12.0  17.0   8.7  88  1024   ---   ESE    13    13   ---   0.0 Broken Clouds/
25/02/2008 17:55      14.0  11.0  16.5  14.0  82  1024   ---    SE     5     5   ---   0.0 Broken Clouds/
25/02/2008 18:55      13.0  11.0  15.9  13.0  88  1024   ---    SE     3     3   ---   0.4 Broken Clouds/
25/02/2008 10:55      17.0  10.0  18.2  15.5  63  1027   ---   ENE     6     6   ---   --- /
26/02/2008 07:55      10.0   7.0  12.5   6.2  82  1023   ---    SW     8     8   ----3274--- Scattered Clouds/
26/02/2008 08:55      13.0  10.0  15.5  13.0  82  1023   ---     N     0     0   ----3274--- Scattered Clouds/
26/02/2008 09:55      15.0  10.0  16.8  12.0  72  1023   ---   ENE     8     8   ----3274--- Scattered Clouds/
26/02/2008 10:55      16.0   8.0  16.9  16.0  59  1023   ---     N     0     0   ---   --- /
26/02/2008 11:55      16.0  10.0  17.5  10.6  68  1022   ---   ESE    14    14   ---   --- /
26/02/2008 12:55      16.0   9.0  17.2  10.6  63  1022   ---     E    14    14   ---   --- /
26/02/2008 13:55      17.0  10.0  18.2  11.9  63  1021   ---     E    14    14   ----32740.6 Scattered Clouds/
26/02/2008 14:55      16.0  11.0  17.8  11.3  72  1021   ---    SE    13    13   ----32740.6 Scattered Clouds/
26/02/2008 15:55      15.0  11.0  17.1  10.0  77  1021   ---     E    13    13   ----32740.6 Scattered Clouds/
26/02/2008 16:55      15.0  11.0  17.1  12.0  77  1021   ---     E     8     8   ----32740.6 Scattered Clouds/
26/02/2008 17:55      14.0  11.0  16.5  14.0  82  1021   ---     E     3     3   ----32740.6 Scattered Clouds/
26/02/2008 18:55      12.0  10.0  14.9  12.0  88  1021   ---     N     0     0   ---   --- /
27/02/2008 06:55      10.0   8.0  12.9  10.0  87  1020   ---    SW     3     3   ---   0.7 Broken Clouds/
27/02/2008 07:55      10.0   8.0  12.9  10.0  87  1020   ---     N     0     0   ---   0.7 Broken Clouds/
27/02/2008 08:55      12.0  10.0  14.9   8.5  88  1021   ---     S     8     8   ---   0.7 Scattered Clouds/
27/02/2008 09:55      14.0  11.0  16.5  14.0  82  1021   ---     N     0     0   ---   0.7 Broken Clouds/
27/02/2008 10:55      16.0  10.0  17.5  14.4  68  1021   ---     E     6     6   ---   0.7 Broken Clouds/
27/02/2008 11:55      16.0  11.0  17.8   8.4  72  1021   ---     E    23    23   ---   0.7 Scattered Clouds/
27/02/2008 12:55      16.0  11.0  17.8   8.4  72  1020   ---     E    23    23   ---   0.7 Scattered Clouds/
27/02/2008 13:55      15.0  10.0  16.8   7.3  72  1020   ---     E    21    21   ---   0.7 Scattered Clouds/
27/02/2008 14:55      15.0  10.0  16.8   7.3  72  1019   ---     E    21    21   ---   0.7 Scattered Clouds/
27/02/2008 15:55      15.0  11.0  17.1   7.6  77  1019   ---     E    19    19   ---   0.7 Few Clouds/
27/02/2008 16:55      14.0  11.0  16.5  10.1  82  1019   ---     E    10    10   ---   0.7 Few Clouds/
27/02/2008 17:55      13.0  10.0  15.5  13.0  82  1019   ---    SE     3     3   ----32740.3 Few Clouds/
27/02/2008 18:55      12.0   9.0  14.5   8.5  82  1020   ---   SSW     8     8   ---   --- /
28/02/2008 06:55       9.0   7.0  11.9   2.3  87  1020   ---    SW    13    13   ----32740.7 Scattered Clouds/
28/02/2008 07:55      10.0   7.0  12.5  10.0  82  1021   ---    SW     5     5   ----3274--- Scattered Clouds/
28/02/2008 08:55      13.0   9.0  15.1  13.0  77  1021   ---     E     5     5   ----3274--- Scattered Clouds/
28/02/2008 10:55      16.0  10.0  17.5  12.5  68  1022   ---   ENE    10    10   ---   0.8 Few Clouds/
28/02/2008 11:55      17.0  11.0  18.5  10.4  68  1022   ---     E    19    19   ---   0.8 Scattered Clouds/
28/02/2008 12:55      16.0  11.0  17.8   9.6  72  1022   ---   ENE    18    18   ---   0.8 Scattered Clouds/
28/02/2008 13:55      16.0  12.0  18.1  10.6  77  1022   ---   ENE    14    14   ---   0.8 Scattered Clouds/
28/02/2008 14:55      16.0  13.0  18.5   9.9  82  1021   ---   ENE    16    16   ---   0.8 Scattered Clouds/
28/02/2008 15:55      15.0  11.0  17.1   9.3  77  1021   ---     E    14    14   ---   0.7 Scattered Clouds/
28/02/2008 16:55      14.0  10.0  16.1  10.8  77  1021   ---     E     8     8   ---   0.7 Scattered Clouds/
28/02/2008 17:55      13.0  10.0  15.5  13.0  82  1022   ---     N     0     0   ---   0.7 Scattered Clouds/
28/02/2008 18:55      12.0   9.0  14.5  10.1  82  1022   ---   SSW     6     6   ----32740.4 Scattered Clouds/
29/02/2008 06:55      10.0   7.0  12.5   5.3  82  1023   ---     W    10    10   ---   0.7 Scattered Clouds/
29/02/2008 07:55      11.0   9.0  13.9  11.0  87  1023   ---     N     0     0   ---   0.6 Scattered Clouds/
29/02/2008 08:55      12.0   8.0  14.1  12.0  77  1024   ---   ---     0     0   ---   0.6 Broken Clouds/
29/02/2008 10:55      17.0  10.0  18.2  13.8  63  1024   ---    NE    10    10   ---   0.6 Scattered Clouds/
29/02/2008 11:55      18.0  11.0  19.2  12.4  64  1024   ---     E    18    18   ---   0.6 Scattered Clouds/
29/02/2008 12:55      18.0  11.0  19.2  11.6  64  1024   ---     E    21    21   ---   0.6 Scattered Clouds/
29/02/2008 13:55      18.0  11.0  19.2  11.6  64  1023   ---   ESE    21    21   ---   0.6 Scattered Clouds/
29/02/2008 14:55      16.0  10.0  17.5   9.6  68  1022   ---     E    18    18   ---   0.6 Broken Clouds/
29/02/2008 15:55      16.0  10.0  17.5  12.5  68  1022   ---     E    10    10   ----32740.6 Broken Clouds/
29/02/2008 16:55      15.0  11.0  17.1   9.3  77  1022   ---   ESE    14    14   ----3274--- Broken Clouds/
29/02/2008 17:55      14.0  11.0  16.5  10.8  82  1022   ---    SE     8     8   ----3274--- Scattered Clouds/
29/02/2008 18:55      13.0  10.0  15.5  13.0  82  1022   ---     N     0     0   ---   0.5 Few Clouds/
01/03/2008 06:55      10.0   7.0  12.5  10.0  82  1021   ---   ---     0     0   ---   0.7 Broken Clouds/
01/03/2008 07:55      12.0   9.0  14.5  10.1  82  1021   ---     S     6     6   ---   0.8 Scattered Clouds/
01/03/2008 08:55      15.0  10.0  16.8  12.0  72  1021   ---   SSE     8     8   ---   0.8 Scattered Clouds/
01/03/2008 10:55      17.0  11.0  18.5   9.8  68  1020   ---    SW    23    47   ---   0.8 Scattered Clouds/
01/03/2008 11:55      18.0  11.0  19.2  11.3  64  1019   ---    SW    23    23   ---   0.8 Scattered Clouds/
01/03/2008 12:55      18.0  11.0  19.2  10.2  64  1019   ---    SW    31    51   ---   0.8 Scattered Clouds/
01/03/2008 13:55      17.0  11.0  18.5   9.1  68  1019   ---   WNW    27    27   ---   0.7 Scattered Clouds/
01/03/2008 14:55      16.0  11.0  17.8   7.6  72  1018   ---   WSW    27    27   ---   0.7 Scattered Clouds/
01/03/2008 15:55      16.0  10.0  17.5  13.2  68  1017   ---   WSW     8     8   ---   0.7 Scattered Clouds/
01/03/2008 16:55      15.0  10.0  16.8  11.3  72  1017   ---   WSW    10    10   ---   0.7 Scattered Clouds/
01/03/2008 17:55      14.0  10.0  16.1  10.8  77  1017   ---     E     8     8   ---   0.7 Scattered Clouds/
01/03/2008 18:55      14.0  11.0  16.5   6.9  82  1016   ---   WSW    18    18   ---   0.7 Broken Clouds/
02/03/2008 06:55      14.0  11.0  16.5  14.0  82  1016   ---     N     0     0   ---   0.5 Broken Clouds/
02/03/2008 07:55      14.0  11.0  16.5   7.2  82  1017   ---    NW    16    16   ---   0.4 Broken Clouds/
02/03/2008 08:55      15.0  12.0  17.5   8.2  82  1017   ---     W    18    18   ---   0.4 Broken Clouds/
02/03/2008 10:55      18.0  12.0  19.5  12.4  68  1017   ---     W    18    18   ---   0.5 Scattered Clouds/
02/03/2008 11:55      18.0  12.0  19.5  12.4  68  1017   ---   ESE    18    18   ---   0.5 Scattered Clouds/
02/03/2008 12:55      18.0  12.0  19.5  13.2  68  1016   ---     E    14    14   ---   0.5 Scattered Clouds/
02/03/2008 13:55      17.0  12.0  18.8  10.1  72  1016   ---   ESE    21    21   ---   0.5 Scattered Clouds/
02/03/2008 14:55      17.0  13.0  19.2  10.1  77  1016   ---     E    21    21   ---   0.5 Scattered Clouds/
02/03/2008 15:55      16.0  13.0  18.5   9.9  82  1016   ---     E    16    16   ---   0.5 Broken Clouds/
02/03/2008 16:55      16.0  12.0  18.1  12.5  77  1016   ---   ESE    10    10   ---   0.4 Broken Clouds/
02/03/2008 17:55      15.0  11.0  17.1  10.0  77  1016   ---     E    13    13   ---   0.4 Broken Clouds/
02/03/2008 18:55      14.0  11.0  16.5  14.0  82  1017   ---     N     0     0   ---   0.4 Scattered Clouds/
03/03/2008 06:55      11.0   8.0  13.5   4.9  82  1017   ---     W    13    13   ---   --- /
03/03/2008 07:55      12.0   9.0  14.5  12.0  82  1017   ---     N     0     0   ---   --- /
03/03/2008 08:55      15.0  10.0  16.8  15.0  72  1017   ---   ---     0     0   ---   --- /
03/03/2008 10:55      18.0  10.0  19.0  18.0  60  1017   ---   ESE     5     5   ---   --- /
03/03/2008 11:55      18.0  10.0  19.0  11.6  60  1017   ---   ESE    21    21   ---   --- /
03/03/2008 12:55      18.0  10.0  19.0  11.6  60  1017   ---   ESE    21    21   ---   --- /
03/03/2008 13:55      18.0  11.0  19.2  12.4  64  1016   ---   ESE    18    18   ---   --- /
03/03/2008 14:55      18.0  11.0  19.2  12.4  64  1016   ---     E    18    18   ---   --- /
03/03/2008 15:55      17.0  11.0  18.5  11.9  68  1016   ---   ESE    14    14   ---   --- /
03/03/2008 16:55      16.0  11.0  17.8  10.6  72  1016   ---   ESE    14    14   ---   --- /
03/03/2008 17:55      15.0  11.0  17.1  15.0  77  1015   ---     N     0     0   ---   --- /
03/03/2008 18:55      13.0  10.0  15.5   9.7  82  1015   ---    SW     8     8   ---   --- /
03/03/2008 10:55      18.0  10.0  19.0  18.0  60  1017   ---   ESE     5     5   ---   --- /
04/03/2008 06:55      16.0   5.0  16.3  10.6  48  1011   ---     S    14    14   ----3274--- Scattered Clouds/
04/03/2008 07:55      17.0   5.0  17.2  15.5  45  1011   ---   SSW     6     6   ----3274--- Scattered Clouds/
04/03/2008 08:55      20.0   5.0  19.8  15.9  37  1011   ---   WSW    14    14   ----3274--- Scattered Clouds/
04/03/2008 09:55      21.0   7.0  21.0  15.2  40  1011   ---     W    26    26   ----32741.2 Scattered Clouds/
04/03/2008 10:55      20.0   6.0  20.0  15.1  40  1011   ---     W    18    18   ----32741.2 Scattered Clouds/
04/03/2008 12:55      21.0   9.0  21.3  16.1  46  1010   ---     W    19    19   ---   0.9 Scattered Clouds/
04/03/2008 13:55      19.0  10.0  19.8  11.2  56  1009   ---   WNW    37    68   ---   0.8 Scattered Clouds/
04/03/2008 14:55      18.0  10.0  19.0   9.3  60  1008   ---   WNW    43    68   ---   0.8 Scattered Clouds/
04/03/2008 15:55      16.0  10.0  17.5   6.5  68  1008   ---   WNW    37    37   ---   0.8 Scattered Clouds/
04/03/2008 16:55      16.0  10.0  17.5   8.7  68  1008   ---    NW    21    21   ---   0.8 Scattered Clouds/
04/03/2008 17:55      16.0  12.0  18.1  12.5  77  1008   ---   WNW    10    10   ----32740.6 Scattered Clouds/
04/03/2008 18:55      14.0  12.0  17.0  12.3  88  1008   ---   WSW     6     6   ---   0.8 Scattered Clouds/
04/03/2008 16:55      16.0  10.0  17.5   8.7  68  1008   ---    NW    21    21   ---   0.8 Scattered Clouds/
04/03/2008 17:55      16.0  12.0  18.1  12.5  77  1008   ---   WNW    10    10   ----3274--- Scattered Clouds/
05/03/2008 06:55      12.0   6.0  13.4   3.3  67  1006   ---   WSW    19    19   ----32740.4 Overcast/
05/03/2008 07:55      11.0   8.0  13.5   9.0  82  1006   ---   WNW     6     6   ----32740.4 Overcast/
05/03/2008 06:55      12.0   6.0  13.4   3.3  67  1006   ---   WSW    19    19   ----32740.4 Overcast/
05/03/2008 08:55      11.0   8.0  13.5  11.0  82  1006   ---     W     5     5   ---   --- Overcast/ Light Rain
05/03/2008 10:55      12.0   8.0  14.1  12.0  77  1005   ---     N     0     0   ---   0.4 Overcast/
05/03/2008 11:55      13.0   9.0  15.1  13.0  77  1005   ---   ---     0     0   ---   --- Overcast/ Light Rain
05/03/2008 12:55      12.0  10.0  14.9   8.5  88  1005   ---    NE     8     8   ---   0.4 Overcast/
05/03/2008 13:55      11.0   8.0  13.5   4.9  82  1004   ---    NE    13    13   ---   --- Overcast/ Light Rain
05/03/2008 14:55      11.0   9.0  13.9   4.0  87  1004   ---   NNE    14    14   ---   --- Overcast/ Light Rain
05/03/2008 15:55      10.0   9.0  13.4   5.3  94  1003   ---    NE    10    10   ---   --- Overcast/ Light Rain
05/03/2008 16:55      10.0   8.0  12.9   2.7  87  1003   ---    NE    14    14   ---   --- Overcast/ Light Rain
05/03/2008 17:55      10.0   9.0  13.4   7.9  94  1003   ---   ENE     6     6   ---   0.2 Overcast/
05/03/2008 18:55      10.0   9.0  13.4   1.8  94  1003   ---   ENE    16    16   ---   --- Overcast/ Light Rain
06/03/2008 06:55       8.0   7.0  11.4  -0.9  93  1004   ---    SW    16    16   ---   0.7 Broken Clouds/
06/03/2008 07:55       8.0   6.0  10.9  -1.4  87  1005   ---     S    18    18   ---   0.7 Broken Clouds/
06/03/2008 08:55       9.0   7.0  11.9   9.0  87  1005   ---   SSW     5     5   ---   --- Overcast/ Light Rain
06/03/2008 10:55       9.0   6.0  11.5   1.4  81  1006   ---   SSE    14    14   ---   0.6 Broken Clouds/
06/03/2008 11:55       9.0   6.0  11.5  -0.0  81  1006   ---     W    18    18   ---   0.7 Broken Clouds/
06/03/2008 12:55      10.0   5.0  11.7  -3.2  71  1006   ---   WSW    42    82   ---   0.6 Broken Clouds/
06/03/2008 13:55      11.0   5.0  12.4   4.9  66  1004   ---     W    13    13   ---   0.6 Scattered Clouds/
06/03/2008 14:55      12.0   3.0  12.7   4.5  54  1004   ---     W    16    16   ---   0.7 Scattered Clouds/
06/03/2008 15:55      11.0   4.0  12.1   1.9  62  1004   ---    SW    19    19   ---   0.6 Broken Clouds/
06/03/2008 16:55      10.0   5.0  11.7  -1.1  71  1004   ---    SW    26    26   ---   0.7 Broken Clouds/
06/03/2008 17:55       9.0   6.0  11.5   1.4  81  1004   ---     S    14    14   ---   0.7 Broken Clouds/
06/03/2008 18:55       8.0   2.0   9.4   1.0  66  1005   ---   SSW    13    13   ---   0.7 Broken Clouds/
07/03/2008 06:55       7.0   4.0   9.4   1.7  81  1003   ---   SSW    10    10   ---   0.7 Broken Clouds/
07/03/2008 07:55       8.0   6.0  10.9  -4.0  87  1003   ---     S    26    26   ---   0.7 Broken Clouds/
07/03/2008 08:55       9.0   5.0  11.1   1.4  76  1003   ---     S    14    14   ---   0.7 Broken Clouds/
07/03/2008 10:55      12.0   5.0  13.1   1.9  62  1004   ---    SW    26    26   ---   0.7 Broken Clouds/
07/03/2008 11:55      11.0   6.0  12.7  11.0  71  1004   ---   WSW     5     5   ---   0.7 Broken Clouds/
07/03/2008 12:55      11.0   6.0  12.7   1.1  71  1004   ---     S    23    23   ---   0.7 Broken Clouds/
07/03/2008 13:55      12.0   5.0  13.1   4.1  62  1004   ---     S    18    18   ---   0.7 Broken Clouds/
07/03/2008 14:55      11.0   7.0  13.1  -1.8  76  1004   ---     W    43    74   ---   --- Overcast/ Light Rain
07/03/2008 15:55      11.0   7.0  13.1   4.9  76  1005   ---   WSW    13    13   ---   0.7 Broken Clouds/
07/03/2008 16:55      10.0   6.0  12.1   1.8  76  1005   ---     W    16    16   ---   0.7 Broken Clouds/
07/03/2008 17:55      10.0   6.0  12.1   2.7  76  1006   ---    SW    14    14   ---   0.7 Broken Clouds/
07/03/2008 18:55       9.0   6.0  11.5   9.0  81  1006   ---     N     0     0   ---   0.7 Broken Clouds/
08/03/2008 06:55      10.0   5.0  11.7  10.0  71  1008   ---     S     5     5   ---   0.7 Broken Clouds/
08/03/2008 07:55      10.0   6.0  12.1   6.2  76  1009   ---   SSW     8     8   ---   0.7 Broken Clouds/
08/03/2008 08:55      11.0   6.0  12.7   6.5  71  1009   ---    SE    10    10   ---   0.7 Broken Clouds/
08/03/2008 10:55      14.0   6.0  14.9   6.2  59  1009   ---    SW    19    51   ---   0.7 Scattered Clouds/
08/03/2008 11:55      14.0   5.0  14.7   4.9  55  1009   ---     S    26    50   ---   0.7 Scattered Clouds/
08/03/2008 12:55      16.0   5.0  16.3  14.4  48  1009   ---    NW     6     6   ---   0.7 Broken Clouds/
08/03/2008 13:55      15.0   5.0  15.5   9.3  51  1008   ---    SE    14    14   ---   0.7 Broken Clouds/
08/03/2008 14:55      12.0   5.0  13.1   4.5  62  1009   ---     S    16    16   ---   0.7 Broken Clouds/
08/03/2008 15:55      12.0   7.0  13.7   7.7  71  1009   ---    SW    10    10   ---   0.7 Broken Clouds/
08/03/2008 16:55      12.0   5.0  13.1   8.5  62  1009   ---    SW     8     8   ---   0.7 Broken Clouds/
08/03/2008 18:55      10.0   6.0  12.1   6.2  76  1010   ---   WSW     8     8   ---   0.7 Broken Clouds/
09/03/2008 06:55       8.0   2.0   9.4   8.0  66  1012   ---     W     5     5   ---   --- /
09/03/2008 07:55       9.0   3.0  10.4   6.8  66  1013   ---   WSW     6     6   ---   --- /
09/03/2008 09:55      14.0   3.0  14.3  14.0  47  1013   ---   ENE     5     5   ---   --- /
09/03/2008 10:55      14.0   4.0  14.5  10.8  51  1013   ---    SE     8     8   ---   0.7 Few Clouds/
09/03/2008 11:55      14.0   4.0  14.5   7.2  51  1013   ---     E    16    16   ---   0.7 Scattered Clouds/
09/03/2008 12:55      14.0   4.0  14.5   7.2  51  1013   ---     E    16    16   ---   0.7 Scattered Clouds/
09/03/2008 13:55      14.0   4.0  14.5   7.2  51  1013   ---     E    16    16   ---   0.7 Scattered Clouds/
09/03/2008 14:55      14.0   7.0  15.2   6.9  63  1013   ---   NNE    18    18   ---   0.7 Scattered Clouds/
09/03/2008 15:55      13.0   7.0  14.4   4.8  67  1013   ---   ESE    19    19   ---   0.7 Scattered Clouds/
09/03/2008 16:55      13.0   7.0  14.4   7.4  67  1013   ---     E    13    13   ---   0.7 Broken Clouds/
09/03/2008 17:55      12.0   8.0  14.1  10.1  77  1013   ---   ESE     6     6   ---   0.7 Scattered Clouds/
09/03/2008 18:55      12.0   8.0  14.1   8.5  77  1013   ---     S     8     8   ---   0.7 Broken Clouds/
10/03/2008 06:55       9.0   6.0  11.5  -1.3  81  1014   ---   WSW    21    21   ----3274--- Scattered Clouds/
10/03/2008 08:55      14.0   8.0  15.5   5.5  67  1014   ---   SSW    23    23   ----3274--- Broken Clouds/
10/03/2008 09:55      15.0   8.0  16.2   8.2  63  1014   ---    SW    18    40   ----3274--- Broken Clouds/
10/03/2008 10:55      17.0   8.0  17.7   8.9  55  1014   ---   SSW    29    58   ---   0.7 Broken Clouds/
10/03/2008 11:55      16.0   8.0  16.9   8.4  59  1014   ---   WSW    23    23   ---   0.7 Broken Clouds/
10/03/2008 12:55      17.0   7.0  17.5   7.7  52  1012   ---    SW    43    43   ---   0.7 Broken Clouds/
10/03/2008 13:55      16.0   7.0  16.7   5.9  55  1011   ---    SW    47    90   ---   0.7 Scattered Clouds/
10/03/2008 14:55      16.0   7.0  16.7   7.0  55  1011   ---   SSW    32    63   ---   0.7 Broken Clouds/
10/03/2008 15:55      16.0   6.0  16.5   6.9  51  1010   ---    SW    34    60   ---   0.7 Broken Clouds/
10/03/2008 16:55      15.0   6.0  15.7   6.1  55  1010   ---   SSW    27    56   ---   0.7 Broken Clouds/
10/03/2008 17:55      15.0   7.0  15.9   8.6  59  1010   ---   SSW    16    16   ---   0.7 Broken Clouds/
10/03/2008 18:55      14.0   8.0  15.5   4.6  67  1010   ---   WSW    27    60   ---   --- Overcast/ Light Rain
10/03/2008 18:55      14.0   8.0  15.5   4.6  67  1010   ---   WSW    27    60   ---   --- Overcast/ Light Rain
10/03/2008 15:55      16.0   6.0  16.5   6.9  51  1010   ---    SW    34    60   ---   0.7 Broken Clouds/
11/03/2008 06:55      10.0   7.0  12.5  10.0  82  1008   ---     N     0     0   ---   0.7 Broken Clouds/
11/03/2008 08:55      12.0   8.0  14.1   5.3  77  1007   ---    SW    14    37   ---   --- Overcast/ Rain
11/03/2008 09:55      11.0   8.0  13.5   0.4  82  1008   ---   WSW    26    50   ---   --- Overcast/ Light Rain
11/03/2008 10:55      11.0   9.0  13.9   0.4  87  1008   ---    SW    26    26   ---   0.6 Broken Clouds/
11/03/2008 11:55      13.0  10.0  15.5   1.2  82  1008   ---     W    45    79   ---   0.6 Broken Clouds/
11/03/2008 12:55      14.0  10.0  16.1   3.3  77  1008   ---   WSW    39    71   ---   0.7 Broken Clouds/
11/03/2008 13:55      16.0   9.0  17.2   6.1  63  1007   ---   WSW    43    64   ---   0.7 Broken Clouds/
11/03/2008 14:55      16.0   6.0  16.5   6.5  51  1007   ---   WSW    37    79   ---   0.7 Broken Clouds/
11/03/2008 15:55      15.0   6.0  15.7   4.0  55  1007   ---     W    55   108   ---   0.7 Scattered Clouds/
11/03/2008 16:55      15.0   7.0  15.9   4.9  59  1008   ---     W    37    37   ---   0.7 Scattered Clouds/
11/03/2008 17:55      14.0   8.0  15.5   3.2  67  1009   ---     W    40    40   ---   0.7 Broken Clouds/
11/03/2008 18:55      14.0   9.0  15.8   3.4  72  1009   ---     W    37    37   ---   0.7 Broken Clouds/
11/03/2008 11:55      13.0  10.0  15.5   1.2  82  1008   ---     W    45    79   ---   0.6 Broken Clouds/
12/03/2008 06:55      14.0  10.0  16.1   8.7  77  1015   ---   ESE    13    13   ---   0.4 Broken Clouds/
12/03/2008 07:55      15.0  10.0  16.8  12.0  72  1016   ---   ENE     8     8   ---   0.6 Scattered Clouds/
12/03/2008 09:55      18.0  11.0  19.2  11.3  64  1016   ---    NW    23    23   ----3274--- Scattered Clouds/
12/03/2008 10:55      19.0  12.0  20.2  13.7  64  1016   ---     N    18    18   ---   0.7 Scattered Clouds/
12/03/2008 11:55      20.0  13.0  21.3  15.9  64  1016   ---   SSW    14    14   ---   --- /
12/03/2008 12:55      21.0   9.0  21.3  19.9  46  1016   ---   ESE     6     6   ----3274--- Scattered Clouds/
12/03/2008 13:55      21.0   9.0  21.3  15.6  46  1016   ---   WNW    23    42   ----3274--- Scattered Clouds/
12/03/2008 14:55      20.0   9.0  20.4  15.3  49  1016   ---    NW    16    16   ----3274--- Broken Clouds/
12/03/2008 15:55      20.0   9.0  20.4  17.4  49  1016   ---     N    10    10   ----3274--- Broken Clouds/
12/03/2008 16:55      18.0   8.0  18.6  13.2  52  1015   ---   WSW    14    14   ----3274--- Broken Clouds/
12/03/2008 17:55      17.0   9.0  18.0  10.4  59  1015   ---   SSW    19    19   ---   1.0 Broken Clouds/
12/03/2008 18:55      17.0   9.0  18.0  11.0  59  1015   ---    SW    18    18   ---   1.0 Broken Clouds/
13/03/2008 06:55      15.0   7.0  15.9   6.9  59  1016   ---   NNE    23    23   ----3274--- Scattered Clouds/
13/03/2008 07:55      16.0   9.0  17.2   7.0  63  1016   ---    NW    32    32   ---   0.7 Few Clouds/
13/03/2008 08:55      16.0  10.0  17.5   7.6  68  1016   ---    NW    27    27   ----3274--- Scattered Clouds/
13/03/2008 10:55      17.0  10.0  18.2   8.5  63  1017   ---    NW    32    32   ---   --- /
13/03/2008 11:55      18.0  10.0  19.0  10.6  60  1017   ---    NW    27    27   ---   --- /
13/03/2008 12:55      18.0  10.0  19.0   9.9  60  1017   ---    NW    34    34   ---   --- /
13/03/2008 13:55      18.0   9.0  18.8   9.6  56  1016   ---    NW    37    37   ---   --- /
13/03/2008 14:55      18.0   8.0  18.6  10.2  52  1016   ---   NNW    31    31   ---   --- /
13/03/2008 15:55      18.0   8.0  18.6  10.8  52  1017   ---     N    26    26   ---   --- /
13/03/2008 16:55      16.0   7.0  16.7   8.7  55  1017   ---     N    21    21   ---   --- /
13/03/2008 17:55      15.0   7.0  15.9  11.3  59  1016   ---     W    10    10   ---   --- /
13/03/2008 18:55      14.0   6.0  14.9  14.0  59  1017   ---     N     0     0   ---   --- /
14/03/2008 06:55      11.0   2.0  11.6   4.9  54  1016   ---    SW    13    13   ---   --- /
14/03/2008 07:55      13.0   4.0  13.7   9.7  54  1016   ---   SSW     8     8   ---   --- /
14/03/2008 09:55      18.0   4.0  17.9  16.6  39  1017   ---     E     6     6   ---   --- /
14/03/2008 10:55      17.0   8.0  17.7  11.3  55  1017   ---     E    16    16   ---   --- /
14/03/2008 11:55      17.0   8.0  17.7  11.3  55  1017   ---     E    16    16   ---   --- /
14/03/2008 12:55      17.0   9.0  18.0  12.5  59  1017   ---   ESE    13    13   ---   --- /
14/03/2008 13:55      17.0   9.0  18.0  14.3  59  1017   ---     E     8     8   ---   --- /
14/03/2008 14:55      17.0  11.0  18.5  11.9  68  1017   ---     E    14    14   ---   0.7 Few Clouds/
14/03/2008 15:55      16.0  11.0  17.8  10.6  72  1016   ---   ESE    14    14   ---   0.7 Few Clouds/
14/03/2008 16:55      16.0  11.0  17.8  13.2  72  1016   ---     E     8     8   ---   0.7 Few Clouds/
14/03/2008 17:55      15.0  11.0  17.1  12.0  77  1016   ---   ESE     8     8   ---   0.7 Few Clouds/
14/03/2008 18:55      14.0  11.0  16.5  14.0  82  1017   ---     N     0     0   ---   0.6 Few Clouds/
14/03/2008 17:55      15.0  11.0  17.1  12.0  77  1016   ---   ESE     8     8   ---   0.7 Few Clouds/
15/03/2008 06:55      10.0   5.0  11.7   6.2  71  1017   ---   SSW     8     8   ---   --- /
15/03/2008 07:55      13.0   8.0  14.8  13.0  72  1017   ---     N     0     0   ---   --- /
15/03/2008 08:55      14.0   9.0  15.8  14.0  72  1017   ---   ---     0     0   ---   --- /
15/03/2008 10:55      17.0  11.0  18.5  14.3  68  1017   ---     E     8     8   ---   --- /
15/03/2008 11:55      17.0  11.0  18.5  11.3  68  1017   ---     E    16    16   ---   --- /
15/03/2008 12:55      18.0  11.0  19.2  15.0  64  1016   ---     E    10    10   ---   --- /
15/03/2008 13:55      17.0  11.0  18.5  13.8  68  1016   ---     E    10    10   ---   --- /
15/03/2008 14:55      17.0  11.0  18.5  13.8  68  1016   ---     E    10    10   ---   --- /
15/03/2008 15:55      16.0  11.0  17.8  13.2  72  1015   ---     E     8     8   ---   --- /
15/03/2008 16:55      16.0  11.0  17.8  13.2  72  1015   ---     E     8     8   ---   --- /
15/03/2008 17:55      15.0  10.0  16.8  12.0  72  1015   ---     E     8     8   ----3274--- Scattered Clouds/
15/03/2008 18:55      13.0   8.0  14.8  13.0  72  1015   ---     N     0     0   ----3274--- Scattered Clouds/
16/03/2008 06:55      12.0   8.0  14.1   8.5  77  1014   ---    SW     8     8   ----32740.1 Broken Clouds/
16/03/2008 07:55      14.0  10.0  16.1  14.0  77  1015   ---     N     0     0   ----32740.1 Broken Clouds/
16/03/2008 09:55      18.0  11.0  19.2  18.0  64  1015   ---     E     3     3   ----32740.0 Broken Clouds/
16/03/2008 10:55      18.0  11.0  19.2  18.0  64  1015   ---     E     3     3   ----32740.0 Overcast/
16/03/2008 11:55      19.0  12.0  20.2  17.7  64  1014   ---     E     6     6   ----32740.0 Overcast/
16/03/2008 12:55      19.0  13.0  20.5  16.2  68  1013   ---   ENE    10    10   ----32740.0 Overcast/
16/03/2008 13:55      19.0  12.0  20.2  16.7  64  1012   ---     E     8     8   ----32740.0 Broken Clouds/
16/03/2008 14:55      19.0  12.0  20.2  15.1  64  1012   ---     E    13    13   ----32740.0 Broken Clouds/
16/03/2008 15:55      18.0  12.0  19.5  13.2  68  1012   ---   ESE    14    14   ----32741.2 Scattered Clouds/
16/03/2008 16:55      17.0  12.0  18.8  13.8  72  1012   ---   ESE    10    10   ---   0.9 Scattered Clouds/
16/03/2008 17:55      15.0  11.0  17.1  15.0  77  1012   ---     E     5     5   ----32741.2 Few Clouds/
16/03/2008 18:55      14.0  11.0  16.5  14.0  82  1012   ---     N     0     0   ---   --- /
16/03/2008 16:55      17.0  12.0  18.8  13.8  72  1012   ---   ESE    10    10   ---   0.9 Scattered Clouds/
17/03/2008 06:55      12.0   8.0  14.1  12.0  77  1012   ---     N     0     0   ---   0.8 Scattered Clouds/
17/03/2008 07:55      14.0   9.0  15.8  10.1  72  1012   ---    NW    10    10   ---   --- /
17/03/2008 08:55      16.0   7.0  16.7  11.3  55  1012   ---    NW    13    13   ---   --- /
17/03/2008 09:55      17.0   7.0  17.5  13.8  52  1013   ---    NW    10    10   ---   --- /
17/03/2008 10:55      17.0   7.0  17.5  11.0  52  1013   ---   WNW    18    18   ---   --- /
17/03/2008 11:55      18.0   6.0  18.2  11.6  45  1013   ---    NW    21    21   ---   --- /
17/03/2008 12:55      18.0   4.0  17.9  11.8  39  1012   ---    NW    19    19   ---   0.8 Few Clouds/
17/03/2008 13:55      19.0   5.0  18.9  13.7  40  1011   ---     W    18    18   ---   --- /
17/03/2008 14:55      19.0   5.0  18.9  14.5  40  1011   ---    NW    14    14   ---   0.8 Few Clouds/
17/03/2008 15:55      17.0   5.0  17.2  10.4  45  1011   ---    NW    19    19   ---   0.8 Few Clouds/
17/03/2008 16:55      16.0   5.0  16.3  13.2  48  1011   ---   NNW     8     8   ---   0.8 Few Clouds/
17/03/2008 17:55      15.0   4.0  15.3  10.0  48  1011   ---   WSW    13    13   ---   --- /
17/03/2008 17:55      15.0   4.0  15.3  10.0  48  1011   ---   WSW    13    13   ---   --- None reported/None reported
17/03/2008 18:55      14.0   5.0  14.7  12.3  55  1011   ---    SE     6     6   ---   --- /
18/03/2008 06:55      13.0   7.0  14.4   1.8  67  1007   ---   SSW    37    37   ----3274--- Scattered Clouds/
18/03/2008 07:55      15.0   7.0  15.9   5.9  59  1007   ---   SSW    29    29   ----32742.1 Scattered Clouds/
18/03/2008 08:55      16.0   7.0  16.7   7.0  55  1008   ---   SSW    32    32   ---   --- /
18/03/2008 10:55      19.0   9.0  19.6  11.6  52  1007   ---     S    32    32   ---   --- /
18/03/2008 11:55      20.0   9.0  20.4  13.1  49  1007   ---   SSW    32    32   ---   --- /
18/03/2008 12:55      21.0   9.0  21.3  14.5  46  1006   ---   SSW    34    34   ---   --- /
18/03/2008 13:55      22.0   8.0  22.0  16.2  41  1005   ---    SW    32    32   ---   --- /
18/03/2008 14:55      23.0   7.0  22.8  17.8  36  1004   ---    SW    31    31   ---   --- /
18/03/2008 15:55      22.0   7.0  21.9  16.5  38  1004   ---     S    27    27   ---   --- /
18/03/2008 16:55      22.0   5.0  21.7  17.9  33  1004   ---   WSW    18    18   ---   --- /
18/03/2008 17:55      19.0   7.0  19.2  13.0  46  1005   ---     W    21    21   ---   --- /
18/03/2008 18:55      18.0   4.0  17.9  13.2  39  1005   ---    SW    14    14   ---   --- /
19/03/2008 06:55      15.0  11.0  17.1   6.9  77  1006   ---     W    23    23   ---   0.7 Broken Clouds/
19/03/2008 07:55      15.0  11.0  17.1   8.6  77  1006   ---     W    16    16   ---   0.7 Broken Clouds/
19/03/2008 09:55      16.0  12.0  18.1  13.2  77  1007   ---    NE     8     8   ---   0.6 Broken Clouds/
19/03/2008 10:55      17.0  11.0  18.5  11.9  68  1007   ---     W    14    14   ---   0.7 Scattered Clouds/
19/03/2008 11:55      19.0  10.0  19.8  16.7  56  1007   ---     W     8     8   ---   0.7 Scattered Clouds/
19/03/2008 12:55      19.0  10.0  19.8  13.7  56  1007   ---   WSW    18    18   ---   0.7 Broken Clouds/
19/03/2008 13:55      19.0  10.0  19.8  14.0  56  1006   ---   WNW    16    16   ---   0.7 Scattered Clouds/
19/03/2008 14:55      19.0  10.0  19.8  16.2  56  1006   ---   WNW    10    10   ---   0.7 Scattered Clouds/
19/03/2008 15:55      18.0  10.0  19.0  13.8  60  1006   ---   WNW    13    13   ---   0.7 Broken Clouds/
19/03/2008 16:55      16.0  10.0  17.5  10.6  68  1006   ---   WNW    14    14   ---   0.7 Broken Clouds/
19/03/2008 17:55      15.0  11.0  17.1   8.2  77  1006   ---   WNW    18    18   ---   0.7 Broken Clouds/
19/03/2008 18:55      14.0  10.0  16.1   5.8  77  1007   ---     W    21    21   ---   0.7 Scattered Clouds/
20/03/2008 06:55      11.0   7.0  13.1  11.0  76  1007   ---   WSW     5     5   ---   0.6 Broken Clouds/
20/03/2008 07:55      13.0   9.0  15.1  13.0  77  1007   ---    NW     5     5   ---   0.6 Broken Clouds/
20/03/2008 08:55      15.0   8.0  16.2  13.3  63  1008   ---     W     6     6   ---   0.6 Broken Clouds/
20/03/2008 10:55      18.0   8.0  18.6  12.6  52  1008   ---     S    16    16   ---   0.7 Broken Clouds/
20/03/2008 11:55      17.0  10.0  18.2  10.1  63  1008   ---   NNW    21    21   ---   0.6 Broken Clouds/
20/03/2008 12:55      16.0  10.0  17.5   7.6  68  1007   ---    NW    27    27   ---   0.7 Broken Clouds/
20/03/2008 13:55      17.0   8.0  17.7   9.1  55  1007   ---   WNW    27    27   ---   0.7 Broken Clouds/
20/03/2008 14:55      16.0   6.0  16.5   7.6  51  1007   ---    NW    27    27   ---   0.7 Broken Clouds/
20/03/2008 15:55      16.0   8.0  16.9  10.6  59  1006   ---   WNW    14    14   ---   0.7 Broken Clouds/
20/03/2008 16:55      15.0   6.0  15.7   9.3  55  1006   ---    NW    14    14   ---   0.7 Overcast/
20/03/2008 17:55      14.0   7.0  15.2   6.9  63  1006   ---     W    18    18   ---   0.7 Overcast/
20/03/2008 18:55      13.0   7.0  14.4   3.1  67  1006   ---     W    27    27   ---   --- Overcast/ Light Rain
21/03/2008 06:55      11.0   6.0  12.7   7.3  71  1006   ---    NW     8     8   ---   0.7 Broken Clouds/
21/03/2008 07:55      11.0   5.0  12.4   4.0  66  1007   ---    NW    14    14   ---   0.7 Scattered Clouds/
21/03/2008 07:55      11.0   5.0  12.4   4.0  66  1007   ---    NW    14    14   ---   0.7 Scattered Clouds/None reported
21/03/2008 09:55      12.0   6.0  13.4   1.9  67  1008   ---    NW    26    26   ---   0.7 Scattered Clouds/
21/03/2008 10:55      13.0   5.0  13.9   3.4  58  1008   ---   WNW    26    26   ---   0.7 Scattered Clouds/
21/03/2008 13:55      13.0   4.0  13.7   5.5  54  1006   ---    NW    18    18   ---   0.7 Scattered Clouds/
21/03/2008 14:55      14.0   4.0  14.5   6.2  51  1006   ---    NW    19    19   ---   0.7 Scattered Clouds/
21/03/2008 15:55      14.0   3.0  14.3   4.9  47  1005   ---    NW    26    26   ---   0.7 Few Clouds/
21/03/2008 16:55      13.0   3.0  13.5   3.1  51  1005   ---    NW    27    27   ---   0.7 Scattered Clouds/
21/03/2008 17:55      12.0   3.0  12.7   5.3  54  1004   ---     W    14    14   ---   0.7 Scattered Clouds/
21/03/2008 18:55      11.0   3.0  11.9  11.0  58  1004   ---     W     5     5   ---   0.7 Scattered Clouds/
21/03/2008 16:55      13.0   3.0  13.5   3.1  51  1005   ---    NW    27    27   ---   0.7 Scattered Clouds/
22/03/2008 06:55      12.0   6.0  13.4   1.6  67   998   ---   SSW    27    27   ---   0.7 Scattered Clouds/
22/03/2008 07:55      13.0   7.0  14.4   8.9  67   998   ---   SSW    10    10   ---   0.7 Scattered Clouds/
22/03/2008 09:55      16.0   8.0  16.9   9.9  59   999   ---   WSW    16    16   ---   0.7 Scattered Clouds/
22/03/2008 10:55      16.0   8.0  16.9   9.0  59   999   ---   SSW    19    19   ---   0.7 Scattered Clouds/
22/03/2008 12:55      18.0   8.0  18.6  16.6  52   997   ---     W     6     6   ---   0.7 Scattered Clouds/
22/03/2008 13:55      18.0   8.0  18.6  11.8  52   997   ---    SW    19    19   ---   0.7 Scattered Clouds/
22/03/2008 14:55      17.0   8.0  17.7   9.3  55   996   ---     S    26    26   ---   0.7 Scattered Clouds/
22/03/2008 15:55      17.0   7.0  17.5   9.1  52   995   ---     S    27    27   ---   0.7 Scattered Clouds/
22/03/2008 16:55      16.0   8.0  16.9   8.7  59   995   ---   SSW    21    21   ---   0.7 Broken Clouds/
22/03/2008 17:55      15.0   6.0  15.7   6.1  55   994   ---   SSW    27    27   ---   0.7 Broken Clouds/
22/03/2008 18:55      15.0   5.0  15.5   6.4  51   994   ---    SW    26    26   ---   0.7 Broken Clouds/
23/03/2008 06:55      14.0   0.0  13.9   8.0  38   994   ---    SW    14    14   ----32741.2 Few Clouds/
23/03/2008 07:55      16.0   3.0  16.0   6.5  42   994   ---    SW    37    37   ---   --- /
23/03/2008 09:55      18.0   8.0  18.6   9.4  52   994   ---    SW    40    40   ---   --- /
23/03/2008 10:55      18.0   7.0  18.4  10.0  49   994   ---   WSW    32    32   ---   0.7 Scattered Clouds/
23/03/2008 11:55      19.0   9.0  19.6  12.0  52   995   ---   WSW    27    27   ---   0.7 Scattered Clouds/
23/03/2008 12:55      19.0   9.0  19.6  12.0  52   995   ---   WSW    27    27   ---   0.7 Scattered Clouds/
23/03/2008 13:55      19.0   8.0  19.4  11.9  49   995   ---   WSW    29    29   ---   0.7 Scattered Clouds/
23/03/2008 14:55      20.0   9.0  20.4  13.4  49   995   ---   WSW    29    29   ---   0.7 Scattered Clouds/
23/03/2008 15:55      19.0   7.0  19.2  13.0  46   995   ---   WSW    21    21   ---   0.7 Scattered Clouds/
23/03/2008 16:55      19.0   7.0  19.2  14.5  46   995   ---     W    14    14   ---   0.7 Scattered Clouds/
23/03/2008 17:55      17.0   9.0  18.0   8.7  59   996   ---     W    31    31   ---   0.7 Scattered Clouds/
23/03/2008 18:55      16.0   7.0  16.7   8.4  55   997   ---     W    23    23   ---   0.7 Broken Clouds/
24/03/2008 06:55       7.0   6.0  10.4   1.7  93  1000   ---     W    10    10   ---   --- Overcast/ Light Rain
24/03/2008 07:55       7.0   6.0  10.4   2.7  93  1000   ---   WSW     8     8   ---   --- Overcast/ Light Rain
24/03/2008 09:55      11.0   6.0  12.7   1.1  71  1000   ---     W    23    23   ---   0.7 Broken Clouds/
24/03/2008 10:55      11.0   5.0  12.4   0.1  66  1000   ---   WNW    27    27   ---   --- Overcast/ Rain
24/03/2008 11:55       8.0   6.0  10.9  -2.7  87  1001   ---     W    21    21   ---   --- Overcast/ Light Rain
24/03/2008 12:55       9.0   7.0  11.9  -2.9  87  1001   ---     W    27    27   ---   0.6 Broken Clouds/
24/03/2008 13:55      11.0   6.0  12.7  -0.7  71  1000   ---   WNW    32    32   ---   0.6 Broken Clouds/
24/03/2008 14:55      12.0   5.0  13.1   1.6  62  1000   ---     W    27    27   ---   0.6 Broken Clouds/
24/03/2008 16:04       0.0   0.0   4.0 -17.5 100   ---   ---     W    32    32   ---   --- Overcast/ Rain
24/03/2008 16:56       0.0   0.0   4.0 -20.1 100   ---   ---     W    51    51   ---   --- Overcast/ Light Rain
24/03/2008 17:55       9.0   5.0  11.1  -3.5  76   999   ---     W    31    31   ---   0.6 Broken Clouds/
24/03/2008 18:55       9.0   5.0  11.1  -3.8  76   999   ---     W    32    32   ---   0.6 Overcast/
24/03/2008 17:55       9.0   5.0  11.1  -3.5  76   999   ---     W    31    31   ---   0.6 Broken Clouds/
25/03/2008 06:55      13.0   6.0  14.2   0.8  62  1005   ---   WNW    51    69   ---   0.8 Broken Clouds/
25/03/2008 07:55      13.0   7.0  14.4   1.2  67  1005   ---     W    45    64   ---   0.8 Broken Clouds/
25/03/2008 09:55      16.0   7.0  16.7   6.5  55  1007   ---   WNW    37    55   ---   0.8 Scattered Clouds/
25/03/2008 10:55      17.0   8.0  17.7   7.6  55  1006   ---     W    45    45   ---   0.8 Broken Clouds/
25/03/2008 11:55      17.0   7.0  17.5   7.2  52  1006   ---     W    55    55   ---   0.8 Scattered Clouds/
25/03/2008 12:55      17.0   8.0  17.7   7.2  55  1007   ---     W    51    69   ---   0.8 Scattered Clouds/
25/03/2008 13:55      17.0   9.0  18.0   7.6  59  1006   ---     W    45    45   ---   0.8 Scattered Clouds/
25/03/2008 14:55      17.0   9.0  18.0   7.6  59  1005   ---     W    45    45   ---   0.8 Scattered Clouds/
25/03/2008 15:55      16.0   9.0  17.2   6.0  63  1005   ---     W    45    45   ---   0.8 Scattered Clouds/
25/03/2008 16:55      15.0   8.0  16.2   4.9  63  1006   ---     W    37    37   ---   0.8 Scattered Clouds/
25/03/2008 17:55      14.0   8.0  15.5   3.4  67  1006   ---     W    37    37   ---   0.8 Few Clouds/
25/03/2008 18:55      14.0   8.0  15.5   3.9  67  1007   ---     W    32    32   ---   0.7 Few Clouds/
26/03/2008 06:55      13.0   7.0  14.4   4.0  67  1008   ---   WNW    23    23   ---   0.7 Scattered Clouds/
26/03/2008 07:55      13.0   7.0  14.4   4.0  67  1008   ---     W    23    23   ---   0.7 Broken Clouds/
26/03/2008 09:55      14.0   9.0  15.8   8.0  72  1009   ---   WSW    14    14   ---   0.6 Broken Clouds/
26/03/2008 10:55      15.0   8.0  16.2   7.3  63  1009   ---   WSW    21    21   ---   0.7 Scattered Clouds/
26/03/2008 11:55      16.0   8.0  16.9  10.6  59  1009   ---     W    14    14   ---   0.7 Scattered Clouds/
26/03/2008 12:55      16.0   8.0  16.9   9.6  59  1009   ---     W    18    18   ---   0.7 Scattered Clouds/
26/03/2008 13:55      18.0   9.0  18.8  10.8  56  1009   ---     W    26    26   ---   0.7 Scattered Clouds/
26/03/2008 14:55      18.0   8.0  18.6  11.6  52  1009   ---     W    21    21   ---   0.7 Scattered Clouds/
26/03/2008 15:55      17.0   7.0  17.5   9.1  52  1008   ---     W    27    27   ---   0.7 Scattered Clouds/
26/03/2008 16:55      17.0   8.0  17.7   8.5  55  1007   ---     W    32    32   ---   0.7 Scattered Clouds/
26/03/2008 17:55      15.0   8.0  16.2   8.2  63  1007   ---   WSW    18    18   ---   0.7 Scattered Clouds/
26/03/2008 18:55      15.0   8.0  16.2   7.6  63  1007   ---   WSW    19    19   ---   0.7 Scattered Clouds/
26/03/2008 12:55      16.0   8.0  16.9   9.6  59  1009   ---     W    18    18   ---   0.7 Scattered Clouds/
27/03/2008 06:55      12.0   9.0  14.5   8.5  82  1001   ---   WSW     8     8   ---   --- Overcast/ Light Rain
27/03/2008 07:55      12.0   9.0  14.5  10.1  82  1000   ---    SW     6     6   ---   0.6 Overcast/
27/03/2008 09:55      10.0   8.0  12.9   2.7  87  1000   ---   WNW    14    14   ---   --- Overcast/ Light Rain
27/03/2008 10:55      11.0   8.0  13.5   7.3  82   999   ---     S     8     8   ---   0.6 Overcast/
27/03/2008 11:55      13.0   9.0  15.1   8.9  77   998   ---     W    10    10   ---   0.6 Broken Clouds/
27/03/2008 12:55      14.0   9.0  15.8   6.9  72   998   ---   SSE    18    18   ---   0.6 Broken Clouds/
27/03/2008 13:55      14.0   8.0  15.5   8.0  67   997   ---     W    14    14   ---   0.6 Broken Clouds/
27/03/2008 14:55      13.0   8.0  14.8   9.7  72   996   ---   WSW     8     8   ---   0.7 Broken Clouds/
27/03/2008 15:55      13.0   9.0  15.1  11.2  77   996   ---   SSW     6     6   ---   0.6 Broken Clouds/
27/03/2008 16:55      12.0   9.0  14.5  10.1  82   996   ---   NNE     6     6   ---   0.7 Broken Clouds/
27/03/2008 17:55      12.0   9.0  14.5  10.1  82   997   ---   WNW     6     6   ---   --- Overcast/ Light Rain
27/03/2008 18:55      11.0   9.0  13.9  11.0  87   997   ---    NW     5     5   ---   0.6 Broken Clouds/
28/03/2008 06:55      11.0   3.0  11.9   0.1  58  1000   ---   WNW    27    27   ---   0.8 Broken Clouds/
28/03/2008 07:55      12.0   5.0  13.1   0.8  62  1001   ---     W    32    51   ---   0.8 Broken Clouds/
28/03/2008 09:55      10.0   6.0  12.1  -1.9  76  1001   ---     W    31    31   ---   --- Overcast/ Light Rain
28/03/2008 10:55      10.0   7.0  12.5  -1.1  82  1002   ---     W    26    45   ---   --- Overcast/ Light Rain
28/03/2008 11:55      11.0   8.0  13.5   4.0  82  1003   ---    NW    14    14   ---   --- Overcast/ Light Rain
28/03/2008 12:55      11.0   8.0  13.5   1.9  82  1003   ---   WNW    19    19   ---   --- Overcast/ Light Rain
28/03/2008 13:55      12.0   8.0  14.1   2.6  77  1003   ---    NW    23    42   ---   0.6 Broken Clouds/
28/03/2008 14:55      12.0   8.0  14.1   2.6  77  1004   ---    NW    23    23   ---   0.6 Broken Clouds/
28/03/2008 15:55      12.0   9.0  14.5   3.3  82  1005   ---    NW    19    39   ---   0.5 Broken Clouds/
28/03/2008 16:55      12.0   9.0  14.5   3.0  82  1006   ---    NW    21    21   ---   --- Overcast/ Light Rain
28/03/2008 17:55      12.0  10.0  14.9   2.6  88  1007   ---    NW    23    23   ---   0.4 Broken Clouds/
28/03/2008 18:55      12.0  10.0  14.9   5.3  88  1008   ---   NNW    14    14   ---   0.4 Broken Clouds/
29/03/2008 06:55      11.0   7.0  13.1   4.9  76  1017   ---    SW    13    13   ---   --- /
29/03/2008 07:55      13.0   9.0  15.1  13.0  77  1017   ---   SSW     5     5   ---   --- /
29/03/2008 09:55      18.0   8.0  18.6  18.0  52  1018   ---     N     3     3   ---   --- /
29/03/2008 10:55      18.0   8.0  18.6  15.0  52  1019   ---    NE    10    10   ---   --- /
29/03/2008 11:55      18.0   9.0  18.8  12.4  56  1019   ---   WNW    18    18   ---   0.7 Few Clouds/
29/03/2008 12:55      19.0   7.0  19.2  13.0  46  1020   ---   WNW    21    21   ---   0.7 Few Clouds/
29/03/2008 13:55      18.0   9.0  18.8  11.3  56  1019   ---   WNW    23    23   ---   0.7 Few Clouds/
29/03/2008 14:55      18.0  10.0  19.0  12.4  60  1019   ---    NW    18    18   ---   0.7 Few Clouds/
29/03/2008 15:55      17.0  10.0  18.2   9.3  63  1019   ---    NW    26    26   ---   0.7 Few Clouds/
29/03/2008 16:55      16.0  10.0  17.5  10.6  68  1019   ---     N    14    14   ---   0.7 Scattered Clouds/
29/03/2008 17:55      15.0  10.0  16.8  11.3  72  1019   ---   NNE    10    10   ---   0.7 Scattered Clouds/
29/03/2008 18:55      14.0  11.0  16.5  12.3  82  1020   ---    NE     6     6   ---   --- /
30/03/2008 06:55      11.0   7.0  13.1   6.5  76  1020   ---    SW    10    10   ---   0.7 Broken Clouds/
30/03/2008 07:55      11.0   8.0  13.5   9.0  82  1020   ---    SW     6     6   ---   0.7 Scattered Clouds/
30/03/2008 08:55      12.0   9.0  14.5  12.0  82  1021   ---     N     0     0   ---   0.7 Scattered Clouds/
30/03/2008 10:55      16.0  11.0  17.8  13.2  72  1021   ---     E     8     8   ---   0.7 Scattered Clouds/
30/03/2008 11:55      16.0  11.0  17.8  12.5  72  1021   ---     E    10    10   ---   0.7 Scattered Clouds/
30/03/2008 12:55      17.0  11.0  18.5  13.8  68  1021   ---     E    10    10   ---   0.7 Scattered Clouds/
30/03/2008 13:55      17.0  11.0  18.5  13.8  68  1020   ---   ESE    10    10   ---   0.7 Broken Clouds/
30/03/2008 14:55      17.0  11.0  18.5  14.3  68  1019   ---     E     8     8   ---   0.7 Scattered Clouds/
30/03/2008 15:55      17.0  11.0  18.5  11.3  68  1019   ---     E    16    16   ---   0.7 Scattered Clouds/
30/03/2008 16:55      16.0  11.0  17.8  13.2  72  1019   ---     E     8     8   ---   0.7 Scattered Clouds/
30/03/2008 17:55      16.0  12.0  18.1  13.2  77  1019   ---     E     8     8   ---   0.7 Scattered Clouds/
30/03/2008 18:55      14.0  11.0  16.5  10.8  82  1019   ---   ENE     8     8   ---   0.7 Broken Clouds/
30/03/2008 19:55      14.0  11.0  16.5  14.0  82  1019   ---     E     5     5   ---   0.6 Broken Clouds/
31/03/2008 06:55      11.0   6.0  12.7  11.0  71  1016   ---    SW     3     3   ---   --- /
31/03/2008 07:55      11.0   8.0  13.5  11.0  82  1015   ---     S     3     3   ----3274--- Broken Clouds/
31/03/2008 08:55      14.0  10.0  16.1  14.0  77  1015   ---    SE     5     5   ----3274--- Broken Clouds/
31/03/2008 10:55      18.0   9.0  18.8  16.6  56  1014   ---   NNW     6     6   ----3274--- Broken Clouds/
31/03/2008 11:55      18.0   9.0  18.8  13.8  56  1014   ---   NNE    13    13   ----3274--- Broken Clouds/
31/03/2008 12:55      18.0   9.0  18.8  13.2  56  1014   ---   NNE    14    14   ----3274--- Broken Clouds/
31/03/2008 13:55      18.0  11.0  19.2  13.2  64  1013   ---     N    14    14   ----3274--- Broken Clouds/
31/03/2008 14:55      18.0  10.0  19.0  15.0  60  1013   ---    NE    10    10   ----3274--- Broken Clouds/
31/03/2008 15:55      17.0  11.0  18.5  12.5  68  1012   ---    SE    13    13   ---   0.7 Broken Clouds/
31/03/2008 16:55      16.0  11.0  17.8  12.5  72  1012   ---    SE    10    10   ---   0.7 Broken Clouds/
31/03/2008 17:55      15.0  11.0  17.1  12.0  77  1012   ---    SE     8     8   ---   0.8 Broken Clouds/
31/03/2008 18:55      15.0  11.0  17.1  12.0  77  1011   ---     E     8     8   ---   0.7 Broken Clouds/
31/03/2008 19:55      15.0  11.0  17.1  15.0  77  1011   ---     N     0     0   ---   0.7 Broken Clouds/
01/04/2008 06:55      12.0  10.0  14.9  12.0  88  1007   ---    SW     5     5   ---   0.6 Overcast/
01/04/2008 07:55      13.0  11.0  15.9  13.0  88  1007   ---     N     0     0   ---   0.6 Broken Clouds/
01/04/2008 09:55      15.0  11.0  17.1  12.0  77  1007   ---     E     8     8   ---   0.6 Broken Clouds/
01/04/2008 11:55      16.0   9.0  17.2   8.7  63  1008   ---    SE    21    40   ---   0.6 Broken Clouds/
01/04/2008 12:55      14.0   8.0  15.5   5.5  67  1009   ---     S    23    23   ---   1.0 Broken Clouds/
01/04/2008 13:55      15.0   8.0  16.2   7.6  63  1009   ---     S    19    39   ---   1.2 Overcast/
01/04/2008 14:55      16.0   9.0  17.2   9.9  63  1009   ---    SE    16    16   ---   1.0 Broken Clouds/
01/04/2008 15:55      15.0   9.0  16.5   8.6  67  1009   ---     S    16    16   ---   0.9 Broken Clouds/
01/04/2008 16:55      14.0   7.0  15.2   8.7  63  1009   ---     S    13    13   ----3274--- Broken Clouds/
01/04/2008 18:55      14.0   6.0  14.9  10.8  59  1010   ---     S     8     8   ----32740.6 Overcast/
01/04/2008 19:55      13.0   6.0  14.2  13.0  62  1011   ---     N     0     0   ----32741.2 Overcast/
02/04/2008 06:55      10.0   8.0  12.9   7.9  87  1015   ---    SW     6     6   ---   0.7 Few Clouds/
02/04/2008 07:55      11.0   8.0  13.5   7.3  82  1016   ---    SW     8     8   ---   --- /
02/04/2008 08:55      14.0   9.0  15.8  14.0  72  1016   ---     S     5     5   ---   --- /
02/04/2008 10:55      17.0   9.0  18.0  17.0  59  1017   ---     N     0     0   ---   --- /
02/04/2008 11:55      18.0   7.0  18.4  13.2  49  1017   ---     N    14    14   ---   --- /
02/04/2008 12:55      18.0   8.0  18.6  13.8  52  1016   ---     W    13    13   ---   --- /
02/04/2008 13:55      19.0   8.0  19.4  13.2  49  1016   ---    NW    19    19   ---   --- /
02/04/2008 14:55      19.0   9.0  19.6  13.0  52  1015   ---    NW    21    21   ---   0.7 Few Clouds/
02/04/2008 15:55      19.0  10.0  19.8  11.9  56  1015   ---   WNW    29    29   ---   0.7 Few Clouds/
02/04/2008 16:55      18.0   6.0  18.2   9.6  45  1015   ---     W    37    37   ----32740.4 Few Clouds/
02/04/2008 17:55      17.0   4.0  17.1   9.3  42  1014   ---     W    26    26   ----32740.4 Scattered Clouds/
02/04/2008 18:55      17.0   5.0  17.2  10.1  45  1014   ---     W    21    21   ----3274--- Broken Clouds/
02/04/2008 19:55      16.0   5.0  16.3   8.7  48  1014   ---     W    21    21   ----3274--- Scattered Clouds/
03/04/2008 06:55      13.0   8.0  14.8  11.2  72  1009   ---    NW     6     6   ---   --- /
03/04/2008 07:55      13.0   8.0  14.8  13.0  72  1010   ---     N     0     0   ---   --- /
03/04/2008 08:55      15.0   9.0  16.5  13.3  67  1011   ---   WNW     6     6   ---   --- /
03/04/2008 09:55      17.0   9.0  18.0  11.9  59  1011   ---     S    14    14   ---   --- /
03/04/2008 12:55      18.0   6.0  18.2  10.2  45  1010   ---   WNW    31    55   ---   0.7 Scattered Clouds/
03/04/2008 13:55      18.0   8.0  18.6  10.0  52  1010   ---     W    32    51   ---   0.6 Scattered Clouds/
03/04/2008 14:55      17.0   8.0  17.7   8.4  55  1011   ---   WNW    34    34   ---   0.7 Scattered Clouds/
03/04/2008 15:55      17.0   9.0  18.0   8.9  59  1010   ---   WNW    29    29   ---   0.7 Few Clouds/
03/04/2008 16:55      16.0   5.0  16.3   8.4  48  1009   ---   WNW    23    23   ---   0.7 Scattered Clouds/
03/04/2008 17:55      15.0   7.0  15.9   7.6  59  1009   ---    NW    19    19   ---   0.7 Few Clouds/
03/04/2008 18:55      14.0   9.0  15.8  10.8  72  1011   ---    NW     8     8   ---   0.7 Broken Clouds/
03/04/2008 19:55      13.0   9.0  15.1  13.0  77  1011   ---     N     0     0   ---   0.7 Broken Clouds/
04/04/2008 06:55      11.0   5.0  12.4   9.0  66  1009   ---    SW     6     6   ---   0.7 Scattered Clouds/
04/04/2008 07:55      12.0   4.0  12.9   7.7  58  1009   ---     W    10    10   ---   0.7 Scattered Clouds/
04/04/2008 08:55      14.0   6.0  14.9   7.2  59  1010   ---     W    16    16   ---   0.7 Scattered Clouds/
04/04/2008 09:29       0.0   0.0   4.0  -6.7 100   ---   ---     W    10    10   ---   0.4 Broken Clouds/
04/04/2008 10:55      12.0   9.0  14.5  10.1  82  1010   ---   WNW     6     6   ---   0.4 Broken Clouds/
04/04/2008 12:55      14.0   8.0  15.5   6.2  67  1010   ---   WNW    19    19   ---   0.7 Broken Clouds/
04/04/2008 13:55      14.0   7.0  15.2   5.5  63  1010   ---   WNW    23    23   ---   0.7 Broken Clouds/
04/04/2008 14:55      15.0   7.0  15.9   6.4  59  1009   ---     W    26    26   ---   0.7 Broken Clouds/
04/04/2008 15:55      15.0   7.0  15.9   8.2  59  1009   ---     W    18    18   ---   0.7 Broken Clouds/
04/04/2008 16:55      13.0   8.0  14.8   5.5  72  1008   ---     W    18    18   ---   0.7 Broken Clouds/
04/04/2008 17:55      13.0   8.0  14.8   4.8  72  1008   ---   WNW    19    19   ---   0.7 Broken Clouds/
04/04/2008 18:55      12.0   8.0  14.1   5.3  77  1008   ---   WNW    14    14   ---   0.7 Broken Clouds/
04/04/2008 19:55      12.0   7.0  13.7  10.1  71  1008   ---   NNW     6     6   ---   0.7 Broken Clouds/
04/04/2008 15:55      15.0   7.0  15.9   8.2  59  1009   ---     W    18    18   ---   0.7 Broken Clouds/
05/04/2008 06:55      10.0   8.0  12.9  10.0  87  1009   ---   WNW     3     3   ---   0.4 Broken Clouds/
05/04/2008 07:55      10.0   8.0  12.9   5.3  87  1009   ---   WNW    10    10   ---   --- Overcast/ Rain
05/04/2008 08:55      10.0   8.0  12.9  10.0  87  1009   ---    SW     5     5   ---   0.5 Broken Clouds/
05/04/2008 09:22       0.0   0.0   4.0   0.0 100   ---   ---     N     0     0   ---   0.5 Broken Clouds/
05/04/2008 09:55      12.0   9.0  14.5  12.0  82  1010   ---   NNW     5     5   ---   0.5 Broken Clouds/
05/04/2008 11:55      13.0   9.0  15.1  13.0  77  1010   ---     N     5     5   ---   0.7 Broken Clouds/
05/04/2008 12:55      15.0   8.0  16.2   7.6  63  1010   ---     N    19    19   ---   0.7 Broken Clouds/
05/04/2008 13:55      15.0   8.0  16.2  11.3  63  1009   ---     N    10    10   ---   0.7 Broken Clouds/
05/04/2008 14:55      15.0   8.0  16.2   7.6  63  1009   ---    NW    19    19   ---   0.7 Broken Clouds/
05/04/2008 15:55      15.0   7.0  15.9   8.2  59  1008   ---   WNW    18    18   ---   0.7 Scattered Clouds/
05/04/2008 16:55      14.0   6.0  14.9   6.2  59  1008   ---    NW    19    19   ---   0.7 Scattered Clouds/
05/04/2008 17:55      14.0   8.0  15.5   4.6  67  1008   ---   WNW    27    27   ---   0.7 Broken Clouds/
05/04/2008 17:55      14.0   8.0  15.5   4.6  67  1008   ---   WNW    27    27   ---   0.7 Broken Clouds/None reported
05/04/2008 18:55      13.0   6.0  14.2   5.8  62  1008   ---   WNW    16    16   ---   0.7 Scattered Clouds/
05/04/2008 19:55      12.0   6.0  13.4   7.7  67  1008   ---   WNW    10    10   ---   0.7 Broken Clouds/
06/04/2008 06:55      11.0   7.0  13.1   6.5  76  1008   ---    SW    10    10   ---   0.7 Broken Clouds/
06/04/2008 07:55      12.0   7.0  13.7   7.7  71  1008   ---   WSW    10    10   ---   0.7 Broken Clouds/
06/04/2008 08:55      13.0   7.0  14.4  13.0  67  1009   ---     W     5     5   ---   0.7 Broken Clouds/
06/04/2008 09:55      14.0   7.0  15.2  12.3  63  1009   ---    SW     6     6   ---   0.7 Scattered Clouds/
06/04/2008 11:55      17.0   6.0  17.4  12.5  48  1009   ---   WNW    13    13   ---   0.7 Few Clouds/
06/04/2008 12:55      17.0   4.0  17.1  10.4  42  1009   ---     W    19    19   ---   0.7 Few Clouds/
06/04/2008 13:55      18.0   4.0  17.9  10.6  39  1009   ---     W    27    47   ---   0.7 Few Clouds/
06/04/2008 14:55      18.0   4.0  17.9  11.3  39  1009   ---     W    23    45   ---   0.7 Few Clouds/
06/04/2008 15:55      18.0   4.0  17.9  12.4  39  1009   ---   WNW    18    18   ---   --- /
06/04/2008 16:55      18.0   4.0  17.9  12.4  39  1009   ---     W    18    18   ---   --- /
06/04/2008 17:55      18.0   2.0  17.7  12.4  34  1008   ---   WSW    18    18   ---   --- /
06/04/2008 18:55      17.0   0.0  16.6  15.5  32  1008   ---   WSW     6     6   ---   --- /
06/04/2008 19:55      15.0   0.0  14.8  11.3  36  1008   ---    SW    10    10   ---   --- /
07/04/2008 06:55      15.0  -1.0  14.7  15.0  33  1007   ---   SSW     5     5   ---   --- /
07/04/2008 07:55      16.0   4.0  16.2  16.0  45  1007   ---     S     3     3   ---   --- /
07/04/2008 08:55      19.0   7.0  19.2  19.0  46  1007   ---   WNW     3     3   ---   --- /
07/04/2008 09:55      21.0   6.0  20.9  21.0  38  1007   ---     N     0     0   ---   --- /
07/04/2008 11:55      26.0   4.0  25.3  24.6  24  1007   ---     S    10    10   ---   --- /
07/04/2008 12:55      26.0   4.0  25.3  24.1  24  1007   ---   SSW    13    13   ---   --- /
07/04/2008 13:55      27.0   5.0  26.2  24.7  25  1007   ---     S    18    18   ---   --- /
07/04/2008 14:55      26.0   5.0  25.4  22.6  26  1007   ---     S    26    26   ---   --- /
07/04/2008 15:55      26.0   6.0  25.5  23.8  28  1007   ---     S    14    14   ---   --- /
07/04/2008 16:55      26.0   7.0  25.5  24.8  30  1007   ---   SSW     8     8   ---   --- /
07/04/2008 17:55      25.0   5.0  24.5  22.1  28  1007   ---   SSW    16    16   ---   0.9 Few Clouds/
07/04/2008 18:55      24.0   4.0  23.5  20.6  27  1007   ---   SSW    18    18   ---   --- /
07/04/2008 19:55      22.0   3.0  21.5  19.8  29  1007   ---     W    10    10   ---   --- /
08/04/2008 06:55      23.0   4.0  22.5  19.4  29  1006   ---   WSW    16    16   ---   0.8 Broken Clouds/
08/04/2008 07:55      22.0   8.0  22.0  22.0  41  1007   ---     N     0     0   ----32740.9 Broken Clouds/
08/04/2008 08:55      21.0   9.0  21.3  16.5  46  1008   ---     W    18    18   ----32741.8 Broken Clouds/
08/04/2008 09:55      20.0  10.0  20.6  18.8  53  1009   ---   ESE     6     6   ---   0.9 Broken Clouds/
08/04/2008 10:55      20.0  12.0  21.0  18.8  60  1009   ---   ESE     6     6   ----32741.8 Overcast/
08/04/2008 13:55      23.0  15.0  24.1  21.3  61  1007   ---    NE     8     8   ----32741.8 Broken Clouds/
08/04/2008 15:55      23.0  13.0  23.6  19.8  53  1006   ---     E    14    14   ----3274--- Overcast/
08/04/2008 16:55      22.0  12.0  22.6  17.9  53  1007   ---    NW    18    18   ---   0.9 Overcast/
08/04/2008 17:55      19.0  14.0  20.8  13.7  73  1008   ---   WNW    18    18   ---   0.8 Overcast/
08/04/2008 18:55      19.0  13.0  20.5  16.2  68  1008   ---     W    10    10   ---   0.8 Overcast/
08/04/2008 19:55      19.0  15.0  21.2  15.1  78  1008   ---   NNW    13    13   ---   0.8 Broken Clouds/
09/04/2008 06:55      13.0   7.0  14.4  13.0  67  1008   ---     S     3     3   ---   --- /
09/04/2008 07:55      14.0   8.0  15.5  14.0  67  1008   ---   SSW     3     3   ---   --- /
09/04/2008 08:55      17.0  10.0  18.2  17.0  63  1009   ---     N     0     0   ---   1.0 Few Clouds/
09/04/2008 09:55      18.0  10.0  19.0  18.0  60  1009   ---   ---     0     0   ---   0.9 Scattered Clouds/
09/04/2008 11:55      19.0  10.0  19.8  16.7  56  1010   ---     E     8     8   ----3274--- Few Clouds/
09/04/2008 12:55      20.0  11.0  20.8  20.0  56  1010   ---     E     5     5   ----3274--- Few Clouds/
09/04/2008 13:55      20.0  11.0  20.8  16.4  56  1009   ---     E    13    13   ---   0.7 Few Clouds/
09/04/2008 14:55      20.0  12.0  21.0  17.4  60  1009   ---     E    10    10   ---   0.7 Few Clouds/
09/04/2008 15:55      20.0  13.0  21.3  17.8  64  1009   ---     E     8     8   ---   0.7 Few Clouds/
09/04/2008 16:55      20.0  13.0  21.3  17.8  64  1008   ---     E     8     8   ---   0.7 Few Clouds/
09/04/2008 17:55      20.0  13.0  21.3  20.0  64  1008   ---   ENE     3     3   ----3274--- Few Clouds/
09/04/2008 18:55      19.0  13.0  20.5  19.0  68  1008   ---   ENE     3     3   ----3274--- Scattered Clouds/
09/04/2008 19:55      18.0  12.0  19.5  18.0  68  1008   ---     N     0     0   ----3274--- Scattered Clouds/
10/04/2008 06:55      24.0   8.0  23.8  19.5  36  1007   ---    SW    29    55   ----32740.9 Broken Clouds/
10/04/2008 07:55      25.0   8.0  24.7  21.4  34  1007   ---    SW    23    23   ----32740.9 Broken Clouds/
10/04/2008 08:55      25.0   8.0  24.7  22.8  34  1008   ---   WSW    13    31   ----32740.9 Broken Clouds/
10/04/2008 11:55      28.0   9.0  27.1  25.9  30  1009   ---   WNW    21    43   ----32740.9 Broken Clouds/
10/04/2008 12:55      28.0   9.0  27.1  27.2  30  1009   ---    SW     8     8   ----32740.9 Broken Clouds/
10/04/2008 13:55      28.0  12.0  27.5  26.6  37  1008   ---   WSW    13    13   ----32741.0 Overcast/
10/04/2008 14:55      28.0   9.0  27.1  25.5  30  1009   ---   WNW    27    45   ----32744180.0.4 Overcast/
10/04/2008 15:55      28.0   9.0  27.1  26.2  30  1009   ---   WNW    16    16   ----32741.2 Overcast/
10/04/2008 16:55      27.0   9.0  26.5  26.4  32  1009   ---     W     6     6   ----3274--- Overcast/
10/04/2008 17:55      26.0  10.0  25.8  24.8  37  1008   ---   WSW     8     8   ----3274--- Broken Clouds/
10/04/2008 18:55      25.0  10.0  24.9  23.4  39  1008   ---   WSW    10    10   ----3274--- Broken Clouds/
10/04/2008 19:55      23.0  10.0  23.1  21.0  44  1008   ---   WSW    10    10   ----3274--- Broken Clouds/
11/04/2008 07:55      17.0  13.0  19.2  17.0  77  1007   ---     N     0     0   ----3274--- Overcast/
11/04/2008 08:55      18.0  13.0  19.8  16.6  73  1008   ---     S     6     6   ----3274--- Overcast/
11/04/2008 09:55      20.0  14.0  21.5  20.0  68  1008   ---     N     0     0   ----3274--- Overcast/
11/04/2008 10:55      22.0  12.0  22.6  22.0  53  1008   ---   ---     0     0   ----3274--- Broken Clouds/
11/04/2008 12:55      21.0  14.0  22.3  17.7  64  1008   ---   ESE    13    13   ----3274--- Broken Clouds/
11/04/2008 13:55      20.0  14.0  21.5  16.4  68  1008   ---   ESE    13    13   ----3274--- Overcast/
11/04/2008 14:55      21.0  13.0  22.0  19.9  60  1008   ---     E     6     6   ----3274--- Broken Clouds/
11/04/2008 15:55      21.0  13.0  22.0  17.7  60  1007   ---     E    13    13   ----3274--- Broken Clouds/
11/04/2008 16:55      20.0  14.0  21.5  17.4  68  1007   ---     E    10    10   ----3274--- Broken Clouds/
11/04/2008 17:55      19.0  13.0  20.5  17.7  68  1007   ---    SE     6     6   ----3274--- Broken Clouds/
11/04/2008 18:55      18.0  13.0  19.8  16.6  73  1007   ---   ESE     6     6   ----3274--- Overcast/
11/04/2008 19:55      18.0  15.0  20.5  18.0  83  1006   ---     W     3     3   ----3274--- Overcast/
11/04/2008 06:55      17.0  13.0  19.2  15.5  77  1007   ---    SW     6     6   ----3274--- Broken Clouds/
11/04/2008 09:55      20.0  14.0  21.5  20.0  68  1008   ---     N     0     0   ----3274--- Overcast/
12/04/2008 06:55      16.0  14.0  19.0  16.0  88  1009   ---   ---     0     0   ----3274--- Broken Clouds/
12/04/2008 07:55      17.0  15.0  20.0  11.9  88  1010   ---    NW    14    14   ---   0.7 Broken Clouds/
12/04/2008 08:55      17.0  14.0  19.5  13.8  83  1011   ---    NW    10    10   ---   0.6 Broken Clouds/
12/04/2008 09:55      18.0  14.0  20.2  18.0  77  1011   ---     N     5     5   ---   0.7 Broken Clouds/
12/04/2008 10:55      19.0  14.0  20.8  16.7  73  1012   ---     N     8     8   ---   0.7 Broken Clouds/
12/04/2008 11:55      20.0  14.0  21.5  16.4  68  1012   ---   ENE    13    13   ---   0.7 Broken Clouds/
12/04/2008 12:55      19.0  13.0  20.5  16.7  68  1012   ---    NE     8     8   ---   0.7 Broken Clouds/
12/04/2008 13:55      18.0  11.0  19.2  10.2  64  1012   ---   WNW    31    31   ---   0.7 Broken Clouds/
12/04/2008 14:55      18.0  12.0  19.5  10.8  68  1012   ---   WNW    26    26   ---   0.7 Scattered Clouds/
12/04/2008 15:55      19.0  11.0  20.0  12.3  60  1012   ---     W    26    26   ---   0.7 Broken Clouds/
12/04/2008 16:55      20.0  11.0  20.8  15.1  56  1013   ---   WNW    18    18   ---   0.7 Broken Clouds/
12/04/2008 18:55      16.0   9.0  17.2  10.6  63  1013   ---    NW    14    14   ---   0.7 Broken Clouds/
12/04/2008 19:55      16.0   9.0  17.2  13.2  63  1014   ---    NW     8     8   ----3274--- Scattered Clouds/
13/04/2008 06:55      13.0   9.0  15.1  13.0  77  1017   ---   WSW     3     3   ---   0.4 Broken Clouds/
13/04/2008 07:55      13.0   8.0  14.8  13.0  72  1017   ---     N     0     0   ---   0.4 Overcast/
13/04/2008 11:55      15.0  11.0  17.1  15.0  77  1020   ---    NE     5     5   ---   0.4 Overcast/
13/04/2008 12:55      15.0  12.0  17.5  15.0  82  1020   ---     N     0     0   ---   0.4 Overcast/
13/04/2008 13:55      15.0  11.0  17.1  10.0  77  1020   ---     N    13    13   ---   0.5 Overcast/
13/04/2008 14:55      15.0  11.0  17.1  11.3  77  1019   ---    NW    10    10   ---   0.5 Overcast/
13/04/2008 15:55      15.0  10.0  16.8  12.0  72  1019   ---    NW     8     8   ---   0.4 Overcast/
13/04/2008 16:55      14.0  10.0  16.1  10.1  77  1019   ---   NNW    10    10   ---   0.4 Overcast/
13/04/2008 17:55      14.0  10.0  16.1   8.0  77  1018   ---     N    14    14   ---   0.5 Overcast/
13/04/2008 18:55      14.0  10.0  16.1  10.8  77  1019   ---   WNW     8     8   ---   0.5 Overcast/
13/04/2008 19:55      13.0  10.0  15.5  11.2  82  1019   ---     N     6     6   ---   0.5 Broken Clouds/
14/04/2008 06:55      11.0   8.0  13.5   7.3  82  1018   ---     W     8     8   ---   0.7 Few Clouds/
14/04/2008 07:55      11.0   8.0  13.5  11.0  82  1018   ---     N     0     0   ---   0.7 Scattered Clouds/
14/04/2008 08:55      13.0   9.0  15.1  13.0  77  1019   ---   ---     0     0   ---   0.7 Scattered Clouds/
14/04/2008 09:55      14.0   8.0  15.5  14.0  67  1019   ---   ---     0     0   ---   0.8 Scattered Clouds/
14/04/2008 11:55      17.0   4.0  17.1  13.8  42  1018   ---    NE    10    10   ---   --- /
14/04/2008 12:55      17.0   3.0  16.9  11.0  39  1018   ---   NNE    18    18   ---   --- /
14/04/2008 13:55      18.0   3.0  17.8  12.6  37  1018   ---     N    16    16   ---   --- /
14/04/2008 14:55      18.0   3.0  17.8  13.2  37  1018   ---   WNW    14    14   ---   --- /
14/04/2008 15:55      18.0   4.0  17.9  11.6  39  1018   ---    NW    21    21   ---   --- /
14/04/2008 16:55      17.0   5.0  17.2  11.3  45  1017   ---   NNW    16    16   ---   0.7 Few Clouds/
14/04/2008 17:55      17.0   4.0  17.1  11.0  42  1017   ---   WNW    18    18   ---   0.7 Few Clouds/
14/04/2008 18:55      16.0   6.0  16.5  10.6  51  1017   ---   WNW    14    14   ---   0.7 Few Clouds/
14/04/2008 19:55      15.0   7.0  15.9  10.0  59  1017   ---   WNW    13    13   ---   --- /
15/04/2008 06:55      13.0   7.0  14.4   6.6  67  1015   ---     W    14    14   ---   0.8 Scattered Clouds/
15/04/2008 07:55      13.0   7.0  14.4   5.8  67  1016   ---     W    16    16   ---   0.7 Scattered Clouds/
15/04/2008 08:55      14.0   7.0  15.2   5.8  63  1016   ---     W    21    21   ---   0.7 Scattered Clouds/
15/04/2008 09:55      15.0   7.0  15.9   5.9  59  1017   ---     W    29    55   ---   0.7 Scattered Clouds/
15/04/2008 11:55      17.0   7.0  17.5   9.1  52  1017   ---   WNW    27    27   ---   0.8 Scattered Clouds/
15/04/2008 12:55      17.0   6.0  17.4   8.1  48  1017   ---   WNW    37    37   ---   0.8 Scattered Clouds/
15/04/2008 13:55      17.0   6.0  17.4   8.5  48  1017   ---     W    32    68   ---   0.8 Scattered Clouds/
15/04/2008 14:55      17.0   5.0  17.2   8.5  45  1017   ---     W    32    32   ---   0.8 Scattered Clouds/
15/04/2008 15:55      17.0   6.0  17.4   9.1  48  1017   ---     W    27    27   ---   0.9 Scattered Clouds/
15/04/2008 16:55      16.0   4.0  16.2   7.6  45  1017   ---     W    27    27   ---   0.9 Scattered Clouds/
15/04/2008 17:55      15.0   4.0  15.3   6.4  48  1017   ---     W    26    26   ---   0.8 Scattered Clouds/
15/04/2008 18:55      14.0   4.0  14.5   3.9  51  1017   ---     W    32    32   ---   0.8 Scattered Clouds/
15/04/2008 19:55      14.0   4.0  14.5   4.1  51  1017   ---     W    31    31   ---   0.9 Scattered Clouds/
15/04/2008 17:55      15.0   4.0  15.3   6.4  48  1017   ---     W    26    26   ---   0.8 Scattered Clouds/
16/04/2008 06:55      11.0   7.0  13.1  11.0  76  1019   ---     W     3     3   ---   --- /
16/04/2008 07:55      12.0   7.0  13.7  12.0  71  1019   ---     N     0     0   ---   --- /
16/04/2008 08:55      14.0   7.0  15.2  14.0  63  1019   ---    SE     3     3   ----3274--- Few Clouds/
16/04/2008 09:55      16.0   7.0  16.7  16.0  55  1020   ---     N     0     0   ---   --- /
16/04/2008 10:55      17.0   7.0  17.5  13.8  52  1020   ---   ENE    10    10   ---   --- /
16/04/2008 12:55      17.0   8.0  17.7  11.3  55  1020   ---     E    16    16   ---   --- /
16/04/2008 13:55      17.0  10.0  18.2  12.5  63  1019   ---     E    13    13   ---   --- /
16/04/2008 14:55      17.0  10.0  18.2  11.9  63  1018   ---     E    14    14   ---   --- /
16/04/2008 16:55      16.0   9.0  17.2  12.5  63  1017   ---     E    10    10   ----3274--- Scattered Clouds/
16/04/2008 17:55      15.0   6.0  15.7  12.0  55  1017   ---     E     8     8   ----3274--- Broken Clouds/
16/04/2008 18:55      15.0   9.0  16.5  15.0  67  1017   ---   ESE     5     5   ----32741.2 Broken Clouds/
16/04/2008 17:55      15.0   6.0  15.7  12.0  55  1017   ---     E     8     8   ----32741.2 Broken Clouds/
16/04/2008 10:55      17.0   7.0  17.5  13.8  52  1020   ---   ENE    10    10   ---   --- /
16/04/2008 18:55      15.0   9.0  16.5  15.0  67  1017   ---   ESE     5     5   ----32741.2 Broken Clouds/
17/04/2008 06:55      20.0   1.0  19.5  13.5  28  1009   ---    SW    27    51   ----32741.0 Broken Clouds/
17/04/2008 07:55      20.0   0.0  19.4  14.6  26  1009   ---   SSW    19    39   ----32741.0 Broken Clouds/
17/04/2008 08:55      21.0   2.0  20.5  16.5  28  1009   ---   SSW    18    37   ----32740.6 Broken Clouds/
17/04/2008 09:55      21.0   3.0  20.6  15.8  31  1009   ---   SSW    21    21   ----32740.6 Broken Clouds/
17/04/2008 11:55      22.0   5.0  21.7  17.9  33  1007   ---     S    18    18   ----32740.6 Broken Clouds/
17/04/2008 12:55      22.0   8.0  22.0  16.4  41  1006   ---     S    29    50   ----32740.6 Broken Clouds/
17/04/2008 13:55      21.0  11.0  21.6  15.6  53  1006   ---     S    23    42   ----32740.6 Overcast/
17/04/2008 14:55      21.0  10.0  21.4  15.8  49  1006   ---     S    21    21   ---   0.7 Overcast/
17/04/2008 15:55      23.0  10.0  23.1  18.5  44  1005   ---     S    23    45   ----3274--- Scattered Clouds/
17/04/2008 17:55      23.0   8.0  22.9  21.3  38  1005   ---   WNW     8     8   ----3274--- Broken Clouds/
17/04/2008 18:55      20.0  12.0  21.0  15.3  60  1005   ---    NE    16    16   ----3274--- Broken Clouds/
17/04/2008 19:55      17.0  13.0  19.2  13.8  77  1006   ---   SSE    10    10   ----3274--- Scattered Clouds/
18/04/2008 06:55      17.0   8.0  17.7  17.0  55  1007   ---   WSW     5     5   ----32740.1 Scattered Clouds/
18/04/2008 07:55      18.0  10.0  19.0  18.0  60  1007   ---     N     0     0   ---   0.7 Broken Clouds/
18/04/2008 08:55      20.0  11.0  20.8  20.0  56  1007   ---   ---     0     0   ----32740.1 Scattered Clouds/
18/04/2008 10:55      22.0   9.0  22.1  17.5  43  1007   ---   SSW    19    19   ----32740.1 Scattered Clouds/
18/04/2008 11:55      23.0  10.0  23.1  19.2  44  1007   ---   WSW    18    18   ----32740.1 Scattered Clouds/
18/04/2008 12:55      23.0  10.0  23.1  18.0  44  1007   ---    SW    27    27   ----3274--- Scattered Clouds/
18/04/2008 13:55      24.0  10.0  24.0  20.0  41  1008   ---    SW    23    50   ----32740.1 Broken Clouds/
18/04/2008 14:55      25.0   9.0  24.8  22.5  36  1007   ---   SSW    14    14   ----32740.0 Few Clouds/
18/04/2008 15:55      25.0  10.0  24.9  23.4  39  1007   ---     S    10    10   ---   --- /
18/04/2008 16:55      26.0   8.0  25.6  23.5  32  1006   ---   SSE    16    16   ---   --- /
18/04/2008 17:55      24.0   7.0  23.7  20.8  34  1006   ---   ENE    16    16   ---   --- /
18/04/2008 18:55      22.0  12.0  22.6  22.0  53  1006   ---   ESE     5     5   ---   --- /
18/04/2008 19:55      20.0  12.0  21.0  18.8  60  1006   ---     W     6     6   ---   --- /
18/04/2008 17:55      24.0   7.0  23.7  20.8  34  1006   ---   ENE    16    16   ---   --- /
19/04/2008 06:55      20.0  11.0  20.8  15.3  56  1008   ---   WSW    16    16   ----32740.7 Broken Clouds/
19/04/2008 07:55      20.0  12.0  21.0  18.8  60  1008   ---    SE     6     6   ----32740.7 Broken Clouds/
19/04/2008 08:55      20.0  13.0  21.3  20.0  64  1008   ---     N     0     0   ----32740.7 Few Clouds/
19/04/2008 10:55      23.0  15.0  24.1  23.0  61  1008   ---   ENE     5     5   ---   --- /
19/04/2008 12:55      24.0  15.0  24.8  22.2  57  1008   ---   ESE    10    10   ---   --- /
19/04/2008 13:55      23.0  15.0  24.1  21.0  61  1008   ---     E    10    10   ---   --- /
19/04/2008 14:55      22.0  15.0  23.3  18.9  65  1008   ---   ESE    13    13   ---   --- /
19/04/2008 15:55      21.0  15.0  22.5  16.7  69  1007   ---   ESE    16    16   ---   --- /
19/04/2008 16:55      20.0  15.0  21.8  15.1  73  1007   ---     E    18    18   ---   --- /
19/04/2008 17:55      19.0  14.0  20.8  16.7  73  1007   ---     E     8     8   ----3274--- Few Clouds/
19/04/2008 18:55      18.0  15.0  20.5  18.0  83  1007   ---     E     5     5   ----3274--- Scattered Clouds/
19/04/2008 19:55      18.0  15.0  20.5  18.0  83  1007   ---    SE     5     5   ----3274--- Broken Clouds/
20/04/2008 06:55      15.0  12.0  17.5  15.0  82  1008   ---     N     0     0   ----3274--- Scattered Clouds/
20/04/2008 07:55      16.0  13.0  18.5  16.0  82  1008   ---   ---     0     0   ----3274--- Scattered Clouds/
20/04/2008 08:55      18.0  13.0  19.8  18.0  73  1008   ---   ---     0     0   ----3274--- Scattered Clouds/
20/04/2008 10:55      21.0  15.0  22.5  19.0  69  1009   ---   ENE     8     8   ---   --- /
20/04/2008 12:55      21.0  13.0  22.0  19.0  60  1009   ---   ENE     8     8   ---   --- /
20/04/2008 14:55      21.0  13.0  22.0  18.6  60  1008   ---   ENE    10    10   ----3274--- Scattered Clouds/
20/04/2008 15:55      21.0  13.0  22.0  18.6  60  1007   ---     E    10    10   ----3274--- Scattered Clouds/
20/04/2008 16:55      21.0  14.0  22.3  19.0  64  1006   ---   ENE     8     8   ----3274--- Scattered Clouds/
20/04/2008 17:55      21.0  14.0  22.3  18.6  64  1006   ---     E    10    10   ----3274--- Scattered Clouds/
20/04/2008 18:55      20.0  15.0  21.8  20.0  73  1005   ---     N     0     0   ----3274--- Scattered Clouds/
20/04/2008 19:55      18.0  14.0  20.2  18.0  77  1005   ---   ---     0     0   ----3274--- Scattered Clouds/
21/04/2008 06:55      17.0  11.0  18.5  14.3  68  1005   ---   SSE     8     8   ----3274--- Scattered Clouds/
21/04/2008 07:55      18.0   9.0  18.8  16.6  56  1005   ---   SSW     6     6   ----3274--- Broken Clouds/
21/04/2008 08:55      18.0   9.0  18.8  11.8  56  1006   ---     W    19    19   ----3274--- Broken Clouds/
21/04/2008 09:55      19.0  10.0  19.8  14.0  56  1006   ---   WSW    16    16   ----3274--- Broken Clouds/
21/04/2008 11:55      21.0  10.0  21.4  16.1  49  1006   ---     W    19    19   ---   --- /
21/04/2008 13:55      20.0  11.0  20.8  13.0  56  1007   ---   WNW    34    34   ---   0.7 Few Clouds/
21/04/2008 14:55      20.0  10.0  20.6  13.1  53  1008   ---     W    32    32   ---   0.7 Few Clouds/
21/04/2008 15:55      19.0  10.0  19.8  12.0  56  1008   ---   WNW    27    27   ---   0.7 Few Clouds/
21/04/2008 16:55      19.0   9.0  19.6  13.2  52  1008   ---    NW    19    19   ---   0.7 Few Clouds/
21/04/2008 17:55      19.0   9.0  19.6  14.0  52  1008   ---   WNW    16    16   ---   0.7 Scattered Clouds/
21/04/2008 18:55      18.0  10.0  19.0  15.5  60  1009   ---   NNW     8     8   ---   0.7 Scattered Clouds/
21/04/2008 19:55      17.0   9.0  18.0  14.3  59  1009   ---    NW     8     8   ---   0.7 Scattered Clouds/
22/04/2008 06:55      15.0   9.0  16.5   9.3  67  1010   ---   WSW    14    14   ---   0.7 Scattered Clouds/
22/04/2008 07:55      16.0  10.0  17.5   8.7  68  1010   ---   WSW    21    43   ---   0.7 Scattered Clouds/
22/04/2008 08:55      16.0  10.0  17.5   9.0  68  1011   ---   WSW    19    19   ---   0.7 Broken Clouds/
22/04/2008 09:55      18.0  10.0  19.0  11.6  60  1011   ---     W    21    45   ---   0.7 Scattered Clouds/
22/04/2008 11:55      20.0  10.0  20.6  14.4  53  1011   ---   WSW    21    53   ---   0.7 Scattered Clouds/
22/04/2008 12:55      21.0  10.0  21.4  15.0  49  1011   ---     W    27    27   ---   0.7 Scattered Clouds/
22/04/2008 13:55      21.0   9.0  21.3  15.8  46  1011   ---   WSW    21    58   ---   0.7 Scattered Clouds/
22/04/2008 14:55      21.0   8.0  21.1  14.8  43  1011   ---   WSW    31    56   ---   0.7 Scattered Clouds/
22/04/2008 15:55      21.0   8.0  21.1  14.8  43  1011   ---     W    31    68   ---   0.7 Few Clouds/
22/04/2008 16:55      20.0   7.0  20.1  13.1  43  1012   ---     W    32    58   ---   0.7 Few Clouds/
22/04/2008 17:55      19.0   8.0  19.4  11.7  49  1012   ---     W    31    51   ---   0.7 Few Clouds/
22/04/2008 18:55      18.0   7.0  18.4  10.6  49  1013   ---     W    27    47   ---   0.7 Few Clouds/
22/04/2008 19:55      17.0   6.0  17.4   8.9  48  1013   ---     W    29    53   ---   --- /
23/04/2008 06:55      15.0  10.0  16.8  11.3  72  1016   ---    SW    10    10   ---   0.7 Scattered Clouds/
23/04/2008 07:55      16.0  10.0  17.5  16.0  68  1016   ---     N     0     0   ---   0.7 Scattered Clouds/
23/04/2008 08:55      17.0  10.0  18.2  12.5  63  1017   ---     W    13    13   ---   0.7 Broken Clouds/
23/04/2008 09:55      18.0  10.0  19.0  11.6  60  1017   ---    NW    21    21   ---   0.7 Broken Clouds/
23/04/2008 11:55      18.0   9.0  18.8  11.6  56  1018   ---   WNW    21    21   ---   0.7 Scattered Clouds/
23/04/2008 12:55      18.0   9.0  18.8  11.3  56  1019   ---    NW    23    23   ---   0.7 Scattered Clouds/
23/04/2008 13:55      19.0   8.0  19.4  13.0  49  1019   ---    NW    21    21   ---   0.7 Scattered Clouds/
23/04/2008 14:55      18.0  11.0  19.2  10.6  64  1019   ---   WNW    27    27   ---   0.7 Scattered Clouds/
23/04/2008 15:55      18.0  10.0  19.0  10.6  60  1019   ---   WNW    27    27   ---   0.6 Broken Clouds/
23/04/2008 16:55      17.0  10.0  18.2  10.4  63  1019   ---    NW    19    19   ---   0.6 Broken Clouds/
23/04/2008 18:55      16.0  11.0  17.8  13.2  72  1019   ---   WNW     8     8   ---   0.7 Scattered Clouds/
23/04/2008 19:55      16.0  10.0  17.5   9.9  68  1020   ---     W    16    16   ---   0.7 Scattered Clouds/
24/04/2008 06:55      13.0   8.0  14.8  13.0  72  1020   ---     N     0     0   ---   --- /
24/04/2008 07:55      15.0   9.0  16.5  15.0  67  1020   ---   ---     0     0   ---   --- /
24/04/2008 08:55      17.0  10.0  18.2  15.5  63  1021   ---    NE     6     6   ---   --- /
24/04/2008 11:55      19.0  10.0  19.8  14.5  56  1021   ---   NNE    14    14   ---   0.7 Scattered Clouds/
24/04/2008 12:55      19.0  10.0  19.8  14.5  56  1021   ---   NNE    14    14   ---   0.7 Scattered Clouds/
24/04/2008 13:55      19.0  11.0  20.0  16.7  60  1021   ---   NNE     8     8   ---   0.7 Scattered Clouds/
24/04/2008 14:55      19.0   9.0  19.6  14.5  52  1021   ---     N    14    14   ---   0.7 Scattered Clouds/
24/04/2008 15:55      19.0   9.0  19.6  14.5  52  1021   ---   NNE    14    14   ---   0.7 Few Clouds/
24/04/2008 16:55      19.0   9.0  19.6  13.7  52  1021   ---   WNW    18    18   ---   0.8 Scattered Clouds/
24/04/2008 17:55      18.0  10.0  19.0  15.0  60  1021   ---    NW    10    10   ----3274--- Scattered Clouds/
24/04/2008 18:55      17.0  10.0  18.2  14.3  63  1021   ---   WNW     8     8   ---   0.8 Few Clouds/
24/04/2008 19:55      15.0  11.0  17.1  11.3  77  1021   ---   NNE    10    10   ---   0.8 Few Clouds/
25/04/2008 06:55      12.0   8.0  14.1   8.5  77  1022   ---    SW     8     8   ---   0.4 Scattered Clouds/
25/04/2008 07:55      12.0   9.0  14.5  12.0  82  1023   ---   SSW     3     3   ---   0.4 Scattered Clouds/
25/04/2008 08:55      16.0  12.0  18.1  16.0  77  1023   ---   ESE     3     3   ---   0.4 Scattered Clouds/
25/04/2008 10:55      17.0  12.0  18.8  15.5  72  1024   ---     E     6     6   ---   0.6 Broken Clouds/
25/04/2008 11:55      17.0  11.0  18.5  12.5  68  1024   ---     N    13    13   ---   0.6 Broken Clouds/
25/04/2008 12:55      18.0  12.0  19.5  15.0  68  1024   ---   NNE    10    10   ---   0.6 Broken Clouds/
25/04/2008 13:55      18.0  12.0  19.5  15.5  68  1024   ---    NE     8     8   ---   0.7 Broken Clouds/
25/04/2008 14:55      18.0  12.0  19.5  15.0  68  1023   ---   ESE    10    10   ---   0.7 Broken Clouds/
25/04/2008 15:55      18.0  12.0  19.5  13.2  68  1023   ---   NNE    14    14   ---   0.5 Broken Clouds/
25/04/2008 16:55      18.0  12.0  19.5  15.0  68  1022   ---    NW    10    10   ---   0.7 Scattered Clouds/
25/04/2008 17:55      17.0  12.0  18.8  11.3  72  1022   ---    NW    16    16   ---   0.4 Scattered Clouds/
25/04/2008 18:55      16.0  11.0  17.8   9.9  72  1022   ---    NW    16    16   ---   0.4 Scattered Clouds/
25/04/2008 19:55      15.0  12.0  17.5   8.6  82  1022   ---    NW    16    16   ---   0.4 Broken Clouds/
25/04/2008 16:55      18.0  12.0  19.5  15.0  68  1022   ---    NW    10    10   ---   0.7 Scattered Clouds/
26/04/2008 06:55      11.0   5.0  12.4  11.0  66  1019   ---     N     0     0   ---   --- /
26/04/2008 07:55      12.0   7.0  13.7  12.0  71  1019   ---   ---     0     0   ---   --- /
26/04/2008 08:55      16.0  10.0  17.5  16.0  68  1019   ---   ---     0     0   ---   --- /
26/04/2008 09:55      18.0  10.0  19.0  18.0  60  1019   ---   ---     0     0   ---   --- /
26/04/2008 10:55      19.0  10.0  19.8  15.1  56  1019   ---    NW    13    13   ---   --- /
26/04/2008 11:55      19.0  11.0  20.0  13.2  60  1019   ---     N    19    19   ---   0.6 Few Clouds/
26/04/2008 12:55      18.0  12.0  19.5  13.8  68  1019   ---   WNW    13    13   ---   0.7 Scattered Clouds/
26/04/2008 13:55      18.0  12.0  19.5  13.2  68  1019   ---     N    14    14   ---   0.7 Broken Clouds/
26/04/2008 14:55      17.0  13.0  19.2  11.3  77  1019   ---     N    16    16   ---   0.7 Broken Clouds/
26/04/2008 15:55      17.0   8.0  17.7  12.5  55  1019   ---   NNE    13    13   ---   0.7 Broken Clouds/
26/04/2008 16:55      17.0  10.0  18.2  11.3  63  1019   ---     E    16    16   ---   0.7 Broken Clouds/
26/04/2008 17:55      17.0  11.0  18.5  12.5  68  1019   ---   ENE    13    13   ---   0.7 Scattered Clouds/
26/04/2008 18:55      15.0   9.0  16.5  12.0  67  1019   ---     N     8     8   ---   0.7 Few Clouds/
26/04/2008 19:55      15.0   8.0  16.2  11.3  63  1019   ---   NNE    10    10   ---   0.7 Few Clouds/
27/04/2008 06:55      13.0   9.0  15.1  11.2  77  1019   ---   WNW     6     6   ---   --- /
27/04/2008 07:55      15.0  10.0  16.8  15.0  72  1020   ---     N     3     3   ---   --- /
27/04/2008 08:55      16.0   9.0  17.2  10.6  63  1020   ---     N    14    14   ---   0.7 Few Clouds/
27/04/2008 09:55      17.0   5.0  17.2  11.9  45  1020   ---   NNE    14    14   ---   0.7 Few Clouds/
27/04/2008 10:55      18.0   4.0  17.9  13.2  39  1021   ---    NE    14    14   ---   0.7 Few Clouds/
27/04/2008 12:55      18.0   5.0  18.1  13.2  42  1021   ---     N    14    14   ---   0.7 Few Clouds/
27/04/2008 13:55      18.0   7.0  18.4  13.8  49  1021   ---     N    13    13   ---   0.7 Scattered Clouds/
27/04/2008 14:55      18.0   8.0  18.6  11.8  52  1020   ---   NNE    19    19   ---   0.7 Scattered Clouds/
27/04/2008 15:55      18.0   7.0  18.4  13.2  49  1020   ---    NE    14    14   ---   0.7 Scattered Clouds/
27/04/2008 16:55      18.0   7.0  18.4  15.0  49  1020   ---   NNW    10    10   ---   0.7 Scattered Clouds/
27/04/2008 17:55      17.0   6.0  17.4  11.9  48  1020   ---     N    14    14   ---   0.7 Scattered Clouds/
27/04/2008 18:55      16.0   5.0  16.3  11.3  48  1020   ---   NNE    13    13   ---   --- /
27/04/2008 19:55      15.0   3.0  15.2  15.0  44  1020   ---    SE     5     5   ---   --- /
28/04/2008 06:55      11.0   5.0  12.4   9.0  66  1018   ---   WSW     6     6   ---   --- /
28/04/2008 07:55      13.0   6.0  14.2  13.0  62  1018   ---     N     0     0   ---   --- /
28/04/2008 11:55      20.0   6.0  20.0  17.8  40  1019   ---   ESE     8     8   ---   0.7 Few Clouds/
28/04/2008 12:55      20.0   5.0  19.8  16.4  37  1018   ---     E    13    13   ---   0.7 Few Clouds/
28/04/2008 13:55      20.0   5.0  19.8  15.9  37  1018   ---     E    14    14   ---   --- /
28/04/2008 14:55      20.0   4.0  19.7  15.9  35  1017   ---     E    14    14   ---   --- /
28/04/2008 15:55      20.0   6.0  20.0  15.1  40  1016   ---     E    18    18   ---   --- /
28/04/2008 16:55      19.0   5.0  18.9  14.5  40  1016   ---     E    14    14   ---   --- /
28/04/2008 17:55      18.0   6.0  18.2  13.2  45  1016   ---     E    14    14   ---   --- /
29/04/2008 06:55      13.0   3.0  13.5  13.0  51  1010   ---   SSW     5     5   ----3274--- Broken Clouds/
29/04/2008 07:55      14.0   5.0  14.7  14.0  55  1010   ---     N     0     0   ----3274--- Scattered Clouds/
29/04/2008 09:55      19.0   6.0  19.1  17.7  43  1009   ---   NNE     6     6   ----3274--- Scattered Clouds/
29/04/2008 13:55      21.0   8.0  21.1  17.7  43  1007   ---   NNE    13    13   ----32740.6 Scattered Clouds/
29/04/2008 14:55      24.0   9.0  23.9  22.2  39  1006   ---     S    10    10   ----32743.0 Scattered Clouds/
29/04/2008 15:55      22.0  11.0  22.4  17.9  50  1006   ---     N    18    18   ----32743.0 Scattered Clouds/
29/04/2008 16:55      21.0  10.0  21.4  17.7  49  1006   ---   NNE    13    13   ----32743.0 Scattered Clouds/
29/04/2008 18:55      18.0  13.0  19.8  15.0  73  1007   ---     E    10    10   ---   --- /
29/04/2008 19:55      16.0  13.0  18.5  16.0  82  1008   ---     E     5     5   ---   --- /
29/04/2008 09:55      19.0   6.0  19.1  17.7  43  1009   ---   NNE     6     6   ----3274--- Scattered Clouds/
30/04/2008 08:55      18.0   8.0  18.6  18.0  52  1018   ---     N     0     0   ---   --- /
30/04/2008 10:55      20.0   9.0  20.4  17.4  49  1019   ---     E    10    10   ---   --- /
30/04/2008 11:55      21.0  10.0  21.4  18.6  49  1019   ---     E    10    10   ---   --- /
30/04/2008 12:55      21.0  10.0  21.4  17.7  49  1019   ---     E    13    13   ---   --- /
30/04/2008 14:55      21.0  11.0  21.6  18.6  53  1019   ---     E    10    10   ----32740.1 Scattered Clouds/
30/04/2008 15:55      21.0   9.0  21.3  18.6  46  1019   ---     E    10    10   ----32740.1 Scattered Clouds/
30/04/2008 16:55      21.0   9.0  21.3  19.9  46  1019   ---     E     6     6   ----32740.1 Broken Clouds/
30/04/2008 17:55      21.0   9.0  21.3  21.0  46  1008   ---     E     3     3   ----32740.1 Scattered Clouds/
30/04/2008 18:55      20.0  10.0  20.6  20.0  53  1008   ---     N     0     0   ----3274--- Broken Clouds/
30/04/2008 19:55      19.0  12.0  20.2  19.0  64  1008   ---   ---     0     0   ----3274--- Broken Clouds/
01/05/2008 07:55      17.0   8.0  17.7  17.0  55  1011   ---   SSW     5     5   ----32740.3 Scattered Clouds/
01/05/2008 08:55      20.0  10.0  20.6  20.0  53  1012   ---     N     0     0   ----32740.3 Scattered Clouds/
01/05/2008 09:55      21.0  10.0  21.4  21.0  49  1013   ---   ---     0     0   ----3274--- Scattered Clouds/
01/05/2008 11:55      23.0  10.0  23.1  23.0  44  1013   ---   ESE     5     5   ----32740.1 Scattered Clouds/
01/05/2008 12:55      24.0  10.0  24.0  22.2  41  1013   ---     E    10    10   ----32740.1 Scattered Clouds/
01/05/2008 13:55      23.0  12.0  23.4  21.0  50  1013   ---     E    10    10   ----32740.1 Scattered Clouds/
01/05/2008 14:55      23.0  11.0  23.3  21.0  47  1014   ---   ESE    10    10   ----3274-32744180.0 Scattered Clouds/
01/05/2008 15:55      23.0  11.0  23.3  21.0  47  1014   ---     E    10    10   ----3274-32740.4 Scattered Clouds/
01/05/2008 16:55      22.0  12.0  22.6  19.8  53  1014   ---   ESE    10    10   ---   --- /
01/05/2008 17:55      21.0  14.0  22.3  18.6  64  1014   ---   ESE    10    10   ---   --- /
01/05/2008 18:55      19.0  15.0  21.2  17.7  78  1015   ---   ESE     6     6   ---   --- /
01/05/2008 19:55      18.0  15.0  20.5  18.0  83  1015   ---   ESE     5     5   ----32740.0 Scattered Clouds/
01/05/2008 16:55      22.0  12.0  22.6  19.8  53  1014   ---   ESE    10    10   ---   --- /
01/05/2008 19:55      18.0  15.0  20.5  18.0  83  1015   ---   ESE     5     5   ----32740.0 Scattered Clouds/
02/05/2008 07:55      16.0  12.0  18.1  16.0  77  1018   ---     N     0     0   ---   0.4 Broken Clouds/
02/05/2008 08:55      18.0  13.0  19.8  18.0  73  1018   ---   ---     0     0   ----3274--- Scattered Clouds/
02/05/2008 10:55      20.0  15.0  21.8  18.8  73  1018   ---     E     6     6   ----32740.7 Few Clouds/
02/05/2008 11:55      20.0  14.0  21.5  17.4  68  1018   ---     E    10    10   ----32740.7 Broken Clouds/
02/05/2008 12:55      20.0  15.0  21.8  18.8  73  1018   ---     E     6     6   ----32741.3 Broken Clouds/
02/05/2008 13:55      20.0  14.0  21.5  17.8  68  1018   ---     E     8     8   ----32741.0 Broken Clouds/
02/05/2008 14:55      20.0  14.0  21.5  17.4  68  1018   ---     E    10    10   ----32742.1 Broken Clouds/
02/05/2008 15:55      20.0  13.0  21.3  16.4  64  1018   ---     E    13    13   ---   0.4 Broken Clouds/
02/05/2008 16:55      19.0  14.0  20.8  16.2  73  1018   ---   ESE    10    10   ---   0.4 Broken Clouds/
02/05/2008 17:55      19.0  14.0  20.8  17.7  73  1018   ---   ESE     6     6   ---   0.4 Broken Clouds/
02/05/2008 18:55      18.0  14.0  20.2  16.6  77  1018   ---   ESE     6     6   ---   0.4 Broken Clouds/
02/05/2008 19:55      17.0  14.0  19.5  17.0  83  1018   ---     E     5     5   ---   0.3 Broken Clouds/
02/05/2008 07:55      16.0  12.0  18.1  16.0  77  1018   ---     N     0     0   ---   0.4 Broken Clouds/
03/05/2008 08:55      18.0  10.0  19.0  18.0  60  1018   ---   ---     0     0   ---   --- /
03/05/2008 10:55      19.0  13.0  20.5  15.1  68  1018   ---     E    13    13   ---   --- /
03/05/2008 11:55      20.0  12.0  21.0  18.8  60  1018   ---   ESE     6     6   ---   --- /
03/05/2008 12:55      20.0  13.0  21.3  16.4  64  1018   ---     E    13    13   ----3274--- Few Clouds/
03/05/2008 14:55      20.0  13.0  21.3  16.4  64  1018   ---     E    13    13   ----3274--- Scattered Clouds/
03/05/2008 15:55      20.0  13.0  21.3  15.9  64  1017   ---     E    14    14   ---   --- /
03/05/2008 16:55      20.0  13.0  21.3  18.8  64  1017   ---     E     6     6   ---   --- /
03/05/2008 17:55      19.0  13.0  20.5  17.7  68  1017   ---     E     6     6   ---   --- /
03/05/2008 18:55      18.0  13.0  19.8  18.0  73  1017   ---     E     5     5   ---   --- /
03/05/2008 19:55      17.0  13.0  19.2  17.0  77  1017   ---    SE     5     5   ---   --- /
04/05/2008 06:55      14.0   5.0  14.7  12.3  55  1017   ---   SSW     6     6   ---   --- /
04/05/2008 07:55      16.0   8.0  16.9  16.0  59  1017   ---     N     0     0   ---   --- /
04/05/2008 08:55      19.0  11.0  20.0  19.0  60  1017   ---   ENE     3     3   ---   --- /
04/05/2008 10:55      22.0  12.0  22.6  22.0  53  1018   ---     E     5     5   ---   --- /
04/05/2008 11:55      22.0   9.0  22.1  19.8  43  1018   ---    NE    10    10   ----3274--- Few Clouds/
04/05/2008 12:55      22.0   6.0  21.8  19.8  35  1018   ---     E    10    10   ----3274--- Scattered Clouds/
04/05/2008 13:55      23.0   5.0  22.6  19.4  31  1018   ---     E    16    16   ----3274--- Scattered Clouds/
04/05/2008 14:55      23.0   3.0  22.4  20.2  27  1018   ---     E    13    13   ----3274--- Scattered Clouds/
04/05/2008 15:55      23.0   3.0  22.4  19.4  27  1017   ---   ESE    16    16   ----3274--- Few Clouds/
04/05/2008 16:55      22.0   2.0  21.4  18.5  27  1017   ---     E    14    14   ----3274--- Scattered Clouds/
04/05/2008 17:55      22.0   2.0  21.4  18.5  27  1017   ---     E    14    14   ---   --- /
04/05/2008 18:55      20.0   6.0  20.0  16.4  40  1017   ---   ESE    13    13   ---   --- /
04/05/2008 19:55      19.0   6.0  19.1  17.7  43  1017   ---   ESE     6     6   ---   --- /
05/05/2008 06:55      16.0   2.0  15.9  16.0  39  1018   ---     W     5     5   ---   --- /
05/05/2008 07:55      17.0   5.0  17.2  17.0  45  1018   ---     N     0     0   ---   --- /
05/05/2008 08:55      19.0   6.0  19.1  19.0  43  1018   ---   ---     0     0   ---   --- /
05/05/2008 09:55      21.0   7.0  21.0  19.9  40  1018   ---   ENE     6     6   ---   --- /
05/05/2008 11:55      22.0   8.0  22.0  20.2  41  1019   ---   ENE     8     8   ---   --- /
05/05/2008 12:55      23.0   6.0  22.7  21.3  33  1018   ---     E     8     8   ---   --- /
05/05/2008 13:55      23.0   7.0  22.8  20.2  36  1018   ---     E    13    13   ---   0.9 Few Clouds/
05/05/2008 14:55      22.0   9.0  22.1  18.9  43  1018   ---     E    13    13   ---   0.9 Few Clouds/
05/05/2008 15:55      22.0   8.0  22.0  18.9  41  1018   ---   ENE    13    13   ---   0.8 Few Clouds/
05/05/2008 16:55      22.0   9.0  22.1  19.8  43  1018   ---     E    10    10   ---   0.8 Few Clouds/
05/05/2008 17:55      22.0   8.0  22.0  21.0  41  1017   ---     E     6     6   ---   --- /
05/05/2008 19:55      19.0  10.0  19.8  17.7  56  1017   ---     E     6     6   ---   --- /
06/05/2008 07:55      16.0  12.0  18.1  16.0  77  1016   ---     N     0     0   ----32741.8 Broken Clouds/
06/05/2008 08:55      18.0  13.0  19.8  18.0  73  1016   ---   ---     0     0   ----32741.8 Broken Clouds/
06/05/2008 10:55      20.0  13.0  21.3  20.0  64  1017   ---   ENE     5     5   ---   --- /
06/05/2008 12:55      20.0  13.0  21.3  15.9  64  1017   ---   ESE    14    14   ----32741.8 Broken Clouds/
06/05/2008 14:55      20.0  15.0  21.8  15.3  73  1017   ---     E    16    16   ---   --- /
06/05/2008 15:55      20.0  14.0  21.5  15.3  68  1017   ---     E    16    16   ---   0.7 Scattered Clouds/
06/05/2008 16:55      20.0  12.0  21.0  17.4  60  1016   ---     E    10    10   ---   0.7 Scattered Clouds/
06/05/2008 17:55      20.0  13.0  21.3  17.4  64  1016   ---     E    10    10   ---   0.6 Scattered Clouds/
06/05/2008 18:55      19.0  14.0  20.8  17.7  73  1015   ---   ESE     6     6   ---   0.6 Broken Clouds/
06/05/2008 19:55      19.0  13.0  20.5  19.0  68  1015   ---     N     0     0   ---   0.7 Broken Clouds/
07/05/2008 06:55      16.0  13.0  18.5  16.0  82  1015   ---    NW     5     5   ---   0.7 Broken Clouds/
07/05/2008 08:55      19.0  15.0  21.2  15.1  78  1015   ---   ENE    13    13   ---   0.7 Scattered Clouds/
07/05/2008 10:55      20.0  14.0  21.5  16.4  68  1016   ---   ENE    13    13   ---   0.7 Scattered Clouds/
07/05/2008 11:55      20.0  13.0  21.3  15.3  64  1016   ---   ENE    16    16   ---   0.7 Scattered Clouds/
07/05/2008 12:55      21.0  13.0  22.0  17.2  60  1016   ---   ENE    14    14   ---   0.7 Scattered Clouds/
07/05/2008 13:55      20.0  10.0  20.6  15.3  53  1016   ---   ENE    16    16   ---   0.8 Scattered Clouds/
07/05/2008 14:55      20.0   9.0  20.4  15.9  49  1016   ---   ENE    14    14   ---   0.8 Scattered Clouds/
07/05/2008 15:55      20.0  11.0  20.8  15.9  56  1015   ---   ENE    14    14   ---   0.7 Few Clouds/
07/05/2008 16:55      20.0  10.0  20.6  15.3  53  1015   ---    NE    16    16   ---   0.7 Few Clouds/
07/05/2008 18:55      17.0  11.0  18.5  12.5  68  1015   ---     E    13    13   ---   0.8 Scattered Clouds/
07/05/2008 19:55      16.0  11.0  17.8  13.2  72  1015   ---   ENE     8     8   ---   0.7 Scattered Clouds/
08/05/2008 06:55      14.0  10.0  16.1  14.0  77  1016   ---     N     0     0   ---   --- /
08/05/2008 07:55      16.0  11.0  17.8  16.0  72  1016   ---   ---     0     0   ----32740.6 Few Clouds/
08/05/2008 08:55      18.0   9.0  18.8  18.0  56  1016   ---   ---     0     0   ----32740.6 Scattered Clouds/
08/05/2008 09:55      20.0   9.0  20.4  17.8  49  1017   ---     E     8     8   ----32740.6 Scattered Clouds/
08/05/2008 11:55      21.0  10.0  21.4  17.7  49  1017   ---     E    13    13   ---   0.7 Scattered Clouds/
08/05/2008 12:55      21.0  10.0  21.4  17.7  49  1017   ---     E    13    13   ---   0.7 Scattered Clouds/
08/05/2008 15:55      21.0   9.0  21.3  17.2  46  1016   ---     E    14    14   ---   0.7 Scattered Clouds/
08/05/2008 16:55      20.0  10.0  20.6  15.3  53  1016   ---     E    16    16   ---   0.7 Few Clouds/
08/05/2008 17:55      20.0   9.0  20.4  16.4  49  1016   ---     E    13    13   ---   0.7 Few Clouds/
08/05/2008 19:55      18.0   8.0  18.6  15.5  52  1016   ---     E     8     8   ----3274--- Scattered Clouds/
08/05/2008 17:55      20.0   9.0  20.4  16.4  49  1016   ---     E    13    13   ---   0.7 Few Clouds/
09/05/2008 06:55      14.0   6.0  14.9  14.0  59  1014   ---     N     0     0   ----32740.9 Scattered Clouds/
09/05/2008 07:55      17.0   6.0  17.4  17.0  48  1014   ---   ---     0     0   ----32740.9 Scattered Clouds/
09/05/2008 08:55      19.0   5.0  18.9  19.0  40  1013   ---   ESE     3     3   ----32740.9 Scattered Clouds/
09/05/2008 09:55      20.0   9.0  20.4  15.9  49  1013   ---     E    14    14   ----32740.9 Scattered Clouds/
09/05/2008 11:55      20.0   6.0  20.0  14.6  40  1012   ---     E    19    19   ----32740.9 Broken Clouds/
09/05/2008 12:55      21.0   6.0  20.9  16.5  38  1012   ---     E    18    18   ----32744180.0 Broken Clouds/
09/05/2008 13:55      21.0  12.0  21.8  16.5  56  1012   ---   ENE    18    18   ----32740.4 Few Clouds/
09/05/2008 14:55      21.0  11.0  21.6  16.5  53  1012   ---     E    18    18   ----32740.4 Few Clouds/
09/05/2008 15:55      21.0   9.0  21.3  16.7  46  1011   ---     E    16    16   ---   --- /
09/05/2008 16:55      21.0  11.0  21.6  18.6  53  1010   ---     E    10    10   ----32740.4 Scattered Clouds/
09/05/2008 17:55      20.0  11.0  20.8  20.0  56  1010   ---   ENE     5     5   ----32740.4 Scattered Clouds/
09/05/2008 18:55      20.0   9.0  20.4  20.0  49  1010   ---     E     3     3   ----32740.4 Broken Clouds/
09/05/2008 19:55      20.0  10.0  20.6  20.0  53  1010   ---     N     0     0   ----32740.4 Scattered Clouds/
10/05/2008 06:55      15.0   0.0  14.8  15.0  36  1006   ---   ---     0     0   ----32740.4 Broken Clouds/
10/05/2008 07:55      16.0   2.0  15.9  16.0  39  1006   ---   ---     0     0   ----32740.4 Broken Clouds/
10/05/2008 08:55      17.0   3.0  16.9  17.0  39  1006   ---   ---     0     0   ---   0.8 Broken Clouds/
10/05/2008 11:55      20.0   3.0  19.6  20.0  32  1006   ---   ---     0     0   ---   0.7 Broken Clouds/
10/05/2008 12:55      20.0   6.0  20.0  18.8  40  1006   ---    NE     6     6   ---   0.7 Broken Clouds/
10/05/2008 13:55      21.0   9.0  21.3  19.9  46  1006   ---   NNE     6     6   ---   0.7 Broken Clouds/
10/05/2008 14:55      20.0   7.0  20.1  17.8  43  1007   ---   NNE     8     8   ---   0.8 Broken Clouds/
10/05/2008 15:55      20.0   7.0  20.1  20.0  43  1007   ---     N     0     0   ---   0.8 Broken Clouds/
10/05/2008 16:55      20.0   8.0  20.2  17.8  46  1007   ---     S     8     8   ---   0.8 Broken Clouds/
10/05/2008 17:55      20.0   8.0  20.2  20.0  46  1007   ---     N     0     0   ----32740.6 Broken Clouds/
10/05/2008 18:55      20.0  12.0  21.0  18.8  60  1008   ---     N     6     6   ----32740.6 Broken Clouds/
10/05/2008 19:55      18.0  11.0  19.2  18.0  64  1008   ---     N     0     0   ---   0.8 Broken Clouds/
10/05/2008 07:55      16.0   2.0  15.9  16.0  39  1006   ---   ---     0     0   ----32740.6 Broken Clouds/
11/05/2008 06:55      16.0   6.0  16.5  16.0  51  1011   ---   ---     0     0   ---   1.0 Scattered Clouds/
11/05/2008 07:55      16.0   8.0  16.9  16.0  59  1011   ---   ---     0     0   ---   1.0 Broken Clouds/
11/05/2008 08:55      19.0   8.0  19.4  19.0  49  1012   ---   ---     0     0   ---   1.0 Scattered Clouds/
11/05/2008 09:55      21.0   8.0  21.1  21.0  43  1012   ---   ---     0     0   ---   1.0 Scattered Clouds/
11/05/2008 11:55      22.0   7.0  21.9  18.1  38  1012   ---   NNE    16    16   ----32740.4 Broken Clouds/
11/05/2008 12:55      23.0   9.0  23.0  19.8  41  1013   ---   NNE    14    14   ---   0.7 Broken Clouds/
11/05/2008 13:55      23.0  11.0  23.3  19.2  47  1013   ---    SE    18    18   ---   0.8 Broken Clouds/
11/05/2008 14:55      21.0  10.0  21.4  17.2  49  1013   ---     E    14    14   ---   0.8 Broken Clouds/
11/05/2008 15:55      20.0  12.0  21.0  17.8  60  1013   ---     N     8     8   ---   0.8 Overcast/
11/05/2008 16:55      19.0  11.0  20.0  16.7  60  1013   ---    NE     8     8   ---   0.8 Overcast/
11/05/2008 17:55      19.0  14.0  20.8  16.7  73  1013   ---     N     8     8   ---   0.8 Overcast/
11/05/2008 18:55      18.0  15.0  20.5  16.6  83  1014   ---   NNE     6     6   ---   --- Overcast/ Light Rain
11/05/2008 19:55      17.0  15.0  20.0  17.0  88  1014   ---     E     3     3   ---   --- Overcast/ Light Rain
12/05/2008 06:55      15.0  13.0  18.0  15.0  88  1014   ---     N     0     0   ----32740.3 Scattered Clouds/
12/05/2008 07:55      16.0  14.0  19.0  16.0  88  1014   ---   ---     0     0   ----3274--- Few Clouds/
12/05/2008 08:55      18.0  13.0  19.8  18.0  73  1014   ---   ---     0     0   ----32740.3 Few Clouds/
12/05/2008 10:55      19.0  15.0  21.2  14.5  78  1014   ---     E    14    14   ---   0.5 Scattered Clouds/
12/05/2008 11:55      19.0  15.0  21.2  15.1  78  1013   ---     E    13    13   ---   0.5 Broken Clouds/
12/05/2008 12:55      19.0  15.0  21.2  15.1  78  1013   ---     E    13    13   ---   0.5 Scattered Clouds/
12/05/2008 13:55      19.0  14.0  20.8  15.1  73  1013   ---   ENE    13    13   ---   0.5 Broken Clouds/
12/05/2008 14:55      19.0  13.0  20.5  16.2  68  1013   ---     E    10    10   ---   0.5 Broken Clouds/
12/05/2008 15:55      19.0  15.0  21.2  16.7  78  1012   ---     E     8     8   ---   --- Overcast/ Light Rain
12/05/2008 16:55      18.0  13.0  19.8  15.5  73  1012   ---   ENE     8     8   ---   0.7 Broken Clouds/
12/05/2008 17:55      20.0  12.0  21.0  20.0  60  1011   ---     N     0     0   ----32740.3 Scattered Clouds/
12/05/2008 18:55      19.0  12.0  20.2  19.0  64  1011   ---     E     5     5   ----32740.3 Scattered Clouds/
12/05/2008 19:55      18.0  14.0  20.2  18.0  77  1011   ---     N     0     0   ----32740.9 Scattered Clouds/
12/05/2008 18:55      19.0  12.0  20.2  19.0  64  1011   ---     E     5     5   ----32740.9 Scattered Clouds/
12/05/2008 19:55      18.0  14.0  20.2  18.0  77  1011   ---     N     0     0   ----32740.9 Scattered Clouds/
13/05/2008 06:55      17.0   9.0  18.0  17.0  59  1010   ---   ---     0     0   ---   1.0 Overcast/
13/05/2008 07:55      17.0  10.0  18.2  17.0  63  1010   ---   ---     0     0   ---   1.0 Broken Clouds/
13/05/2008 08:55      19.0  10.0  19.8  19.0  56  1009   ---    NW     3     3   ---   1.0 Broken Clouds/
13/05/2008 09:55      19.0  11.0  20.0  16.2  60  1010   ---   NNW    10    10   ---   1.0 Overcast/
13/05/2008 11:55      18.0  11.0  19.2  18.0  64  1010   ---   ENE     3     3   ---   0.8 Broken Clouds/
13/05/2008 12:55      20.0  13.0  21.3  20.0  64  1010   ---     N     5     5   ---   0.8 Broken Clouds/
13/05/2008 13:55      21.0  13.0  22.0  16.7  60  1010   ---   ENE    16    16   ---   0.8 Broken Clouds/
13/05/2008 14:55      20.0  12.0  21.0  15.1  60  1010   ---     E    18    18   ---   0.7 Broken Clouds/
13/05/2008 15:55      19.0  13.0  20.5  17.7  68  1010   ---   NNE     6     6   ---   0.7 Broken Clouds/
13/05/2008 16:55      18.0  15.0  20.5  18.0  83  1010   ---   NNE     3     3   ---   0.6 Broken Clouds/
13/05/2008 17:55      18.0  14.0  20.2  16.6  77  1010   ---    NW     6     6   ---   0.6 Broken Clouds/
13/05/2008 18:55      18.0  14.0  20.2  15.0  77  1010   ---   NNW    10    10   ---   0.6 Scattered Clouds/
13/05/2008 19:55      17.0  13.0  19.2  17.0  77  1011   ---   ENE     5     5   ---   0.6 Scattered Clouds/
14/05/2008 06:55      16.0  12.0  18.1  16.0  77  1012   ---     S     5     5   ---   --- Overcast/ Light Rain
14/05/2008 07:55      16.0  11.0  17.8  16.0  72  1013   ---    SW     5     5   ---   0.8 Broken Clouds/
14/05/2008 08:55      17.0  11.0  18.5  17.0  68  1014   ---   SSW     5     5   ---   0.8 Broken Clouds/
14/05/2008 09:55      18.0  13.0  19.8  15.0  73  1014   ---    NE    10    10   ---   0.8 Broken Clouds/
14/05/2008 11:55      20.0  13.0  21.3  16.4  64  1014   ---     E    13    13   ---   0.8 Broken Clouds/
14/05/2008 12:55      21.0  14.0  22.3  17.7  64  1014   ---    NW    13    13   ---   0.8 Broken Clouds/
14/05/2008 13:55      21.0  13.0  22.0  15.2  60  1014   ---    NW    26    26   ---   0.8 Broken Clouds/
14/05/2008 14:55      21.0  13.0  22.0  14.9  60  1014   ---    NW    29    29   ---   0.8 Broken Clouds/
14/05/2008 15:55      21.0  13.0  22.0  16.1  60  1014   ---    NW    19    40   ---   0.8 Broken Clouds/
14/05/2008 16:55      21.0  13.0  22.0  16.7  60  1014   ---    NW    16    16   ---   0.8 Broken Clouds/
14/05/2008 17:55      20.0  13.0  21.3  14.4  64  1014   ---    NW    21    21   ---   0.8 Broken Clouds/
14/05/2008 18:55      19.0  13.0  20.5  13.2  68  1014   ---    NW    19    19   ---   0.7 Broken Clouds/
14/05/2008 19:55      18.0  13.0  19.8  16.6  73  1014   ---     N     6     6   ---   0.6 Broken Clouds/
15/05/2008 06:55      14.0  12.0  17.0  10.8  88  1016   ---     S     8     8   ---   0.6 Scattered Clouds/
15/05/2008 07:55      16.0  14.0  19.0  16.0  88  1016   ---     N     0     0   ---   0.6 Few Clouds/
15/05/2008 08:55      19.0  13.0  20.5  17.7  68  1016   ---     E     6     6   ---   0.6 Few Clouds/
15/05/2008 09:55      20.0  13.0  21.3  18.8  64  1016   ---   ENE     6     6   ---   0.6 Few Clouds/
15/05/2008 11:55      21.0  14.0  22.3  16.7  64  1016   ---   ENE    16    16   ---   0.7 Broken Clouds/
15/05/2008 12:55      21.0  14.0  22.3  17.2  64  1016   ---     E    14    14   ---   0.7 Broken Clouds/
15/05/2008 13:55      22.0  14.0  23.0  18.1  61  1016   ---     E    16    16   ---   0.7 Few Clouds/
15/05/2008 14:55      21.0  15.0  22.5  16.7  69  1016   ---     E    16    16   ---   0.7 Few Clouds/
15/05/2008 15:55      21.0  14.0  22.3  17.2  64  1016   ---     E    14    14   ---   0.7 Few Clouds/
15/05/2008 16:55      21.0  14.0  22.3  17.7  64  1016   ---     E    13    13   ---   0.7 Few Clouds/
15/05/2008 17:55      20.0  15.0  21.8  17.4  73  1016   ---     E    10    10   ---   --- /
15/05/2008 18:55      19.0  15.0  21.2  16.7  78  1016   ---     E     8     8   ---   --- /
15/05/2008 19:55      18.0  14.0  20.2  18.0  77  1016   ---     N     0     0   ---   --- /
16/05/2008 06:55      16.0  11.0  17.8  16.0  72  1014   ---   SSW     3     3   ----3274--- Scattered Clouds/
16/05/2008 07:55      17.0  13.0  19.2  17.0  77  1015   ---     N     0     0   ----3274--- Broken Clouds/
16/05/2008 08:55      20.0  11.0  20.8  20.0  56  1015   ---   ---     0     0   ----3274--- Scattered Clouds/
16/05/2008 09:55      21.0  12.0  21.8  21.0  56  1015   ---    NE     5     5   ----3274--- Broken Clouds/
16/05/2008 11:55      23.0  14.0  23.8  22.1  57  1015   ---     E     6     6   ----3274--- Broken Clouds/
16/05/2008 12:55      24.0  14.0  24.6  23.2  54  1015   ---     E     6     6   ----3274--- Broken Clouds/
16/05/2008 13:55      26.0  15.0  26.5  26.0  51  1014   ---     E     5     5   ----3274--- Broken Clouds/
16/05/2008 14:55      25.0  13.0  25.3  22.5  47  1014   ---     E    14    14   ---   0.7 Scattered Clouds/
16/05/2008 15:55      24.0  14.0  24.6  22.2  54  1014   ---     E    10    10   ---   0.7 Few Clouds/
16/05/2008 16:55      24.0  14.0  24.6  23.2  54  1014   ---     E     6     6   ---   --- /
16/05/2008 17:55      24.0  13.0  24.5  24.0  50  1013   ---   ESE     5     5   ---   --- /
16/05/2008 18:55      23.0  13.0  23.6  23.0  53  1013   ---     N     0     0   ----3274--- Scattered Clouds/
16/05/2008 19:55      22.0  15.0  23.3  22.0  65  1013   ---   ---     0     0   ----3274--- Broken Clouds/
17/05/2008 06:55      20.0   9.0  20.4  20.0  49  1009   ---   ---     0     0   ---   0.7 Scattered Clouds/
17/05/2008 07:55      22.0  11.0  22.4  22.0  50  1008   ---   ---     0     0   ---   0.7 Few Clouds/
17/05/2008 08:55      25.0  11.0  25.0  25.0  41  1008   ---   ---     0     0   ---   0.7 Few Clouds/
17/05/2008 09:55      27.0  10.0  26.6  27.0  34  1008   ---     N     5     5   ---   0.7 Scattered Clouds/
17/05/2008 11:55      31.0   9.0  29.4  30.4  26  1007   ---    SE    14    14   ---   0.8 Few Clouds/
17/05/2008 12:55      33.0   6.0  30.9  33.0  19  1007   ---    SE    26    26   ----3274--- Few Clouds/
17/05/2008 13:55      33.0   7.0  30.9  33.0  20  1006   ---   ESE    26    26   ---   --- /
17/05/2008 14:55      33.0   7.0  30.9  33.0  20  1005   ---    SE    23    23   ---   0.8 Few Clouds/
17/05/2008 15:55      32.0   9.0  30.3  31.6  24  1005   ---   ESE    23    45   ---   0.8 Scattered Clouds/
17/05/2008 16:55      31.0  10.0  29.5  30.0  27  1004   ---   ESE    26    26   ---   0.8 Few Clouds/
17/05/2008 17:55      31.0   9.0  29.4  30.2  26  1004   ---    SE    19    19   ---   0.8 Few Clouds/
17/05/2008 18:55      28.0  11.0  27.3  26.4  35  1005   ---   NNW    14    14   ---   0.8 Few Clouds/
17/05/2008 19:55      25.0   8.0  24.7  22.5  34  1005   ---   NNW    14    14   ----3274--- Few Clouds/
18/05/2008 06:55      18.0  12.0  19.5  18.0  68  1007   ---   SSE     3     3   ---   --- /
18/05/2008 07:55      20.0  14.0  21.5  20.0  68  1007   ---     N     0     0   ---   --- /
18/05/2008 08:55      22.0  15.0  23.3  22.0  65  1008   ---    NE     3     3   ---   --- /
18/05/2008 09:55      23.0  15.0  24.1  22.1  61  1007   ---     E     6     6   ---   --- /
18/05/2008 12:55      24.0  13.0  24.5  20.8  50  1007   ---     E    16    16   ---   --- /
18/05/2008 13:55      24.0  16.0  25.1  20.8  61  1007   ---     E    16    16   ---   --- /
18/05/2008 14:55      23.0  16.0  24.3  18.9  65  1007   ---     E    19    19   ---   0.6 Few Clouds/
18/05/2008 15:55      22.0  17.0  23.9  17.9  73  1007   ---     E    18    18   ---   0.6 Few Clouds/
18/05/2008 16:55      22.0  17.0  23.9  18.9  73  1006   ---     E    13    13   ---   0.6 Few Clouds/
18/05/2008 17:55      21.0  17.0  23.2  19.0  78  1006   ---   ESE     8     8   ---   0.6 Scattered Clouds/
18/05/2008 18:55      20.0  17.0  22.6  16.4  83  1005   ---     E    13    13   ---   0.5 Scattered Clouds/
18/05/2008 19:55      19.0  17.0  22.0  19.0  88  1006   ---     E     3     3   ---   0.5 Scattered Clouds/
19/05/2008 06:55      17.0  16.0  20.5  17.0  94  1001   ---   SSE     5     5   ---   0.2 Overcast/
19/05/2008 07:55      18.0  16.0  21.0  18.0  88  1001   ---   SSE     5     5   ---   0.2 Overcast/
19/05/2008 08:55      18.0  17.0  21.5  15.0  94  1001   ---     E    10    10   ---   0.2 Overcast/
19/05/2008 11:55      23.0  16.0  24.3  21.3  65  1000   ---   WSW     8     8   ---   0.6 Few Clouds/
19/05/2008 12:55      23.0  16.0  24.3  21.0  65   999   ---   ESE    10    10   ---   0.7 Scattered Clouds/
19/05/2008 13:55      24.0  16.0  25.1  22.5  61   998   ---     E     8     8   ---   0.7 Scattered Clouds/
19/05/2008 14:55      25.0  15.0  25.7  22.5  54   998   ---    SW    14    34   ---   0.7 Broken Clouds/
19/05/2008 15:55      25.0  16.0  25.9  21.6  57   999   ---    SW    21    40   ---   0.7 Broken Clouds/
19/05/2008 17:00       0.0   0.0   4.0 -14.2 100   ---   ---   WNW    21    21   ---   --- Overcast/ Rain
19/05/2008 17:55      19.0  17.0  22.0  12.3  88  1000   ---     W    26    43   ---   0.4 Broken Clouds/
19/05/2008 18:55      18.0  15.0  20.5  15.0  83  1001   ---     W    10    37   ---   --- Overcast/ Light Rain
19/05/2008 19:55      18.0  13.0  19.8  15.5  73  1002   ---   WSW     8     8   ---   0.7 Broken Clouds/
20/05/2008 06:55      16.0  12.0  18.1  16.0  77  1007   ---   NNE     3     3   ---   0.7 Scattered Clouds/
20/05/2008 07:55      18.0  12.0  19.5  12.6  68  1007   ---    SW    16    16   ---   0.7 Scattered Clouds/
20/05/2008 08:55      19.0  13.0  20.5  16.2  68  1007   ---     S    10    10   ---   0.7 Scattered Clouds/
20/05/2008 09:55      21.0  12.0  21.8  16.5  56  1007   ---   SSW    18    40   ---   0.7 Scattered Clouds/
20/05/2008 10:55      21.0  11.0  21.6  16.7  53  1008   ---    SW    16    16   ---   0.7 Broken Clouds/
20/05/2008 11:55      22.0  10.0  22.3  19.8  46  1008   ---   WSW    10    10   ---   0.7 Scattered Clouds/
20/05/2008 12:55      22.0   9.0  22.1  19.8  43  1008   ---   WSW    10    32   ---   0.7 Broken Clouds/
20/05/2008 13:55      23.0   8.0  22.9  19.2  38  1008   ---   SSW    18    43   ---   0.7 Broken Clouds/
20/05/2008 14:55      23.0   8.0  22.9  19.2  38  1008   ---   SSW    18    18   ---   0.7 Broken Clouds/
20/05/2008 15:55      22.0   8.0  22.0  18.1  41  1008   ---    SW    16    16   ---   0.7 Broken Clouds/
20/05/2008 16:55      21.0   9.0  21.3  16.5  46  1009   ---   SSW    18    42   ---   0.7 Broken Clouds/
20/05/2008 17:55      20.0  11.0  20.8  16.4  56  1009   ---   SSW    13    13   ---   0.8 Broken Clouds/
20/05/2008 18:55      19.0  11.0  20.0  15.1  60  1010   ---   WSW    13    34   ---   0.8 Scattered Clouds/
20/05/2008 19:55      19.0  11.0  20.0  15.1  60  1010   ---   WSW    13    13   ---   0.8 Scattered Clouds/
21/05/2008 06:55      17.0  12.0  18.8  17.0  72  1011   ---   SSW     5     5   ---   0.7 Scattered Clouds/
21/05/2008 07:55      17.0  12.0  18.8  17.0  72  1011   ---     N     0     0   ---   0.7 Broken Clouds/
21/05/2008 07:55      17.0  12.0  18.8  17.0  72  1011   ---   ---     0     0   ---   0.7 Broken Clouds/None reported
21/05/2008 08:55      19.0  13.0  20.5  16.7  68  1011   ---   SSW     8     8   ---   0.7 Scattered Clouds/
21/05/2008 10:55      20.0  11.0  20.8  15.1  56  1012   ---   WSW    18    18   ---   0.7 Broken Clouds/
21/05/2008 10:55      20.0  11.0  20.8  15.1  56  1012   ---   WSW    18    18   ---   0.7 Broken Clouds/None reported
21/05/2008 11:55      21.0  12.0  21.8  15.8  56  1012   ---   WSW    21    21   ---   0.7 Broken Clouds/
21/05/2008 12:55      22.0  10.0  22.3  18.1  46  1012   ---     W    16    16   ---   0.7 Broken Clouds/
21/05/2008 13:55      23.0  11.0  23.3  19.2  47  1012   ---   WSW    18    18   ---   0.7 Broken Clouds/
21/05/2008 14:55      23.0  11.0  23.3  18.9  47  1012   ---     W    19    19   ---   0.7 Scattered Clouds/
21/05/2008 15:55      23.0  11.0  23.3  19.4  47  1012   ---   WSW    16    16   ---   0.7 Broken Clouds/
21/05/2008 16:55      24.0  11.0  24.1  21.1  44  1012   ---   WSW    14    14   ---   0.7 Scattered Clouds/
21/05/2008 18:55      22.0  11.0  22.4  19.8  50  1012   ---   WSW    10    10   ---   0.7 Scattered Clouds/
21/05/2008 19:55      20.0  10.0  20.6  16.4  53  1012   ---   WSW    13    13   ---   0.7 Scattered Clouds/
22/05/2008 06:55      18.0  10.0  19.0  15.5  60  1014   ---   WSW     8     8   ---   --- /
22/05/2008 07:55      20.0  11.0  20.8  20.0  56  1014   ---     N     0     0   ---   --- /
22/05/2008 08:55      22.0  11.0  22.4  19.8  50  1015   ---   SSE    10    10   ---   --- /
22/05/2008 09:55      24.0   9.0  23.9  20.8  39  1015   ---   WSW    16    16   ---   --- /
22/05/2008 11:55      26.0  12.0  26.0  24.6  42  1016   ---   WSW    10    10   ---   0.8 Scattered Clouds/
22/05/2008 12:55      26.0  12.0  26.0  23.4  42  1014   ---    SW    18    18   ---   0.8 Scattered Clouds/
22/05/2008 13:55      25.0  12.0  25.2  22.1  44  1015   ---     E    16    16   ---   0.8 Scattered Clouds/
22/05/2008 14:55      25.0  12.0  25.2  21.7  44  1015   ---     E    19    19   ---   0.8 Scattered Clouds/
22/05/2008 16:55      23.0  16.0  24.3  19.8  65  1015   ---     E    14    14   ---   0.8 Scattered Clouds/
22/05/2008 17:55      21.0  16.0  22.9  18.6  73  1015   ---     E    10    10   ---   0.8 Few Clouds/
22/05/2008 18:55      20.0  16.0  22.2  18.8  78  1015   ---     E     6     6   ----3274--- Scattered Clouds/
22/05/2008 19:55      19.0  16.0  21.6  19.0  83  1015   ---    SE     3     3   ----3274--- Scattered Clouds/
22/05/2008 18:55      20.0  16.0  22.2  18.8  78  1015   ---     E     6     6   ----3274--- Scattered Clouds/
23/05/2008 06:55      17.0  11.0  18.5  17.0  68  1014   ---     N     0     0   ----32740.9 Scattered Clouds/
23/05/2008 07:55      19.0  12.0  20.2  19.0  64  1014   ---   ---     0     0   ----32740.9 Few Clouds/
23/05/2008 08:55      23.0   9.0  23.0  22.1  41  1014   ---    SE     6     6   ---   --- /
23/05/2008 09:55      25.0   8.0  24.7  23.4  34  1014   ---     S    10    10   ---   --- /
23/05/2008 11:55      26.0   9.0  25.7  24.6  34  1014   ---     N    10    10   ---   --- /
23/05/2008 12:55      24.0   8.0  23.8  20.1  36  1014   ---     E    21    21   ---   0.7 Few Clouds/
23/05/2008 13:55      24.0   9.0  23.9  21.1  39  1014   ---     E    14    14   ---   0.8 Scattered Clouds/
23/05/2008 14:55      24.0  11.0  24.1  20.8  44  1014   ---   ESE    16    16   ---   0.8 Few Clouds/
23/05/2008 15:55      24.0  11.0  24.1  20.8  44  1014   ---     E    16    16   ---   0.7 Few Clouds/
23/05/2008 16:55      23.0   9.0  23.0  19.4  41  1014   ---     E    16    16   ---   0.7 Few Clouds/
23/05/2008 17:55      23.0  10.0  23.1  20.2  44  1014   ---     E    13    13   ---   0.7 Few Clouds/
23/05/2008 18:55      22.0  12.0  22.6  22.0  53  1014   ---   ESE     5     5   ---   0.7 Few Clouds/
23/05/2008 19:55      22.0  13.0  22.8  22.0  57  1014   ---     E     3     3   ---   --- /
23/05/2008 18:55      22.0  12.0  22.6  22.0  53  1014   ---   ESE     5     5   ---   0.7 Few Clouds/
24/05/2008 06:55      18.0   6.0  18.2  18.0  45  1013   ---     N     0     0   ---   --- /
24/05/2008 07:55      22.0   9.0  22.1  22.0  43  1013   ---   ---     0     0   ---   --- /
24/05/2008 08:55      24.0   8.0  23.8  24.0  36  1013   ---   ---     0     0   ---   --- /
24/05/2008 10:55      25.0   9.0  24.8  24.3  36  1013   ---   ENE     6     6   ---   --- /
24/05/2008 12:55      26.0  13.0  26.2  24.6  45  1013   ---     E    10    10   ---   --- /
24/05/2008 13:55      25.0  12.0  25.2  22.8  44  1013   ---   ENE    13    13   ---   --- /
24/05/2008 14:55      25.0  13.0  25.3  22.8  47  1013   ---   ENE    13    13   ----3274--- Scattered Clouds/
24/05/2008 15:55      25.0  13.0  25.3  22.8  47  1013   ---   ENE    13    13   ----3274--- Scattered Clouds/
24/05/2008 16:55      25.0  13.0  25.3  23.7  47  1014   ---   ENE     8     8   ----3274--- Scattered Clouds/
24/05/2008 17:55      25.0  13.0  25.3  23.7  47  1014   ---   ENE     8     8   ----3274--- Scattered Clouds/
24/05/2008 18:55      24.0  12.0  24.3  24.0  47  1014   ---     N     0     0   ----3274--- Scattered Clouds/
24/05/2008 19:55      23.0  12.0  23.4  23.0  50  1014   ---   ---     0     0   ----3274--- Scattered Clouds/
25/05/2008 06:55      21.0   9.0  21.3  21.0  46  1014   ---     W     3     3   ----3274--- Scattered Clouds/
25/05/2008 07:55      23.0  10.0  23.1  23.0  44  1014   ---     N     0     0   ---   --- /
25/05/2008 08:55      25.0  10.0  24.9  25.0  39  1015   ---   ENE     3     3   ---   --- /
25/05/2008 10:55      29.0  11.0  28.0  28.2  33  1015   ---     E    10    10   ---   --- /
25/05/2008 11:55      28.0   8.0  27.0  27.0  28  1015   ---   ESE    10    10   ---   --- /
25/05/2008 12:55      29.0   9.0  27.8  27.7  29  1015   ---     E    14    14   ---   --- /
25/05/2008 13:55      29.0  11.0  28.0  27.9  33  1015   ---     E    13    13   ---   --- /
25/05/2008 14:55      28.0  12.0  27.5  26.6  37  1015   ---     E    13    13   ---   --- /
25/05/2008 15:55      28.0  12.0  27.5  27.5  37  1015   ---     E     6     6   ---   --- /
25/05/2008 16:55      28.0  12.0  27.5  27.2  37  1015   ---     E     8     8   ---   --- /
25/05/2008 17:55      28.0  11.0  27.3  28.0  35  1014   ---     E     5     5   ---   --- /
25/05/2008 18:55      27.0  10.0  26.6  27.0  34  1014   ---     E     3     3   ---   --- /
25/05/2008 19:55      26.0  11.0  25.9  26.0  39  1014   ---     N     0     0   ---   --- /
26/05/2008 06:55      23.0   9.0  23.0  23.0  41  1014   ---    SW     3     3   ---   --- /
26/05/2008 07:55      25.0  10.0  24.9  25.0  39  1014   ---     N     0     0   ---   --- /
26/05/2008 08:55      28.0   8.0  27.0  28.0  28  1014   ---   ---     0     0   ---   --- /
26/05/2008 10:55      32.0   7.0  30.0  31.8  21  1014   ---    NE     8     8   ---   --- /
26/05/2008 11:55      32.0   9.0  30.3  31.6  24  1014   ---     E    21    21   ---   --- /
26/05/2008 12:55      31.0   9.0  29.4  30.6  26  1014   ---     E    10    10   ---   --- /
26/05/2008 13:55      30.0   9.0  28.6  29.5  27  1013   ---   ENE     8     8   ---   --- /
26/05/2008 14:55      31.0  10.0  29.5  30.8  27  1013   ---     E     6     6   ---   --- /
26/05/2008 15:55      31.0   8.0  29.3  30.6  24  1012   ---    NE    10    10   ---   --- /
26/05/2008 16:55      31.0   9.0  29.4  31.0  26  1012   ---    NE     3     3   ---   --- /
26/05/2008 17:55      32.0   9.0  30.3  31.9  24  1012   ---   ENE     6     6   ---   --- /
26/05/2008 18:55      31.0  13.0  30.1  31.0  33  1011   ---     E     3     3   ---   --- /
26/05/2008 19:55      30.0  13.0  29.2  30.0  35  1011   ---   SSW     5     5   ---   --- /
27/05/2008 06:55      26.0   8.0  25.6  26.0  32  1011   ---   WNW     5     5   ---   --- /
27/05/2008 07:55      28.0   9.0  27.1  27.5  30  1011   ---   NNE     6     6   ---   --- /
27/05/2008 08:55      30.0  10.0  28.7  29.2  29  1011   ---   ENE    13    13   ---   --- /
27/05/2008 10:55      33.0   7.0  30.9  33.0  20  1010   ---   SSE    18    18   ---   --- /
27/05/2008 11:55      35.0   5.0  32.6  35.0  16  1010   ---   SSE    19    19   ---   --- /
27/05/2008 12:55      35.0   5.0  32.6  35.0  16  1009   ---   SSE    27    27   ---   --- /
27/05/2008 13:55      36.0   6.0  33.7  36.0  16  1009   ---    SE    18    18   ---   0.8 Scattered Clouds/
27/05/2008 14:55      36.0   5.0  33.6  36.0  15  1008   ---    SE    19    19   ---   0.9 Few Clouds/
27/05/2008 15:55      35.0   0.0  32.4  35.0  11  1008   ---    SE    16    16   ----3274--- Scattered Clouds/
27/05/2008 16:55      35.0   4.0  32.5  35.0  15  1008   ---    SE    23    23   ----3274--- Scattered Clouds/
27/05/2008 17:55      34.0   6.0  31.8  34.0  18  1008   ---   ESE    18    18   ----3274--- Scattered Clouds/
27/05/2008 18:55      33.0   8.0  31.0  33.0  21  1008   ---    SE    14    14   ----3274--- Scattered Clouds/
27/05/2008 19:55      31.0   4.0  29.0  30.0  18  1008   ---    SE    26    26   ---   0.8 Scattered Clouds/
27/05/2008 17:55      34.0   6.0  31.8  34.0  18  1008   ---   ESE    18    18   ----32741.5 Scattered Clouds/
28/05/2008 06:55      24.0  10.0  24.0  24.0  41  1012   ---     N     0     0   ----32741.5 Few Clouds/
28/05/2008 07:55      29.0   8.0  27.7  27.4  27  1012   ---    SE    19    19   ----32741.5 Few Clouds/
28/05/2008 08:55      30.0   9.0  28.6  28.8  27  1013   ---   ESE    19    19   ---   --- /
28/05/2008 10:55      32.0  12.0  30.8  31.5  30  1011   ---     E    29    29   ---   --- /
28/05/2008 11:55      33.0  11.0  31.5  33.0  26  1011   ---     E    23    23   ---   --- /
28/05/2008 12:55      34.0  10.0  32.3  34.0  23  1010   ---   ESE    27    27   ---   --- /
28/05/2008 13:55      35.0   9.0  33.1  35.0  20  1009   ---   ESE    37    55   ---   --- /
28/05/2008 15:55      36.0   8.0  33.9  36.0  18  1008   ---   SSE    26    26   ---   --- /
28/05/2008 16:55      36.0   8.0  33.9  36.0  18  1008   ---   SSE    10    29   ---   --- /
28/05/2008 17:55      34.0   7.0  31.9  34.0  19  1007   ---   SSE    14    40   ----3274--- Broken Clouds/
28/05/2008 18:55      29.0  12.0  28.2  26.7  35  1010   ---     W    42    90   ----3274--- Overcast/
28/05/2008 19:55      26.0  15.0  26.5  25.4  51  1010   ---   NNE     6     6   ----32741.0 Broken Clouds/
29/05/2008 06:55      23.0  15.0  24.1  23.0  61  1007   ---     W     5     5   ---   0.7 Broken Clouds/
29/05/2008 07:55      25.0  16.0  25.9  24.3  57  1008   ---   NNE     6     6   ---   0.7 Broken Clouds/
29/05/2008 08:55      24.0  17.0  25.3  24.0  65  1009   ---   NNE     5     5   ---   0.7 Broken Clouds/
29/05/2008 09:55      23.0  17.0  24.6  20.2  69  1009   ---    NE    13    13   ---   0.7 Broken Clouds/
29/05/2008 11:55      26.0  18.0  27.1  23.5  61  1009   ---     N    16    16   ---   0.7 Scattered Clouds/
29/05/2008 12:55      26.0  20.0  27.6  24.6  70  1010   ---   NNE    10    10   ---   0.7 Few Clouds/
29/05/2008 13:55      26.0  19.0  27.3  24.6  65  1010   ---    NE    10    10   ---   0.7 Scattered Clouds/
29/05/2008 14:55      27.0  19.0  28.2  24.3  62  1010   ---     W    23    23   ---   0.7 Few Clouds/
29/05/2008 15:55      27.0  17.0  27.7  24.4  54  1010   ---     W    21    21   ---   0.7 Few Clouds/
29/05/2008 16:55      26.0  16.0  26.7  22.0  54  1010   ---     W    42    42   ---   0.7 Few Clouds/
29/05/2008 17:55      24.0  15.0  24.8  19.2  57  1011   ---   WSW    34    34   ---   0.7 Few Clouds/
29/05/2008 18:55      22.0  15.0  23.3  17.1  65  1012   ---   WSW    23    47   ---   0.7 Few Clouds/
29/05/2008 19:55      20.0  14.0  21.5  17.8  68  1012   ---   NNW     8    34   ---   0.7 Few Clouds/
30/05/2008 06:55      18.0  13.0  19.8  18.0  73  1014   ---     N     0     0   ---   --- /
30/05/2008 07:55      20.0  13.0  21.3  20.0  64  1015   ---   ---     0     0   ---   --- /
30/05/2008 08:55      22.0  13.0  22.8  21.0  57  1015   ---   ESE     6     6   ---   --- /
30/05/2008 09:55      23.0  13.0  23.6  22.1  53  1015   ---     E     6     6   ---   --- /
30/05/2008 10:55      23.0  13.0  23.6  21.3  53  1016   ---     E     8     8   ---   --- /
30/05/2008 12:55      23.0  15.0  24.1  19.8  61  1016   ---   ESE    14    14   ---   --- /
30/05/2008 13:55      23.0  15.0  24.1  19.8  61  1016   ---   ESE    14    14   ---   --- /
30/05/2008 14:55      23.0  15.0  24.1  19.8  61  1016   ---     E    14    14   ---   --- /
30/05/2008 16:55      23.0  16.0  24.3  19.8  65  1017   ---     E    14    14   ---   0.9 Few Clouds/
30/05/2008 17:55      22.0  16.0  23.6  19.8  69  1016   ---     E    10    10   ---   0.9 Few Clouds/
30/05/2008 18:55      21.0  16.0  22.9  19.0  73  1016   ---     E     8     8   ---   0.9 Scattered Clouds/
30/05/2008 19:55      20.0  18.0  23.0  18.8  88  1016   ---     E     6     6   ----3274--- Scattered Clouds/
31/05/2008 06:55      18.0  13.0  19.8  18.0  73  1017   ---     N     0     0   ----32742.1 Scattered Clouds/
31/05/2008 07:55      20.0  14.0  21.5  20.0  68  1017   ---   ---     0     0   ----3274--- Scattered Clouds/
31/05/2008 08:55      22.0  13.0  22.8  20.2  57  1017   ---   ENE     8     8   ----3274--- Broken Clouds/
31/05/2008 09:55      23.0  14.0  23.8  21.3  57  1018   ---     E     8     8   ----3274--- Broken Clouds/
31/05/2008 10:55      24.0  15.0  24.8  22.2  57  1018   ---     E    10    10   ----3274--- Scattered Clouds/
31/05/2008 11:55      24.0  14.0  24.6  22.2  54  1018   ---     E    10    10   ----3274--- Scattered Clouds/
31/05/2008 12:55      24.0  15.0  24.8  20.8  57  1018   ---     E    16    16   ---   --- /
31/05/2008 13:55      24.0  14.0  24.6  20.8  54  1018   ---     E    16    16   ---   --- /
31/05/2008 14:55      24.0  17.0  25.3  21.5  65  1018   ---     E    13    13   ---   --- /
31/05/2008 15:55      24.0  14.0  24.6  22.2  54  1018   ---     E    10    10   ----3274--- Scattered Clouds/
31/05/2008 16:55      24.0  15.0  24.8  22.2  57  1017   ---   ENE    10    10   ----3274--- Scattered Clouds/
31/05/2008 17:55      25.0  12.0  25.2  25.0  44  1017   ---     E     3     3   ----3274--- Scattered Clouds/
31/05/2008 18:55      23.0  14.0  23.8  21.3  57  1017   ---     E     8     8   ---   --- /
31/05/2008 19:55      22.0  17.0  23.9  22.0  73  1017   ---     E     5     5   ---   --- /
01/06/2008 06:55      18.0  13.0  19.8  18.0  73  1016   ---     N     0     0   ----3274--- Scattered Clouds/
01/06/2008 07:55      19.0  14.0  20.8  19.0  73  1016   ---   ---     0     0   ----3274--- Scattered Clouds/
01/06/2008 08:55      22.0  13.0  22.8  22.0  57  1016   ---   ---     0     0   ----3274--- Scattered Clouds/
01/06/2008 09:55      24.0  12.0  24.3  23.2  47  1016   ---    NE     6     6   ----3274--- Broken Clouds/
01/06/2008 11:55      26.0  12.0  26.0  25.4  42  1016   ---     E     6     6   ----3274--- Broken Clouds/
01/06/2008 12:55      26.0  10.0  25.8  24.8  37  1016   ---   ENE     8     8   ----3274--- Broken Clouds/
01/06/2008 13:55      27.0  10.0  26.6  27.0  34  1016   ---   ENE     3     3   ----32741.0 Broken Clouds/
01/06/2008 14:55      28.0  10.0  27.2  28.0  33  1016   ---   NNE     3     3   ----32741.0 Broken Clouds/
01/06/2008 15:55      29.0  10.0  27.9  27.9  31  1016   ---     E    13    13   ----32741.8 Scattered Clouds/
01/06/2008 16:55      27.0  10.0  26.6  26.0  34  1015   ---   ENE     8     8   ----32741.8 Scattered Clouds/
01/06/2008 17:55      26.0  11.0  25.9  26.0  39  1014   ---     E     5     5   ----32741.8 Broken Clouds/
01/06/2008 18:55      24.0  13.0  24.5  24.0  50  1014   ---     E     3     3   ----3274--- Broken Clouds/
01/06/2008 19:55      24.0  12.0  24.3  24.0  47  1014   ---     N     0     0   ----3274--- Scattered Clouds/
02/06/2008 06:55      21.0  18.0  23.6  21.0  83  1012   ---   ---     0     0   ---   0.8 Broken Clouds/
02/06/2008 07:55      21.0  18.0  23.6  21.0  83  1012   ---     E     5     5   ---   0.8 Broken Clouds/
02/06/2008 08:55      22.0  18.0  24.2  22.0  78  1012   ---     N     0     0   ---   0.8 Broken Clouds/
02/06/2008 09:55      23.0  18.0  24.9  22.1  73  1012   ---   ESE     6     6   ---   0.8 Broken Clouds/
02/06/2008 10:55      25.0  19.0  26.6  23.4  69  1012   ---   ESE    10    10   ---   0.7 Broken Clouds/
02/06/2008 12:55      25.0  19.0  26.6  22.8  69  1012   ---   ESE    13    13   ---   0.8 Broken Clouds/
02/06/2008 14:55      25.0  19.0  26.6  23.7  69  1012   ---   ESE     8     8   ----3274--- Scattered Clouds/
02/06/2008 15:55      26.0  20.0  27.6  23.8  70  1011   ---     E    14    14   ---   0.8 Scattered Clouds/
02/06/2008 17:55      24.0  20.0  26.2  22.5  78  1010   ---    SE     8     8   ---   0.8 Scattered Clouds/
02/06/2008 18:55      23.0  19.0  25.2  22.1  78  1010   ---   ESE     6     6   ---   0.8 Scattered Clouds/
02/06/2008 19:55      23.0  21.0  26.0  23.0  89  1010   ---     N     0     0   ---   0.8 Scattered Clouds/
03/06/2008 06:55      19.0  17.0  22.0  19.0  88  1010   ---   ---     0     0   ---   0.4 Few Clouds/
03/06/2008 07:55      21.0  18.0  23.6  19.9  83  1010   ---     S     6     6   ---   0.6 Few Clouds/
03/06/2008 08:55      23.0  17.0  24.6  23.0  69  1010   ---     E     3     3   ---   0.6 Few Clouds/
03/06/2008 10:55      25.0  18.0  26.3  22.5  65  1011   ---     E    14    14   ---   0.7 Scattered Clouds/
03/06/2008 11:55      26.0  19.0  27.3  24.1  65  1011   ---     E    13    13   ---   0.7 Scattered Clouds/
03/06/2008 12:55      25.0  19.0  26.6  23.4  69  1011   ---     E    10    10   ---   0.7 Scattered Clouds/
03/06/2008 13:55      27.0  17.0  27.7  25.3  54  1011   ---   WSW    13    13   ---   0.4 Scattered Clouds/
03/06/2008 14:55      27.0  19.0  28.2  24.4  62  1011   ---    NW    21    21   ---   0.5 Scattered Clouds/
03/06/2008 16:55      23.0  17.0  24.6  21.3  69  1011   ---     W     8     8   ---   0.5 Broken Clouds/
03/06/2008 17:55      23.0  17.0  24.6  18.5  69  1011   ---     W    23    45   ---   0.4 Broken Clouds/
03/06/2008 18:55      22.0  17.0  23.9  17.5  73  1011   ---   WNW    19    51   ---   0.4 Broken Clouds/
03/06/2008 19:55      21.0  17.0  23.2  15.8  78  1012   ---   WNW    21    40   ---   0.4 Broken Clouds/
04/06/2008 06:55      19.0  16.0  21.6  19.0  83  1013   ---     N     0     0   ---   --- /
04/06/2008 07:55      20.0  15.0  21.8  16.4  73  1013   ---    NW    13    13   ---   --- /
04/06/2008 08:55      22.0  15.0  23.3  18.9  65  1013   ---   WNW    13    13   ---   --- /
04/06/2008 09:55      23.0  15.0  24.1  18.9  61  1014   ---   WNW    19    19   ---   --- /
04/06/2008 11:55      24.0  15.0  24.8  21.5  57  1014   ---   NNW    13    13   ---   0.7 Scattered Clouds/
04/06/2008 12:55      24.0  15.0  24.8  19.7  57  1014   ---   WNW    26    26   ---   0.7 Scattered Clouds/
04/06/2008 13:55      24.0  16.0  25.1  20.0  61  1014   ---   WNW    23    23   ---   0.7 Scattered Clouds/
04/06/2008 14:55      24.0  15.0  24.8  20.3  57  1014   ---   WNW    19    19   ---   0.7 Scattered Clouds/
04/06/2008 15:55      25.0  15.0  25.7  21.6  54  1014   ---   WNW    21    21   ---   0.7 Scattered Clouds/
04/06/2008 16:55      24.0  13.0  24.5  20.0  50  1013   ---     W    23    23   ---   0.7 Few Clouds/
04/06/2008 17:55      24.0  13.0  24.5  20.1  50  1013   ---   WNW    21    21   ---   0.7 Few Clouds/
04/06/2008 18:55      22.0  13.0  22.8  17.5  57  1013   ---    NW    19    19   ---   0.7 Few Clouds/
04/06/2008 19:55      21.0  12.0  21.8  16.5  56  1013   ---   WNW    18    18   ---   0.7 Few Clouds/
05/06/2008 06:55      18.0  13.0  19.8  18.0  73  1013   ---     N     0     0   ----32741.2 Broken Clouds/
05/06/2008 07:55      19.0  14.0  20.8  19.0  73  1013   ---   ---     0     0   ----32741.2 Scattered Clouds/
05/06/2008 08:55      21.0  14.0  22.3  21.0  64  1012   ---   SSE     3     3   ----32741.2 Broken Clouds/
05/06/2008 10:55      24.0  12.0  24.3  22.2  47  1014   ---     W    10    10   ----3274--- Scattered Clouds/
05/06/2008 11:55      25.0  10.0  24.9  22.0  39  1014   ---     W    18    18   ----32740.6 Scattered Clouds/
05/06/2008 12:55      25.0  11.0  25.0  21.4  41  1014   ---     W    23    23   ----32740.6 Scattered Clouds/
05/06/2008 13:55      25.0  15.0  25.7  21.4  54  1013   ---   WNW    23    23   ---   0.7 Broken Clouds/
05/06/2008 14:55      23.0  15.0  24.1  18.0  61  1013   ---    NW    27    27   ----32741.2 Scattered Clouds/
05/06/2008 16:55      22.0  14.0  23.0  16.5  61  1013   ---   WNW    27    27   ----32741.2 Scattered Clouds/
05/06/2008 17:55      21.0  14.0  22.3  16.1  64  1012   ---    NW    19    19   ----32741.2 Scattered Clouds/
05/06/2008 18:55      21.0  15.0  22.5  16.1  69  1013   ---   WNW    19    19   ----32741.2 Scattered Clouds/
05/06/2008 19:55      19.0  14.0  20.8  14.5  73  1013   ---    NW    14    14   ----32741.2 Few Clouds/
06/06/2008 06:55      18.0  10.0  19.0  18.0  60  1012   ---     N     0     0   ----3274--- Few Clouds/
06/06/2008 07:55      21.0  11.0  21.6  17.7  53  1013   ---   WSW    13    13   ----3274--- Few Clouds/
06/06/2008 08:55      22.0  11.0  22.4  19.8  50  1013   ---   WSW    10    10   ----3274--- Broken Clouds/
06/06/2008 09:55      23.0  12.0  23.4  23.0  50  1013   ---   WSW     5     5   ----3274--- Scattered Clouds/
06/06/2008 11:55      24.0  11.0  24.1  24.0  44  1013   ---    NW     5     5   ----3274--- Broken Clouds/
06/06/2008 12:55      26.0  11.0  25.9  24.8  39  1012   ---     W     8     8   ---   0.7 Scattered Clouds/
06/06/2008 13:55      25.0  12.0  25.2  21.2  44  1012   ---   ESE    26    26   ---   0.7 Broken Clouds/
06/06/2008 14:55      24.0  12.0  24.3  21.1  47  1012   ---     E    14    14   ---   0.7 Broken Clouds/
06/06/2008 15:55      24.0  12.0  24.3  20.6  47  1012   ---     E    18    18   ---   0.7 Overcast/
06/06/2008 16:55      22.0  14.0  23.0  22.0  61  1012   ---   ESE     5     5   ----3274--- Overcast/
06/06/2008 17:55      21.0  15.0  22.5  17.7  69  1012   ---   ESE    13    13   ----3274--- Overcast/
06/06/2008 18:55      20.0  14.0  21.5  20.0  68  1012   ---     E     5     5   ----3274--- Broken Clouds/
06/06/2008 19:55      20.0  14.0  21.5  20.0  68  1012   ---     N     0     0   ----3274--- Scattered Clouds/
07/06/2008 06:55      18.0  16.0  21.0  18.0  88  1011   ---   WSW     5     5   ---   0.7 Broken Clouds/
07/06/2008 07:55      18.0  16.0  21.0  18.0  88  1011   ---     N     0     0   ---   0.7 Broken Clouds/
07/06/2008 08:55      19.0  15.0  21.2  15.1  78  1012   ---   WSW    13    13   ---   0.7 Broken Clouds/
07/06/2008 10:55      20.0  15.0  21.8  15.9  73  1012   ---   WSW    14    14   ---   0.7 Broken Clouds/
07/06/2008 11:55      20.0  16.0  22.2  18.8  78  1012   ---    NW     6     6   ---   0.7 Broken Clouds/
07/06/2008 12:55      21.0  15.0  22.5  18.6  69  1012   ---     W    10    10   ---   0.7 Broken Clouds/
07/06/2008 13:55      19.0  17.0  22.0  12.7  88  1012   ---    NW    23    23   ---   0.7 Broken Clouds/
07/06/2008 14:55      20.0  15.0  21.8  14.6  73  1012   ---   WNW    19    19   ---   0.7 Broken Clouds/
07/06/2008 15:55      20.0  15.0  21.8  15.3  73  1012   ---    NW    16    16   ---   0.8 Broken Clouds/
07/06/2008 16:55      21.0  15.0  22.5  15.8  69  1011   ---   WNW    21    21   ---   0.8 Broken Clouds/
07/06/2008 17:55      21.0  15.0  22.5  15.2  69  1011   ---    NW    26    26   ---   0.8 Scattered Clouds/
07/06/2008 18:55      20.0  15.0  21.8  13.8  73  1011   ---   WNW    26    26   ---   0.8 Scattered Clouds/
07/06/2008 19:55      20.0  15.0  21.8  15.9  73  1011   ---   WNW    14    14   ---   0.8 Broken Clouds/
07/06/2008 17:55      21.0  15.0  22.5  15.2  69  1011   ---    NW    26    26   ---   0.8 Scattered Clouds/
07/06/2008 19:55      20.0  15.0  21.8  15.9  73  1011   ---   WNW    14    14   ---   0.8 Broken Clouds/
08/06/2008 06:55      17.0  13.0  19.2  17.0  77  1012   ---     N     0     0   ----32740.6 Scattered Clouds/
08/06/2008 07:55      19.0  13.0  20.5  19.0  68  1012   ---   ---     0     0   ----32740.6 Broken Clouds/
08/06/2008 08:55      22.0  12.0  22.6  22.0  53  1012   ---     E     5     5   ---   --- /
08/06/2008 11:55      23.0  16.0  24.3  20.2  65  1013   ---   ESE    13    13   ---   0.6 Scattered Clouds/
08/06/2008 12:55      23.0  15.0  24.1  19.4  61  1013   ---   ESE    16    16   ---   0.7 Scattered Clouds/
08/06/2008 13:55      22.0  15.0  23.3  18.9  65  1013   ---     E    13    13   ---   0.7 Broken Clouds/
08/06/2008 14:55      22.0  12.0  22.6  19.8  53  1014   ---   WNW    10    10   ---   0.7 Broken Clouds/
08/06/2008 15:55      22.0  12.0  22.6  19.8  53  1014   ---     W    10    10   ---   0.7 Broken Clouds/
08/06/2008 16:55      22.0  10.0  22.3  21.0  46  1013   ---    NE     6     6   ---   0.7 Broken Clouds/
08/06/2008 17:55      22.0  10.0  22.3  22.0  46  1013   ---   NNE     5     5   ---   0.7 Broken Clouds/
08/06/2008 18:55      21.0  10.0  21.4  21.0  49  1013   ---   WNW     3     3   ----32740.9 Broken Clouds/
08/06/2008 19:55      20.0  12.0  21.0  18.8  60  1013   ---   NNE     6     6   ----32740.9 Broken Clouds/
09/06/2008 07:55      19.0  14.0  20.8  19.0  73  1016   ---     N     0     0   ---   0.6 Few Clouds/
09/06/2008 08:55      20.0  14.0  21.5  20.0  68  1016   ---     E     5     5   ---   0.6 Scattered Clouds/
09/06/2008 09:55      21.0  15.0  22.5  19.9  69  1016   ---     E     6     6   ---   0.7 Scattered Clouds/
09/06/2008 12:55      23.0  13.0  23.6  19.8  53  1016   ---     E    14    14   ---   0.7 Few Clouds/
09/06/2008 13:55      23.0  11.0  23.3  19.4  47  1016   ---     E    16    16   ---   0.7 Few Clouds/
09/06/2008 14:55      23.0  13.0  23.6  19.2  53  1017   ---     E    18    18   ---   0.7 Few Clouds/
09/06/2008 15:55      23.0  11.0  23.3  19.2  47  1017   ---     E    18    18   ---   0.7 Few Clouds/
09/06/2008 16:55      22.0  13.0  22.8  18.1  57  1017   ---     E    16    16   ---   --- /
09/06/2008 18:55      21.0  14.0  22.3  19.0  64  1016   ---     E     8     8   ---   --- /
09/06/2008 19:55      20.0  14.0  21.5  18.8  68  1016   ---     E     6     6   ----3274--- Scattered Clouds/
09/06/2008 11:55      22.0  15.0  23.3  18.5  65  1016   ---     E    14    14   ---   0.7 Scattered Clouds/
10/06/2008 06:55      17.0  13.0  19.2  17.0  77  1018   ---   SSW     5     5   ----32740.6 Few Clouds/
10/06/2008 07:55      19.0  15.0  21.2  19.0  78  1018   ---     N     0     0   ---   --- /
10/06/2008 08:55      21.0  15.0  22.5  21.0  69  1018   ---   ---     0     0   ---   --- /
10/06/2008 09:55      23.0  16.0  24.3  21.3  65  1018   ---    NE     8     8   ---   --- /
10/06/2008 10:55      24.0  17.0  25.3  23.2  65  1018   ---   ENE     6     6   ---   --- /
10/06/2008 12:55      24.0  18.0  25.6  21.5  69  1018   ---     E    13    13   ---   --- /
10/06/2008 13:55      25.0  17.0  26.1  22.5  61  1018   ---     E    14    14   ---   --- /
10/06/2008 14:55      24.0  16.0  25.1  20.8  61  1018   ---     E    16    16   ---   --- /
10/06/2008 15:55      25.0  17.0  26.1  22.8  61  1018   ---     E    13    13   ---   --- /
10/06/2008 16:55      25.0  16.0  25.9  22.5  57  1018   ---     E    14    14   ---   --- /
10/06/2008 17:55      24.0  17.0  25.3  20.8  65  1018   ---     E    16    16   ---   --- /
10/06/2008 18:55      23.0  18.0  24.9  23.0  73  1018   ---     E     3     3   ---   --- /
10/06/2008 19:55      22.0  17.0  23.9  22.0  73  1018   ---   ESE     3     3   ----3274--- Scattered Clouds/
11/06/2008 06:55      19.0  15.0  21.2  19.0  78  1018   ---     N     0     0   ---   --- /
11/06/2008 07:55      21.0  17.0  23.2  21.0  78  1018   ---   ---     0     0   ---   0.5 Few Clouds/
11/06/2008 08:55      23.0  17.0  24.6  22.1  69  1018   ---     E     6     6   ---   --- /
11/06/2008 10:55      25.0  17.0  26.1  23.7  61  1018   ---   ENE     8     8   ---   --- /
11/06/2008 12:55      25.0  15.0  25.7  22.1  54  1018   ---     E    16    16   ---   --- /
11/06/2008 13:55      26.0  15.0  26.5  23.8  51  1017   ---     E    14    14   ---   --- /
11/06/2008 14:55      26.0  15.0  26.5  23.5  51  1016   ---     E    16    16   ---   --- /
11/06/2008 15:55      26.0  13.0  26.2  24.1  45  1016   ---     E    13    13   ---   --- /
11/06/2008 16:55      26.0  14.0  26.3  24.1  48  1015   ---     E    13    13   ---   --- /
11/06/2008 17:55      25.0  14.0  25.5  23.4  51  1015   ---   ESE    10    10   ---   --- /
11/06/2008 18:55      24.0  15.0  24.8  23.2  57  1015   ---     E     6     6   ----3274--- Few Clouds/
11/06/2008 19:55      23.0  14.0  23.8  23.0  57  1015   ---   ESE     5     5   ----3274--- Few Clouds/
12/06/2008 06:55      20.0  13.0  21.3  20.0  64  1012   ---     N     0     0   ----3274--- Scattered Clouds/
12/06/2008 07:55      22.0  16.0  23.6  22.0  69  1012   ---   ---     0     0   ---   --- /
12/06/2008 08:55      24.0  17.0  25.3  22.5  65  1012   ---   ENE     8     8   ---   --- /
12/06/2008 10:55      25.0  17.0  26.1  23.4  61  1012   ---     E    10    10   ---   --- /
12/06/2008 11:55      26.0  16.0  26.7  23.8  54  1011   ---     E    14    14   ----3274--- Scattered Clouds/
12/06/2008 12:55      26.0  16.0  26.7  23.8  54  1011   ---     E    14    14   ---   1.0 Broken Clouds/
12/06/2008 13:55      25.0  17.0  26.1  24.3  61  1011   ---     E     6     6   ---   1.0 Scattered Clouds/
12/06/2008 15:01       0.0   0.0   4.0  -9.2 100   ---   ---     E    13    13   ---   --- / Thunderstorm
12/06/2008 15:55      23.0  19.0  25.2  21.0  78  1010   ---   ESE    10    10   ---   0.9 Broken Clouds/
12/06/2008 16:55      23.0  18.0  24.9  20.2  73  1010   ---     N    13    32   ---   0.7 Broken Clouds/
12/06/2008 17:55      23.0  17.0  24.6  17.8  69  1010   ---   WNW    31    31   ---   0.6 Broken Clouds/
12/06/2008 18:55      22.0  17.0  23.9  17.9  73  1010   ---    NW    18    18   ---   0.6 Broken Clouds/
12/06/2008 19:55      21.0  15.0  22.5  17.2  69  1011   ---     W    14    14   ---   0.6 Few Clouds/
13/06/2008 06:55      20.0  15.0  21.8  16.4  73  1010   ---     W    13    13   ---   0.7 Scattered Clouds/
13/06/2008 07:55      21.0  15.0  22.5  16.7  69  1010   ---   WSW    16    16   ---   0.7 Broken Clouds/
13/06/2008 08:55      21.0  15.0  22.5  17.7  69  1010   ---    SW    13    37   ---   0.7 Broken Clouds/
13/06/2008 10:55      25.0  16.0  25.9  22.0  57  1011   ---   WSW    18    18   ---   0.7 Broken Clouds/
13/06/2008 11:55      25.0  15.0  25.7  21.6  54  1011   ---     W    21    21   ---   0.7 Scattered Clouds/
13/06/2008 12:55      26.0  16.0  26.7  22.9  54  1011   ---    NW    23    23   ---   0.7 Few Clouds/
13/06/2008 13:55      26.0  17.0  26.9  22.4  58  1011   ---    NW    31    31   ---   0.7 Few Clouds/
13/06/2008 14:55      25.0  17.0  26.1  20.7  61  1011   ---    NW    32    32   ---   0.7 Few Clouds/
13/06/2008 15:55      26.0  16.0  26.7  23.1  54  1011   ---   NNW    19    19   ---   0.7 Few Clouds/
13/06/2008 16:55      25.0  17.0  26.1  21.6  61  1011   ---   NNW    21    21   ---   0.7 Few Clouds/
13/06/2008 17:55      24.0  17.0  25.3  20.3  65  1011   ---    NW    19    19   ---   0.7 Few Clouds/
13/06/2008 18:55      24.0  16.0  25.1  20.6  61  1012   ---    NW    18    18   ---   --- /
13/06/2008 19:55      23.0  14.0  23.8  19.4  57  1012   ---    NW    16    16   ---   --- /
14/06/2008 06:55      20.0  13.0  21.3  20.0  64  1013   ---   SSW     3     3   ---   --- /
14/06/2008 07:55      22.0  14.0  23.0  22.0  61  1014   ---     N     0     0   ---   --- /
14/06/2008 08:55      24.0  14.0  24.6  24.0  54  1014   ---     E     3     3   ---   --- /
14/06/2008 09:55      25.0  14.0  25.5  24.3  51  1014   ---     E     6     6   ---   --- /
14/06/2008 10:55      27.0  13.0  27.0  25.1  42  1014   ---     W    14    14   ---   0.7 Few Clouds/
14/06/2008 11:55      27.0  13.0  27.0  24.1  42  1014   ---    NW    26    26   ---   0.7 Few Clouds/
14/06/2008 12:55      27.0  13.0  27.0  25.3  42  1014   ---   NNW    13    31   ---   0.7 Few Clouds/
14/06/2008 13:55      27.0  12.0  26.8  24.3  39  1014   ---    NW    23    42   ---   0.7 Few Clouds/
14/06/2008 14:55      28.0  11.0  27.3  25.8  35  1014   ---   WNW    23    43   ---   0.7 Few Clouds/
14/06/2008 15:55      28.0  11.0  27.3  25.5  35  1014   ---   WNW    27    45   ---   0.7 Few Clouds/
14/06/2008 16:55      27.0  10.0  26.6  24.5  34  1014   ---    NW    19    19   ---   --- /
14/06/2008 17:55      26.0  11.0  25.9  22.5  39  1014   ---   WNW    29    29   ----3274--- Scattered Clouds/
14/06/2008 18:55      25.0  10.0  24.9  21.6  39  1014   ---   WNW    21    21   ---   --- /
14/06/2008 19:55      24.0   9.0  23.9  20.8  39  1014   ---     W    16    40   ---   --- /
15/06/2008 06:55      20.0  14.0  21.5  20.0  68  1014   ---     N     0     0   ---   0.6 Few Clouds/
15/06/2008 07:55      22.0  16.0  23.6  22.0  69  1014   ---   ---     0     0   ---   0.6 Few Clouds/
15/06/2008 08:55      23.0  13.0  23.6  20.2  53  1014   ---   NNW    13    13   ---   0.6 Few Clouds/
15/06/2008 10:55      25.0  12.0  25.2  23.4  44  1015   ---     W    10    10   ---   0.6 Few Clouds/
15/06/2008 11:55      25.0  13.0  25.3  21.6  47  1015   ---    NW    21    21   ---   0.6 Few Clouds/
15/06/2008 12:55      25.0  14.0  25.5  21.4  51  1015   ---   WNW    23    23   ---   0.6 Few Clouds/
15/06/2008 13:55      26.0  14.0  26.3  23.0  48  1015   ---   WNW    21    21   ---   0.7 Few Clouds/
15/06/2008 14:55      25.0  13.0  25.3  21.6  47  1014   ---   WNW    21    21   ---   0.7 Few Clouds/
15/06/2008 15:55      25.0  12.0  25.2  21.6  44  1014   ---    NW    21    21   ---   --- /
15/06/2008 16:55      25.0  11.0  25.0  21.6  41  1014   ---    SE    21    21   ---   --- /
15/06/2008 17:55      24.0  13.0  24.5  20.3  50  1014   ---   ENE    19    19   ---   --- /
15/06/2008 18:55      22.0  13.0  22.8  18.9  57  1014   ---     E    13    13   ---   --- /
15/06/2008 19:55      20.0  14.0  21.5  20.0  68  1014   ---     N     0     0   ---   --- /
16/06/2008 06:55      19.0  15.0  21.2  19.0  78  1013   ---   ---     0     0   ---   --- /
16/06/2008 07:55      20.0  15.0  21.8  20.0  73  1013   ---   ENE     3     3   ---   --- /
16/06/2008 08:55      23.0  17.0  24.6  23.0  69  1013   ---     E     5     5   ----3274--- Scattered Clouds/
16/06/2008 10:55      25.0  16.0  25.9  23.7  57  1013   ---     E     8     8   ----3274--- Scattered Clouds/
16/06/2008 12:55      25.0  16.0  25.9  23.4  57  1013   ---     E    10    10   ---   --- /
16/06/2008 13:55      26.0  16.0  26.7  23.8  54  1012   ---     E    14    14   ----3274--- Scattered Clouds/
16/06/2008 14:55      27.0  17.0  27.7  25.3  54  1012   ---     E    13    13   ---   0.8 Scattered Clouds/
16/06/2008 15:55      28.0  17.0  28.6  26.6  51  1011   ---     E    13    13   ---   --- /
16/06/2008 16:55      28.0  17.0  28.6  27.2  51  1011   ---   ESE     8     8   ---   --- /
16/06/2008 17:55      27.0  17.0  27.7  26.4  54  1011   ---     E     6     6   ---   --- /
16/06/2008 18:55      26.0  17.0  26.9  26.0  58  1011   ---     E     5     5   ---   --- /
16/06/2008 18:55      26.0  17.0  26.9  26.0  58  1011   ---     E     5     5   ---   --- None reported/None reported
16/06/2008 19:55      26.0  16.0  26.7  26.0  54  1011   ---     N     0     0   ---   --- /
17/06/2008 06:55      26.0  13.0  26.2  25.4  45  1015   ---   SSW     6     6   ---   0.7 Broken Clouds/
17/06/2008 07:55      28.0  16.0  28.3  28.0  48  1014   ---     E     5     5   ---   0.9 Scattered Clouds/
17/06/2008 08:55      31.0   8.0  29.3  30.3  24  1012   ---   SSW    16    16   ----3274--- Scattered Clouds/
17/06/2008 09:55      33.0   8.0  31.0  33.0  21  1011   ---   SSW    29    53   ---   0.9 Scattered Clouds/
17/06/2008 11:55      35.0   8.0  32.9  35.0  19  1011   ---   SSW    29    68   ---   --- /
17/06/2008 12:55      35.0   8.0  32.9  35.0  19  1011   ---   SSW    31    64   ---   --- /
17/06/2008 13:55      34.0   7.0  31.9  34.0  19  1011   ---   SSW    31    74   ----3274--- Broken Clouds/
17/06/2008 14:55      35.0   7.0  32.8  35.0  18  1011   ---   SSW    23    50   ----3274--- Broken Clouds/
17/06/2008 15:55      37.0   7.0  34.8  37.0  16  1012   ---    SW    19    43   ----3274--- Broken Clouds/
17/06/2008 16:55      37.0   6.0  34.6  37.0  15  1012   ---    SW    29    29   ----3274--- Scattered Clouds/
17/06/2008 17:55      36.0   6.0  33.7  36.0  16  1012   ---     S    10    10   ---   --- /
17/06/2008 19:55      33.0   8.0  31.0  33.0  21  1011   ---   ENE     6     6   ---   --- /
18/06/2008 06:55      29.0   3.0  27.4  27.6  19  1012   ---     S    16    16   ----3274--- Scattered Clouds/
18/06/2008 07:55      30.0   8.0  28.5  29.2  25  1013   ---    SW    13    13   ----3274--- Scattered Clouds/
18/06/2008 08:55      31.0   8.0  29.3  31.0  24  1013   ---     N     0     0   ----3274--- Scattered Clouds/
18/06/2008 09:55      31.0  13.0  30.1  30.7  33  1013   ---   NNE     8     8   ----3274--- Few Clouds/
18/06/2008 12:55      30.0  17.0  30.4  29.4  46  1014   ---    NE    10    10   ---   --- /
18/06/2008 13:55      29.0  18.0  29.9  27.9  52  1014   ---   NNE    13    13   ---   --- /
18/06/2008 14:55      29.0  18.0  29.9  27.9  52  1014   ---    NE    13    13   ---   --- /
18/06/2008 15:55      29.0  18.0  29.9  27.9  52  1014   ---     N    13    13   ---   0.7 Few Clouds/
18/06/2008 16:55      27.0  19.0  28.2  24.7  62  1014   ---    NE    18    18   ---   0.6 Few Clouds/
18/06/2008 17:55      26.0  20.0  27.6  23.5  70  1014   ---    NE    16    16   ---   0.6 Few Clouds/
18/06/2008 18:55      25.0  19.0  26.6  22.8  69  1015   ---    NE    13    13   ---   0.4 Few Clouds/
18/06/2008 19:55      23.0  20.0  25.6  21.0  83  1015   ---     E    10    10   ---   0.5 Scattered Clouds/
18/06/2008 09:55      31.0  13.0  30.1  30.7  33  1013   ---   NNE     8     8   ----32740.3 Few Clouds/
19/06/2008 06:55      20.0  15.0  21.8  20.0  73  1015   ---     N     0     0   ---   0.7 Scattered Clouds/
19/06/2008 07:55      21.0  16.0  22.9  21.0  73  1016   ---   ENE     5     5   ---   0.7 Scattered Clouds/
19/06/2008 08:55      22.0  17.0  23.9  22.0  73  1016   ---    NE     5     5   ---   0.7 Scattered Clouds/
19/06/2008 09:55      24.0  17.0  25.3  24.0  65  1016   ---     N     0     0   ---   0.7 Few Clouds/
19/06/2008 10:55      25.0  17.0  26.1  23.4  61  1016   ---    NE    10    10   ---   0.8 Few Clouds/
19/06/2008 11:55      25.0  17.0  26.1  23.7  61  1016   ---     N     8     8   ---   0.7 Few Clouds/
19/06/2008 12:55      25.0  17.0  26.1  22.5  61  1016   ---   NNE    14    14   ---   0.7 Few Clouds/
19/06/2008 13:55      26.0  16.0  26.7  24.6  54  1016   ---   NNE    10    10   ---   0.7 Few Clouds/
19/06/2008 14:55      26.0  15.0  26.5  24.1  51  1016   ---   NNE    13    13   ---   0.8 Few Clouds/
19/06/2008 15:55      25.0  17.0  26.1  22.8  61  1016   ---   NNE    13    13   ---   0.8 Few Clouds/
19/06/2008 16:55      25.0  17.0  26.1  22.8  61  1016   ---   NNE    13    13   ---   0.8 Few Clouds/
19/06/2008 17:55      24.0  17.0  25.3  22.2  65  1016   ---     N    10    10   ---   0.8 Few Clouds/
19/06/2008 18:55      23.0  17.0  24.6  21.3  69  1016   ---     N     8     8   ---   0.8 Few Clouds/
19/06/2008 19:55      22.0  18.0  24.2  20.2  78  1016   ---     N     8     8   ---   --- /
19/06/2008 18:55      23.0  17.0  24.6  21.3  69  1016   ---     N     8     8   ---   0.8 Few Clouds/
20/06/2008 06:55      20.0  15.0  21.8  20.0  73  1017   ---     N     0     0   ---   --- /
20/06/2008 07:55      21.0  17.0  23.2  21.0  78  1017   ---   ---     0     0   ---   --- /
20/06/2008 08:55      23.0  18.0  24.9  23.0  73  1017   ---   ---     0     0   ---   --- /
20/06/2008 10:55      25.0  19.0  26.6  23.7  69  1018   ---     E     8     8   ---   0.5 Few Clouds/
20/06/2008 11:55      25.0  19.0  26.6  23.7  69  1018   ---   ESE     8     8   ---   --- /
20/06/2008 12:55      25.0  19.0  26.6  22.5  69  1017   ---   ESE    14    14   ---   --- /
20/06/2008 13:55      26.0  19.0  27.3  24.1  65  1017   ---     E    13    13   ---   --- /
20/06/2008 14:55      26.0  20.0  27.6  23.8  70  1017   ---     E    14    14   ---   --- /
20/06/2008 15:55      26.0  21.0  27.9  23.8  74  1017   ---     E    14    14   ---   --- /
20/06/2008 16:55      25.0  19.0  26.6  22.0  69  1017   ---   ESE    18    18   ---   --- /
20/06/2008 17:55      25.0  20.0  26.9  22.8  74  1017   ---   ESE    13    13   ---   --- /
20/06/2008 18:55      23.0  18.0  24.9  20.2  73  1017   ---    SE    13    13   ---   --- /
20/06/2008 19:55      23.0  18.0  24.9  22.1  73  1017   ---     E     6     6   ---   --- /
20/06/2008 13:55      26.0  19.0  27.3  24.1  65  1017   ---     E    13    13   ---   --- /
21/06/2008 06:55      21.0  15.0  22.5  21.0  69  1017   ---     N     0     0   ---   --- /
21/06/2008 07:55      23.0  16.0  24.3  23.0  65  1017   ---   ---     0     0   ---   0.5 Few Clouds/
21/06/2008 08:55      24.0  19.0  25.9  23.2  74  1018   ---     E     6     6   ---   0.5 Few Clouds/
21/06/2008 10:55      26.0  20.0  27.6  24.8  70  1018   ---     E     8     8   ---   --- /
21/06/2008 11:55      27.0  20.0  28.5  26.0  66  1018   ---   ESE     8     8   ---   --- /
21/06/2008 13:55      27.0  20.0  28.5  25.3  66  1018   ---     E    13    13   ---   --- /
21/06/2008 14:55      28.0  21.0  30.1  27.0  66  1018   ---     E    10    10   ---   --- /
21/06/2008 15:55      28.0  21.0  30.1  26.6  66  1018   ---     E    13    13   ---   --- /
21/06/2008 16:55      27.0  21.0  28.8  25.3  70  1018   ---     E    13    13   ---   --- /
21/06/2008 17:55      26.0  20.0  27.6  23.8  70  1018   ---     E    14    14   ---   --- /
21/06/2008 18:55      25.0  20.0  26.9  24.3  74  1018   ---     E     6     6   ---   --- /
21/06/2008 19:55      25.0  20.0  26.9  25.0  74  1018   ---     N     0     0   ---   --- /
22/06/2008 06:55      23.0  11.0  23.3  23.0  47  1018   ---    SW     5     5   ---   --- /
22/06/2008 07:55      25.0  13.0  25.3  25.0  47  1019   ---     N     0     0   ---   --- /
22/06/2008 08:55      28.0  15.0  28.0  28.0  45  1019   ---   ---     0     0   ---   --- /
22/06/2008 09:55      29.0  15.0  28.9  28.6  43  1019   ---     E     6     6   ---   --- /
22/06/2008 11:55      29.0  16.0  29.1  27.9  45  1020   ---   ESE    13    13   ---   --- /
22/06/2008 12:55      29.0  19.0  30.3  27.9  55  1020   ---     E    13    13   ---   --- /
22/06/2008 13:55      29.0  19.0  30.3  28.2  55  1020   ---     E    10    10   ---   0.9 Few Clouds/
22/06/2008 14:55      30.0  17.0  30.4  29.4  46  1020   ---     E    10    10   ---   0.9 Few Clouds/
22/06/2008 15:55      30.0  18.0  30.8  29.2  49  1020   ---     E    13    13   ---   0.9 Few Clouds/
22/06/2008 16:55      29.0  16.0  29.1  27.9  45  1019   ---     E    13    13   ---   --- /
22/06/2008 17:55      29.0  15.0  28.9  28.2  43  1019   ---     E    10    10   ---   --- /
22/06/2008 18:55      28.0  17.0  28.6  28.0  51  1019   ---   ESE     5     5   ---   --- /
22/06/2008 19:55      27.0  18.0  27.9  27.0  58  1019   ---     E     3     3   ---   --- /
23/06/2008 06:55      24.0  13.0  24.5  24.0  50  1019   ---     N     0     0   ---   --- /
23/06/2008 07:55      26.0  14.0  26.3  26.0  48  1019   ---     E     3     3   ---   --- /
23/06/2008 08:55      28.0  17.0  28.6  28.0  51  1019   ---   ENE     3     3   ---   --- /
23/06/2008 09:55      29.0  16.0  29.1  28.6  45  1019   ---     E     6     6   ---   --- /
23/06/2008 10:55      30.0  17.0  30.4  29.7  46  1019   ---     E     6     6   ---   --- /
23/06/2008 11:55      30.0  18.0  30.8  29.0  49  1019   ---     E    14    14   ---   --- /
23/06/2008 12:55      29.0  20.0  30.8  27.5  58  1019   ---     E    18    18   ---   --- /
23/06/2008 13:55      30.0  18.0  30.8  28.9  49  1019   ---     E    16    16   ---   --- /
23/06/2008 14:55      29.0  19.0  30.3  28.2  55  1019   ---     E    10    10   ---   --- /
23/06/2008 15:55      30.0  19.0  31.3  29.0  52  1019   ---     E    14    14   ---   --- /
23/06/2008 16:55      29.0  18.0  29.9  28.2  52  1018   ---     E    10    10   ---   --- /
23/06/2008 17:55      28.0  20.0  29.7  27.0  62  1018   ---     E    10    10   ---   --- /
23/06/2008 18:55      28.0  20.0  29.7  28.0  62  1018   ---     E     5     5   ---   --- /
23/06/2008 19:55      26.0  20.0  27.6  26.0  70  1018   ---   ESE     3     3   ---   --- /
23/06/2008 18:55      28.0  20.0  29.7  28.0  62  1018   ---     E     5     5   ---   --- /
23/06/2008 19:55      26.0  20.0  27.6  26.0  70  1018   ---   ESE     3     3   ---   --- /
24/06/2008 06:55      23.0  11.0  23.3  23.0  47  1017   ---   SSW     5     5   ---   --- /
24/06/2008 07:55      25.0  13.0  25.3  25.0  47  1017   ---     N     0     0   ---   --- /
24/06/2008 08:55      28.0  13.0  27.6  28.0  40  1017   ---   ---     0     0   ---   --- /
24/06/2008 10:55      30.0  17.0  30.4  29.5  46  1017   ---     E     8     8   ---   --- /
24/06/2008 11:55      31.0  15.0  30.6  30.4  38  1017   ---   ENE    13    13   ---   --- /
24/06/2008 12:55      30.0  15.0  29.7  29.2  40  1017   ---     E    13    13   ---   --- /
24/06/2008 13:55      31.0  16.0  31.0  30.7  41  1017   ---     E     8     8   ---   --- /
24/06/2008 14:55      30.0  15.0  29.7  29.0  40  1017   ---     E    14    14   ---   --- /
24/06/2008 15:55      30.0  15.0  29.7  29.4  40  1017   ---     E    10    10   ---   --- /
24/06/2008 16:55      31.0  16.0  31.0  31.0  41  1016   ---   ESE     5     5   ---   --- /
24/06/2008 17:55      31.0  14.0  30.3  31.0  36  1016   ---    SE     5     5   ---   --- /
24/06/2008 18:55      30.0  17.0  30.4  30.0  46  1016   ---     E     3     3   ---   --- /
24/06/2008 19:55      28.0  17.0  28.6  28.0  51  1016   ---     E     3     3   ---   --- /
25/06/2008 06:55      25.0  16.0  25.9  25.0  57  1016   ---     N     0     0   ---   --- /
25/06/2008 07:55      27.0  17.0  27.7  27.0  54  1016   ---   ---     0     0   ---   --- /
25/06/2008 08:55      30.0  18.0  30.8  30.0  49  1016   ---     E     3     3   ---   --- /
25/06/2008 11:55      31.0  18.0  31.9  30.6  46  1016   ---     E    10    10   ---   --- /
25/06/2008 12:55      31.0  17.0  31.4  30.4  43  1016   ---     E    13    13   ---   --- /
25/06/2008 13:55      32.0  17.0  32.4  31.7  41  1016   ---     E    13    13   ---   --- /
25/06/2008 14:55      31.0  17.0  31.4  30.4  43  1016   ---     E    13    13   ---   --- /
25/06/2008 15:55      30.0  17.0  30.4  28.9  46  1016   ---     E    16    16   ---   --- /
25/06/2008 16:55      30.0  19.0  31.3  29.2  52  1016   ---   ESE    13    13   ---   --- /
25/06/2008 17:55      29.0  20.0  30.8  27.9  58  1015   ---     E    13    13   ---   --- /
25/06/2008 18:55      29.0  19.0  30.3  28.6  55  1015   ---   ESE     6     6   ---   --- /
25/06/2008 19:55      28.0  19.0  29.3  28.0  58  1016   ---   ESE     5     5   ---   --- /
25/06/2008 12:55      31.0  17.0  31.4  30.4  43  1016   ---     E    13    13   ---   --- /
26/06/2008 06:55      25.0  15.0  25.7  25.0  54  1015   ---     N     0     0   ---   --- /
26/06/2008 07:55      26.0  16.0  26.7  26.0  54  1015   ---   ---     0     0   ---   --- /
26/06/2008 08:55      28.0  15.0  28.0  28.0  45  1016   ---   ESE     3     3   ---   --- /
26/06/2008 11:55      31.0  18.0  31.9  30.4  46  1016   ---     E    13    13   ---   --- /
26/06/2008 12:55      32.0  17.0  32.4  31.7  41  1016   ---     E    13    13   ---   --- /
26/06/2008 14:55      32.0  13.0  31.0  31.6  32  1016   ---   ESE    16    16   ---   --- /
26/06/2008 15:55      31.0  16.0  31.0  30.4  41  1016   ---   ESE    13    13   ---   --- /
26/06/2008 16:55      31.0  15.0  30.6  30.4  38  1015   ---     E    14    14   ---   --- /
26/06/2008 18:55      29.0  16.0  29.1  29.0  45  1015   ---   ESE     5     5   ---   --- /
26/06/2008 19:55      28.0  17.0  28.6  28.0  51  1015   ---     E     5     5   ---   --- /
27/06/2008 06:55      24.0  10.0  24.0  24.0  41  1014   ---    SW     3     3   ---   --- /
27/06/2008 07:55      25.0  12.0  25.2  25.0  44  1015   ---     N     0     0   ---   --- /
27/06/2008 08:55      27.0  16.0  27.5  27.0  51  1015   ---   ---     0     0   ---   --- /
27/06/2008 11:55      30.0  14.0  29.4  29.2  38  1015   ---     E    13    13   ---   --- /
27/06/2008 12:55      31.0  13.0  30.1  30.4  33  1015   ---     E    14    14   ---   --- /
27/06/2008 13:55      30.0  14.0  29.4  28.9  38  1015   ---     E    16    16   ---   --- /
27/06/2008 14:55      30.0  15.0  29.7  28.9  40  1014   ---   ESE    18    18   ---   --- /
27/06/2008 15:55      30.0  14.0  29.4  28.9  38  1014   ---     E    16    16   ---   --- /
27/06/2008 16:55      30.0  12.0  29.0  29.0  33  1014   ---   ESE    14    14   ---   --- /
27/06/2008 17:55      29.0  13.0  28.4  29.0  37  1014   ---     E     5     5   ---   --- /
27/06/2008 18:55      28.0  15.0  28.0  27.5  45  1014   ---   ESE     6     6   ---   --- /
27/06/2008 19:55      27.0  18.0  27.9  26.0  58  1014   ---     E     8     8   ---   --- /
28/06/2008 06:55      23.0  11.0  23.3  23.0  47  1014   ---     N     0     0   ----32740.6 Scattered Clouds/
28/06/2008 07:55      24.0  14.0  24.6  24.0  54  1014   ---   ---     0     0   ----32744180.0 Scattered Clouds/
28/06/2008 08:55      27.0  14.0  27.1  27.0  45  1014   ---   ---     0     0   ----32740.3 Scattered Clouds/
28/06/2008 10:55      29.0  16.0  29.1  28.2  45  1015   ---     E    10    10   ----32740.3 Scattered Clouds/
28/06/2008 11:55      29.0  18.0  29.9  27.7  52  1015   ---     E    14    14   ----32740.3 Scattered Clouds/
28/06/2008 12:55      28.0  18.0  28.9  27.0  55  1015   ---     E    10    10   ----32740.3 Scattered Clouds/
28/06/2008 13:55      29.0  19.0  30.3  28.3  55  1015   ---     E     8     8   ---   0.8 Scattered Clouds/
28/06/2008 14:55      29.0  19.0  30.3  27.7  55  1015   ---     E    14    14   ---   0.7 Few Clouds/
28/06/2008 15:55      29.0  19.0  30.3  27.7  55  1015   ---     E    14    14   ---   0.7 Few Clouds/
28/06/2008 16:55      28.0  21.0  30.1  27.0  66  1015   ---   ESE    10    10   ---   0.7 Scattered Clouds/
28/06/2008 17:55      28.0  22.0  30.7  27.5  70  1015   ---     E     6     6   ----32740.5 Scattered Clouds/
28/06/2008 18:55      28.0  22.0  30.7  27.0  70  1015   ---   ENE    10    10   ----32740.5 Scattered Clouds/
28/06/2008 19:55      26.0  22.0  28.3  26.0  79  1015   ---     N     0     0   ----32740.6 Scattered Clouds/
29/06/2008 06:55      24.0  15.0  24.8  24.0  57  1017   ---   ---     0     0   ---   --- /
29/06/2008 07:55      26.0  20.0  27.6  26.0  70  1017   ---   ---     0     0   ---   --- /
29/06/2008 08:55      27.0  20.0  28.5  27.0  66  1017   ---   ENE     3     3   ---   0.4 Few Clouds/
29/06/2008 10:55      29.0  21.0  31.4  28.3  62  1017   ---     E     8     8   ---   --- /
29/06/2008 11:55      30.0  22.0  33.3  29.4  62  1017   ---     E    10    10   ---   --- /
29/06/2008 12:55      29.0  22.0  32.0  27.7  66  1017   ---     E    14    14   ---   0.7 Few Clouds/
29/06/2008 13:55      31.0  21.0  33.8  30.6  55  1017   ---     E    10    10   ---   0.7 Few Clouds/
29/06/2008 13:55      31.0  21.0  33.8  30.6  55  1017   ---     E    10    10   ---   0.7 Few Clouds/None reported
29/06/2008 14:55      31.0  20.0  33.0  30.2  52  1017   ---     E    18    18   ---   0.7 Few Clouds/
29/06/2008 15:55      31.0  18.0  31.9  30.6  46  1017   ---     E    10    10   ---   0.7 Few Clouds/
29/06/2008 16:55      30.0  19.0  31.3  28.9  52  1017   ---     E    18    18   ----3274--- Scattered Clouds/
29/06/2008 17:55      29.0  21.0  31.4  28.3  62  1017   ---     E     8     8   ---   0.7 Broken Clouds/
29/06/2008 18:55      28.0  21.0  30.1  28.0  66  1017   ---     N     0     0   ----3274--- Scattered Clouds/
29/06/2008 19:55      28.0  19.0  29.3  28.0  58  1017   ---   ---     0     0   ----3274--- Scattered Clouds/
30/06/2008 06:55      24.0  19.0  25.9  24.0  74  1017   ---   ---     0     0   ---   --- /
30/06/2008 07:55      26.0  20.0  27.6  26.0  70  1017   ---   ---     0     0   ---   --- /
30/06/2008 08:55      29.0  20.0  30.8  28.6  58  1017   ---     E     6     6   ---   --- /
30/06/2008 10:55      30.0  20.0  31.9  29.4  55  1017   ---     E    10    10   ---   --- /
30/06/2008 11:55      31.0  20.0  33.0  30.7  52  1017   ---     E     8     8   ---   --- /
30/06/2008 12:55      32.0  19.0  33.5  31.9  46  1017   ---   ESE     6     6   ---   --- /
30/06/2008 13:55      32.0  19.0  33.5  31.7  46  1016   ---     E    14    14   ---   --- /
30/06/2008 14:55      30.0  20.0  31.9  28.9  55  1016   ---     E    16    16   ---   --- /
30/06/2008 15:55      30.0  21.0  32.6  29.2  59  1016   ---   ESE    13    13   ---   --- /
30/06/2008 16:55      30.0  21.0  32.6  29.2  59  1016   ---     E    13    13   ---   --- /
30/06/2008 17:55      29.0  23.0  32.8  27.4  70  1016   ---     E    19    19   ---   --- /
30/06/2008 18:55      28.0  22.0  30.7  26.6  70  1016   ---   ESE    13    13   ---   --- /
30/06/2008 19:55      27.0  22.0  29.2  27.0  74  1016   ---     E     3     3   ---   --- /
01/07/2008 06:55      25.0  17.0  26.1  25.0  61  1015   ---     N     0     0   ---   --- /
01/07/2008 07:55      26.0  19.0  27.3  26.0  65  1015   ---   ---     0     0   ---   --- /
01/07/2008 08:55      27.0  22.0  29.2  27.0  74  1016   ---   ESE     5     5   ---   0.7 Few Clouds/
01/07/2008 09:55      28.0  21.0  30.1  27.5  66  1016   ---    SE     6     6   ---   --- /
01/07/2008 11:55      30.0  20.0  31.9  29.2  55  1015   ---   ENE    13    13   ---   --- /
01/07/2008 12:55      30.0  19.0  31.3  29.4  52  1015   ---   ENE    10    10   ---   --- /
01/07/2008 13:55      30.0  21.0  32.6  29.0  59  1015   ---     E    14    14   ---   0.7 Few Clouds/
01/07/2008 14:55      30.0  22.0  33.3  29.0  62  1015   ---     E    14    14   ---   0.7 Few Clouds/
01/07/2008 15:55      30.0  21.0  32.6  29.0  59  1015   ---   ENE    14    14   ---   0.7 Few Clouds/
01/07/2008 16:55      30.0  22.0  33.3  29.2  62  1014   ---   ENE    13    13   ---   0.7 Few Clouds/
01/07/2008 17:55      29.0  22.0  32.0  28.6  66  1014   ---     E     6     6   ---   0.8 Few Clouds/
01/07/2008 18:55      29.0  23.0  32.8  28.6  70  1014   ---     E     6     6   ---   --- /
01/07/2008 19:55      28.0  24.0  31.9  27.5  79  1014   ---   ENE     6     6   ---   --- /
02/07/2008 06:55      24.0  15.0  24.8  24.0  57  1014   ---     W     3     3   ---   --- /
02/07/2008 07:55      27.0  22.0  29.2  27.0  74  1014   ---   ESE     3     3   ---   --- /
02/07/2008 08:55      27.0  21.0  28.8  27.0  70  1014   ---   ESE     3     3   ---   --- /
02/07/2008 09:55      29.0  22.0  32.0  28.6  66  1015   ---     E     6     6   ---   --- /
02/07/2008 11:55      30.0  20.0  31.9  29.2  55  1015   ---     E    13    13   ---   --- /
02/07/2008 12:55      31.0  21.0  33.8  30.6  55  1015   ---     E    10    10   ---   --- /
02/07/2008 13:55      31.0  21.0  33.8  30.3  55  1014   ---     E    16    16   ---   --- /
02/07/2008 14:55      31.0  21.0  33.8  30.4  55  1014   ---     E    14    14   ---   --- /
02/07/2008 15:55      30.0  22.0  33.3  28.8  62  1014   ---     E    19    19   ---   --- /
02/07/2008 16:55      30.0  23.0  34.2  28.9  66  1014   ---     E    16    16   ---   --- /
02/07/2008 17:55      29.0  22.0  32.0  27.6  66  1013   ---     E    16    16   ---   --- /
02/07/2008 18:55      29.0  21.0  31.4  28.6  62  1013   ---     E     6     6   ---   --- /
02/07/2008 19:55      28.0  23.0  31.3  27.5  74  1013   ---     E     6     6   ---   --- /
02/07/2008 16:55      30.0  23.0  34.2  28.9  66  1014   ---     E    16    16   ---   --- /
03/07/2008 06:55      25.0  17.0  26.1  25.0  61  1013   ---    SW     3     3   ---   --- /
03/07/2008 07:55      27.0  18.0  27.9  27.0  58  1014   ---     N     0     0   ---   --- /
03/07/2008 08:55      29.0  19.0  30.3  29.0  55  1014   ---     E     3     3   ---   --- /
03/07/2008 10:55      30.0  20.0  31.9  29.0  55  1014   ---     E    14    14   ---   --- /
03/07/2008 11:55      31.0  20.0  33.0  30.4  52  1014   ---   ENE    13    13   ---   --- /
03/07/2008 12:55      31.0  20.0  33.0  30.4  52  1014   ---     E    13    13   ---   --- /
03/07/2008 13:55      31.0  18.0  31.9  30.4  46  1014   ---     E    13    13   ---   0.7 Few Clouds/
03/07/2008 15:55      31.0  21.0  33.8  30.4  55  1014   ---     E    14    14   ---   0.7 Few Clouds/
03/07/2008 16:55      30.0  19.0  31.3  29.0  52  1014   ---     E    14    14   ---   --- /
03/07/2008 17:55      30.0  19.0  31.3  29.4  52  1014   ---     E    10    10   ---   --- /
03/07/2008 18:55      30.0  19.0  31.3  30.0  52  1013   ---     N     0     0   ---   --- /
03/07/2008 19:55      29.0  17.0  29.5  29.0  48  1013   ---   ESE     5     5   ---   --- /
03/07/2008 08:55      29.0  19.0  30.3  29.0  55  1014   ---     E     3     3   ---   --- /
04/07/2008 06:55      25.0  16.0  25.9  25.0  57  1012   ---     N     0     0   ---   --- /
04/07/2008 07:55      27.0  15.0  27.3  27.0  48  1013   ---   ---     0     0   ---   --- /
04/07/2008 08:55      29.0  15.0  28.9  28.6  43  1013   ---     N     6     6   ---   --- /
04/07/2008 09:55      31.0  16.0  31.0  30.7  41  1013   ---     N     8     8   ---   --- /
04/07/2008 11:55      36.0   8.0  33.9  36.0  18  1012   ---     S    14    14   ----3274--- Scattered Clouds/
04/07/2008 12:55      36.0   9.0  34.1  36.0  19  1012   ---     W    14    14   ----3274--- Scattered Clouds/
04/07/2008 13:55      37.0   9.0  35.1  37.0  18  1012   ---    SW    10    10   ----3274--- Scattered Clouds/
04/07/2008 14:55      36.0  12.0  34.8  36.0  24  1012   ---     S    16    16   ---   --- /
04/07/2008 15:55      33.0  18.0  34.0  33.0  41  1012   ---   ESE    14    14   ---   --- /
04/07/2008 16:55      34.0  19.0  35.8  34.0  41  1011   ---     E     5     5   ---   --- /
04/07/2008 17:55      35.0  18.0  36.3  35.0  37  1011   ---     W    19    19   ---   --- /
04/07/2008 18:55      31.0  21.0  33.8  30.4  55  1011   ---     E    13    13   ---   --- /
04/07/2008 19:55      29.0  24.0  33.6  28.6  75  1011   ---   ESE     6     6   ---   --- /
04/07/2008 17:55      35.0  18.0  36.3  35.0  37  1011   ---     W    19    19   ---   --- /
05/07/2008 06:55      24.0  19.0  25.9  24.0  74  1013   ---     N     0     0   ---   --- /
05/07/2008 07:55      26.0  21.0  27.9  26.0  74  1014   ---   ---     0     0   ---   --- /
05/07/2008 08:55      27.0  19.0  28.2  27.0  62  1014   ---   ENE     3     3   ---   0.6 Few Clouds/
05/07/2008 10:55      29.0  18.0  29.9  27.7  52  1014   ---     E    14    14   ---   0.6 Few Clouds/
05/07/2008 11:55      29.0  19.0  30.3  27.5  55  1014   ---     E    18    18   ---   --- /
05/07/2008 12:55      29.0  20.0  30.8  27.6  58  1014   ---     E    16    16   ---   --- /
05/07/2008 13:55      29.0  20.0  30.8  27.5  58  1014   ---     E    18    18   ---   --- /
05/07/2008 14:55      29.0  21.0  31.4  27.6  62  1014   ---     N    16    16   ---   --- /
05/07/2008 16:55      28.0  21.0  30.1  26.2  66  1014   ---     E    16    16   ---   0.7 Few Clouds/
05/07/2008 17:55      27.0  20.0  28.5  25.3  66  1013   ---     E    13    13   ---   --- /
05/07/2008 18:55      26.0  20.0  27.6  24.1  70  1013   ---   ESE    13    13   ---   --- /
05/07/2008 19:55      25.0  21.0  27.2  23.4  79  1013   ---   ESE    10    10   ---   0.6 Few Clouds/
06/07/2008 06:55      22.0  16.0  23.6  22.0  69  1014   ---    SW     3     3   ---   --- /
06/07/2008 07:55      25.0  16.0  25.9  25.0  57  1014   ---     N     0     0   ---   --- /
06/07/2008 08:55      27.0  20.0  28.5  26.4  66  1014   ---   ENE     6     6   ---   --- /
06/07/2008 09:55      28.0  20.0  29.7  27.2  62  1014   ---     E     8     8   ---   --- /
06/07/2008 10:55      28.0  21.0  30.1  27.0  66  1014   ---     E    10    10   ---   --- /
06/07/2008 11:55      28.0  21.0  30.1  26.4  66  1014   ---     E    14    14   ---   --- /
06/07/2008 13:55      29.0  22.0  32.0  27.7  66  1014   ---     E    14    14   ---   --- /
06/07/2008 14:55      30.0  22.0  33.3  29.2  62  1014   ---     E    13    13   ---   --- /
06/07/2008 15:55      30.0  21.0  32.6  29.4  59  1013   ---     E    10    10   ---   --- /
06/07/2008 17:55      29.0  20.0  30.8  27.9  58  1013   ---     E    13    13   ---   --- /
06/07/2008 18:55      28.0  21.0  30.1  27.5  66  1013   ---     E     6     6   ---   --- /
06/07/2008 19:55      27.0  20.0  28.5  27.0  66  1013   ---     E     5     5   ---   --- /
07/07/2008 06:55      24.0  20.0  26.2  24.0  78  1013   ---     N     0     0   ---   --- /
07/07/2008 07:55      26.0  21.0  27.9  26.0  74  1012   ---   ---     0     0   ----32740.3 Few Clouds/
07/07/2008 08:55      28.0  20.0  29.7  28.0  62  1013   ---   ---     0     0   ---   0.7 Scattered Clouds/
07/07/2008 10:55      33.0  15.0  32.6  33.0  34  1013   ---     E     3     3   ---   1.0 Broken Clouds/
07/07/2008 11:55      36.0  14.0  35.5  36.0  27  1013   ---     E     8     8   ---   1.0 Scattered Clouds/
07/07/2008 12:55      36.0  17.0  36.9  36.0  33  1013   ---     E     8     8   ---   --- /
07/07/2008 13:55      36.0  16.0  36.3  36.0  31  1013   ---     E    10    10   ---   --- /
07/07/2008 14:55      36.0  16.0  36.3  36.0  31  1013   ---     E     8     8   ---   --- /
07/07/2008 15:55      36.0  15.0  35.9  36.0  29  1013   ---   ESE    14    14   ---   --- /
07/07/2008 16:55      34.0  17.0  34.6  34.0  36  1013   ---     E    10    10   ---   --- /
07/07/2008 17:55      33.0  16.0  33.0  33.0  36  1013   ---   ESE     8     8   ---   --- /
07/07/2008 18:55      32.0  16.0  32.0  32.0  38  1013   ---   ENE     5     5   ---   --- /
07/07/2008 19:55      31.0  22.0  34.6  31.0  59  1013   ---    NE     3     3   ---   --- /
08/07/2008 06:55      30.0   8.0  28.5  28.8  25  1013   ---     W    19    40   ----3274--- Broken Clouds/
08/07/2008 07:55      31.0   8.0  29.3  31.0  24  1012   ---     N     0     0   ----3274--- Scattered Clouds/
08/07/2008 08:55      33.0  14.0  32.3  33.0  32  1012   ---   WNW    23    43   ----3274--- Scattered Clouds/
08/07/2008 09:55      33.0  17.0  33.5  33.0  39  1014   ---    NW    18    18   ----3274--- Scattered Clouds/
08/07/2008 11:55      31.0  23.0  35.5  30.0  63  1014   ---     N    26    26   ---   0.7 Few Clouds/
08/07/2008 12:55      31.0  23.0  35.5  30.2  63  1015   ---     N    18    18   ---   0.7 Few Clouds/
08/07/2008 13:55      31.0  24.0  36.6  30.7  66  1016   ---     N     8     8   ---   0.7 Few Clouds/
08/07/2008 14:55      30.0  25.0  36.2  28.9  75  1016   ---     E    18    18   ---   0.7 Few Clouds/
08/07/2008 15:55      30.0  24.0  35.1  29.2  70  1016   ---   ENE    13    13   ---   0.7 Few Clouds/
08/07/2008 16:55      30.0  21.0  32.6  29.2  59  1016   ---    NE    13    13   ---   --- /
08/07/2008 17:55      29.0  19.0  30.3  27.6  55  1016   ---     N    16    16   ---   --- /
08/07/2008 18:55      28.0  16.0  28.3  27.2  48  1016   ---   ENE     8     8   ---   --- /
08/07/2008 19:55      27.0  19.0  28.2  26.4  62  1016   ---     E     6     6   ---   --- /
08/07/2008 16:55      30.0  21.0  32.6  29.2  59  1016   ---    NE    13    13   ---   --- /
09/07/2008 06:55      24.0  11.0  24.1  24.0  44  1017   ---    SW     5     5   ---   --- /
09/07/2008 07:55      26.0  14.0  26.3  26.0  48  1017   ---   ESE     5     5   ---   --- /
09/07/2008 08:55      20.0   6.0  20.0  18.8  40  1017   ---   ESE     6     6   ---   --- /
09/07/2008 10:55      30.0  13.0  29.2  29.0  35  1017   ---     E    14    14   ---   --- /
09/07/2008 11:55      30.0  16.0  30.0  28.9  43  1017   ---     E    16    16   ---   --- /
09/07/2008 12:55      30.0  16.0  30.0  28.9  43  1017   ---     E    18    18   ---   --- /
09/07/2008 13:55      30.0  18.0  30.8  28.9  49  1017   ---     E    16    16   ---   --- /
09/07/2008 14:55      30.0  19.0  31.3  28.8  52  1017   ---     E    19    19   ---   --- /
09/07/2008 15:55      30.0  18.0  30.8  29.0  49  1016   ---     E    14    14   ---   --- /
09/07/2008 16:55      30.0  13.0  29.2  29.2  35  1016   ---     E    13    13   ---   --- /
09/07/2008 17:55      30.0  15.0  29.7  29.4  40  1015   ---     E    10    10   ---   --- /
09/07/2008 18:55      29.0  16.0  29.1  28.3  45  1014   ---     E     8     8   ---   --- /
09/07/2008 19:55      27.0  13.0  27.0  26.0  42  1016   ---    NE     8     8   ---   --- /
09/07/2008 15:55      30.0  18.0  30.8  29.0  49  1016   ---     E    14    14   ---   --- /
10/07/2008 06:55      23.0  13.0  23.6  23.0  53  1016   ---   SSW     5     5   ---   --- /
10/07/2008 07:55      25.0  17.0  26.1  25.0  61  1016   ---     N     0     0   ---   --- /
10/07/2008 08:55      27.0  18.0  27.9  27.0  58  1016   ---   ESE     3     3   ---   --- /
10/07/2008 09:55      28.0  18.0  28.9  27.2  55  1016   ---   ENE     8     8   ---   --- /
10/07/2008 12:55      30.0  19.0  31.3  29.0  52  1016   ---     E    14    14   ---   --- /
10/07/2008 13:55      29.0  18.0  29.9  27.7  52  1016   ---     E    14    14   ---   --- /
10/07/2008 14:55      30.0  18.0  30.8  29.2  49  1016   ---     E    13    13   ---   --- /
10/07/2008 15:55      30.0  19.0  31.3  29.2  52  1016   ---     E    13    13   ---   --- /
10/07/2008 16:55      29.0  19.0  30.3  28.2  55  1016   ---     E    10    10   ---   --- /
10/07/2008 17:55      28.0  19.0  29.3  26.6  58  1015   ---   ESE    13    13   ---   --- /
10/07/2008 18:55      27.0  20.0  28.5  25.8  66  1015   ---     E    10    10   ---   --- /
10/07/2008 19:55      26.0  20.0  27.6  25.4  70  1015   ---   ESE     6     6   ---   --- /
11/07/2008 06:55      23.0  17.0  24.6  23.0  69  1015   ---    SW     5     5   ---   --- /
11/07/2008 07:55      24.0  19.0  25.9  24.0  74  1015   ---     N     0     0   ---   --- /
11/07/2008 08:55      26.0  20.0  27.6  26.0  70  1015   ---   ---     0     0   ---   --- /
11/07/2008 10:55      28.0  21.0  30.1  26.6  66  1015   ---     E    13    13   ----3274--- Scattered Clouds/
11/07/2008 11:55      28.0  21.0  30.1  27.0  66  1015   ---     E    10    10   ----3274--- Scattered Clouds/
11/07/2008 12:55      29.0  20.0  30.8  28.2  58  1015   ---     E    10    10   ----3274--- Broken Clouds/
11/07/2008 13:55      29.0  21.0  31.4  28.3  62  1015   ---     E     8     8   ----3274--- Broken Clouds/
11/07/2008 14:55      29.0  21.0  31.4  28.3  62  1015   ---     E     8     8   ----3274--- Broken Clouds/
11/07/2008 15:55      29.0  22.0  32.0  27.7  66  1015   ---     E    14    14   ----3274--- Scattered Clouds/
11/07/2008 16:55      29.0  22.0  32.0  28.2  66  1014   ---   ESE    10    10   ----3274--- Scattered Clouds/
11/07/2008 17:55      29.0  22.0  32.0  28.2  66  1014   ---     E    10    10   ----3274--- Few Clouds/
11/07/2008 18:55      28.0  22.0  30.7  27.5  70  1013   ---   ESE     6     6   ---   --- /
11/07/2008 19:55      27.0  21.0  28.8  27.0  70  1013   ---     E     5     5   ---   --- /
11/07/2008 19:55      27.0  21.0  28.8  27.0  70  1013   ---     E     5     5   ---   --- None reported/None reported
12/07/2008 06:55      24.0  14.0  24.6  24.0  54  1012   ---     N     0     0   ---   --- /
12/07/2008 07:55      25.0  17.0  26.1  25.0  61  1012   ---   ---     0     0   ---   --- /
12/07/2008 08:55      28.0  16.0  28.3  28.0  48  1012   ---   ---     0     0   ---   --- /
12/07/2008 08:55      28.0  16.0  28.3  28.0  48  1012   ---   ---     0     0   ---   --- None reported/None reported
12/07/2008 10:55      31.0  17.0  31.4  30.8  43  1012   ---   ENE     6     6   ---   --- /
12/07/2008 10:55      31.0  17.0  31.4  30.8  43  1012   ---   ENE     6     6   ---   --- None reported/None reported
12/07/2008 11:55      31.0  17.0  31.4  30.4  43  1012   ---     E    13    13   ----3274--- Scattered Clouds/
12/07/2008 11:55      31.0  17.0  31.4  30.4  43  1012   ---     E    13    13   ---   0.3 Scattered Clouds/None reported
12/07/2008 12:55      31.0  18.0  31.9  30.7  46  1012   ---   ENE     8     8   ----3274--- Scattered Clouds/
12/07/2008 13:55      31.0  18.0  31.9  30.6  46  1011   ---   ENE    10    10   ----3274--- Scattered Clouds/
12/07/2008 14:55      31.0  18.0  31.9  30.4  46  1010   ---   ENE    13    13   ----3274--- Scattered Clouds/
12/07/2008 15:55      31.0  15.0  30.6  30.7  38  1010   ---   ENE     8     8   ----3274--- Scattered Clouds/
12/07/2008 16:55      31.0  15.0  30.6  30.7  38  1010   ---     E     8     8   ---   --- /
12/07/2008 17:55      31.0  17.0  31.4  30.7  43  1010   ---     E     8     8   ---   --- /
12/07/2008 18:55      30.0  18.0  30.8  29.7  49  1010   ---     E     6     6   ----3274--- Scattered Clouds/
12/07/2008 19:55      29.0  21.0  31.4  29.0  62  1010   ---     N     0     0   ---   --- /
13/07/2008 06:55      24.0  15.0  24.8  24.0  57  1010   ---   ---     0     0   ---   --- /
13/07/2008 07:55      27.0  15.0  27.3  27.0  48  1010   ---   ---     0     0   ----3274--- Scattered Clouds/
13/07/2008 08:55      30.0  16.0  30.0  30.0  43  1010   ---     E     3     3   ---   --- /
13/07/2008 10:55      34.0  15.0  33.7  34.0  32  1010   ---   ENE     6     6   ---   --- /
13/07/2008 11:55      33.0  18.0  34.0  33.0  41  1010   ---     E     6     6   ---   --- /
13/07/2008 12:55      34.0  19.0  35.8  34.0  41  1010   ---     E     6     6   ---   --- /
13/07/2008 13:55      35.0  17.0  35.7  35.0  35  1009   ---   ENE     8     8   ---   --- /
13/07/2008 14:55      35.0  16.0  35.2  35.0  32  1009   ---     E    13    13   ---   --- /
13/07/2008 15:55      35.0  14.0  34.4  35.0  28  1009   ---     E    10    10   ---   --- /
13/07/2008 16:55      35.0  19.0  37.0  35.0  39  1010   ---    NW    18    18   ---   --- /
13/07/2008 17:55      30.0  22.0  33.3  28.8  62  1011   ---    NE    19    19   ---   --- /
13/07/2008 18:55      30.0  20.0  31.9  30.0  55  1011   ---     N     0     0   ----3274--- Scattered Clouds/
13/07/2008 19:55      29.0  21.0  31.4  28.2  62  1011   ---   ESE    10    10   ----3274--- Scattered Clouds/
14/07/2008 06:55      25.0  21.0  27.2  25.0  79  1014   ---    SW     3     3   ---   0.7 Scattered Clouds/
14/07/2008 07:55      26.0  23.0  28.6  26.0  84  1015   ---     N     0     0   ---   0.7 Scattered Clouds/
14/07/2008 08:55      27.0  23.0  29.6  27.0  79  1015   ---   ---     0     0   ---   0.7 Scattered Clouds/
14/07/2008 10:55      30.0  23.0  34.2  29.2  66  1016   ---     E    13    13   ---   0.7 Scattered Clouds/
14/07/2008 11:55      29.0  24.0  33.6  28.6  75  1016   ---   ENE     6     6   ---   0.4 Scattered Clouds/
14/07/2008 12:55      29.0  23.0  32.8  27.6  70  1016   ---   NNE    16    16   ---   0.3 Broken Clouds/
14/07/2008 13:55      28.0  23.0  31.3  27.0  74  1017   ---   NNE    10    10   ---   0.3 Broken Clouds/
14/07/2008 14:55      28.0  22.0  30.7  27.0  70  1017   ---   NNE    10    10   ---   0.3 Broken Clouds/
14/07/2008 15:55      27.0  21.0  28.8  26.0  70  1017   ---   NNE     8     8   ---   0.7 Overcast/
14/07/2008 16:55      27.0  21.0  28.8  25.8  70  1018   ---     E    10    10   ---   0.7 Broken Clouds/
14/07/2008 17:55      26.0  20.0  27.6  24.8  70  1018   ---   NNE     8     8   ---   0.7 Broken Clouds/
14/07/2008 18:55      26.0  20.0  27.6  26.0  70  1019   ---   ENE     5     5   ---   0.7 Broken Clouds/
14/07/2008 19:55      26.0  20.0  27.6  24.6  70  1018   ---   ESE    10    10   ---   0.7 Broken Clouds/
14/07/2008 18:55      26.0  20.0  27.6  26.0  70  1019   ---   ENE     5     5   ---   0.7 Broken Clouds/
15/07/2008 06:55      24.0  20.0  26.2  24.0  78  1020   ---    SW     5     5   ----3274--- Scattered Clouds/
15/07/2008 07:55      25.0  21.0  27.2  25.0  79  1020   ---     N     0     0   ----3274--- Scattered Clouds/
15/07/2008 08:55      26.0  20.0  27.6  24.6  70  1020   ---     E    10    10   ---   0.8 Scattered Clouds/
15/07/2008 10:55      28.0  20.0  29.7  26.2  62  1021   ---     E    16    16   ---   0.8 Few Clouds/
15/07/2008 11:55      28.0  18.0  28.9  25.9  55  1021   ---   ENE    21    21   ---   0.9 Few Clouds/
15/07/2008 12:55      28.0  18.0  28.9  26.1  55  1021   ---     E    18    18   ---   0.8 Few Clouds/
15/07/2008 13:55      28.0  18.0  28.9  26.4  55  1021   ---     E    14    14   ---   0.8 Few Clouds/
15/07/2008 14:55      28.0  19.0  29.3  26.4  58  1021   ---     E    14    14   ---   0.9 Few Clouds/
15/07/2008 15:55      28.0  19.0  29.3  26.4  58  1021   ---     E    14    14   ---   0.9 Few Clouds/
15/07/2008 16:55      27.0  19.0  28.2  25.1  62  1021   ---     E    14    14   ---   0.8 Scattered Clouds/
15/07/2008 17:55      26.0  19.0  27.3  25.4  65  1021   ---    NE     6     6   ---   0.7 Scattered Clouds/
15/07/2008 18:55      25.0  18.0  26.3  23.7  65  1021   ---    NE     8     8   ---   0.7 Scattered Clouds/
15/07/2008 19:55      25.0  18.0  26.3  23.7  65  1021   ---     N     8     8   ---   0.7 Scattered Clouds/
16/07/2008 06:55      22.0  18.0  24.2  21.0  78  1020   ---   SSW     6     6   ---   --- /
16/07/2008 07:55      25.0  19.0  26.6  25.0  69  1020   ---     N     0     0   ---   --- /
16/07/2008 08:55      27.0  18.0  27.9  25.8  58  1020   ---    NE    10    10   ---   --- /
16/07/2008 10:55      29.0  16.0  29.1  28.2  45  1021   ---     E    10    10   ---   --- /
16/07/2008 11:55      29.0  15.0  28.9  27.5  43  1021   ---     E    18    18   ---   --- /
16/07/2008 12:55      29.0  14.0  28.6  27.5  40  1021   ---     N    18    18   ---   --- /
16/07/2008 13:55      29.0  13.0  28.4  27.5  37  1020   ---     E    18    18   ---   --- /
16/07/2008 14:55      29.0  16.0  29.1  27.5  45  1020   ---     E    18    18   ---   --- /
16/07/2008 15:55      29.0  16.0  29.1  27.6  45  1020   ---     E    16    16   ---   --- /
16/07/2008 16:55      29.0  16.0  29.1  28.3  45  1019   ---   NNE     8     8   ---   --- /
16/07/2008 17:55      28.0  15.0  28.0  27.2  45  1019   ---   NNE     8     8   ---   --- /
16/07/2008 18:55      27.0  16.0  27.5  26.4  51  1018   ---     N     6     6   ---   --- /
16/07/2008 19:55      26.0  14.0  26.3  26.0  48  1018   ---     N     5     5   ---   --- /
17/07/2008 06:55      22.0  14.0  23.0  22.0  61  1016   ---   WSW     5     5   ---   --- /
17/07/2008 07:55      23.0  15.0  24.1  23.0  61  1016   ---     N     0     0   ---   --- /
17/07/2008 08:55      25.0  15.0  25.7  25.0  54  1017   ---   NNE     3     3   ---   --- /
17/07/2008 10:55      29.0  16.0  29.1  29.0  45  1017   ---     N     0     0   ---   --- /
17/07/2008 11:55      29.0  16.0  29.1  27.7  45  1017   ---   ENE    14    14   ---   --- /
17/07/2008 12:55      29.0  17.0  29.5  27.5  48  1017   ---   ESE    18    18   ---   --- /
17/07/2008 13:55      29.0  16.0  29.1  27.6  45  1016   ---   ESE    16    16   ---   --- /
17/07/2008 14:55      29.0  17.0  29.5  27.6  48  1016   ---   ESE    16    16   ---   --- /
17/07/2008 15:55      29.0  17.0  29.5  27.5  48  1016   ---    SE    18    18   ---   --- /
17/07/2008 16:55      28.0  17.0  28.6  26.2  51  1015   ---     E    16    16   ---   --- /
17/07/2008 17:55      28.0  18.0  28.9  26.6  55  1015   ---   ESE    13    13   ---   --- /
17/07/2008 18:55      27.0  18.0  27.9  25.8  58  1015   ---   ESE    10    10   ---   --- /
17/07/2008 19:55      26.0  18.0  27.1  26.0  61  1015   ---   ESE     5     5   ---   --- /
17/07/2008 10:55      29.0  16.0  29.1  29.0  45  1017   ---     N     0     0   ---   --- /
18/07/2008 06:55      23.0  17.0  24.6  23.0  69  1012   ---   ---     0     0   ----32740.6 Scattered Clouds/
18/07/2008 07:55      25.0  16.0  25.9  25.0  57  1011   ---   ---     0     0   ----3274--- Scattered Clouds/
18/07/2008 08:55      30.0  16.0  30.0  28.9  43  1012   ---     W    16    16   ---   --- /
18/07/2008 09:55      32.0  16.0  32.0  31.8  38  1012   ---     W    10    10   ----3274--- Scattered Clouds/
18/07/2008 11:55      32.0  12.0  30.8  32.0  30  1013   ---   SSW     5     5   ----3274--- Scattered Clouds/
18/07/2008 12:55      32.0  13.0  31.0  31.7  32  1012   ---    NW    14    14   ----3274--- Scattered Clouds/
18/07/2008 13:55      32.0  14.0  31.3  31.5  34  1012   ---    NW    26    26   ---   0.8 Scattered Clouds/
18/07/2008 14:55      30.0  13.0  29.2  28.5  35  1013   ---   WNW    29    29   ---   0.8 Broken Clouds/
18/07/2008 15:55      30.0  15.0  29.7  28.7  40  1014   ---   WSW    21    21   ---   0.8 Broken Clouds/
18/07/2008 16:55      30.0  15.0  29.7  29.0  40  1013   ---     W    14    14   ---   0.7 Broken Clouds/
18/07/2008 17:55      30.0  14.0  29.4  29.4  38  1013   ---   WSW    10    37   ----3274--- Scattered Clouds/
18/07/2008 18:55      30.0  14.0  29.4  28.9  38  1013   ---    NW    18    18   ----3274--- Scattered Clouds/
18/07/2008 19:55      27.0  17.0  27.7  26.0  54  1013   ---    NW     8     8   ---   --- /
19/07/2008 06:55      23.0  19.0  25.2  23.0  78  1014   ---    SW     5     5   ---   --- /
19/07/2008 07:55      25.0  21.0  27.2  25.0  79  1014   ---     N     0     0   ---   --- /
19/07/2008 08:55      27.0  21.0  28.8  27.0  70  1015   ---   ENE     3     3   ---   --- /
19/07/2008 10:55      28.0  21.0  30.1  26.6  66  1015   ---     E    13    13   ---   --- /
19/07/2008 11:55      29.0  20.0  30.8  27.7  58  1015   ---     E    14    14   ---   --- /
19/07/2008 12:55      29.0  16.0  29.1  27.5  45  1015   ---     E    18    18   ---   --- /
19/07/2008 13:55      30.0  19.0  31.3  28.9  52  1015   ---     E    18    18   ---   --- /
19/07/2008 14:55      29.0  19.0  30.3  27.6  55  1015   ---     E    16    16   ---   --- /
19/07/2008 15:55      29.0  18.0  29.9  27.6  52  1015   ---     E    16    16   ---   --- /
19/07/2008 16:55      29.0  21.0  31.4  27.3  62  1015   ---     E    21    21   ---   --- /
19/07/2008 17:55      28.0  19.0  29.3  26.2  58  1015   ---   ENE    16    16   ---   --- /
19/07/2008 18:55      27.0  14.0  27.1  25.3  45  1015   ---     E    13    13   ---   --- /
19/07/2008 19:55      26.0  20.0  27.6  24.1  70  1015   ---     E    13    13   ---   --- /
20/07/2008 06:55      24.0  21.0  26.6  24.0  83  1016   ---   SSE     5     5   ---   0.7 Scattered Clouds/
20/07/2008 07:55      24.0  21.0  26.6  24.0  83  1016   ---   SSE     3     3   ---   0.7 Scattered Clouds/
20/07/2008 08:55      25.0  21.0  27.2  25.0  79  1016   ---    SE     5     5   ---   0.7 Scattered Clouds/
20/07/2008 10:55      27.0  21.0  28.8  25.8  70  1017   ---     E    10    10   ---   0.7 Scattered Clouds/
20/07/2008 11:55      28.0  21.0  30.1  26.6  66  1017   ---     E    13    13   ---   0.7 Scattered Clouds/
20/07/2008 12:55      29.0  19.0  30.3  27.9  55  1017   ---     E    13    13   ---   0.7 Few Clouds/
20/07/2008 13:55      29.0  19.0  30.3  27.5  55  1017   ---     E    18    18   ---   0.7 Few Clouds/
20/07/2008 14:55      29.0  19.0  30.3  27.4  55  1017   ---     E    19    19   ---   0.7 Few Clouds/
20/07/2008 15:55      29.0  19.0  30.3  27.7  55  1017   ---     E    14    14   ---   --- /
20/07/2008 16:55      29.0  19.0  30.3  27.6  55  1016   ---     E    16    16   ---   --- /
20/07/2008 17:55      28.0  20.0  29.7  26.6  62  1016   ---     E    13    13   ---   --- /
20/07/2008 18:55      27.0  20.0  28.5  25.3  66  1016   ---     E    13    13   ---   --- /
20/07/2008 19:55      26.0  20.0  27.6  26.0  70  1016   ---     E     5     5   ---   --- /
21/07/2008 06:55      23.0  11.0  23.3  22.1  47  1015   ---   SSW     6     6   ---   --- /
21/07/2008 07:55      24.0  13.0  24.5  24.0  50  1015   ---     N     0     0   ---   --- /
21/07/2008 08:55      27.0  16.0  27.5  27.0  51  1015   ---   ---     0     0   ---   --- /
21/07/2008 10:55      30.0  15.0  29.7  29.7  40  1015   ---   ENE     6     6   ---   --- /
21/07/2008 11:55      31.0  16.0  31.0  30.8  41  1015   ---     E     6     6   ---   --- /
21/07/2008 12:55      32.0  16.0  32.0  31.8  38  1015   ---     E     8     8   ---   --- /
21/07/2008 14:55      30.0  17.0  30.4  29.2  46  1014   ---     E    13    13   ---   --- /
21/07/2008 15:55      30.0  17.0  30.4  29.4  46  1014   ---     E    10    10   ---   --- /
21/07/2008 16:55      31.0  17.0  31.4  30.7  43  1014   ---     E     8     8   ---   --- /
21/07/2008 17:55      30.0  18.0  30.8  29.5  49  1012   ---     E     8     8   ---   --- /
21/07/2008 18:55      30.0  18.0  30.8  29.4  49  1012   ---     E    10    10   ---   --- /
21/07/2008 19:55      30.0  21.0  32.6  30.0  59  1012   ---     N     0     0   ---   --- /
22/07/2008 06:55      27.0  16.0  27.5  24.7  51  1010   ---   WSW    18    18   ---   0.7 Few Clouds/
22/07/2008 07:55      27.0  17.0  27.7  26.4  54  1011   ---   SSW     6     6   ---   0.7 Scattered Clouds/
22/07/2008 08:55      27.0  19.0  28.2  24.9  62  1011   ---     W    16    16   ---   0.7 Scattered Clouds/
22/07/2008 10:55      30.0  16.0  30.0  28.5  43  1012   ---   WNW    27    27   ---   0.7 Scattered Clouds/
22/07/2008 11:55      30.0  19.0  31.3  28.5  52  1012   ---   WNW    27    55   ---   0.7 Scattered Clouds/
22/07/2008 12:55      30.0  20.0  31.9  28.5  55  1012   ---   WNW    27    27   ---   0.7 Scattered Clouds/
22/07/2008 13:55      28.0  16.0  28.3  25.6  48  1012   ---    NW    26    47   ---   0.7 Scattered Clouds/
22/07/2008 14:55      28.0  16.0  28.3  25.8  48  1012   ---   WNW    23    43   ---   --- /
22/07/2008 15:55      29.0  15.0  28.9  27.0  43  1012   ---    NW    27    47   ---   0.7 Few Clouds/
22/07/2008 16:55      28.0  14.0  27.8  25.5  42  1012   ---   WNW    27    27   ---   0.7 Few Clouds/
22/07/2008 17:55      26.0  17.0  26.9  23.4  58  1012   ---    NW    18    18   ---   0.7 Scattered Clouds/
22/07/2008 18:55      26.0  18.0  27.1  23.4  61  1012   ---   WNW    18    18   ---   0.7 Scattered Clouds/
22/07/2008 19:55      25.0  18.0  26.3  21.4  65  1013   ---   WNW    23    23   ---   0.6 Scattered Clouds/
22/07/2008 16:55      28.0  14.0  27.8  25.5  42  1012   ---   WNW    27    27   ---   0.7 Few Clouds/
23/07/2008 10:55      26.0  14.0  26.3  22.6  48  1015   ---   WNW    26    26   ---   0.6 Few Clouds/
23/07/2008 11:55      26.0  14.0  26.3  23.0  48  1015   ---   WNW    21    21   ---   0.6 Few Clouds/
23/07/2008 12:55      27.0  11.0  26.7  24.9  37  1015   ---   NNE    16    16   ---   0.6 Few Clouds/
23/07/2008 16:55      25.0  12.0  25.2  22.8  44  1015   ---   NNE    13    13   ---   0.7 Scattered Clouds/
23/07/2008 17:55      25.0  13.0  25.3  23.7  47  1015   ---   NNE     8     8   ---   0.7 Few Clouds/
23/07/2008 18:55      24.0  13.0  24.5  21.5  50  1015   ---   NNE    13    13   ---   0.7 Few Clouds/
23/07/2008 19:55      24.0  13.0  24.5  22.2  50  1015   ---   NNW    10    10   ---   --- /
24/07/2008 06:55      20.0  14.0  21.5  20.0  68  1015   ---   SSW     5     5   ---   0.8 Few Clouds/
24/07/2008 07:55      23.0  15.0  24.1  20.2  61  1015   ---   WNW    13    13   ---   0.8 Few Clouds/
24/07/2008 08:55      25.0  15.0  25.7  23.4  54  1015   ---   WNW    10    10   ---   0.8 Few Clouds/
24/07/2008 10:55      28.0   9.0  27.1  26.4  30  1015   ---   NNW    14    14   ---   0.9 Few Clouds/
24/07/2008 11:55      28.0  12.0  27.5  26.4  37  1015   ---     N    14    14   ---   0.8 Few Clouds/
24/07/2008 12:55      29.0  14.0  28.6  27.5  40  1015   ---   NNW    18    18   ---   0.8 Few Clouds/
24/07/2008 13:55      29.0  11.0  28.0  27.4  33  1014   ---    NW    19    19   ---   0.8 Few Clouds/
24/07/2008 14:55      28.0  14.0  27.8  26.4  42  1014   ---     N    14    14   ---   0.8 Few Clouds/
24/07/2008 16:55      27.0  13.0  27.0  25.3  42  1014   ---   NNE    13    13   ---   0.7 Few Clouds/
24/07/2008 17:55      27.0  12.0  26.8  25.8  39  1014   ---   NNE    10    10   ---   0.7 Few Clouds/
24/07/2008 18:55      26.0  11.0  25.9  23.8  39  1014   ---    NW    14    14   ---   0.7 Few Clouds/
24/07/2008 19:55      25.0  11.0  25.0  23.7  41  1014   ---    NW     8     8   ---   --- /
24/07/2008 14:55      28.0  14.0  27.8  26.4  42  1014   ---     N    14    14   ---   0.8 Few Clouds/
25/07/2008 06:55      21.0  14.0  22.3  21.0  64  1014   ---     N     0     0   ---   --- /
25/07/2008 07:55      22.0  14.0  23.0  22.0  61  1014   ---   ---     0     0   ---   --- /
25/07/2008 08:55      25.0  17.0  26.1  25.0  61  1014   ---     E     5     5   ---   --- /
25/07/2008 10:55      27.0  18.0  27.9  25.8  58  1014   ---   ESE    10    10   ---   --- /
25/07/2008 11:55      28.0  18.0  28.9  27.5  55  1014   ---   ENE     6     6   ---   --- /
25/07/2008 12:55      28.0  18.0  28.9  27.2  55  1013   ---   ENE     8     8   ---   --- /
25/07/2008 13:55      29.0  19.0  30.3  27.7  55  1012   ---     E    14    14   ---   --- /
25/07/2008 14:55      28.0  18.0  28.9  26.2  55  1012   ---     E    16    16   ----3274--- Few Clouds/
25/07/2008 15:55      28.0  18.0  28.9  26.1  55  1012   ---     E    18    18   ---   --- /
25/07/2008 16:55      27.0  18.0  27.9  25.1  58  1012   ---     E    14    14   ---   --- /
25/07/2008 17:55      27.0  18.0  27.9  25.3  58  1012   ---     E    13    13   ---   --- /
25/07/2008 18:55      26.0  18.0  27.1  24.8  61  1012   ---     E     8     8   ---   --- /
25/07/2008 19:55      25.0  18.0  26.3  24.3  65  1012   ---     E     6     6   ---   --- /
26/07/2008 06:55      22.0  13.0  22.8  22.0  57  1011   ---   SSW     3     3   ---   --- /
26/07/2008 07:55      23.0  14.0  23.8  23.0  57  1011   ---     N     0     0   ---   --- /
26/07/2008 08:55      26.0  16.0  26.7  26.0  54  1011   ---   ---     0     0   ---   --- /
26/07/2008 10:55      29.0  18.0  29.9  28.2  52  1011   ---   ESE    10    10   ---   --- /
26/07/2008 11:55      29.0  17.0  29.5  27.9  48  1011   ---     E    13    13   ---   --- /
26/07/2008 12:55      29.0  17.0  29.5  27.9  48  1011   ---     E    13    13   ---   --- /
26/07/2008 13:55      29.0  17.0  29.5  27.6  48  1011   ---     E    16    16   ---   --- /
26/07/2008 14:55      29.0  17.0  29.5  27.7  48  1011   ---     E    14    14   ---   --- /
26/07/2008 15:55      29.0  17.0  29.5  27.7  48  1011   ---   ESE    14    14   ---   --- /
26/07/2008 16:55      28.0  18.0  28.9  26.6  55  1011   ---     E    13    13   ---   --- /
26/07/2008 17:55      28.0  18.0  28.9  26.6  55  1011   ---     E    13    13   ---   --- /
26/07/2008 18:55      27.0  18.0  27.9  26.0  58  1011   ---     E     8     8   ---   --- /
26/07/2008 19:55      25.0  19.0  26.6  25.0  69  1011   ---     E     5     5   ---   --- /
27/07/2008 06:55      23.0  19.0  25.2  22.1  78  1011   ---   SSW     6     6   ---   0.9 Few Clouds/
27/07/2008 07:55      24.0  20.0  26.2  24.0  78  1011   ---    SE     5     5   ---   0.9 Few Clouds/
27/07/2008 08:55      26.0  19.0  27.3  26.0  65  1012   ---   ENE     5     5   ---   0.9 Few Clouds/
27/07/2008 10:55      28.0  19.0  29.3  27.2  58  1012   ---     E     8     8   ---   --- /
27/07/2008 11:55      29.0  18.0  29.9  27.7  52  1012   ---     E    14    14   ---   --- /
27/07/2008 12:55      30.0  18.0  30.8  29.0  49  1013   ---     E    14    14   ---   --- /
27/07/2008 13:55      29.0  18.0  29.9  27.6  52  1013   ---     E    16    16   ---   --- /
27/07/2008 14:55      30.0  19.0  31.3  29.4  52  1013   ---     E    10    10   ---   --- /
27/07/2008 15:55      29.0  19.0  30.3  27.5  55  1012   ---   ENE    18    18   ---   0.7 Few Clouds/
27/07/2008 16:55      29.0  20.0  30.8  27.4  58  1012   ---    NW    19    19   ---   0.7 Few Clouds/
27/07/2008 17:55      28.0  20.0  29.7  26.1  62  1012   ---    NW    18    18   ---   0.7 Few Clouds/
27/07/2008 18:55      27.0  19.0  28.2  25.1  62  1013   ---    NW    14    14   ---   0.7 Few Clouds/
27/07/2008 19:55      25.0  21.0  27.2  23.7  79  1013   ---     N     8     8   ---   0.7 Scattered Clouds/
27/07/2008 17:55      28.0  20.0  29.7  26.1  62  1012   ---    NW    18    18   ---   0.7 Few Clouds/
27/07/2008 11:55      29.0  18.0  29.9  27.7  52  1012   ---     E    14    14   ---   --- /
28/07/2008 06:55      23.0  20.0  25.6  23.0  83  1014   ---     N     0     0   ---   0.5 Scattered Clouds/
28/07/2008 07:55      25.0  21.0  27.2  25.0  79  1014   ---   ---     0     0   ---   0.5 Scattered Clouds/
28/07/2008 08:55      25.0  21.0  27.2  25.0  79  1014   ---   ---     0     0   ---   0.5 Scattered Clouds/
28/07/2008 10:55      26.0  21.0  27.9  26.0  74  1014   ---   ENE     5     5   ---   0.5 Scattered Clouds/
28/07/2008 11:55      27.0  21.0  28.8  25.1  70  1014   ---     E    14    14   ---   0.6 Scattered Clouds/
28/07/2008 12:55      27.0  22.0  29.2  25.3  74  1014   ---     E    13    13   ---   0.6 Scattered Clouds/
28/07/2008 13:55      28.0  21.0  30.1  27.2  66  1014   ---   NNE     8     8   ---   0.6 Scattered Clouds/
28/07/2008 14:55      29.0  21.0  31.4  27.6  62  1013   ---     N    16    16   ---   0.6 Few Clouds/
28/07/2008 15:55      29.0  22.0  32.0  28.2  66  1013   ---   NNE    10    10   ---   0.6 Few Clouds/
28/07/2008 16:55      28.0  20.0  29.7  26.4  62  1013   ---    NE    14    14   ---   --- /
28/07/2008 17:55      27.0  21.0  28.8  26.0  70  1013   ---   NNE     8     8   ---   0.6 Few Clouds/
28/07/2008 18:55      27.0  22.0  29.2  25.8  74  1014   ---     E    10    10   ---   0.6 Few Clouds/
28/07/2008 19:55      26.0  21.0  27.9  26.0  74  1013   ---    NE     5     5   ---   0.6 Scattered Clouds/
29/07/2008 06:55      22.0  16.0  23.6  21.0  69  1014   ---    SW     6     6   ---   --- /
29/07/2008 07:55      24.0  17.0  25.3  24.0  65  1014   ---     N     0     0   ---   --- /
29/07/2008 08:55      27.0  17.0  27.7  27.0  54  1015   ---   ---     0     0   ---   --- /
29/07/2008 10:55      29.0  18.0  29.9  28.3  52  1015   ---     E     8     8   ---   --- /
29/07/2008 11:55      30.0  20.0  31.9  29.4  55  1016   ---     E    10    10   ---   --- /
29/07/2008 12:55      30.0  18.0  30.8  29.2  49  1016   ---     E    13    13   ---   --- /
29/07/2008 13:55      30.0  19.0  31.3  29.0  52  1016   ---     E    14    14   ---   0.7 Few Clouds/
29/07/2008 14:55      30.0  20.0  31.9  28.9  55  1016   ---     E    18    18   ---   0.7 Few Clouds/
29/07/2008 15:55      30.0  20.0  31.9  28.8  55  1015   ---     E    19    19   ---   0.7 Few Clouds/
29/07/2008 16:55      29.0  20.0  30.8  27.6  58  1015   ---   ESE    16    16   ---   0.6 Few Clouds/
29/07/2008 17:55      28.0  21.0  30.1  26.2  66  1015   ---     E    16    16   ---   0.6 Few Clouds/
29/07/2008 18:55      27.0  21.0  28.8  25.8  70  1015   ---   ESE    10    10   ---   0.6 Few Clouds/
29/07/2008 19:55      26.0  21.0  27.9  26.0  74  1016   ---     E     5     5   ---   0.6 Few Clouds/
29/07/2008 12:55      30.0  18.0  30.8  29.2  49  1016   ---     E    13    13   ---   --- /
30/07/2008 06:55      23.0  17.0  24.6  23.0  69  1016   ---     S     3     3   ---   --- /
30/07/2008 07:55      26.0  19.0  27.3  26.0  65  1017   ---     N     0     0   ---   --- /
30/07/2008 08:55      27.0  19.0  28.2  27.0  62  1017   ---   ---     0     0   ---   --- /
30/07/2008 10:55      29.0  22.0  32.0  28.2  66  1017   ---     E    10    10   ---   --- /
30/07/2008 11:55      30.0  23.0  34.2  29.5  66  1017   ---     E     8     8   ---   --- /
30/07/2008 12:55      30.0  22.0  33.3  29.0  62  1017   ---   ENE    14    14   ---   0.7 Few Clouds/
30/07/2008 13:55      30.0  21.0  32.6  28.8  59  1017   ---     E    19    19   ---   0.7 Few Clouds/
30/07/2008 14:55      29.0  22.0  32.0  27.6  66  1017   ---     E    16    16   ---   0.7 Few Clouds/
30/07/2008 15:55      29.0  22.0  32.0  27.6  66  1017   ---     E    16    16   ---   0.7 Few Clouds/
30/07/2008 17:55      29.0  20.0  30.8  28.6  58  1017   ---     E     6     6   ---   0.7 Few Clouds/
30/07/2008 18:55      28.0  22.0  30.7  28.0  70  1017   ---     E     5     5   ---   --- /
30/07/2008 19:55      27.0  22.0  29.2  27.0  74  1017   ---     E     3     3   ---   --- /
31/07/2008 06:55      24.0  16.0  25.1  24.0  61  1016   ---   SSW     5     5   ---   --- /
31/07/2008 07:55      26.0  15.0  26.5  26.0  51  1016   ---     N     0     0   ---   --- /
31/07/2008 08:55      29.0  17.0  29.5  29.0  48  1017   ---   ---     0     0   ---   --- /
31/07/2008 10:55      30.0  18.0  30.8  29.2  49  1017   ---   ENE    13    13   ---   --- /
31/07/2008 11:55      31.0  17.0  31.4  30.8  43  1017   ---     E     6     6   ---   --- /
31/07/2008 12:55      31.0  16.0  31.0  30.7  41  1017   ---     E     8     8   ---   --- /
31/07/2008 13:55      32.0  18.0  32.9  31.6  43  1017   ---     E    18    18   ---   --- /
31/07/2008 14:55      31.0  21.0  33.8  30.2  55  1017   ---     E    18    18   ---   --- /
31/07/2008 15:55      30.0  22.0  33.3  28.8  62  1017   ---     E    19    19   ---   --- /
31/07/2008 16:55      30.0  22.0  33.3  29.0  62  1016   ---   ESE    14    14   ---   --- /
31/07/2008 17:55      29.0  23.0  32.8  27.9  70  1016   ---     E    13    13   ---   --- /
31/07/2008 18:55      28.0  23.0  31.3  27.0  74  1016   ---     E    10    10   ---   --- /
31/07/2008 19:55      27.0  21.0  28.8  26.4  70  1016   ---     E     6     6   ---   --- /
01/08/2008 06:55      24.0  12.0  24.3  24.0  47  1016   ---    SW     3     3   ---   --- /
01/08/2008 07:55      25.0  14.0  25.5  25.0  51  1016   ---     N     0     0   ---   --- /
01/08/2008 08:55      28.0  14.0  27.8  28.0  42  1016   ---   ---     0     0   ---   --- /
01/08/2008 10:55      31.0  17.0  31.4  30.4  43  1016   ---   ENE    13    13   ---   --- /
01/08/2008 11:55      31.0  18.0  31.9  30.4  46  1016   ---     E    13    13   ---   --- /
01/08/2008 12:55      31.0  20.0  33.0  30.3  52  1016   ---     E    16    16   ---   --- /
01/08/2008 13:55      31.0  20.0  33.0  30.4  52  1016   ---     E    14    14   ---   --- /
01/08/2008 14:55      31.0  19.0  32.4  30.4  49  1016   ---     E    13    13   ---   --- /
01/08/2008 15:55      31.0  20.0  33.0  30.4  52  1016   ---     E    14    14   ---   --- /
01/08/2008 16:55      30.0  21.0  32.6  29.0  59  1016   ---   ESE    14    14   ---   --- /
01/08/2008 17:55      30.0  23.0  34.2  29.2  66  1016   ---     E    13    13   ---   --- /
01/08/2008 19:55      28.0  21.0  30.1  27.2  66  1015   ---     E     8     8   ---   --- /
02/08/2008 06:55      24.0  14.0  24.6  23.2  54  1016   ---    SW     6     6   ---   --- /
02/08/2008 07:55      27.0  16.0  27.5  27.0  51  1016   ---     N     0     0   ---   --- /
02/08/2008 08:55      29.0  17.0  29.5  29.0  48  1017   ---     E     3     3   ---   --- /
02/08/2008 10:55      30.0  18.0  30.8  29.0  49  1017   ---   ESE    14    14   ---   --- /
02/08/2008 11:55      31.0  18.0  31.9  30.7  46  1017   ---     E     8     8   ---   --- /
02/08/2008 12:55      32.0  19.0  33.5  31.8  46  1017   ---     E     8     8   ---   --- /
02/08/2008 13:55      33.0  17.0  33.5  33.0  39  1017   ---     E    18    18   ----3274--- Few Clouds/
02/08/2008 14:55      32.0  16.0  32.0  31.6  38  1017   ---     E    16    16   ----3274--- Scattered Clouds/
02/08/2008 15:55      32.0  18.0  32.9  31.6  43  1017   ---   ESE    16    16   ----3274--- Scattered Clouds/
02/08/2008 16:55      31.0  18.0  31.9  30.3  46  1016   ---   ESE    16    16   ----3274--- Few Clouds/
02/08/2008 17:55      30.0  21.0  32.6  28.9  59  1016   ---   ESE    16    16   ---   --- /
02/08/2008 18:55      29.0  22.0  32.0  27.6  66  1016   ---   ESE    16    16   ---   --- /
02/08/2008 19:55      28.0  22.0  30.7  27.5  70  1016   ---   ESE     6     6   ---   --- /
03/08/2008 06:55      25.0  10.0  24.9  25.0  39  1016   ---    SW     5     5   ---   --- /
03/08/2008 07:55      27.0  11.0  26.7  26.4  37  1016   ---   SSE     6     6   ---   --- /
03/08/2008 08:55      28.0  15.0  28.0  28.0  45  1016   ---     N     0     0   ---   --- /
03/08/2008 10:55      31.0  16.0  31.0  30.8  41  1017   ---     E     6     6   ---   --- /
03/08/2008 11:55      32.0  13.0  31.0  31.7  32  1017   ---   ESE    13    13   ---   --- /
03/08/2008 12:55      32.0  12.0  30.8  31.7  30  1017   ---     E    13    13   ---   --- /
03/08/2008 13:55      32.0  14.0  31.3  31.6  34  1017   ---   ESE    18    18   ---   --- /
03/08/2008 14:55      32.0  14.0  31.3  31.6  34  1017   ---   ESE    16    16   ---   --- /
03/08/2008 15:55      32.0  13.0  31.0  31.6  32  1016   ---   ESE    18    18   ---   --- /
03/08/2008 16:55      31.0  16.0  31.0  30.3  41  1016   ---     E    16    16   ---   --- /
03/08/2008 17:55      30.0  19.0  31.3  29.2  52  1016   ---   ESE    13    13   ---   --- /
03/08/2008 18:55      29.0  20.0  30.8  28.3  58  1016   ---   ESE     8     8   ---   --- /
03/08/2008 19:55      28.0  21.0  30.1  27.2  66  1016   ---   ESE     8     8   ---   --- /
04/08/2008 06:55      24.0  11.0  24.1  24.0  44  1015   ---   SSW     3     3   ---   --- /
04/08/2008 07:55      25.0  13.0  25.3  25.0  47  1015   ---     N     0     0   ---   --- /
04/08/2008 08:55      27.0  17.0  27.7  27.0  54  1016   ---   ---     0     0   ---   --- /
04/08/2008 10:55      30.0  18.0  30.8  29.4  49  1016   ---     E    10    10   ---   --- /
04/08/2008 11:55      30.0  18.0  30.8  29.4  49  1016   ---     E    10    10   ---   --- /
04/08/2008 12:55      31.0  18.0  31.9  30.6  46  1016   ---     E    10    10   ---   --- /
04/08/2008 13:55      33.0  17.0  33.5  33.0  39  1015   ---     E    13    13   ---   --- /
04/08/2008 14:55      33.0  16.0  33.0  33.0  36  1015   ---     E    14    14   ---   --- /
04/08/2008 15:55      32.0  18.0  32.9  31.7  43  1015   ---     E    13    13   ---   --- /
04/08/2008 16:55      31.0  18.0  31.9  30.6  46  1015   ---     E    10    10   ---   --- /
04/08/2008 17:55      31.0  20.0  33.0  30.7  52  1014   ---     E     8     8   ---   --- /
04/08/2008 18:55      30.0  20.0  31.9  30.0  55  1014   ---     E     3     3   ---   --- /
04/08/2008 19:55      29.0  21.0  31.4  29.0  62  1014   ---     E     3     3   ---   --- /
05/08/2008 06:55      24.0  12.0  24.3  24.0  47  1014   ---    SW     3     3   ---   0.4 Few Clouds/
05/08/2008 07:55      26.0  18.0  27.1  26.0  61  1014   ---     N     0     0   ---   --- /
05/08/2008 08:55      28.0  15.0  28.0  28.0  45  1014   ---    SE     3     3   ---   --- /
05/08/2008 10:55      32.0  18.0  32.9  31.8  43  1015   ---     E     8     8   ---   --- /
05/08/2008 11:55      33.0  19.0  34.6  33.0  44  1015   ---     E     6     6   ---   --- /
05/08/2008 12:55      33.0  16.0  33.0  33.0  36  1015   ---     E    13    13   ---   --- /
05/08/2008 13:55      33.0  17.0  33.5  33.0  39  1014   ---   ESE    14    14   ---   --- /
05/08/2008 14:55      32.0  19.0  33.5  31.7  46  1014   ---     E    13    13   ---   --- /
05/08/2008 15:55      32.0  18.0  32.9  31.7  43  1014   ---     E    14    14   ---   --- /
05/08/2008 16:55      31.0  17.0  31.4  30.3  43  1014   ---     E    16    16   ---   --- /
05/08/2008 17:55      30.0  20.0  31.9  29.2  55  1014   ---     E    13    13   ---   --- /
05/08/2008 17:55      30.0  20.0  31.9  29.2  55  1014   ---     E    13    13   ---   --- None reported/None reported
06/08/2008 07:55      26.0  15.0  26.5  26.0  51  1013   ---     N     0     0   ---   --- /
06/08/2008 08:55      30.0  15.0  29.7  30.0  40  1012   ---   ---     0     0   ---   --- /
06/08/2008 10:55      33.0  12.0  31.7  33.0  28  1013   ---   ENE    10    10   ---   --- /
06/08/2008 11:55      33.0  15.0  32.6  33.0  34  1013   ---     E    14    14   ---   --- /
06/08/2008 12:55      33.0  14.0  32.3  33.0  32  1013   ---     E    13    13   ---   --- /
06/08/2008 13:55      34.0  17.0  34.6  34.0  36  1013   ---     E    14    14   ---   --- /
06/08/2008 14:55      33.0  17.0  33.5  33.0  39  1013   ---     E    13    13   ---   --- /
06/08/2008 15:55      32.0  18.0  32.9  31.8  43  1012   ---     E     8     8   ---   --- /
06/08/2008 16:55      32.0  19.0  33.5  31.8  46  1012   ---     E    10    10   ---   --- /
06/08/2008 17:55      31.0  20.0  33.0  30.6  52  1012   ---     E    10    10   ---   --- /
06/08/2008 18:55      30.0  21.0  32.6  29.5  59  1012   ---   ESE     8     8   ---   --- /
06/08/2008 19:55      28.0  21.0  30.1  27.2  66  1012   ---   ESE     8     8   ---   --- /
07/08/2008 06:55      25.0  12.0  25.2  25.0  44  1012   ---    SW     5     5   ---   --- /
07/08/2008 07:55      26.0  14.0  26.3  26.0  48  1012   ---     N     0     0   ---   --- /
07/08/2008 08:55      29.0  14.0  28.6  29.0  40  1012   ---   ---     0     0   ---   --- /
07/08/2008 10:55      31.0  18.0  31.9  30.7  46  1012   ---   ENE     8     8   ---   --- /
07/08/2008 11:55      31.0  19.0  32.4  30.6  49  1013   ---     E    10    10   ---   --- /
07/08/2008 12:55      32.0  19.0  33.5  31.7  46  1013   ---     E    13    13   ---   --- /
07/08/2008 13:55      32.0  18.0  32.9  31.7  43  1012   ---     E    14    14   ---   --- /
07/08/2008 14:55      32.0  19.0  33.5  31.7  46  1012   ---   ESE    13    13   ---   --- /
07/08/2008 15:55      32.0  20.0  34.2  31.7  49  1012   ---     E    13    13   ---   --- /
07/08/2008 16:55      32.0  20.0  34.2  31.8  49  1012   ---     E     8     8   ---   --- /
07/08/2008 17:55      31.0  21.0  33.8  30.7  55  1011   ---     E     8     8   ---   --- /
07/08/2008 18:55      31.0  21.0  33.8  30.7  55  1011   ---     E     8     8   ---   --- /
07/08/2008 19:55      29.0  20.0  30.8  29.0  58  1011   ---     E     3     3   ---   --- /
08/08/2008 06:55      26.0   8.0  25.6  25.4  32  1010   ---     S     6     6   ---   --- /
08/08/2008 07:55      28.0  15.0  28.0  28.0  45  1010   ---     N     0     0   ---   --- /
08/08/2008 08:55      29.0  17.0  29.5  29.0  48  1010   ---   ---     0     0   ---   --- /
08/08/2008 10:55      35.0  12.0  33.7  35.0  25  1010   ---     E     5     5   ---   --- /
08/08/2008 11:55      36.0  12.0  34.8  36.0  24  1010   ---     E     6     6   ---   --- /
08/08/2008 12:55      36.0  14.0  35.5  36.0  27  1010   ---     E    10    10   ---   --- /
08/08/2008 13:55      36.0  15.0  35.9  36.0  29  1009   ---   ENE     8     8   ---   --- /
08/08/2008 14:55      36.0  15.0  35.9  36.0  29  1009   ---     E    10    10   ---   --- /
08/08/2008 15:55      36.0  14.0  35.5  36.0  27  1009   ---     E     8     8   ---   --- /
08/08/2008 16:55      35.0  19.0  37.0  35.0  39  1009   ---   ENE    13    13   ---   --- /
08/08/2008 17:55      33.0  18.0  34.0  33.0  41  1009   ---    SE    10    10   ---   --- /
08/08/2008 18:55      31.0  23.0  35.5  30.6  63  1009   ---   ESE    10    10   ---   --- /
08/08/2008 19:55      29.0  24.0  33.6  29.0  75  1010   ---   ESE     5     5   ---   --- /
09/08/2008 06:55      24.0  22.0  27.0  24.0  89  1010   ---     N     0     0   ---   0.8 Few Clouds/
09/08/2008 07:55      26.0  23.0  28.6  26.0  84  1010   ---   ---     0     0   ---   0.7 Few Clouds/
09/08/2008 08:55      28.0  23.0  31.3  28.0  74  1010   ---    NE     3     3   ---   0.8 Few Clouds/
09/08/2008 10:55      30.0  23.0  34.2  29.4  66  1011   ---     N    10    10   ---   0.8 Few Clouds/
09/08/2008 11:55      30.0  22.0  33.3  29.4  62  1011   ---     N    10    10   ---   0.8 Few Clouds/
09/08/2008 12:55      31.0  20.0  33.0  30.4  52  1011   ---   ENE    14    14   ---   0.8 Few Clouds/
09/08/2008 13:55      31.0  16.0  31.0  30.4  41  1011   ---   ENE    14    14   ---   0.7 Few Clouds/
09/08/2008 14:55      31.0  16.0  31.0  30.4  41  1011   ---     E    13    13   ---   0.8 Few Clouds/
09/08/2008 15:55      31.0  17.0  31.4  30.4  43  1011   ---     E    13    13   ---   0.8 Few Clouds/
09/08/2008 16:55      31.0  20.0  33.0  30.4  52  1010   ---   WNW    13    13   ---   0.8 Few Clouds/
09/08/2008 17:55      30.0  19.0  31.3  28.8  52  1010   ---     W    19    19   ---   0.7 Few Clouds/
09/08/2008 18:55      27.0  18.0  27.9  24.5  58  1010   ---     W    19    19   ---   0.7 Few Clouds/
09/08/2008 19:55      27.0  18.0  27.9  26.4  58  1010   ---     N     6     6   ---   0.7 Few Clouds/
10/08/2008 06:55      23.0  19.0  25.2  23.0  78  1011   ---     N     0     0   ---   0.7 Scattered Clouds/
10/08/2008 07:55      25.0  20.0  26.9  23.7  74  1011   ---   NNW     8     8   ---   0.7 Scattered Clouds/
10/08/2008 08:55      27.0  19.0  28.2  24.7  62  1011   ---     N    18    18   ---   0.7 Scattered Clouds/
10/08/2008 10:55      29.0  19.0  30.3  27.9  55  1011   ---    NW    13    13   ---   0.7 Scattered Clouds/
10/08/2008 11:55      28.0  20.0  29.7  26.4  62  1012   ---    NW    14    14   ---   0.7 Scattered Clouds/
10/08/2008 12:55      28.0  21.0  30.1  25.9  66  1012   ---     N    21    21   ---   0.7 Scattered Clouds/
10/08/2008 13:55      28.0  20.0  29.7  27.0  62  1012   ---     N    10    10   ---   0.7 Scattered Clouds/
10/08/2008 14:55      28.0  21.0  30.1  26.4  66  1011   ---   NNW    14    14   ---   0.7 Scattered Clouds/
10/08/2008 15:55      29.0  21.0  31.4  28.2  62  1011   ---     N    10    40   ---   0.7 Scattered Clouds/
10/08/2008 16:55      28.0  20.0  29.7  26.6  62  1011   ---     N    13    13   ---   0.7 Scattered Clouds/
10/08/2008 17:55      28.0  19.0  29.3  27.0  58  1011   ---     N    10    10   ---   0.7 Scattered Clouds/
10/08/2008 18:55      27.0  19.0  28.2  26.4  62  1011   ---     N     6     6   ---   0.7 Scattered Clouds/
10/08/2008 19:55      26.0  19.0  27.3  26.0  65  1011   ---     N     5     5   ---   0.7 Few Clouds/
11/08/2008 06:55      22.0  17.0  23.9  22.0  73  1011   ---   SSW     5     5   ---   0.6 Few Clouds/
11/08/2008 07:55      24.0  18.0  25.6  24.0  69  1011   ---     S     3     3   ---   0.6 Few Clouds/
11/08/2008 08:55      27.0  19.0  28.2  27.0  62  1011   ---   ENE     3     3   ---   0.6 Few Clouds/
11/08/2008 10:55      29.0  20.0  30.8  27.9  58  1011   ---     E    13    13   ---   0.7 Few Clouds/
11/08/2008 11:55      30.0  20.0  31.9  29.4  55  1011   ---     E    10    10   ---   0.7 Few Clouds/
11/08/2008 12:55      30.0  19.0  31.3  28.9  52  1010   ---     E    18    18   ---   0.8 Few Clouds/
11/08/2008 13:55      30.0  20.0  31.9  28.9  55  1010   ---     E    16    16   ---   0.7 Few Clouds/
11/08/2008 14:55      30.0  20.0  31.9  29.4  55  1010   ---   NNE    10    10   ---   0.7 Few Clouds/
11/08/2008 15:55      29.0  19.0  30.3  27.5  55  1010   ---     E    18    18   ---   0.7 Few Clouds/
11/08/2008 16:55      29.0  20.0  30.8  27.6  58  1010   ---     E    16    16   ---   0.7 Few Clouds/
11/08/2008 17:55      28.0  20.0  29.7  26.4  62  1010   ---     E    14    14   ---   0.7 Few Clouds/
11/08/2008 17:55      28.0  20.0  29.7  26.4  62  1010   ---     E    14    14   ---   0.7 Few Clouds/None reported
11/08/2008 17:55      28.0  20.0  29.7  26.4  62  1010   ---     E    14    14   ---   0.7 Few Clouds/None reported
11/08/2008 18:55      28.0  19.0  29.3  27.0  58  1010   ---     E    10    10   ---   0.7 Few Clouds/
11/08/2008 19:55      26.0  19.0  27.3  24.8  65  1010   ---   ESE     8     8   ---   --- /
12/08/2008 06:55      23.0  17.0  24.6  21.3  69  1010   ---    SW     8     8   ---   --- /
12/08/2008 07:55      24.0  18.0  25.6  24.0  69  1010   ---     N     0     0   ---   --- /
12/08/2008 08:55      27.0  19.0  28.2  27.0  62  1010   ---   NNE     3     3   ---   --- /
12/08/2008 10:55      30.0  20.0  31.9  29.2  55  1011   ---   ENE    13    13   ---   --- /
12/08/2008 11:55      30.0  20.0  31.9  29.2  55  1011   ---   ENE    13    13   ---   --- /
12/08/2008 11:55      30.0  20.0  31.9  29.2  55  1011   ---   ENE    13    13   ---   --- None reported/None reported
12/08/2008 12:55      30.0  19.0  31.3  28.9  52  1011   ---     E    16    16   ---   --- /
12/08/2008 13:55      31.0  18.0  31.9  30.2  46  1011   ---   ENE    18    18   ---   --- /
12/08/2008 14:55      30.0  19.0  31.3  29.2  52  1011   ---     E    13    13   ---   --- /
12/08/2008 15:55      30.0  19.0  31.3  28.9  52  1011   ---   ENE    16    16   ---   --- /
12/08/2008 16:55      30.0  18.0  30.8  29.0  49  1011   ---     E    14    14   ---   --- /
12/08/2008 17:55      29.0  19.0  30.3  27.9  55  1011   ---   ENE    13    13   ---   --- /
12/08/2008 18:55      28.0  17.0  28.6  27.5  51  1011   ---   ENE     6     6   ---   --- /
12/08/2008 19:55      27.0  18.0  27.9  27.0  58  1011   ---     E     3     3   ----3274--- Scattered Clouds/
13/08/2008 06:55      24.0  18.0  25.6  23.2  69  1012   ---    SW     6     6   ---   --- /
13/08/2008 07:55      25.0  19.0  26.6  25.0  69  1012   ---   SSW     3     3   ---   --- /
13/08/2008 08:55      28.0  19.0  29.3  28.0  58  1012   ---     E     3     3   ---   --- /
13/08/2008 10:55      31.0  20.0  33.0  30.7  52  1013   ---   ENE     8     8   ---   --- /
13/08/2008 11:55      31.0  21.0  33.8  30.6  55  1013   ---     E    10    10   ---   --- /
13/08/2008 12:55      31.0  21.0  33.8  30.4  55  1013   ---   ESE    13    13   ---   --- /
13/08/2008 13:55      31.0  20.0  33.0  30.4  52  1013   ---     E    14    14   ---   --- /
13/08/2008 14:55      31.0  21.0  33.8  30.2  55  1013   ---     E    18    18   ---   --- /
13/08/2008 15:55      31.0  22.0  34.6  30.3  59  1013   ---     E    16    16   ---   --- /
13/08/2008 16:55      30.0  22.0  33.3  29.0  62  1013   ---     E    14    14   ---   --- /
13/08/2008 17:55      30.0  22.0  33.3  29.0  62  1014   ---   ESE    14    14   ---   --- /
13/08/2008 18:55      29.0  22.0  32.0  28.3  66  1014   ---     E     8     8   ---   --- /
13/08/2008 19:55      28.0  21.0  30.1  28.0  66  1014   ---     E     5     5   ---   --- /
14/08/2008 06:55      23.0  17.0  24.6  22.1  69  1015   ---    SW     6     6   ---   0.4 Few Clouds/
14/08/2008 07:55      25.0  20.0  26.9  25.0  74  1014   ---     N     0     0   ---   --- /
14/08/2008 08:55      28.0  22.0  30.7  28.0  70  1015   ---     E     3     3   ---   --- /
14/08/2008 10:55      30.0  23.0  34.2  29.5  66  1015   ---     E     8     8   ---   --- /
14/08/2008 11:55      30.0  24.0  35.1  29.4  70  1015   ---     E    10    10   ---   --- /
14/08/2008 12:55      31.0  23.0  35.5  30.4  63  1015   ---     E    14    14   ---   --- /
14/08/2008 13:55      32.0  22.0  35.8  31.8  56  1014   ---     E     8     8   ---   --- /
14/08/2008 14:55      32.0  22.0  35.8  31.8  56  1013   ---     E     8     8   ---   --- /
14/08/2008 15:55      32.0  21.0  34.9  31.8  52  1013   ---     E    10    10   ---   --- /
14/08/2008 16:55      32.0  20.0  34.2  31.8  49  1013   ---     E    10    10   ---   --- /
14/08/2008 17:55      31.0  21.0  33.8  31.0  55  1012   ---     E     5     5   ---   --- /
14/08/2008 18:55      30.0  22.0  33.3  30.0  62  1012   ---     E     5     5   ---   --- /
14/08/2008 19:55      29.0  21.0  31.4  28.6  62  1012   ---     E     6     6   ---   --- /
15/08/2008 06:55      26.0  14.0  26.3  26.0  48  1009   ---     N     0     0   ----3274--- Scattered Clouds/
15/08/2008 07:55      27.0  14.0  27.1  27.0  45  1008   ---   ---     0     0   ---   --- /
15/08/2008 08:55      30.0  18.0  30.8  30.0  49  1008   ---   ---     0     0   ---   --- /
15/08/2008 10:55      33.0  20.0  35.3  33.0  47  1009   ---     E     6     6   ---   --- /
15/08/2008 11:55      34.0  17.0  34.6  34.0  36  1008   ---     E     8     8   ----3274--- Scattered Clouds/
15/08/2008 12:55      35.0  17.0  35.7  35.0  35  1008   ---     N     8     8   ----3274--- Scattered Clouds/
15/08/2008 13:55      36.0  15.0  35.9  36.0  29  1008   ---     E     8     8   ---   --- /
15/08/2008 15:55      37.0  17.0  38.0  37.0  31  1007   ---   WNW    10    10   ----3274--- Scattered Clouds/
15/08/2008 16:55      36.0  17.0  36.9  36.0  33  1007   ---     W     6     6   ----3274--- Scattered Clouds/
15/08/2008 17:55      34.0  18.0  35.1  34.0  39  1007   ---     W    23    23   ----32740.4 Scattered Clouds/
15/08/2008 18:55      32.0  19.0  33.5  31.6  46  1007   ---   WNW    23    23   ----32740.6 Scattered Clouds/
15/08/2008 19:55      29.0  18.0  29.9  26.9  52  1009   ---   WSW    31    58   ---   0.7 Scattered Clouds/
16/08/2008 06:55      23.0  16.0  24.3  19.8  65  1010   ---     W    14    14   ---   0.7 Scattered Clouds/
16/08/2008 07:55      23.0  16.0  24.3  20.2  65  1010   ---     W    13    13   ---   0.7 Scattered Clouds/
16/08/2008 08:55      25.0  16.0  25.9  22.1  57  1010   ---   WNW    16    16   ---   0.7 Scattered Clouds/
16/08/2008 10:55      26.0  15.0  26.5  24.1  51  1011   ---   WNW    13    13   ---   0.7 Scattered Clouds/
16/08/2008 11:55      27.0  16.0  27.5  24.9  51  1011   ---   NNW    16    16   ---   0.7 Few Clouds/
16/08/2008 12:55      28.0  16.0  28.3  25.9  48  1011   ---    NW    21    21   ---   0.7 Few Clouds/
16/08/2008 13:55      28.0  17.0  28.6  25.5  51  1010   ---    NW    27    27   ---   0.7 Few Clouds/
16/08/2008 14:55      28.0  16.0  28.3  25.6  48  1010   ---   NNW    26    26   ---   0.7 Few Clouds/
16/08/2008 15:55      28.0  16.0  28.3  25.8  48  1010   ---    NW    23    23   ---   0.7 Few Clouds/
16/08/2008 16:55      27.0  15.0  27.3  24.3  48  1010   ---    NW    23    23   ---   0.7 Few Clouds/
16/08/2008 17:55      26.0  15.0  26.5  24.6  51  1010   ---   NNW    10    10   ---   0.7 Few Clouds/
16/08/2008 18:55      25.0  16.0  25.9  24.3  57  1010   ---     N     6     6   ---   0.7 Few Clouds/
16/08/2008 19:55      24.0  15.0  24.8  23.2  57  1010   ---     N     6     6   ---   0.7 Few Clouds/
17/08/2008 06:55      21.0  16.0  22.9  21.0  73  1012   ---    SW     5     5   ---   0.8 Scattered Clouds/
17/08/2008 07:55      23.0  17.0  24.6  23.0  69  1012   ---     N     0     0   ---   0.8 Few Clouds/
17/08/2008 08:55      25.0  16.0  25.9  25.0  57  1012   ---   ESE     5     5   ---   0.8 Few Clouds/
17/08/2008 10:55      27.0  16.0  27.5  25.1  51  1013   ---     E    14    14   ---   --- /
17/08/2008 11:55      28.0  16.0  28.3  27.0  48  1014   ---     E    10    10   ---   0.9 Few Clouds/
17/08/2008 12:55      28.0  16.0  28.3  26.4  48  1014   ---     E    14    14   ---   0.9 Few Clouds/
17/08/2008 13:55      28.0  16.0  28.3  26.2  48  1014   ---     E    16    16   ---   --- /
17/08/2008 14:55      28.0  16.0  28.3  25.9  48  1014   ---     E    19    19   ---   --- /
17/08/2008 15:55      28.0  16.0  28.3  25.9  48  1014   ---     E    19    19   ---   --- /
17/08/2008 16:55      28.0  15.0  28.0  26.2  45  1014   ---     E    16    16   ---   --- /
17/08/2008 17:55      27.0  15.0  27.3  25.3  48  1014   ---     E    13    13   ---   --- /
17/08/2008 18:55      26.0  15.0  26.5  24.6  51  1014   ---     E    10    10   ---   --- /
17/08/2008 19:55      25.0  16.0  25.9  24.3  57  1014   ---     E     6     6   ---   --- /
18/08/2008 06:55      22.0  18.0  24.2  20.2  78  1016   ---    SW     8     8   ---   0.7 Few Clouds/
18/08/2008 07:55      23.0  19.0  25.2  23.0  78  1016   ---    SW     3     3   ---   0.7 Few Clouds/
18/08/2008 08:55      25.0  19.0  26.6  25.0  69  1016   ---     N     0     0   ---   0.7 Few Clouds/
18/08/2008 10:55      27.0  19.0  28.2  25.3  62  1017   ---     E    13    13   ---   0.7 Few Clouds/
18/08/2008 11:55      28.0  19.0  29.3  27.0  58  1018   ---   ENE    10    10   ---   0.7 Few Clouds/
18/08/2008 12:55      29.0  19.0  30.3  28.2  55  1018   ---     E    10    10   ---   --- /
18/08/2008 13:55      29.0  18.0  29.9  27.7  52  1017   ---     E    14    14   ---   --- /
18/08/2008 14:55      28.0  17.0  28.6  26.4  51  1017   ---     E    14    14   ---   --- /
18/08/2008 15:55      29.0  16.0  29.1  27.7  45  1017   ---     E    14    14   ---   --- /
18/08/2008 16:55      28.0  18.0  28.9  26.2  55  1016   ---     E    16    16   ---   --- /
18/08/2008 17:55      28.0  17.0  28.6  26.4  51  1016   ---     E    14    14   ---   --- /
18/08/2008 18:55      27.0  17.0  27.7  25.3  54  1016   ---     E    13    13   ---   --- /
18/08/2008 19:55      25.0  18.0  26.3  24.3  65  1016   ---     E     6     6   ---   --- /
19/08/2008 06:55      22.0  12.0  22.6  21.0  53  1016   ---   WSW     6     6   ---   --- /
19/08/2008 07:55      24.0  14.0  24.6  24.0  54  1016   ---     N     0     0   ---   --- /
19/08/2008 08:55      26.0  14.0  26.3  26.0  48  1016   ---   ---     0     0   ---   --- /
19/08/2008 10:55      28.0  16.0  28.3  27.2  48  1016   ---     E     8     8   ---   --- /
19/08/2008 11:55      28.0  17.0  28.6  27.0  51  1016   ---     E    10    10   ---   --- /
19/08/2008 12:55      28.0  17.0  28.6  26.4  51  1016   ---     E    14    14   ---   --- /
19/08/2008 13:55      29.0  19.0  30.3  27.9  55  1015   ---     E    13    13   ---   --- /
19/08/2008 14:55      29.0  19.0  30.3  27.7  55  1015   ---   ESE    14    14   ---   --- /
19/08/2008 16:55      29.0  19.0  30.3  27.9  55  1014   ---     E    13    13   ---   --- /
19/08/2008 17:55      28.0  19.0  29.3  27.2  58  1014   ---     E     8     8   ---   --- /
19/08/2008 18:55      28.0  19.0  29.3  27.2  58  1014   ---     E     8     8   ---   --- /
19/08/2008 19:55      25.0  19.0  26.6  25.0  69  1013   ---   ESE     5     5   ---   --- /
20/08/2008 06:55      22.0  13.0  22.8  22.0  57  1013   ---    SW     3     3   ---   --- /
20/08/2008 07:55      24.0  17.0  25.3  24.0  65  1014   ---     N     0     0   ---   --- /
20/08/2008 08:55      27.0  16.0  27.5  27.0  51  1014   ---   ---     0     0   ---   --- /
20/08/2008 10:55      30.0  16.0  30.0  29.7  43  1014   ---   ENE     6     6   ---   --- /
20/08/2008 11:55      30.0  19.0  31.3  29.2  52  1014   ---     E    13    13   ---   --- /
20/08/2008 12:55      30.0  19.0  31.3  29.2  52  1014   ---     E    13    13   ---   --- /
20/08/2008 13:55      31.0  18.0  31.9  30.4  46  1014   ---     E    13    13   ---   --- /
20/08/2008 14:55      31.0  17.0  31.4  30.3  43  1014   ---     E    16    16   ---   --- /
20/08/2008 15:55      30.0  18.0  30.8  28.9  49  1014   ---     E    16    16   ---   --- /
20/08/2008 16:55      29.0  19.0  30.3  27.6  55  1014   ---   ESE    16    16   ---   --- /
20/08/2008 17:55      28.0  21.0  30.1  26.6  66  1014   ---     E    13    13   ---   --- /
20/08/2008 18:55      27.0  20.0  28.5  25.8  66  1014   ---   ESE    10    10   ---   --- /
20/08/2008 19:55      26.0  20.0  27.6  26.0  70  1014   ---   ESE     5     5   ---   --- /
21/08/2008 06:55      23.0  20.0  25.6  21.3  83  1015   ---    SW     8     8   ---   0.7 Few Clouds/
21/08/2008 07:55      24.0  21.0  26.6  24.0  83  1015   ---   WSW     5     5   ---   --- /
21/08/2008 08:55      26.0  20.0  27.6  26.0  70  1016   ---     N     0     0   ---   --- /
21/08/2008 10:55      29.0  18.0  29.9  27.7  52  1016   ---   ENE    14    14   ---   --- /
21/08/2008 11:55      30.0  18.0  30.8  29.0  49  1017   ---     E    14    14   ---   --- /
21/08/2008 12:55      30.0  17.0  30.4  28.9  46  1017   ---     E    16    16   ---   --- /
21/08/2008 13:55      30.0  17.0  30.4  29.0  46  1016   ---     E    14    14   ---   --- /
21/08/2008 14:55      30.0  16.0  30.0  29.0  43  1016   ---     E    14    14   ---   --- /
21/08/2008 15:55      30.0  16.0  30.0  28.9  43  1016   ---     E    16    16   ---   --- /
21/08/2008 16:55      29.0  14.0  28.6  28.2  40  1016   ---    NE    10    10   ---   --- /
21/08/2008 17:55      29.0  14.0  28.6  28.2  40  1016   ---   NNE    10    10   ---   --- /
21/08/2008 18:55      28.0  15.0  28.0  27.2  45  1015   ---   NNE     8     8   ---   --- /
21/08/2008 19:55      25.0  19.0  26.6  24.3  69  1015   ---   SSE     6     6   ---   --- /
22/08/2008 06:55      22.0  14.0  23.0  21.0  61  1015   ---   SSW     6     6   ---   --- /
22/08/2008 07:55      23.0  15.0  24.1  23.0  61  1015   ---     N     0     0   ---   --- /
22/08/2008 08:55      27.0  20.0  28.5  27.0  66  1015   ---   ESE     3     3   ---   --- /
22/08/2008 10:55      29.0  20.0  30.8  28.6  58  1015   ---   ENE     6     6   ---   --- /
22/08/2008 11:55      30.0  19.0  31.3  29.7  52  1015   ---   ENE     6     6   ---   --- /
22/08/2008 12:55      31.0  18.0  31.9  30.4  46  1015   ---     E    13    13   ---   --- /
22/08/2008 13:55      31.0  19.0  32.4  30.4  49  1015   ---     E    14    14   ---   --- /
22/08/2008 14:55      31.0  17.0  31.4  30.4  43  1015   ---     E    14    14   ---   --- /
22/08/2008 15:55      31.0  19.0  32.4  30.4  49  1014   ---     E    14    14   ---   --- /
22/08/2008 16:55      30.0  20.0  31.9  29.4  55  1014   ---     E    10    10   ---   --- /
22/08/2008 17:55      29.0  21.0  31.4  28.2  62  1014   ---     E    10    10   ---   --- /
22/08/2008 18:55      28.0  22.0  30.7  27.5  70  1014   ---     E     6     6   ---   --- /
22/08/2008 19:55      27.0  21.0  28.8  27.0  70  1014   ---     N     0     0   ---   --- /
23/08/2008 06:55      23.0  12.0  23.4  23.0  50  1013   ---    SW     5     5   ---   --- /
23/08/2008 07:55      25.0  12.0  25.2  25.0  44  1013   ---     N     0     0   ---   --- /
23/08/2008 08:55      28.0  16.0  28.3  28.0  48  1014   ---   ---     0     0   ---   --- /
23/08/2008 10:55      31.0  15.0  30.6  30.8  38  1013   ---     E     6     6   ---   --- /
23/08/2008 11:55      31.0  17.0  31.4  30.7  43  1013   ---     E     8     8   ---   --- /
23/08/2008 12:55      32.0  16.0  32.0  31.7  38  1013   ---     E    13    13   ---   --- /
23/08/2008 13:55      32.0  15.0  31.6  31.7  36  1013   ---     E    14    14   ---   --- /
23/08/2008 14:55      31.0  16.0  31.0  31.0  41  1012   ---     E     5     5   ---   --- /
23/08/2008 15:55      31.0  19.0  32.4  30.4  49  1012   ---     E    14    14   ---   --- /
23/08/2008 16:55      29.0  18.0  29.9  27.7  52  1012   ---   ESE    14    14   ---   --- /
23/08/2008 17:55      29.0  18.0  29.9  28.3  52  1012   ---     E     8     8   ---   --- /
23/08/2008 18:55      28.0  19.0  29.3  28.0  58  1012   ---   ESE     5     5   ----3274--- Scattered Clouds/
23/08/2008 19:55      27.0  20.0  28.5  27.0  66  1011   ---     E     3     3   ----3274--- Scattered Clouds/
24/08/2008 06:55      24.0  11.0  24.1  24.0  44  1010   ---     N     0     0   ----3274--- Scattered Clouds/
24/08/2008 07:55      25.0  13.0  25.3  25.0  47  1011   ---   SSW     5     5   ----3274--- Scattered Clouds/
24/08/2008 08:55      27.0  18.0  27.9  27.0  58  1011   ---     N     0     0   ----3274--- Scattered Clouds/
24/08/2008 10:55      30.0  19.0  31.3  29.5  52  1011   ---   ENE     8     8   ----3274--- Scattered Clouds/
24/08/2008 11:55      31.0  19.0  32.4  30.4  49  1011   ---   ENE    13    13   ----3274--- Scattered Clouds/
24/08/2008 12:55      30.0  17.0  30.4  28.9  46  1011   ---     E    16    16   ---   0.7 Broken Clouds/
24/08/2008 13:55      28.0  17.0  28.6  26.6  51  1011   ---   SSE    13    13   ----32741.2 Broken Clouds/
24/08/2008 14:55      28.0  19.0  29.3  27.5  58  1012   ---    SE     6     6   ----32740.7 Overcast/
24/08/2008 15:55      28.0  21.0  30.1  27.0  66  1011   ---   ESE    10    10   ----32740.4 Broken Clouds/
24/08/2008 16:55      29.0  22.0  32.0  28.2  66  1012   ---     E    10    10   ----32740.7 Broken Clouds/
24/08/2008 17:55      28.0  22.0  30.7  27.5  70  1012   ---     E     6     6   ----32740.7 Broken Clouds/
24/08/2008 18:55      27.0  22.0  29.2  26.0  74  1012   ---     E     8     8   ---   0.8 Broken Clouds/
24/08/2008 19:55      26.0  21.0  27.9  26.0  74  1012   ---     E     3     3   ----3274--- Broken Clouds/
25/08/2008 06:55      24.0  21.0  26.6  24.0  83  1013   ---    SW     3     3   ---   0.7 Broken Clouds/
25/08/2008 07:55      25.0  22.0  27.6  25.0  83  1013   ---     N     0     0   ---   0.7 Broken Clouds/
25/08/2008 08:55      26.0  21.0  27.9  24.6  74  1014   ---   ENE    10    10   ---   0.7 Broken Clouds/
25/08/2008 10:55      28.0  21.0  30.1  27.0  66  1014   ---     E    10    10   ---   0.7 Scattered Clouds/
25/08/2008 11:55      29.0  21.0  31.4  27.9  62  1014   ---     E    13    13   ---   0.7 Scattered Clouds/
25/08/2008 12:55      29.0  21.0  31.4  27.7  62  1014   ---     E    14    14   ---   0.7 Few Clouds/
25/08/2008 13:55      30.0  21.0  32.6  28.9  59  1014   ---     E    18    18   ---   0.7 Few Clouds/
25/08/2008 14:55      29.0  21.0  31.4  27.6  62  1014   ---     E    16    16   ---   0.7 Scattered Clouds/
25/08/2008 15:55      29.0  21.0  31.4  27.5  62  1014   ---     E    18    18   ---   0.8 Scattered Clouds/
25/08/2008 16:55      28.0  21.0  30.1  26.6  66  1014   ---     E    13    13   ---   0.8 Scattered Clouds/
25/08/2008 17:55      27.0  21.0  28.8  25.1  70  1014   ---     E    14    14   ---   0.8 Broken Clouds/
25/08/2008 18:55      26.0  20.0  27.6  23.5  70  1015   ---     E    16    16   ---   0.8 Broken Clouds/
25/08/2008 19:55      26.0  20.0  27.6  24.6  70  1015   ---     E    10    10   ---   0.8 Broken Clouds/
26/08/2008 06:55      25.0  21.0  27.2  25.0  79  1016   ---   NNE     5     5   ---   0.6 Broken Clouds/
26/08/2008 07:55      25.0  21.0  27.2  24.3  79  1017   ---     N     6     6   ---   0.6 Broken Clouds/
26/08/2008 08:55      27.0  20.0  28.5  25.3  66  1017   ---   ENE    13    13   ---   0.6 Broken Clouds/
26/08/2008 10:55      28.0  21.0  30.1  26.6  66  1017   ---   ENE    13    13   ---   0.6 Broken Clouds/
26/08/2008 11:55      28.0  21.0  30.1  27.0  66  1018   ---     E    10    10   ---   0.6 Broken Clouds/
26/08/2008 12:55      28.0  21.0  30.1  26.6  66  1017   ---     E    13    13   ---   0.7 Broken Clouds/
26/08/2008 13:55      28.0  21.0  30.1  26.4  66  1017   ---     E    14    14   ---   0.7 Scattered Clouds/
26/08/2008 14:55      27.0  21.0  28.8  25.1  70  1017   ---   ENE    14    14   ---   0.7 Broken Clouds/
26/08/2008 15:55      27.0  21.0  28.8  27.0  70  1017   ---   NNE     3     3   ---   0.7 Broken Clouds/
26/08/2008 16:55      27.0  20.0  28.5  26.0  66  1017   ---     E     8     8   ---   0.7 Broken Clouds/
26/08/2008 17:55      26.0  20.0  27.6  24.6  70  1017   ---     E    10    10   ---   0.7 Broken Clouds/
26/08/2008 19:55      25.0  19.0  26.6  25.0  69  1018   ---     N     0     0   ---   --- /
27/08/2008 06:55      22.0  18.0  24.2  22.0  78  1017   ---    SW     5     5   ---   0.7 Few Clouds/
27/08/2008 07:55      23.0  19.0  25.2  23.0  78  1017   ---     N     0     0   ---   0.7 Few Clouds/
27/08/2008 08:55      26.0  20.0  27.6  26.0  70  1017   ---   ---     0     0   ---   0.8 Few Clouds/
27/08/2008 10:55      28.0  18.0  28.9  26.6  55  1018   ---   ENE    13    13   ---   0.7 Few Clouds/
27/08/2008 11:55      28.0  19.0  29.3  26.6  58  1018   ---   ENE    13    13   ---   0.7 Scattered Clouds/
27/08/2008 12:55      28.0  19.0  29.3  26.1  58  1018   ---   ENE    18    18   ---   0.7 Scattered Clouds/
27/08/2008 13:55      27.0  19.0  28.2  26.0  62  1018   ---     N     8     8   ---   0.7 Broken Clouds/
27/08/2008 14:55      27.0  20.0  28.5  24.9  66  1017   ---   ENE    16    16   ---   0.7 Broken Clouds/
27/08/2008 15:55      27.0  19.0  28.2  26.4  62  1017   ---   ENE     6     6   ---   0.7 Broken Clouds/
27/08/2008 16:55      26.0  20.0  27.6  24.6  70  1017   ---   ENE    10    10   ---   0.7 Broken Clouds/
27/08/2008 17:55      26.0  20.0  27.6  24.6  70  1016   ---   ENE    10    10   ---   0.7 Broken Clouds/
27/08/2008 18:55      26.0  20.0  27.6  25.4  70  1016   ---     E     6     6   ---   0.7 Broken Clouds/
27/08/2008 19:55      25.0  19.0  26.6  25.0  69  1016   ---     E     5     5   ---   0.7 Scattered Clouds/
28/08/2008 07:55      23.0  19.0  25.2  23.0  78  1015   ---     N     0     0   ---   0.7 Few Clouds/
28/08/2008 08:55      25.0  20.0  26.9  25.0  74  1015   ---   ---     0     0   ---   0.6 Few Clouds/
28/08/2008 10:55      28.0  19.0  29.3  26.6  58  1016   ---   ENE    13    13   ---   0.6 Few Clouds/
28/08/2008 11:55      28.0  20.0  29.7  26.6  62  1016   ---     E    13    13   ---   0.7 Few Clouds/
28/08/2008 12:55      28.0  20.0  29.7  26.4  62  1016   ---     E    14    14   ---   0.6 Few Clouds/
28/08/2008 13:55      29.0  20.0  30.8  27.5  58  1016   ---     E    18    18   ---   0.7 Few Clouds/
28/08/2008 14:55      29.0  21.0  31.4  27.5  62  1015   ---     E    18    18   ---   0.7 Few Clouds/
28/08/2008 15:55      28.0  20.0  29.7  26.2  62  1015   ---     E    16    16   ---   0.7 Few Clouds/
28/08/2008 17:55      26.0  19.0  27.3  24.8  65  1014   ---   WNW     8     8   ---   0.7 Scattered Clouds/
28/08/2008 18:55      25.0  19.0  26.6  22.1  69  1014   ---   WNW    16    16   ---   0.7 Scattered Clouds/
28/08/2008 19:55      25.0  18.0  26.3  23.7  65  1014   ---   WNW     8     8   ---   0.7 Scattered Clouds/
29/08/2008 06:55      21.0  17.0  23.2  19.9  78  1015   ---    SW     6     6   ---   0.6 Few Clouds/
29/08/2008 07:55      23.0  18.0  24.9  23.0  73  1016   ---   SSW     3     3   ---   0.6 Few Clouds/
29/08/2008 08:55      25.0  19.0  26.6  25.0  69  1016   ---     E     3     3   ---   0.6 Scattered Clouds/
29/08/2008 10:55      28.0  18.0  28.9  27.2  55  1016   ---    NE     8     8   ---   0.7 Few Clouds/
29/08/2008 11:55      29.0  17.0  29.5  28.2  48  1016   ---    NE    10    10   ---   0.7 Few Clouds/
29/08/2008 12:55      28.0  17.0  28.6  26.6  51  1016   ---   NNE    13    13   ---   0.7 Few Clouds/
29/08/2008 13:55      29.0  15.0  28.9  27.6  43  1016   ---     N    16    16   ---   0.7 Few Clouds/
29/08/2008 14:55      29.0  18.0  29.9  28.2  52  1015   ---   NNE    10    31   ---   0.7 Scattered Clouds/
29/08/2008 15:55      28.0  18.0  28.9  27.2  55  1015   ---     N     8    31   ---   0.7 Scattered Clouds/
29/08/2008 16:55      28.0  17.0  28.6  27.0  51  1014   ---   NNE    10    10   ---   0.7 Scattered Clouds/
29/08/2008 17:55      27.0  19.0  28.2  26.0  62  1014   ---     N     8     8   ---   0.7 Few Clouds/
29/08/2008 18:55      26.0  19.0  27.3  26.0  65  1014   ---     N     5     5   ---   0.7 Few Clouds/
29/08/2008 19:55      25.0  19.0  26.6  24.3  69  1015   ---   NNE     6     6   ---   0.6 Few Clouds/
30/08/2008 06:55      21.0  18.0  23.6  21.0  83  1015   ---    SW     5     5   ---   0.7 Scattered Clouds/
30/08/2008 07:55      23.0  19.0  25.2  23.0  78  1015   ---    SW     5     5   ---   0.7 Few Clouds/
30/08/2008 09:55      27.0  19.0  28.2  27.0  62  1016   ---    NE     5     5   ---   0.7 Few Clouds/
30/08/2008 10:55      28.0  20.0  29.7  27.5  62  1016   ---     E     6     6   ---   0.7 Few Clouds/
30/08/2008 11:55      28.0  18.0  28.9  27.2  55  1016   ---     E     8     8   ---   0.7 Few Clouds/
30/08/2008 12:55      28.0  18.0  28.9  26.6  55  1016   ---     E    13    13   ---   0.7 Few Clouds/
30/08/2008 13:55      29.0  17.0  29.5  28.2  48  1016   ---     E    10    10   ---   0.7 Few Clouds/
30/08/2008 14:55      29.0  15.0  28.9  27.7  43  1016   ---     E    14    14   ---   --- /
30/08/2008 15:55      29.0  16.0  29.1  27.7  45  1015   ---   NNE    14    14   ---   --- /
30/08/2008 16:55      29.0  16.0  29.1  28.3  45  1015   ---     N     8     8   ---   --- /
30/08/2008 17:55      28.0  18.0  28.9  27.0  55  1015   ---    NE    10    10   ---   --- /
30/08/2008 18:55      26.0  19.0  27.3  26.0  65  1015   ---   ENE     5     5   ---   --- /
30/08/2008 19:55      25.0  19.0  26.6  24.3  69  1015   ---     E     6     6   ---   --- /
31/08/2008 06:55      21.0   9.0  21.3  18.6  46  1016   ---    SW    10    10   ---   --- /
31/08/2008 07:55      23.0   8.0  22.9  23.0  38  1016   ---     N     0     0   ---   --- /
31/08/2008 09:55      28.0  16.0  28.3  28.0  48  1016   ---     E     5     5   ---   --- /
31/08/2008 11:55      30.0  16.0  30.0  29.4  43  1017   ---   ENE    10    10   ---   --- /
31/08/2008 12:55      30.0  17.0  30.4  29.4  46  1016   ---     E    10    10   ---   --- /
31/08/2008 13:55      30.0  17.0  30.4  29.2  46  1016   ---     E    13    13   ---   --- /
31/08/2008 14:55      30.0  18.0  30.8  29.0  49  1016   ---     E    14    14   ---   --- /
31/08/2008 15:55      29.0  19.0  30.3  27.9  55  1016   ---   ESE    13    13   ---   --- /
31/08/2008 16:55      28.0  20.0  29.7  26.6  62  1016   ---   ESE    13    13   ---   --- /
31/08/2008 17:55      28.0  21.0  30.1  26.6  66  1016   ---     E    13    13   ---   --- /
31/08/2008 18:55      27.0  20.0  28.5  26.4  66  1016   ---     E     6     6   ---   --- /
31/08/2008 19:55      26.0  19.0  27.3  26.0  65  1016   ---    SE     3     3   ---   --- /
01/09/2008 06:55      23.0   9.0  23.0  23.0  41  1016   ---     N     0     0   ----3274--- Scattered Clouds/
01/09/2008 07:55      24.0  10.0  24.0  22.5  41  1016   ---     S     8     8   ---   --- /
01/09/2008 08:55      27.0  16.0  27.5  27.0  51  1017   ---     N     0     0   ----3274--- Scattered Clouds/
01/09/2008 10:55      29.0  17.0  29.5  29.0  48  1018   ---     E     5     5   ----3274--- Scattered Clouds/
01/09/2008 11:55      30.0  16.0  30.0  29.2  43  1018   ---     E    13    13   ----3274--- Scattered Clouds/
01/09/2008 12:55      30.0  16.0  30.0  29.2  43  1018   ---     E    13    13   ----3274--- Scattered Clouds/
01/09/2008 13:55      30.0  17.0  30.4  28.9  46  1017   ---     E    18    18   ----3274--- Scattered Clouds/
01/09/2008 14:55      29.0  19.0  30.3  27.5  55  1017   ---     E    18    18   ---   0.7 Scattered Clouds/
01/09/2008 15:55      28.0  19.0  29.3  26.6  58  1017   ---     E    13    13   ----3274--- Broken Clouds/
01/09/2008 16:55      28.0  19.0  29.3  28.0  58  1017   ---     E     5     5   ---   0.7 Broken Clouds/
01/09/2008 17:55      27.0  19.0  28.2  26.0  62  1017   ---     N     8     8   ---   0.7 Broken Clouds/
01/09/2008 18:55      27.0  19.0  28.2  26.4  62  1016   ---     E     6     6   ----3274--- Scattered Clouds/
01/09/2008 19:55      26.0  21.0  27.9  26.0  74  1016   ---     E     5     5   ----3274--- Scattered Clouds/
02/09/2008 06:55      23.0  18.0  24.9  23.0  73  1016   ---     S     5     5   ---   --- /
02/09/2008 07:55      24.0  19.0  25.9  24.0  74  1016   ---     N     0     0   ---   --- /
02/09/2008 08:55      26.0  19.0  27.3  26.0  65  1016   ---   ---     0     0   ---   0.9 Few Clouds/
02/09/2008 10:55      31.0  20.0  33.0  31.0  52  1016   ---     S     5     5   ---   --- /
02/09/2008 11:55      30.0  19.0  31.3  28.8  52  1016   ---   ESE    19    19   ---   0.9 Few Clouds/
02/09/2008 12:55      29.0  20.0  30.8  27.3  58  1016   ---     E    21    21   ---   0.8 Scattered Clouds/
02/09/2008 13:55      30.0  20.0  31.9  29.4  55  1016   ---   ESE    10    10   ---   0.7 Scattered Clouds/
02/09/2008 14:55      30.0  20.0  31.9  29.2  55  1016   ---   ESE    13    13   ---   0.7 Scattered Clouds/
02/09/2008 15:55      31.0  22.0  34.6  30.2  59  1015   ---   WNW    18    18   ---   0.7 Scattered Clouds/
02/09/2008 16:55      31.0  21.0  33.8  30.2  55  1014   ---   WNW    18    18   ---   0.7 Scattered Clouds/
02/09/2008 17:55      30.0  18.0  30.8  28.9  49  1014   ---     W    16    16   ---   0.7 Scattered Clouds/
02/09/2008 18:55      29.0  19.0  30.3  29.0  55  1014   ---    SW     5     5   ---   0.7 Few Clouds/
02/09/2008 19:55      27.0  18.0  27.9  27.0  58  1014   ---    SW     5     5   ---   0.7 Few Clouds/
03/09/2008 06:55      22.0  16.0  23.6  22.0  69  1015   ---   WSW     5     5   ---   --- /
03/09/2008 07:55      24.0  17.0  25.3  24.0  65  1015   ---     N     0     0   ---   --- /
03/09/2008 08:55      26.0  16.0  26.7  26.0  54  1016   ---   ---     0     0   ---   --- /
03/09/2008 10:55      29.0  16.0  29.1  28.3  45  1016   ---   ENE     8     8   ---   --- /
03/09/2008 11:55      29.0  18.0  29.9  28.2  52  1016   ---     E    10    10   ---   --- /
03/09/2008 12:55      29.0  19.0  30.3  27.6  55  1016   ---     E    16    16   ---   --- /
03/09/2008 13:55      30.0  19.0  31.3  29.2  52  1015   ---     E    13    13   ---   --- /
03/09/2008 14:55      30.0  17.0  30.4  28.9  46  1015   ---     E    16    16   ---   --- /
03/09/2008 15:55      29.0  21.0  31.4  27.6  62  1014   ---   ESE    16    16   ---   --- /
03/09/2008 16:55      29.0  21.0  31.4  28.2  62  1014   ---   ESE    10    10   ---   --- /
03/09/2008 17:55      28.0  22.0  30.7  27.2  70  1014   ---     E     8     8   ---   0.6 Few Clouds/
03/09/2008 18:55      26.0  21.0  27.9  25.4  74  1014   ---   ESE     6     6   ---   0.6 Scattered Clouds/
03/09/2008 19:55      25.0  21.0  27.2  25.0  79  1014   ---     E     3     3   ---   0.6 Scattered Clouds/
04/09/2008 06:55      22.0  17.0  23.9  21.0  73  1014   ---    SW     6     6   ---   --- /
04/09/2008 07:55      24.0  18.0  25.6  24.0  69  1014   ---     N     0     0   ---   --- /
04/09/2008 08:55      26.0  19.0  27.3  26.0  65  1014   ---   ---     0     0   ---   --- /
04/09/2008 10:55      30.0  20.0  31.9  29.5  55  1014   ---   ENE     8     8   ---   --- /
04/09/2008 11:55      30.0  21.0  32.6  29.2  59  1014   ---     E    13    13   ---   --- /
04/09/2008 12:55      30.0  22.0  33.3  29.0  62  1014   ---     E    14    14   ---   --- /
04/09/2008 13:55      30.0  21.0  32.6  29.4  59  1014   ---     E    10    10   ---   --- /
04/09/2008 14:55      30.0  23.0  34.2  29.0  66  1014   ---     E    14    14   ---   --- /
04/09/2008 15:55      30.0  22.0  33.3  29.0  62  1014   ---     E    14    14   ---   --- /
04/09/2008 16:55      29.0  23.0  32.8  27.7  70  1014   ---     E    14    14   ---   --- /
04/09/2008 17:55      28.0  23.0  31.3  27.0  74  1014   ---     E    10    10   ---   --- /
04/09/2008 18:55      27.0  23.0  29.6  26.0  79  1014   ---     E     8     8   ---   --- /
04/09/2008 19:55      26.0  22.0  28.3  26.0  79  1014   ---     N     0     0   ---   --- /
05/09/2008 06:55      24.0   4.0  23.5  23.2  27  1015   ---    SW     6     6   ----32740.0 Scattered Clouds/
05/09/2008 07:55      26.0   9.0  25.7  26.0  34  1015   ---     N     0     0   ----32740.0 Scattered Clouds/
05/09/2008 08:55      28.0  13.0  27.6  27.5  40  1016   ---     E     6     6   ----32740.1 Scattered Clouds/
05/09/2008 10:55      29.0  17.0  29.5  28.3  48  1016   ---     E     8     8   ---   0.7 Broken Clouds/
05/09/2008 11:55      30.0  16.0  30.0  29.7  43  1016   ---   ESE     6     6   ---   0.7 Broken Clouds/
05/09/2008 13:55      31.0  14.0  30.3  30.6  36  1016   ---   ESE    10    10   ----3274--- Scattered Clouds/
05/09/2008 14:55      32.0  14.0  31.3  31.8  34  1016   ---     E     8     8   ----3274--- Scattered Clouds/
05/09/2008 15:55      32.0  14.0  31.3  31.8  34  1016   ---     E     8     8   ----3274--- Scattered Clouds/
05/09/2008 16:55      31.0  13.0  30.1  30.7  33  1015   ---   ESE     8     8   ---   --- /
05/09/2008 17:55      31.0  13.0  30.1  30.7  33  1015   ---     E     8     8   ---   --- /
05/09/2008 18:55      30.0  11.0  28.8  30.0  31  1015   ---     N     0     0   ---   --- /
05/09/2008 19:55      28.0  11.0  27.3  28.0  35  1015   ---   ---     0     0   ---   --- /
06/09/2008 06:55      27.0  11.0  26.7  26.4  37  1015   ---    SW     6     6   ----32740.3 Scattered Clouds/
06/09/2008 07:55      28.0  11.0  27.3  28.0  35  1015   ---    SW     5     5   ----3274--- Scattered Clouds/
06/09/2008 08:55      32.0  14.0  31.3  32.0  34  1015   ---    NW     5     5   ----3274--- Few Clouds/
06/09/2008 10:55      35.0  12.0  33.7  35.0  25  1015   ---     E    10    10   ----32740.3 Few Clouds/
06/09/2008 11:55      36.0  11.0  34.5  36.0  22  1015   ---   ESE     5     5   ----32740.3 Few Clouds/
06/09/2008 12:55      36.0  10.0  34.3  36.0  21  1015   ---     E     5     5   ----3274--- Few Clouds/
06/09/2008 13:55      37.0   9.0  35.1  37.0  18  1014   ---     E    10    10   ----3274--- Few Clouds/
06/09/2008 14:55      36.0  10.0  34.3  36.0  21  1015   ---     E    13    13   ---   --- /
06/09/2008 15:55      35.0  12.0  33.7  35.0  25  1014   ---   ESE    18    18   ----3274--- Few Clouds/
06/09/2008 16:55      34.0  15.0  33.7  34.0  32  1014   ---     E     8     8   ---   --- /
06/09/2008 17:55      33.0  12.0  31.7  33.0  28  1014   ---   ESE     6     6   ---   --- /
06/09/2008 18:55      32.0  18.0  32.9  32.0  43  1014   ---     N     0     0   ----3274--- Few Clouds/
06/09/2008 19:55      30.0  14.0  29.4  30.0  38  1014   ---   ---     0     0   ----3274--- Scattered Clouds/
07/09/2008 06:55      27.0  11.0  26.7  27.0  37  1013   ---   ---     0     0   ----3274--- Few Clouds/
07/09/2008 07:55      28.0  12.0  27.5  28.0  37  1014   ---   ---     0     0   ----3274--- Few Clouds/
07/09/2008 08:55      30.0  13.0  29.2  29.5  35  1014   ---    SE     8     8   ----3274--- Few Clouds/
07/09/2008 10:55      34.0  13.0  33.0  34.0  28  1014   ---   ESE     6     6   ---   --- /
07/09/2008 11:55      36.0  15.0  35.9  36.0  29  1014   ---     E    13    13   ---   --- /
07/09/2008 12:55      36.0  13.0  35.1  36.0  25  1014   ---   ESE     8     8   ---   --- /
07/09/2008 13:55      36.0  13.0  35.1  36.0  25  1013   ---     E    14    14   ---   1.0 Scattered Clouds/
07/09/2008 15:55      36.0  14.0  35.5  36.0  27  1013   ---   NNE     8     8   ---   --- / Thunderstorm
07/09/2008 16:55      34.0  14.0  33.3  34.0  30  1013   ---     E    10    10   ---   0.9 Broken Clouds/
07/09/2008 17:55      33.0  18.0  34.0  33.0  41  1013   ---    NE    10    10   ----3274--- Broken Clouds/
07/09/2008 18:55      31.0  17.0  31.4  31.0  43  1014   ---    NE     5     5   ---   1.0 Broken Clouds/
07/09/2008 19:55      29.0  19.0  30.3  28.2  55  1014   ---     S    10    10   ----3274--- Scattered Clouds/
08/09/2008 06:55      26.0  14.0  26.3  26.0  48  1014   ---   WSW     5     5   ----3274--- Scattered Clouds/
08/09/2008 07:55      26.0  15.0  26.5  26.0  51  1014   ---     N     0     0   ---   --- /
08/09/2008 08:55      29.0  17.0  29.5  29.0  48  1015   ---   ---     0     0   ---   --- /
08/09/2008 10:55      33.0  16.0  33.0  33.0  36  1016   ---   ENE     5     5   ---   --- /
08/09/2008 11:55      33.0  16.0  33.0  33.0  36  1016   ---   ENE     8     8   ---   --- /
08/09/2008 12:55      33.0  16.0  33.0  33.0  36  1016   ---     E    10    10   ---   --- /
08/09/2008 14:55      34.0  13.0  33.0  34.0  28  1015   ---     E    13    13   ---   --- /
08/09/2008 15:55      33.0  14.0  32.3  33.0  32  1015   ---     E    10    10   ---   --- /
08/09/2008 16:55      32.0  16.0  32.0  31.8  38  1015   ---     E    10    10   ---   --- /
08/09/2008 17:55      31.0  18.0  31.9  30.7  46  1015   ---     E     8     8   ---   --- /
08/09/2008 18:55      29.0  20.0  30.8  28.2  58  1015   ---     E    10    10   ---   --- /
08/09/2008 19:55      28.0  23.0  31.3  27.5  74  1016   ---     E     6     6   ---   0.7 Scattered Clouds/
09/09/2008 06:55      25.0  20.0  26.9  25.0  74  1017   ---    SW     5     5   ---   --- /
09/09/2008 07:55      25.0  21.0  27.2  25.0  79  1017   ---    SW     5     5   ---   0.5 Few Clouds/
09/09/2008 08:55      27.0  24.0  30.1  27.0  84  1017   ---     E     3     3   ---   0.5 Scattered Clouds/
09/09/2008 10:55      29.0  24.0  33.6  28.3  75  1018   ---     E     8     8   ---   0.5 Scattered Clouds/
09/09/2008 11:55      30.0  24.0  35.1  29.4  70  1018   ---     E    10    10   ---   --- /
09/09/2008 12:55      30.0  23.0  34.2  29.4  66  1018   ---     E    10    10   ---   --- /
09/09/2008 13:55      30.0  23.0  34.2  29.0  66  1018   ---     E    14    14   ---   --- /
09/09/2008 14:55      30.0  23.0  34.2  29.4  66  1017   ---     E    10    10   ---   --- /
09/09/2008 15:55      30.0  23.0  34.2  29.0  66  1017   ---     E    14    14   ---   --- /
09/09/2008 17:55      29.0  17.0  29.5  28.3  48  1017   ---     E     8     8   ---   --- /
09/09/2008 18:55      28.0  19.0  29.3  28.0  58  1017   ---     N     0     0   ---   --- /
09/09/2008 19:55      27.0  19.0  28.2  27.0  62  1017   ---   ---     0     0   ---   --- /
10/09/2008 06:55      23.0   4.0  22.5  23.0  29  1016   ---    SW     5     5   ---   --- /
10/09/2008 07:55      23.0   4.0  22.5  23.0  29  1017   ---    SW     5     5   ---   --- /
10/09/2008 08:55      27.0  13.0  27.0  27.0  42  1017   ---     N     0     0   ---   --- /
10/09/2008 10:55      30.0   9.0  28.6  30.0  27  1017   ---     E     5     5   ---   --- /
10/09/2008 11:55      31.0  12.0  29.9  30.8  31  1017   ---     E     6     6   ---   --- /
10/09/2008 12:55      31.0  18.0  31.9  30.6  46  1016   ---     E    10    10   ---   --- /
10/09/2008 13:55      31.0  17.0  31.4  30.7  43  1016   ---     E     8     8   ---   --- /
10/09/2008 14:55      31.0  18.0  31.9  30.4  46  1016   ---     E    13    13   ---   --- /
10/09/2008 15:55      30.0  20.0  31.9  29.4  55  1016   ---     E    10    10   ---   --- /
10/09/2008 16:55      30.0  19.0  31.3  29.4  52  1015   ---     E    10    10   ---   --- /
10/09/2008 17:55      29.0  16.0  29.1  28.6  45  1015   ---     E     6     6   ---   --- /
10/09/2008 18:55      28.0  19.0  29.3  28.0  58  1015   ---     N     0     0   ---   --- /
10/09/2008 19:55      26.0  20.0  27.6  26.0  70  1015   ---   ---     0     0   ---   --- /
11/09/2008 06:55      24.0   8.0  23.8  24.0  36  1014   ---    SW     5     5   ----3274--- Scattered Clouds/
11/09/2008 07:55      25.0   9.0  24.8  24.3  36  1014   ---    SW     6     6   ---   --- /
11/09/2008 08:55      26.0  17.0  26.9  26.0  58  1014   ---     N     0     0   ---   --- /
11/09/2008 11:55      31.0  18.0  31.9  30.7  46  1015   ---     E     8     8   ---   --- /
11/09/2008 12:55      31.0  17.0  31.4  30.7  43  1014   ---   ESE     8     8   ---   --- /
11/09/2008 13:55      31.0  19.0  32.4  30.6  49  1014   ---   ESE    10    10   ---   --- /
11/09/2008 14:55      31.0  20.0  33.0  30.6  52  1014   ---   ESE    10    10   ---   --- /
11/09/2008 15:55      31.0  20.0  33.0  30.6  52  1013   ---   ESE    10    10   ---   --- /
11/09/2008 16:55      30.0  19.0  31.3  29.4  52  1013   ---   ESE    10    10   ---   --- /
11/09/2008 17:55      29.0  20.0  30.8  28.3  58  1013   ---   ESE     8     8   ---   --- /
11/09/2008 18:55      28.0  22.0  30.7  28.0  70  1013   ---     N     0     0   ---   --- /
11/09/2008 19:55      27.0  23.0  29.6  27.0  79  1013   ---   ---     0     0   ---   --- /
12/09/2008 06:55      24.0  15.0  24.8  22.5  57  1011   ---   NNE     8     8   ---   --- /
12/09/2008 07:55      25.0  15.0  25.7  25.0  54  1010   ---   NNE     5     5   ---   --- /
12/09/2008 08:55      27.0  18.0  27.9  27.0  58  1011   ---    SE     5     5   ---   --- /
12/09/2008 10:55      30.0  19.0  31.3  30.0  52  1011   ---     E     3     3   ---   --- /
12/09/2008 11:55      32.0  18.0  32.9  32.0  43  1011   ---     E     5     5   ----3274--- Scattered Clouds/
12/09/2008 12:55      32.0  20.0  34.2  31.8  49  1011   ---     E     8     8   ----3274--- Scattered Clouds/
12/09/2008 13:55      32.0  21.0  34.9  31.8  52  1011   ---   NNE     8     8   ----3274--- Scattered Clouds/
12/09/2008 14:55      31.0  22.0  34.6  31.0  59  1011   ---     E     5     5   ----3274--- Scattered Clouds/
12/09/2008 15:55      30.0  21.0  32.6  28.9  59  1011   ---    SE    16    16   ----3274--- Scattered Clouds/
12/09/2008 16:55      29.0  22.0  32.0  28.2  66  1011   ---     E    10    10   ----3274--- Broken Clouds/
12/09/2008 17:55      29.0  21.0  31.4  29.0  62  1010   ---     E     3     3   ----3274--- Broken Clouds/
12/09/2008 18:55      28.0  23.0  31.3  28.0  74  1010   ---     N     0     0   ----3274--- Scattered Clouds/
12/09/2008 19:55      27.0  23.0  29.6  27.0  79  1010   ---   ---     0     0   ---   --- /
13/09/2008 06:55      26.0  14.0  26.3  26.0  48  1010   ---   ---     0     0   ----32741.2 Broken Clouds/
13/09/2008 07:55      28.0  21.0  30.1  25.5  66  1011   ---   WNW    27    58   ---   0.7 Broken Clouds/
13/09/2008 08:55      28.0  18.0  28.9  28.0  55  1011   ---     N     3     3   ----3274--- Broken Clouds/
13/09/2008 10:55      30.0  18.0  30.8  28.9  49  1012   ---    NW    18    18   ---   0.7 Broken Clouds/
13/09/2008 11:55      31.0  17.0  31.4  30.8  43  1012   ---    SW     6     6   ---   0.7 Broken Clouds/
13/09/2008 12:55      33.0  16.0  33.0  33.0  36  1011   ---   ESE     8     8   ---   0.9 Broken Clouds/
13/09/2008 13:55      33.0  21.0  36.1  33.0  49  1010   ---     E    13    13   ----32740.7 Broken Clouds/
13/09/2008 14:55      32.0  17.0  32.4  31.6  41  1010   ---     E    21    40   ----32740.7 Scattered Clouds/
13/09/2008 15:55      30.0  18.0  30.8  28.4  49  1010   ---   WNW    32    60   ---   0.7 Broken Clouds/
13/09/2008 16:55      29.0  19.0  30.3  27.4  55  1011   ---     W    19    43   ---   0.7 Scattered Clouds/
13/09/2008 16:55      29.0  19.0  30.3  27.4  55  1011   ---     W    19    43   ---   0.7 Scattered Clouds/None reported
13/09/2008 17:55      28.0  17.0  28.6  25.8  51  1011   ---   WNW    23    43   ----32741.2 Scattered Clouds/
13/09/2008 18:55      26.0  16.0  26.7  25.4  54  1011   ---   NNW     6     6   ----32741.5 Scattered Clouds/
13/09/2008 19:55      26.0  16.0  26.7  23.5  54  1011   ---   WNW    16    16   ----32741.0 Scattered Clouds/
14/09/2008 06:55      20.0  17.0  22.6  20.0  83  1011   ---     N     0     0   ---   --- Overcast/ Light Rain
14/09/2008 07:55      21.0  17.0  23.2  19.0  78  1011   ---   SSE     8     8   ---   0.7 Broken Clouds/
14/09/2008 07:55      21.0  17.0  23.2  19.0  78  1011   ---   SSE     8     8   ---   0.7 Broken Clouds/None reported
14/09/2008 08:55      20.0  17.0  22.6  15.9  83  1012   ---    NW    14    14   ---   --- Overcast/ Light Rain
14/09/2008 08:55      20.0  17.0  22.6  15.9  83  1012   ---    NW    14    14   ---   --- Overcast/ Light Rain
14/09/2008 08:55      20.0  17.0  22.6  15.9  83  1012   ---    NW    14    14   ---   --- Overcast/ Light Rain
14/09/2008 10:55      21.0  17.0  23.2  19.9  78  1012   ---     N     6     6   ---   --- Overcast/ Light Rain
14/09/2008 10:55      21.0  17.0  23.2  19.9  78  1012   ---     N     6     6   ---   --- Overcast/ Light Rain
14/09/2008 10:55      21.0  17.0  23.2  19.9  78  1012   ---     N     6     6   ---   --- Overcast/ Light Rain
14/09/2008 11:55      20.0  15.0  21.8  18.8  73  1013   ---     N     6     6   ---   0.6 Overcast/
14/09/2008 12:55      19.0  15.0  21.2  14.5  78  1013   ---   NNW    14    14   ---   0.6 Broken Clouds/
14/09/2008 13:55      18.0  15.0  20.5  13.2  83  1013   ---     S    14    14   ---   0.7 Broken Clouds/
14/09/2008 14:55      18.0  15.0  20.5  18.0  83  1012   ---   ENE     5     5   ---   --- Overcast/ Light Rain
14/09/2008 15:55      18.0  15.0  20.5  15.0  83  1011   ---     S    10    10   ---   0.6 Broken Clouds/
14/09/2008 16:55      18.0  15.0  20.5  18.0  83  1010   ---     N     0     0   ---   0.7 Broken Clouds/
14/09/2008 17:55      19.0  15.0  21.2  17.7  78  1011   ---    SW     6     6   ---   0.7 Broken Clouds/
14/09/2008 18:55      20.0  14.0  21.5  17.4  68  1011   ---   WSW    10    10   ---   0.7 Broken Clouds/
14/09/2008 19:55      20.0  14.0  21.5  16.4  68  1010   ---   WSW    13    13   ---   0.7 Broken Clouds/
15/09/2008 06:55      20.0  14.0  21.5  14.6  68  1005   ---   WSW    19    19   ---   0.6 Scattered Clouds/
15/09/2008 07:55      21.0  15.0  22.5  19.0  69  1008   ---     W     8     8   ---   0.6 Scattered Clouds/
15/09/2008 08:55      22.0  16.0  23.6  19.8  69  1008   ---   WSW    10    10   ---   0.5 Broken Clouds/
15/09/2008 10:55      20.0  16.0  22.2  17.4  78  1009   ---   SSW    10    10   ---   0.6 Broken Clouds/
15/09/2008 11:55      23.0  18.0  24.9  22.1  73  1010   ---     W     6     6   ---   0.6 Broken Clouds/
15/09/2008 12:55      23.0  17.0  24.6  19.2  69  1010   ---     W    18    18   ---   0.6 Broken Clouds/
15/09/2008 13:55      24.0  16.0  25.1  20.1  61  1010   ---   WNW    21    21   ---   0.7 Scattered Clouds/
15/09/2008 15:55      24.0  16.0  25.1  22.2  61  1010   ---   WNW    10    10   ---   0.7 Scattered Clouds/
15/09/2008 16:55      24.0  15.0  24.8  20.3  57  1009   ---   WNW    19    19   ---   0.7 Scattered Clouds/
15/09/2008 17:55      24.0  15.0  24.8  20.3  57  1010   ---     W    19    19   ---   0.7 Scattered Clouds/
15/09/2008 19:55      22.0  14.0  23.0  18.5  61  1010   ---     W    14    14   ---   0.6 Scattered Clouds/
16/09/2008 06:55      21.0  11.0  21.6  14.8  53  1008   ---     W    31    56   ---   0.7 Scattered Clouds/
16/09/2008 07:55      21.0  12.0  21.8  16.5  56  1009   ---     W    18    18   ---   0.7 Scattered Clouds/
16/09/2008 08:55      22.0  13.0  22.8  22.0  57  1009   ---    SW     3     3   ---   0.7 Scattered Clouds/
16/09/2008 10:55      23.0  13.0  23.6  19.8  53  1010   ---   WNW    14    14   ---   0.9 Broken Clouds/
16/09/2008 11:55      24.0  13.0  24.5  22.2  50  1010   ---    NW    10    29   ---   0.9 Broken Clouds/
16/09/2008 12:55      24.0  13.0  24.5  20.3  50  1010   ---    NW    19    19   ---   0.9 Scattered Clouds/
16/09/2008 13:55      24.0  15.0  24.8  20.1  57  1010   ---   WNW    21    21   ---   0.9 Broken Clouds/
16/09/2008 14:55      25.0  15.0  25.7  21.6  54  1010   ---   WNW    21    21   ---   0.9 Scattered Clouds/
16/09/2008 15:55      25.0  14.0  25.5  21.4  51  1010   ---    NW    23    43   ---   0.8 Scattered Clouds/
16/09/2008 16:55      24.0  14.0  24.6  20.0  54  1010   ---   WNW    23    23   ---   0.8 Scattered Clouds/
16/09/2008 17:55      23.0  13.0  23.6  19.4  53  1010   ---   WNW    16    16   ---   0.8 Scattered Clouds/
16/09/2008 18:55      22.0  13.0  22.8  18.5  57  1011   ---   WNW    14    14   ---   0.8 Scattered Clouds/
16/09/2008 19:55      21.0  13.0  22.0  18.6  60  1011   ---     W    10    10   ---   0.8 Scattered Clouds/
17/09/2008 06:55      20.0  15.0  21.8  18.8  73  1013   ---    SW     6     6   ---   0.7 Broken Clouds/
17/09/2008 07:55      20.0  16.0  22.2  20.0  78  1013   ---     W     5     5   ---   0.7 Broken Clouds/
17/09/2008 08:55      22.0  15.0  23.3  20.2  65  1013   ---   WNW     8     8   ---   0.7 Broken Clouds/
17/09/2008 10:55      22.0  13.0  22.8  17.9  57  1015   ---   WNW    18    18   ---   0.7 Broken Clouds/
17/09/2008 11:55      23.0  12.0  23.4  19.2  50  1015   ---    NW    18    18   ---   0.7 Broken Clouds/
17/09/2008 12:55      25.0  13.0  25.3  22.1  47  1016   ---    NW    16    16   ---   0.7 Scattered Clouds/
17/09/2008 13:55      24.0  13.0  24.5  21.1  50  1016   ---   NNW    14    14   ---   0.7 Scattered Clouds/
17/09/2008 14:55      24.0  12.0  24.3  20.8  47  1016   ---    NW    16    16   ---   0.7 Scattered Clouds/
17/09/2008 15:55      24.0  12.0  24.3  20.3  47  1016   ---    NW    19    19   ---   0.8 Scattered Clouds/
17/09/2008 16:55      24.0  12.0  24.3  20.6  47  1016   ---    NW    18    18   ---   0.7 Scattered Clouds/
17/09/2008 17:55      22.0  12.0  22.6  19.8  53  1016   ---   NNW    10    10   ---   0.8 Scattered Clouds/
17/09/2008 18:55      21.0  13.0  22.0  19.9  60  1016   ---     N     6     6   ---   0.7 Scattered Clouds/
17/09/2008 19:55      21.0  14.0  22.3  17.7  64  1016   ---   ENE    13    13   ---   0.7 Scattered Clouds/
18/09/2008 06:55      18.0  14.0  20.2  16.6  77  1018   ---    SW     6     6   ----3274--- Few Clouds/
18/09/2008 07:55      19.0  14.0  20.8  19.0  73  1019   ---    SW     5     5   ---   0.6 Few Clouds/
18/09/2008 08:55      21.0  14.0  22.3  21.0  64  1019   ---     N     0     0   ---   0.6 Few Clouds/
18/09/2008 10:55      23.0  12.0  23.4  22.1  50  1019   ---     E     6     6   ---   0.7 Scattered Clouds/
18/09/2008 11:55      24.0  13.0  24.5  21.5  50  1020   ---     E    13    13   ---   0.7 Scattered Clouds/
18/09/2008 12:55      24.0  13.0  24.5  21.5  50  1020   ---   ENE    13    13   ---   0.7 Scattered Clouds/
18/09/2008 13:55      24.0  13.0  24.5  21.5  50  1019   ---   ENE    13    13   ---   0.7 Scattered Clouds/
18/09/2008 14:55      24.0  15.0  24.8  20.8  57  1019   ---     E    16    16   ---   0.7 Scattered Clouds/
18/09/2008 15:55      24.0  12.0  24.3  21.5  47  1018   ---   ENE    13    13   ---   0.7 Few Clouds/
18/09/2008 16:55      24.0  12.0  24.3  22.5  47  1018   ---     E     8     8   ----3274--- Scattered Clouds/
18/09/2008 17:55      23.0  13.0  23.6  21.0  53  1018   ---   ESE    10    10   ----3274--- Scattered Clouds/
18/09/2008 18:55      22.0  14.0  23.0  22.0  61  1018   ---     E     5     5   ----3274--- Scattered Clouds/
18/09/2008 19:55      21.0  13.0  22.0  19.9  60  1018   ---   ESE     6     6   ----3274--- Scattered Clouds/
19/09/2008 06:55      18.0  14.0  20.2  15.5  77  1017   ---    SW     8     8   ----3274--- Scattered Clouds/
19/09/2008 07:55      18.0  15.0  20.5  16.6  83  1017   ---    SW     6     6   ---   0.7 Broken Clouds/
19/09/2008 08:55      20.0  15.0  21.8  20.0  73  1017   ---     N     0     0   ----3274--- Scattered Clouds/
19/09/2008 10:55      23.0  15.0  24.1  23.0  61  1017   ---   ---     0     0   ---   0.7 Broken Clouds/
19/09/2008 11:55      24.0  16.0  25.1  23.2  61  1017   ---     E     6     6   ---   0.7 Broken Clouds/
19/09/2008 12:55      25.0  16.0  25.9  24.3  57  1017   ---   ENE     6     6   ----3274--- Broken Clouds/
19/09/2008 13:55      25.0  17.0  26.1  23.7  61  1016   ---   ENE     8     8   ---   0.7 Broken Clouds/
19/09/2008 14:55      24.0  17.0  25.3  23.2  65  1016   ---     E     6     6   ---   0.7 Broken Clouds/
19/09/2008 15:55      23.0  16.0  24.3  23.0  65  1015   ---     N     0     0   ---   0.7 Broken Clouds/
19/09/2008 16:55      23.0  17.0  24.6  23.0  69  1014   ---     E     5     5   ---   0.7 Broken Clouds/
19/09/2008 16:55      23.0  17.0  24.6  23.0  69  1014   ---     E     5     5   ---   0.7 Broken Clouds/None reported
19/09/2008 18:55      22.0  17.0  23.9  22.0  73  1014   ---     N     0     0   ---   0.7 Broken Clouds/
19/09/2008 19:55      22.0  17.0  23.9  18.9  73  1013   ---   WSW    13    13   ---   0.7 Broken Clouds/
20/09/2008 06:55      20.0  15.0  21.8  17.8  73  1011   ---    NW     8     8   ---   0.7 Broken Clouds/
20/09/2008 07:55      19.0  17.0  22.0  19.0  88  1011   ---   NNW     3     3   ---   --- Overcast/ Light Rain
20/09/2008 08:55      18.0  16.0  21.0  18.0  88  1012   ---    NW     5     5   ---   --- Overcast/ Light Rain
20/09/2008 10:55      20.0  15.0  21.8  17.8  73  1013   ---   NNE     8     8   ---   0.7 Broken Clouds/
20/09/2008 11:55      21.0  13.0  22.0  18.6  60  1014   ---   NNE    10    10   ---   0.7 Broken Clouds/
20/09/2008 12:55      21.0  13.0  22.0  19.0  60  1014   ---   NNE     8    29   ---   0.8 Broken Clouds/
20/09/2008 13:55      22.0  12.0  22.6  19.8  53  1014   ---   NNE    10    37   ---   0.9 Broken Clouds/
20/09/2008 14:55      22.0  12.0  22.6  20.2  53  1014   ---     N     8     8   ---   0.9 Scattered Clouds/
20/09/2008 15:55      22.0  11.0  22.4  21.0  50  1014   ---     N     6     6   ---   0.9 Scattered Clouds/
20/09/2008 16:55      21.0  10.0  21.4  19.9  49  1014   ---     N     6     6   ---   0.9 Broken Clouds/
20/09/2008 17:55      20.0   9.0  20.4  18.8  49  1014   ---     N     6     6   ---   1.2 Scattered Clouds/
20/09/2008 18:55      20.0  10.0  20.6  18.8  53  1015   ---   NNE     6     6   ----32740.6 Broken Clouds/
20/09/2008 19:55      20.0   9.0  20.4  20.0  49  1015   ---   NNE     5     5   ---   0.7 Broken Clouds/
21/09/2008 06:55      16.0  14.0  19.0  16.0  88  1012   ---     W     3     3   ---   0.7 Broken Clouds/
21/09/2008 07:55      16.0  15.0  19.5  16.0  94  1013   ---     N     0     0   ---   0.7 Broken Clouds/
21/09/2008 08:55      17.0  15.0  20.0  17.0  88  1013   ---   ---     0     0   ---   0.7 Broken Clouds/
21/09/2008 10:55      21.0  13.0  22.0  21.0  60  1014   ---     E     3     3   ---   0.7 Broken Clouds/
21/09/2008 11:55      21.0  13.0  22.0  21.0  60  1014   ---     E     5     5   ---   0.7 Overcast/
21/09/2008 12:55      21.0  13.0  22.0  19.9  60  1014   ---     E     6     6   ---   0.7 Overcast/
21/09/2008 13:55      21.0  13.0  22.0  21.0  60  1013   ---     E     5     5   ---   0.7 Broken Clouds/
21/09/2008 14:55      21.0  13.0  22.0  19.0  60  1012   ---   ENE     8     8   ---   0.7 Broken Clouds/
21/09/2008 15:55      21.0  14.0  22.3  21.0  64  1012   ---     E     5     5   ---   0.7 Scattered Clouds/
21/09/2008 16:55      22.0  13.0  22.8  18.5  57  1012   ---    NW    14    14   ---   0.7 Scattered Clouds/
21/09/2008 17:55      21.0  11.0  21.6  16.5  53  1012   ---   WNW    18    18   ---   0.7 Scattered Clouds/
21/09/2008 18:55      19.0   9.0  19.6  16.2  52  1012   ---     W    10    10   ---   0.7 Few Clouds/
21/09/2008 19:55      19.0   9.0  19.6  16.7  52  1012   ---     W     8     8   ---   --- /
22/09/2008 06:55      17.0  14.0  19.5  15.5  83  1010   ---    SW     6     6   ---   0.8 Scattered Clouds/
22/09/2008 07:55      17.0  14.0  19.5  17.0  83  1010   ---     N     0     0   ---   0.8 Scattered Clouds/
22/09/2008 08:55      20.0  14.0  21.5  20.0  68  1011   ---   ---     0     0   ---   0.8 Few Clouds/
22/09/2008 08:55      20.0  14.0  21.5  20.0  68  1011   ---   ---     0     0   ---   0.8 Few Clouds/None reported
22/09/2008 10:55      22.0  14.0  23.0  18.9  61  1011   ---     W    13    13   ---   --- Overcast/ Light Rain
22/09/2008 11:55      19.0  13.0  20.5  16.2  68  1011   ---    SW    10    10   ---   0.7 Broken Clouds/
22/09/2008 12:55      19.0  15.0  21.2  17.7  78  1012   ---     N     6     6   ---   --- Overcast/ Light Rain
22/09/2008 13:55      21.0  15.0  22.5  17.2  69  1011   ---   WNW    14    14   ---   0.7 Scattered Clouds/
22/09/2008 14:55      22.0  13.0  22.8  17.9  57  1010   ---    NW    18    18   ---   0.7 Scattered Clouds/
22/09/2008 15:55      23.0  14.0  23.8  20.2  57  1010   ---    NW    13    13   ---   0.7 Scattered Clouds/
22/09/2008 16:55      22.0  14.0  23.0  18.1  61  1010   ---    NW    16    16   ---   0.7 Scattered Clouds/
22/09/2008 17:55      21.0  13.0  22.0  19.0  60  1010   ---    NW     8     8   ---   0.7 Few Clouds/
22/09/2008 18:55      20.0  12.0  21.0  20.0  60  1010   ---    NW     5     5   ---   0.7 Few Clouds/
22/09/2008 19:55      19.0  13.0  20.5  19.0  68  1011   ---     N     0     0   ---   --- /
23/09/2008 06:55      18.0  14.0  20.2  16.6  77  1010   ---    SW     6     6   ---   0.7 Broken Clouds/
23/09/2008 07:55      18.0  13.0  19.8  18.0  73  1010   ---     N     0     0   ---   0.7 Broken Clouds/
23/09/2008 08:55      20.0  15.0  21.8  20.0  73  1010   ---   ---     0     0   ---   0.7 Broken Clouds/
23/09/2008 10:55      23.0  13.0  23.6  22.1  53  1010   ---   ENE     6     6   ---   0.7 Broken Clouds/
23/09/2008 11:55      23.0  12.0  23.4  22.1  50  1009   ---    NE     6     6   ---   0.7 Broken Clouds/
23/09/2008 12:55      23.0  12.0  23.4  23.0  50  1009   ---     N     0     0   ---   0.7 Overcast/
23/09/2008 13:55      20.0  14.0  21.5  17.4  68  1010   ---   WSW    10    10   ---   --- Overcast/ Light Rain
23/09/2008 14:55      19.0  14.0  20.8  17.7  73  1010   ---   SSW     6     6   ---   0.7 Broken Clouds/
23/09/2008 15:55      20.0  13.0  21.3  20.0  64  1009   ---   SSE     5     5   ---   0.7 Broken Clouds/
23/09/2008 16:55      20.0  13.0  21.3  20.0  64  1009   ---     N     0     0   ---   0.7 Broken Clouds/
23/09/2008 17:55      20.0  14.0  21.5  20.0  68  1008   ---   ---     0     0   ---   0.7 Broken Clouds/
23/09/2008 18:55      19.0  14.0  20.8  19.0  73  1008   ---   ---     0     0   ---   --- Overcast/ Light Rain
23/09/2008 19:55      18.0  16.0  21.0  18.0  88  1008   ---   ---     0     0   ---   --- Overcast/ Light Rain
24/09/2008 06:55      17.0  15.0  20.0  17.0  88  1008   ---   ---     0     0   ---   0.7 Scattered Clouds/
24/09/2008 07:55      18.0  16.0  21.0  18.0  88  1008   ---   ---     0     0   ---   0.6 Broken Clouds/
24/09/2008 08:55      19.0  17.0  22.0  19.0  88  1008   ---   ---     0     0   ---   0.7 Broken Clouds/
24/09/2008 10:55      20.0  17.0  22.6  14.4  83  1009   ---   WNW    21    21   ---   --- Overcast/ Rain
24/09/2008 11:55      19.0  17.0  22.0  15.1  88  1010   ---     S    13    13   ---   0.7 Broken Clouds/
24/09/2008 12:55      20.0  18.0  23.0  20.0  88  1010   ---   WNW     3     3   ---   0.7 Broken Clouds/
24/09/2008 13:55      21.0  18.0  23.6  21.0  83  1010   ---     N     0     0   ---   0.6 Scattered Clouds/
24/09/2008 14:55      22.0  18.0  24.2  21.0  78  1009   ---     E     6     6   ---   0.6 Broken Clouds/
24/09/2008 15:55      23.0  17.0  24.6  19.2  69  1009   ---    NW    18    18   ---   0.6 Scattered Clouds/
24/09/2008 16:55      23.0  17.0  24.6  21.0  69  1010   ---    NW    10    10   ---   0.6 Broken Clouds/
24/09/2008 17:55      21.0  17.0  23.2  21.0  78  1010   ---     N     5     5   ---   0.6 Broken Clouds/
24/09/2008 18:55      21.0  17.0  23.2  21.0  78  1010   ---     N     0     0   ---   --- Overcast/ Light Rain
24/09/2008 19:55      20.0  17.0  22.6  20.0  83  1011   ---   WNW     3     3   ---   0.6 Broken Clouds/
25/09/2008 07:55      17.0  15.0  20.0  17.0  88  1012   ---     N     0     0   ---   0.6 Broken Clouds/
25/09/2008 08:55      18.0  16.0  21.0  18.0  88  1013   ---   ---     0     0   ---   0.7 Broken Clouds/
25/09/2008 10:55      21.0  16.0  22.9  18.6  73  1013   ---   WNW    10    10   ---   0.6 Broken Clouds/
25/09/2008 11:55      21.0  17.0  23.2  19.9  78  1013   ---   NNW     6     6   ---   0.7 Scattered Clouds/
25/09/2008 12:55      21.0  18.0  23.6  19.0  83  1014   ---     N     8     8   ---   0.6 Scattered Clouds/
25/09/2008 13:55      22.0  16.0  23.6  18.5  69  1014   ---   WNW    14    14   ---   0.7 Scattered Clouds/
25/09/2008 15:55      23.0  12.0  23.4  20.2  50  1014   ---   WNW    13    13   ---   0.7 Few Clouds/
25/09/2008 16:55      23.0  13.0  23.6  20.2  53  1014   ---   WNW    13    13   ---   0.7 Scattered Clouds/
25/09/2008 17:55      21.0  14.0  22.3  19.0  64  1014   ---     W     8     8   ---   0.7 Broken Clouds/
25/09/2008 18:55      20.0  15.0  21.8  20.0  73  1015   ---   WSW     5     5   ---   0.7 Broken Clouds/
25/09/2008 19:55      19.0  15.0  21.2  16.7  78  1015   ---     W     8     8   ---   0.7 Broken Clouds/
26/09/2008 06:55      18.0  12.0  19.5  18.0  68  1016   ---     N     0     0   ---   0.7 Scattered Clouds/
26/09/2008 07:55      18.0  12.0  19.5  18.0  68  1016   ---   WNW     5     5   ---   0.7 Scattered Clouds/
26/09/2008 08:55      20.0  13.0  21.3  17.4  64  1016   ---     W    10    10   ---   0.7 Scattered Clouds/
26/09/2008 10:55      20.0  13.0  21.3  17.4  64  1017   ---   WSW    10    10   ---   0.7 Broken Clouds/
26/09/2008 11:55      20.0  14.0  21.5  17.8  68  1017   ---     N     8     8   ---   0.7 Broken Clouds/
26/09/2008 12:55      22.0  13.0  22.8  18.1  57  1017   ---    NW    16    16   ---   0.7 Broken Clouds/
26/09/2008 13:55      22.0  13.0  22.8  18.1  57  1017   ---    NW    16    16   ---   0.7 Broken Clouds/
26/09/2008 14:55      21.0  13.0  22.0  17.7  60  1017   ---    NW    13    13   ---   0.7 Broken Clouds/
26/09/2008 15:55      22.0  13.0  22.8  18.5  57  1017   ---   WNW    14    40   ---   0.7 Broken Clouds/
26/09/2008 16:55      21.0  12.0  21.8  17.7  56  1017   ---   WNW    13    13   ---   0.7 Broken Clouds/
26/09/2008 17:55      20.0  11.0  20.8  15.3  56  1017   ---     W    16    16   ---   0.7 Scattered Clouds/
26/09/2008 18:55      19.0  11.0  20.0  17.7  60  1017   ---     W     6     6   ---   0.7 Few Clouds/
26/09/2008 19:55      19.0  10.0  19.8  16.2  56  1018   ---     W    10    10   ---   0.7 Few Clouds/
27/09/2008 06:55      16.0  12.0  18.1  16.0  77  1017   ---     N     0     0   ---   0.7 Broken Clouds/
27/09/2008 07:55      16.0  13.0  18.5  16.0  82  1018   ---   ---     0     0   ---   0.7 Scattered Clouds/
27/09/2008 08:55      18.0  14.0  20.2  18.0  77  1018   ---   ---     0     0   ---   0.7 Broken Clouds/
27/09/2008 10:55      21.0  12.0  21.8  21.0  56  1018   ---     N     5     5   ---   0.7 Scattered Clouds/
27/09/2008 11:55      21.0  12.0  21.8  21.0  56  1018   ---     N     0     0   ---   0.7 Broken Clouds/
27/09/2008 12:55      22.0  12.0  22.6  20.2  53  1019   ---     N     8     8   ---   0.7 Broken Clouds/
27/09/2008 13:55      22.0  10.0  22.3  22.0  46  1018   ---   NNE     5     5   ---   0.7 Broken Clouds/
27/09/2008 14:55      22.0  11.0  22.4  22.0  50  1018   ---   ENE     5     5   ---   0.7 Broken Clouds/
27/09/2008 15:55      21.0  11.0  21.6  19.9  53  1018   ---   NNE     6     6   ---   0.7 Broken Clouds/
27/09/2008 16:55      21.0  10.0  21.4  21.0  49  1018   ---   NNE     5     5   ---   0.7 Broken Clouds/
27/09/2008 17:55      20.0  11.0  20.8  20.0  56  1018   ---     N     0     0   ---   0.7 Broken Clouds/
27/09/2008 18:55      20.0  12.0  21.0  20.0  60  1018   ---   ---     0     0   ---   0.7 Broken Clouds/
27/09/2008 19:55      18.0  12.0  19.5  18.0  68  1018   ---   WSW     5     5   ---   0.7 Scattered Clouds/
28/09/2008 06:55      16.0  12.0  18.1  14.4  77  1018   ---    SW     6     6   ---   --- /
28/09/2008 07:55      17.0  13.0  19.2  17.0  77  1018   ---    SW     3     3   ---   0.6 Few Clouds/
28/09/2008 08:55      19.0  14.0  20.8  19.0  73  1018   ---    SW     3     3   ---   0.6 Few Clouds/
28/09/2008 10:55      22.0  12.0  22.6  21.0  53  1019   ---    NE     6     6   ---   0.7 Scattered Clouds/
28/09/2008 11:55      22.0  13.0  22.8  21.0  57  1019   ---     N     6     6   ---   0.6 Broken Clouds/
28/09/2008 12:55      21.0  12.0  21.8  19.0  56  1019   ---    NE     8     8   ---   0.6 Broken Clouds/
28/09/2008 13:55      22.0  12.0  22.6  21.0  53  1019   ---    NE     6     6   ---   0.6 Broken Clouds/
28/09/2008 14:55      23.0  13.0  23.6  22.1  53  1019   ---   NNE     6     6   ---   0.7 Scattered Clouds/
28/09/2008 15:55      21.0  12.0  21.8  19.9  56  1019   ---     N     6     6   ---   0.7 Scattered Clouds/
28/09/2008 16:55      21.0  12.0  21.8  19.9  56  1019   ---   NNE     6     6   ---   0.7 Scattered Clouds/
28/09/2008 17:55      21.0  12.0  21.8  21.0  56  1019   ---   NNE     5     5   ---   0.7 Scattered Clouds/
28/09/2008 18:55      20.0  12.0  21.0  20.0  60  1019   ---   NNW     3     3   ---   0.7 Scattered Clouds/
28/09/2008 19:55      19.0  12.0  20.2  19.0  64  1020   ---     W     5     5   ---   0.7 Scattered Clouds/
29/09/2008 06:55      16.0  13.0  18.5  14.4  82  1019   ---    SW     6     6   ---   0.8 Scattered Clouds/
29/09/2008 07:55      16.0  12.0  18.1  16.0  77  1019   ---    SW     5     5   ---   0.8 Broken Clouds/
29/09/2008 08:55      17.0  13.0  19.2  17.0  77  1019   ---     S     5     5   ---   0.8 Broken Clouds/
29/09/2008 10:55      22.0  14.0  23.0  22.0  61  1019   ---    SE     3     3   ---   0.7 Scattered Clouds/
29/09/2008 11:55      22.0  14.0  23.0  20.2  61  1020   ---   WNW     8     8   ---   0.7 Scattered Clouds/
29/09/2008 12:55      23.0  13.0  23.6  21.3  53  1020   ---    NW     8     8   ---   0.7 Scattered Clouds/
29/09/2008 13:55      22.0  13.0  22.8  20.2  57  1019   ---    NW     8     8   ---   0.7 Scattered Clouds/
29/09/2008 14:55      22.0  14.0  23.0  22.0  61  1019   ---     N     5     5   ---   0.7 Broken Clouds/
29/09/2008 15:55      21.0  14.0  22.3  19.0  64  1019   ---    NW     8     8   ---   0.7 Broken Clouds/
29/09/2008 16:55      21.0  13.0  22.0  21.0  60  1019   ---     N     3     3   ---   0.7 Broken Clouds/
29/09/2008 17:55      20.0  15.0  21.8  20.0  73  1014   ---   ESE     3     3   ---   0.7 Broken Clouds/
29/09/2008 18:55      20.0  14.0  21.5  20.0  68  1019   ---     S     3     3   ---   0.7 Scattered Clouds/
29/09/2008 19:55      19.0  15.0  21.2  19.0  78  1019   ---     N     0     0   ---   1.2 Few Clouds/
30/09/2008 06:55      17.0  11.0  18.5  17.0  68  1017   ---    SW     5     5   ---   0.7 Broken Clouds/
30/09/2008 07:55      18.0  11.0  19.2  18.0  64  1017   ---     N     0     0   ---   0.8 Broken Clouds/
30/09/2008 08:55      19.0  12.0  20.2  19.0  64  1017   ---   ---     0     0   ---   0.7 Broken Clouds/
30/09/2008 10:55      22.0  12.0  22.6  22.0  53  1017   ---   ---     0     0   ---   0.7 Broken Clouds/
30/09/2008 11:55      22.0  13.0  22.8  22.0  57  1017   ---   ENE     5     5   ---   0.7 Broken Clouds/
30/09/2008 12:55      23.0  12.0  23.4  23.0  50  1017   ---     N     5     5   ---   0.7 Broken Clouds/
30/09/2008 13:55      23.0  12.0  23.4  22.1  50  1017   ---   NNE     6     6   ---   0.7 Broken Clouds/
30/09/2008 14:55      22.0  14.0  23.0  22.0  61  1016   ---   NNE     5     5   ---   0.7 Broken Clouds/
30/09/2008 15:55      23.0  15.0  24.1  22.1  61  1016   ---    NE     6     6   ---   0.7 Broken Clouds/
30/09/2008 16:55      22.0  15.0  23.3  21.0  65  1015   ---   NNE     6     6   ---   0.7 Broken Clouds/
30/09/2008 16:55      22.0  15.0  23.3  21.0  65  1015   ---   NNE     6     6   ---   0.7 Broken Clouds/None reported
30/09/2008 17:55      22.0  14.0  23.0  21.0  61  1015   ---     E     6     6   ---   0.7 Broken Clouds/
30/09/2008 18:55      21.0  15.0  22.5  21.0  69  1015   ---   ENE     5     5   ---   0.7 Broken Clouds/
30/09/2008 19:55      21.0  16.0  22.9  21.0  73  1015   ---     N     0     0   ---   0.7 Broken Clouds/
01/10/2008 06:55      19.0  13.0  20.5  19.0  68  1014   ---    SW     5     5   ---   1.0 Broken Clouds/
01/10/2008 07:55      19.0  15.0  21.2  19.0  78  1014   ---    SW     5     5   ---   1.0 Broken Clouds/
01/10/2008 08:55      19.0  15.0  21.2  19.0  78  1014   ---     N     0     0   ---   1.0 Scattered Clouds/
01/10/2008 10:55      24.0  14.0  24.6  24.0  54  1015   ---   ENE     5     5   ---   0.6 Scattered Clouds/
01/10/2008 11:55      24.0  14.0  24.6  23.2  54  1015   ---     E     6     6   ---   0.6 Scattered Clouds/
01/10/2008 12:55      24.0  15.0  24.8  23.2  57  1015   ---     E     6     6   ---   0.6 Broken Clouds/
01/10/2008 13:55      24.0  15.0  24.8  24.0  57  1015   ---   ESE     5     5   ---   0.8 Broken Clouds/
01/10/2008 14:55      23.0  15.0  24.1  22.1  61  1014   ---   ESE     6     6   ---   0.8 Broken Clouds/
01/10/2008 15:55      24.0  15.0  24.8  22.5  57  1014   ---     E     8     8   ---   0.8 Broken Clouds/
01/10/2008 16:55      24.0  16.0  25.1  23.2  61  1014   ---     E     6     6   ---   0.7 Scattered Clouds/
01/10/2008 17:55      23.0  16.0  24.3  23.0  65  1014   ---     E     5     5   ---   0.7 Broken Clouds/
01/10/2008 18:55      22.0  17.0  23.9  22.0  73  1014   ---     E     3     3   ---   0.7 Broken Clouds/
01/10/2008 19:55      22.0  16.0  23.6  22.0  69  1014   ---     N     0     0   ---   0.7 Broken Clouds/
01/10/2008 18:55      22.0  17.0  23.9  22.0  73  1014   ---     E     3     3   ---   0.7 Broken Clouds/
01/10/2008 19:55      22.0  16.0  23.6  22.0  69  1014   ---     N     0     0   ---   0.7 Broken Clouds/
02/10/2008 06:55      19.0  15.0  21.2  17.7  78  1013   ---    SW     6     6   ----32740.4 Few Clouds/
02/10/2008 07:55      19.0  15.0  21.2  16.7  78  1012   ---   ENE     8     8   ---   0.9 Few Clouds/
02/10/2008 08:55      21.0  17.0  23.2  21.0  78  1012   ---     N     0     0   ---   0.7 Few Clouds/
02/10/2008 10:55      25.0  17.0  26.1  25.0  61  1013   ---   ---     0     0   ---   0.7 Scattered Clouds/
02/10/2008 11:55      24.0  17.0  25.3  22.5  65  1013   ---   ESE     8     8   ---   0.7 Scattered Clouds/
02/10/2008 12:55      24.0  17.0  25.3  22.2  65  1013   ---   ESE    10    10   ---   0.7 Scattered Clouds/
02/10/2008 14:55      24.0  18.0  25.6  20.6  69  1012   ---    NW    18    18   ---   0.7 Scattered Clouds/
02/10/2008 15:55      23.0  17.0  24.6  18.5  69  1012   ---   WNW    23    23   ---   0.7 Scattered Clouds/
02/10/2008 16:55      23.0  15.0  24.1  18.2  61  1012   ---   WNW    26    43   ---   0.8 Scattered Clouds/
02/10/2008 17:55      22.0  16.0  23.6  18.9  69  1012   ---    NW    13    13   ---   0.8 Scattered Clouds/
02/10/2008 18:55      21.0  15.0  22.5  16.7  69  1012   ---   WNW    16    16   ---   0.9 Scattered Clouds/
02/10/2008 19:55      21.0  15.0  22.5  18.6  69  1013   ---   WNW    10    10   ---   0.9 Scattered Clouds/
02/10/2008 16:55      23.0  15.0  24.1  18.2  61  1012   ---   WNW    26    43   ---   0.8 Scattered Clouds/
03/10/2008 06:55      19.0  16.0  21.6  16.2  83  1012   ---     S    10    10   ---   0.7 Broken Clouds/
03/10/2008 07:55      20.0  16.0  22.2  20.0  78  1012   ---    SW     5     5   ---   0.7 Broken Clouds/
03/10/2008 08:55      20.0  16.0  22.2  17.4  78  1012   ---   SSW    10    10   ---   0.7 Broken Clouds/
03/10/2008 10:55      23.0  16.0  24.3  22.1  65  1013   ---    SW     6     6   ---   0.7 Scattered Clouds/
03/10/2008 11:55      25.0  15.0  25.7  23.7  54  1013   ---   WNW     8     8   ---   0.7 Scattered Clouds/
03/10/2008 12:55      26.0  15.0  26.5  23.5  51  1013   ---     W    16    34   ---   0.7 Scattered Clouds/
03/10/2008 13:55      26.0  14.0  26.3  23.0  48  1012   ---     W    21    21   ---   0.7 Scattered Clouds/
03/10/2008 14:55      27.0  14.0  27.1  25.3  45  1012   ---   WNW    13    13   ---   0.7 Scattered Clouds/
03/10/2008 15:55      27.0  13.0  27.0  25.8  42  1012   ---   WSW    10    10   ---   0.8 Scattered Clouds/
03/10/2008 16:55      25.0  14.0  25.5  23.7  51  1012   ---    SW     8     8   ---   0.8 Scattered Clouds/
03/10/2008 17:55      24.0  13.0  24.5  22.5  50  1011   ---    SW     8     8   ---   0.8 Few Clouds/
03/10/2008 18:55      23.0  15.0  24.1  22.1  61  1012   ---   SSW     6     6   ---   0.8 Few Clouds/
03/10/2008 19:55      22.0  16.0  23.6  21.0  69  1012   ---     S     6     6   ----3274--- Few Clouds/
03/10/2008 18:55      23.0  15.0  24.1  22.1  61  1012   ---   SSW     6     6   ---   0.8 Few Clouds/
04/10/2008 06:55      18.0  16.0  21.0  15.5  88  1012   ---    SW     8     8   ---   0.7 Broken Clouds/
04/10/2008 07:55      18.0  16.0  21.0  18.0  88  1012   ---   WSW     5     5   ---   0.7 Broken Clouds/
04/10/2008 08:55      18.0  16.0  21.0  13.2  88  1013   ---   WNW    14    14   ---   0.6 Broken Clouds/
04/10/2008 10:55      18.0  15.0  20.5  12.6  83  1015   ---   WNW    16    16   ---   0.7 Broken Clouds/
04/10/2008 11:55      20.0  11.0  20.8  14.2  56  1015   ---   WNW    23    23   ---   0.7 Broken Clouds/
04/10/2008 12:55      20.0  11.0  20.8  15.1  56  1015   ---   WNW    18    18   ---   0.7 Broken Clouds/
04/10/2008 13:55      20.0   8.0  20.2  13.8  46  1015   ---   WNW    26    55   ---   0.7 Broken Clouds/
04/10/2008 13:55      20.0   8.0  20.2  13.8  46  1015   ---   WNW    26    55   ---   0.7 Broken Clouds/None reported
04/10/2008 14:55      20.0   9.0  20.4  14.2  49  1015   ---   WNW    23    50   ---   0.7 Broken Clouds/
04/10/2008 14:55      20.0   9.0  20.4  14.2  49  1015   ---   WNW    23    50   ---   0.7 Broken Clouds/None reported
04/10/2008 15:55      20.0   8.0  20.2  14.2  46  1015   ---   WNW    23    23   ---   0.7 Broken Clouds/
04/10/2008 16:55      17.0  11.0  18.5  11.9  68  1016   ---   WSW    14    14   ---   --- Overcast/ Light Rain
04/10/2008 17:55      17.0  10.0  18.2  10.4  63  1016   ---   WNW    19    42   ---   0.7 Broken Clouds/
04/10/2008 18:55      17.0   7.0  17.5  11.0  52  1016   ---   WNW    18    45   ---   0.7 Broken Clouds/
04/10/2008 19:55      18.0   4.0  17.9  10.6  39  1016   ---   WNW    27    53   ---   0.7 Broken Clouds/
05/10/2008 06:55      16.0   9.0  17.2  14.4  63  1020   ---   NNE     6     6   ---   0.7 Few Clouds/
05/10/2008 07:55      16.0   9.0  17.2  16.0  63  1020   ---   WSW     5     5   ---   0.7 Scattered Clouds/
05/10/2008 08:55      19.0  10.0  19.8  16.2  56  1021   ---     W    10    10   ---   0.7 Scattered Clouds/
05/10/2008 10:55      20.0   9.0  20.4  15.1  49  1022   ---   WNW    18    18   ---   0.7 Scattered Clouds/
05/10/2008 11:55      20.0   9.0  20.4  15.9  49  1022   ---    NW    14    14   ---   0.7 Scattered Clouds/
05/10/2008 13:55      21.0  10.0  21.4  19.9  49  1022   ---    NE     6     6   ---   0.7 Scattered Clouds/
05/10/2008 14:55      20.0  10.0  20.6  16.4  53  1021   ---   NNW    13    13   ---   0.7 Scattered Clouds/
05/10/2008 15:55      20.0  11.0  20.8  17.4  56  1021   ---   NNW    10    10   ---   0.7 Broken Clouds/
05/10/2008 16:55      19.0  12.0  20.2  17.7  64  1021   ---   NNW     6     6   ---   0.8 Broken Clouds/
05/10/2008 17:55      19.0  12.0  20.2  19.0  64  1021   ---    NW     5     5   ---   0.8 Broken Clouds/
05/10/2008 18:55      19.0  12.0  20.2  14.5  64  1021   ---    NW    14    14   ---   0.8 Broken Clouds/
05/10/2008 19:55      18.0  12.0  19.5  15.5  68  1021   ---   WNW     8     8   ---   0.8 Broken Clouds/
06/10/2008 06:55      15.0  10.0  16.8  15.0  72  1022   ---    SW     5     5   ---   --- /
06/10/2008 07:55      15.0  11.0  17.1  15.0  77  1022   ---    SW     3     3   ---   --- /
06/10/2008 08:55      17.0  12.0  18.8  17.0  72  1023   ---     N     0     0   ---   --- /
06/10/2008 10:55      21.0  11.0  21.6  21.0  53  1023   ---    NE     5     5   ---   --- /
06/10/2008 11:55      22.0  11.0  22.4  22.0  50  1023   ---    NE     3     3   ---   --- /
06/10/2008 12:55      22.0  11.0  22.4  19.8  50  1023   ---     E    10    10   ---   --- /
06/10/2008 13:55      22.0  11.0  22.4  18.9  50  1023   ---     E    13    13   ---   --- /
06/10/2008 14:55      22.0  12.0  22.6  19.8  53  1023   ---     E    10    10   ---   --- /
06/10/2008 15:55      22.0  12.0  22.6  18.9  53  1023   ---     E    13    13   ---   --- /
06/10/2008 16:55      21.0  12.0  21.8  18.6  56  1022   ---     E    10    10   ---   --- /
06/10/2008 17:55      20.0  13.0  21.3  18.8  64  1022   ---     E     6     6   ---   --- /
06/10/2008 18:55      19.0  13.0  20.5  19.0  68  1022   ---     N     0     0   ---   --- /
06/10/2008 19:55      18.0  13.0  19.8  18.0  73  1022   ---   SSW     5     5   ---   --- /
06/10/2008 14:55      22.0  12.0  22.6  19.8  53  1023   ---     E    10    10   ---   --- /
07/10/2008 06:55      15.0  12.0  17.5  13.3  82  1021   ---    SW     6     6   ---   --- /
07/10/2008 07:55      15.0  12.0  17.5  13.3  82  1021   ---    SW     6     6   ---   --- /
07/10/2008 08:55      18.0  13.0  19.8  18.0  73  1021   ---     N     0     0   ---   --- /
07/10/2008 10:55      21.0  12.0  21.8  19.9  56  1021   ---   ENE     6     6   ---   --- /
07/10/2008 11:55      22.0  13.0  22.8  21.0  57  1021   ---   ENE     6     6   ---   --- /
07/10/2008 12:55      22.0  13.0  22.8  18.9  57  1021   ---   ENE    13    13   ---   --- /
07/10/2008 13:55      23.0  13.0  23.6  20.2  53  1020   ---   ENE    13    13   ---   --- /
07/10/2008 14:55      23.0  14.0  23.8  21.0  57  1020   ---     E    10    10   ---   --- /
07/10/2008 15:55      22.0  15.0  23.3  19.8  65  1020   ---     E    10    10   ---   --- /
07/10/2008 16:55      22.0  15.0  23.3  19.8  65  1019   ---     E    10    10   ---   --- /
07/10/2008 17:55      21.0  15.0  22.5  19.0  69  1019   ---     E     8     8   ---   --- /
07/10/2008 18:55      20.0  15.0  21.8  20.0  73  1019   ---     E     3     3   ---   0.7 Few Clouds/
07/10/2008 19:55      19.0  16.0  21.6  19.0  83  1019   ---     N     0     0   ---   0.7 Few Clouds/
08/10/2008 06:55      16.0  12.0  18.1  14.4  77  1018   ---    SW     6     6   ----32740.9 Scattered Clouds/
08/10/2008 07:55      17.0  12.0  18.8  14.3  72  1018   ---    SW     8     8   ---   --- /
08/10/2008 08:55      19.0  14.0  20.8  17.7  73  1018   ---   SSW     6     6   ----32740.9 Scattered Clouds/
08/10/2008 10:55      23.0  15.0  24.1  23.0  61  1019   ---     N     0     0   ---   0.8 Few Clouds/
08/10/2008 11:55      24.0  14.0  24.6  22.5  54  1018   ---     E     8     8   ---   0.8 Scattered Clouds/
08/10/2008 12:55      24.0  15.0  24.8  21.5  57  1018   ---   ENE    13    13   ---   0.8 Scattered Clouds/
08/10/2008 13:55      23.0  15.0  24.1  21.0  61  1018   ---     E    10    10   ---   0.7 Scattered Clouds/
08/10/2008 14:55      23.0  16.0  24.3  21.3  65  1018   ---   ENE     8     8   ---   0.7 Broken Clouds/
08/10/2008 16:55      21.0  17.0  23.2  21.0  78  1018   ---     N     0     0   ---   0.7 Broken Clouds/
08/10/2008 17:55      20.0  17.0  22.6  20.0  83  1017   ---     E     5     5   ---   0.7 Broken Clouds/
08/10/2008 18:55      20.0  16.0  22.2  20.0  78  1017   ---     N     0     0   ---   0.7 Broken Clouds/
08/10/2008 19:55      20.0  17.0  22.6  20.0  83  1017   ---   ---     0     0   ---   0.7 Scattered Clouds/
09/10/2008 06:55      18.0  14.0  20.2  15.5  77  1019   ---    SW     8     8   ---   --- /
09/10/2008 07:55      17.0  14.0  19.5  14.3  83  1019   ---    SW     8     8   ---   --- /
09/10/2008 08:55      19.0  15.0  21.2  19.0  78  1020   ---   SSW     3     3   ---   --- /
09/10/2008 10:55      23.0  15.0  24.1  23.0  61  1021   ---   ENE     5     5   ---   --- /
09/10/2008 11:55      24.0  16.0  25.1  24.0  61  1021   ---   ESE     5     5   ---   0.7 Few Clouds/
09/10/2008 12:55      24.0  15.0  24.8  23.2  57  1022   ---   ENE     6     6   ---   0.7 Few Clouds/
09/10/2008 13:55      24.0  15.0  24.8  20.8  57  1022   ---     E    16    16   ---   0.7 Few Clouds/
09/10/2008 14:55      23.0  15.0  24.1  19.8  61  1022   ---     E    14    14   ---   0.7 Few Clouds/
09/10/2008 15:55      23.0  17.0  24.6  20.2  69  1022   ---   ENE    13    13   ---   0.6 Scattered Clouds/
09/10/2008 16:55      23.0  17.0  24.6  22.1  69  1022   ---   ESE     6     6   ---   0.6 Few Clouds/
09/10/2008 17:55      22.0  17.0  23.9  19.8  73  1022   ---     E    10    10   ---   0.6 Few Clouds/
09/10/2008 18:55      21.0  16.0  22.9  21.0  73  1023   ---     N     0     0   ---   --- /
09/10/2008 19:55      20.0  16.0  22.2  20.0  78  1023   ---    SW     5     5   ---   --- /
09/10/2008 06:55      18.0  14.0  20.2  15.5  77  1019   ---    SW     8     8   ---   --- /
10/10/2008 06:55      18.0  15.0  20.5  15.5  83  1027   ---    SW     8     8   ---   0.5 Scattered Clouds/
10/10/2008 07:55      18.0  16.0  21.0  16.6  88  1027   ---   SSW     6     6   ---   0.5 Scattered Clouds/
10/10/2008 08:55      20.0  18.0  23.0  20.0  88  1028   ---     N     0     0   ---   0.8 Scattered Clouds/
10/10/2008 10:55      23.0  18.0  24.9  22.1  73  1029   ---     E     6     6   ---   0.7 Scattered Clouds/
10/10/2008 11:55      24.0  17.0  25.3  22.5  65  1029   ---     E     8     8   ---   0.7 Scattered Clouds/
10/10/2008 12:55      24.0  17.0  25.3  23.2  65  1029   ---    SE     6     6   ---   0.7 Few Clouds/
10/10/2008 13:55      24.0  16.0  25.1  22.5  61  1028   ---     E     8     8   ----32741.2 Scattered Clouds/
10/10/2008 14:55      24.0  15.0  24.8  21.5  57  1028   ---     N    13    13   ----32741.2 Scattered Clouds/
10/10/2008 15:55      23.0  16.0  24.3  20.2  65  1028   ---     E    13    13   ----32740.9 Scattered Clouds/
10/10/2008 16:55      23.0  16.0  24.3  23.0  65  1028   ---     E     5     5   ----32740.9 Broken Clouds/
10/10/2008 17:55      22.0  16.0  23.6  21.0  69  1028   ---   ENE     6     6   ----32740.9 Broken Clouds/
10/10/2008 18:55      21.0  15.0  22.5  21.0  69  1028   ---     N     0     0   ---   --- /
10/10/2008 19:55      19.0  15.0  21.2  19.0  78  1029   ---   SSW     5     5   ---   --- /
11/10/2008 06:55      16.0  11.0  17.8  16.0  72  1029   ---   WSW     5     5   ---   --- /
11/10/2008 07:55      17.0  12.0  18.8  15.5  72  1029   ---    SW     6     6   ---   --- /
11/10/2008 08:55      20.0  14.0  21.5  20.0  68  1030   ---     N     0     0   ---   --- /
11/10/2008 10:55      23.0  15.0  24.1  22.1  61  1030   ---     E     6     6   ---   --- /
11/10/2008 11:55      23.0  13.0  23.6  21.0  53  1030   ---     E    10    10   ---   0.7 Few Clouds/
11/10/2008 12:55      23.0  13.0  23.6  20.2  53  1030   ---     E    13    13   ---   0.7 Few Clouds/
11/10/2008 13:55      24.0  16.0  25.1  21.1  61  1030   ---     E    14    14   ---   0.7 Few Clouds/
11/10/2008 14:55      23.0  15.0  24.1  19.8  61  1029   ---     E    14    14   ---   0.7 Few Clouds/
11/10/2008 15:55      23.0  15.0  24.1  20.2  61  1029   ---     E    13    13   ---   0.7 Few Clouds/
11/10/2008 16:55      22.0  16.0  23.6  18.9  69  1029   ---   ENE    13    13   ---   0.7 Few Clouds/
11/10/2008 17:55      21.0  16.0  22.9  19.9  73  1029   ---     E     6     6   ---   0.7 Few Clouds/
11/10/2008 18:55      20.0  16.0  22.2  20.0  78  1029   ---     E     3     3   ---   0.7 Few Clouds/
11/10/2008 19:55      19.0  16.0  21.6  19.0  83  1029   ---    SW     5     5   ---   0.7 Few Clouds/
12/10/2008 06:55      16.0  15.0  19.5  14.4  94  1029   ---    SW     6     6   ---   --- /
12/10/2008 07:55      17.0  15.0  20.0  15.5  88  1029   ---   WSW     6     6   ---   --- /
12/10/2008 09:55      21.0  17.0  23.2  21.0  78  1029   ---     N     0     0   ---   --- /
12/10/2008 10:55      23.0  16.0  24.3  23.0  65  1029   ---   ---     0     0   ---   --- /
12/10/2008 11:55      23.0  15.0  24.1  23.0  61  1029   ---   ---     0     0   ---   0.9 Few Clouds/
12/10/2008 12:55      24.0  14.0  24.6  24.0  54  1029   ---     E     5     5   ---   0.9 Few Clouds/
12/10/2008 14:55      24.0  12.0  24.3  22.2  47  1027   ---   ENE    10    10   ---   --- /
12/10/2008 15:55      23.0  14.0  23.8  21.0  57  1027   ---   NNE    10    10   ---   --- /
12/10/2008 17:55      21.0  16.0  22.9  19.0  73  1026   ---   NNW     8     8   ---   0.8 Few Clouds/
12/10/2008 18:55      20.0  16.0  22.2  20.0  78  1026   ---     N     5     5   ---   0.8 Scattered Clouds/
12/10/2008 19:55      19.0  15.0  21.2  19.0  78  1026   ---     N     0     0   ---   0.7 Few Clouds/
13/10/2008 06:55      17.0  14.0  19.5  15.5  83  1023   ---    SW     6     6   ---   --- /
13/10/2008 07:55      17.0  14.0  19.5  15.5  83  1023   ---    SW     6     6   ---   0.7 Scattered Clouds/
13/10/2008 08:55      18.0  15.0  20.5  18.0  83  1023   ---   SSW     5     5   ---   --- /
13/10/2008 10:55      22.0  16.0  23.6  22.0  69  1023   ---    NE     5     5   ---   0.6 Few Clouds/
13/10/2008 11:55      24.0  14.0  24.6  24.0  54  1023   ---     N     0     0   ---   --- /
13/10/2008 12:55      24.0  15.0  24.8  23.2  57  1022   ---     E     6     6   ---   --- /
13/10/2008 13:55      24.0  12.0  24.3  23.2  47  1022   ---     N     6     6   ---   --- /
13/10/2008 14:55      24.0  13.0  24.5  24.0  50  1021   ---   NNE     3     3   ---   --- /
13/10/2008 15:55      24.0  10.0  24.0  22.2  41  1021   ---   ESE    10    10   ---   --- /
13/10/2008 16:55      24.0  11.0  24.1  24.0  44  1021   ---   ENE     3     3   ---   --- /
13/10/2008 17:55      22.0  14.0  23.0  22.0  61  1020   ---    NE     5     5   ---   --- /
13/10/2008 18:55      20.0  14.0  21.5  20.0  68  1020   ---     N     0     0   ---   --- /
13/10/2008 19:55      20.0  15.0  21.8  20.0  73  1020   ---   SSW     5     5   ---   --- /
13/10/2008 13:55      24.0  12.0  24.3  23.2  47  1022   ---     N     6     6   ---   --- /
14/10/2008 06:55      16.0  11.0  17.8  12.5  72  1019   ---    SW    10    10   ---   --- /
14/10/2008 07:55      17.0  12.0  18.8  15.5  72  1019   ---    SW     6     6   ---   --- /
14/10/2008 08:55      18.0  14.0  20.2  18.0  77  1019   ---   SSW     5     5   ---   --- /
14/10/2008 10:55      23.0  11.0  23.3  23.0  47  1020   ---     N     0     0   ---   --- /
14/10/2008 11:55      23.0  14.0  23.8  21.3  57  1020   ---     E     8     8   ---   --- /
14/10/2008 12:55      24.0  13.0  24.5  21.5  50  1020   ---     E    13    13   ---   --- /
14/10/2008 13:55      24.0  12.0  24.3  21.1  47  1019   ---     E    14    14   ----32740.9 Scattered Clouds/
14/10/2008 14:55      23.0  14.0  23.8  21.3  57  1019   ---    NW     8     8   ----32740.9 Scattered Clouds/
14/10/2008 15:55      23.0  14.0  23.8  19.8  57  1018   ---     E    14    14   ---   --- /
14/10/2008 16:55      22.0  16.0  23.6  19.8  69  1018   ---     E    10    10   ---   --- /
14/10/2008 17:55      21.0  16.0  22.9  21.0  73  1018   ---     E     5     5   ---   0.6 Few Clouds/
14/10/2008 18:55      19.0  17.0  22.0  19.0  88  1018   ---     N     0     0   ---   0.6 Few Clouds/
14/10/2008 19:55      19.0  16.0  21.6  19.0  83  1018   ---   ---     0     0   ---   0.6 Scattered Clouds/
15/10/2008 06:55      16.0  12.0  18.1  13.2  77  1019   ---    SW     8     8   ---   0.7 Few Clouds/
15/10/2008 07:55      16.0  13.0  18.5  13.2  82  1020   ---    SW     8     8   ---   0.7 Few Clouds/
15/10/2008 08:55      19.0  16.0  21.6  19.0  83  1021   ---     N     0     0   ---   0.7 Few Clouds/
15/10/2008 10:55      22.0  14.0  23.0  22.0  61  1021   ---   ENE     3     3   ---   0.7 Few Clouds/
15/10/2008 11:55      23.0  14.0  23.8  21.0  57  1021   ---   ESE    10    10   ---   0.7 Few Clouds/
15/10/2008 13:55      23.0  16.0  24.3  21.3  65  1021   ---     E     8     8   ---   0.7 Few Clouds/
15/10/2008 14:55      22.0  17.0  23.9  22.0  73  1020   ---   NNE     3     3   ---   0.7 Scattered Clouds/
15/10/2008 15:55      22.0  17.0  23.9  22.0  73  1020   ---     E     5     5   ---   0.7 Broken Clouds/
15/10/2008 16:55      21.0  16.0  22.9  17.2  73  1020   ---   ESE    14    14   ---   0.7 Broken Clouds/
15/10/2008 17:55      21.0  17.0  23.2  19.9  78  1020   ---    SE     6     6   ---   0.7 Broken Clouds/
15/10/2008 18:55      20.0  17.0  22.6  20.0  83  1021   ---     E     3     3   ---   0.7 Broken Clouds/
15/10/2008 19:55      20.0  17.0  22.6  20.0  83  1021   ---     N     0     0   ---   0.7 Broken Clouds/
16/10/2008 06:55      17.0  14.0  19.5  14.3  83  1021   ---    SW     8     8   ----32741.2 Scattered Clouds/
16/10/2008 07:55      17.0  14.0  19.5  14.3  83  1021   ---    SW     8     8   ----32741.2 Scattered Clouds/
16/10/2008 08:55      18.0  14.0  20.2  18.0  77  1021   ---     N     0     0   ----3274--- Scattered Clouds/
16/10/2008 10:55      22.0  15.0  23.3  22.0  65  1021   ---   ---     0     0   ----32740.9 Scattered Clouds/
16/10/2008 11:55      22.0  15.0  23.3  21.0  65  1021   ---     E     6     6   ----32740.9 Scattered Clouds/
16/10/2008 12:55      23.0  15.0  24.1  23.0  61  1021   ---     E     5     5   ----32740.9 Scattered Clouds/
16/10/2008 13:55      23.0  16.0  24.3  21.3  65  1020   ---     E     8     8   ----32740.9 Scattered Clouds/
16/10/2008 14:55      22.0  15.0  23.3  20.2  65  1020   ---     E     8     8   ----32740.9 Scattered Clouds/
16/10/2008 15:55      22.0  16.0  23.6  21.0  69  1019   ---     E     6     6   ----32740.9 Scattered Clouds/
16/10/2008 16:55      22.0  15.0  23.3  21.0  65  1019   ---     E     6     6   ----32740.9 Scattered Clouds/
16/10/2008 17:55      21.0  16.0  22.9  21.0  73  1019   ---     E     5     5   ----32740.9 Scattered Clouds/
16/10/2008 18:55      20.0  16.0  22.2  20.0  78  1018   ---     N     0     0   ----3274--- Scattered Clouds/
16/10/2008 19:55      19.0  16.0  21.6  19.0  83  1018   ---   SSW     3     3   ---   --- /
16/10/2008 10:55      22.0  15.0  23.3  22.0  65  1021   ---     N     0     0   ----3274--- Scattered Clouds/
17/10/2008 06:55      18.0  14.0  20.2  18.0  77  1015   ---    SW     3     3   ---   0.6 Broken Clouds/
17/10/2008 07:55      18.0  15.0  20.5  18.0  83  1014   ---     N     0     0   ---   0.6 Broken Clouds/
17/10/2008 08:55      20.0  17.0  22.6  20.0  83  1015   ---   ---     0     0   ----32740.7 Broken Clouds/
17/10/2008 10:55      24.0  16.0  25.1  24.0  61  1015   ---   ---     0     0   ----32740.7 Scattered Clouds/
17/10/2008 11:55      24.0  16.0  25.1  23.2  61  1015   ---     E     6     6   ----32740.7 Scattered Clouds/
17/10/2008 12:55      24.0  16.0  25.1  23.2  61  1015   ---   ENE     6     6   ---   0.7 Few Clouds/
17/10/2008 13:55      24.0  16.0  25.1  23.2  61  1014   ---     N     6     6   ---   0.7 Broken Clouds/
17/10/2008 14:55      22.0  16.0  23.6  18.5  69  1014   ---   WSW    14    14   ---   0.6 Broken Clouds/
17/10/2008 15:55      20.0  17.0  22.6  20.0  83  1013   ---     N     0     0   ---   0.7 Broken Clouds/
17/10/2008 16:55      20.0  16.0  22.2  20.0  78  1013   ---   ---     0     0   ---   0.7 Broken Clouds/
17/10/2008 17:55      20.0  17.0  22.6  20.0  83  1014   ---   ---     0     0   ---   0.7 Broken Clouds/
17/10/2008 18:55      20.0  16.0  22.2  20.0  78  1014   ---   ---     0     0   ----32741.3 Broken Clouds/
17/10/2008 19:55      19.0  16.0  21.6  19.0  83  1014   ---   ---     0     0   ----32741.3 Scattered Clouds/
18/10/2008 06:55      18.0  16.0  21.0  18.0  88  1015   ---   ---     0     0   ---   0.8 Broken Clouds/
18/10/2008 07:55      18.0  16.0  21.0  18.0  88  1015   ---   ---     0     0   ---   0.7 Scattered Clouds/
18/10/2008 08:55      19.0  17.0  22.0  19.0  88  1016   ---   ---     0     0   ---   0.7 Scattered Clouds/
18/10/2008 10:55      23.0  17.0  24.6  23.0  69  1016   ---   SSE     3     3   ---   0.7 Few Clouds/
18/10/2008 11:55      24.0  17.0  25.3  24.0  65  1016   ---     N     5     5   ---   0.7 Few Clouds/
18/10/2008 12:55      24.0  18.0  25.6  23.2  69  1016   ---   NNE     6     6   ---   0.7 Scattered Clouds/
18/10/2008 13:55      24.0  18.0  25.6  21.5  69  1016   ---   ESE    13    13   ---   0.7 Broken Clouds/
18/10/2008 14:55      22.0  19.0  24.6  21.0  83  1016   ---    NE     6     6   ---   --- Overcast/ Light Rain
18/10/2008 15:55      22.0  18.0  24.2  21.0  78  1016   ---    NE     6     6   ---   0.6 Broken Clouds/
18/10/2008 16:55      21.0  19.0  24.0  21.0  88  1016   ---    NE     5     5   ---   --- Overcast/ Rain
18/10/2008 17:55      20.0  19.0  23.5  20.0  94  1017   ---    SW     3     3   ---   --- Overcast/ Light Rain
18/10/2008 18:55      20.0  18.0  23.0  20.0  88  1017   ---    SW     3     3   ---   0.4 Few Clouds/
18/10/2008 19:55      19.0  17.0  22.0  17.7  88  1017   ---    SW     6     6   ---   0.4 Few Clouds/
18/10/2008 17:55      20.0  19.0  23.5  20.0  94  1017   ---    SW     3     3   ---   --- Overcast/ Light Rain
19/10/2008 06:55      17.0  14.0  19.5  13.8  83  1020   ---    SW    10    10   ---   0.8 Few Clouds/
19/10/2008 07:55      17.0  14.0  19.5  15.5  83  1020   ---    SW     6     6   ---   0.8 Few Clouds/
19/10/2008 08:55      19.0  16.0  21.6  19.0  83  1021   ---     N     0     0   ---   --- /
19/10/2008 10:55      22.0  17.0  23.9  22.0  73  1022   ---   ---     0     0   ---   0.7 Few Clouds/
19/10/2008 12:55      24.0  18.0  25.6  22.2  69  1022   ---     E    10    10   ---   0.7 Few Clouds/
19/10/2008 13:55      24.0  17.0  25.3  24.0  65  1022   ---     E     5     5   ---   0.7 Few Clouds/
19/10/2008 14:55      23.0  17.0  24.6  20.2  69  1022   ---     E    13    13   ---   0.7 Scattered Clouds/
19/10/2008 15:55      22.0  18.0  24.2  19.8  78  1022   ---     E    10    10   ---   0.7 Scattered Clouds/
19/10/2008 15:55      22.0  18.0  24.2  19.8  78  1022   ---     E    10    10   ---   0.7 Scattered Clouds/None reported
19/10/2008 17:55      21.0  18.0  23.6  21.0  83  1022   ---     E     3     3   ---   0.7 Broken Clouds/
19/10/2008 18:55      21.0  18.0  23.6  21.0  83  1022   ---     N     0     0   ---   0.7 Scattered Clouds/
19/10/2008 19:55      20.0  18.0  23.0  20.0  88  1023   ---   ---     0     0   ---   0.7 Scattered Clouds/
20/10/2008 06:55      18.0  15.0  20.5  16.6  83  1023   ---    SW     6     6   ---   --- /
20/10/2008 07:55      18.0  16.0  21.0  15.5  88  1023   ---    SW     8     8   ----32740.7 Few Clouds/
20/10/2008 08:55      19.0  17.0  22.0  19.0  88  1024   ---   SSW     3     3   ---   --- /
20/10/2008 10:55      23.0  18.0  24.9  23.0  73  1024   ---     N     0     0   ---   0.6 Few Clouds/
20/10/2008 11:55      24.0  18.0  25.6  23.2  69  1024   ---     E     6     6   ---   0.6 Few Clouds/
20/10/2008 12:55      24.0  18.0  25.6  22.5  69  1024   ---     E     8     8   ---   0.6 Scattered Clouds/
20/10/2008 13:55      23.0  18.0  24.9  21.3  73  1023   ---   NNE     8     8   ---   0.7 Scattered Clouds/
20/10/2008 14:55      23.0  18.0  24.9  23.0  73  1023   ---     N     0     0   ---   0.7 Scattered Clouds/
20/10/2008 15:55      22.0  18.0  24.2  20.2  78  1023   ---     E     8     8   ---   0.7 Broken Clouds/
20/10/2008 16:55      21.0  18.0  23.6  17.7  83  1022   ---     E    13    13   ---   0.6 Broken Clouds/
20/10/2008 17:55      21.0  18.0  23.6  19.0  83  1022   ---   ESE     8     8   ---   0.6 Broken Clouds/
20/10/2008 18:55      20.0  18.0  23.0  20.0  88  1022   ---     N     0     0   ---   0.6 Scattered Clouds/
20/10/2008 19:55      20.0  17.0  22.6  20.0  83  1022   ---   ---     0     0   ---   0.5 Few Clouds/
21/10/2008 06:55      18.0  15.0  20.5  16.6  83  1020   ---    SW     6     6   ---   --- /
21/10/2008 07:55      17.0  15.0  20.0  17.0  88  1020   ---    SW     3     3   ---   --- /
21/10/2008 08:55      19.0  16.0  21.6  19.0  83  1020   ---    SW     3     3   ---   --- /
21/10/2008 10:55      22.0  17.0  23.9  22.0  73  1020   ---     E     3     3   ---   0.7 Few Clouds/
21/10/2008 11:55      23.0  17.0  24.6  22.1  69  1020   ---     E     6     6   ---   0.7 Scattered Clouds/
21/10/2008 12:55      23.0  17.0  24.6  21.3  69  1020   ---     E     8     8   ---   0.7 Scattered Clouds/
21/10/2008 13:55      24.0  17.0  25.3  22.2  65  1019   ---     E    10    10   ---   0.7 Few Clouds/
21/10/2008 14:55      24.0  17.0  25.3  21.5  65  1018   ---     E    13    13   ---   0.7 Few Clouds/
21/10/2008 15:55      22.0  17.0  23.9  18.9  73  1018   ---   ENE    13    13   ---   0.7 Few Clouds/
21/10/2008 16:55      22.0  18.0  24.2  20.2  78  1018   ---     E     8     8   ---   0.6 Few Clouds/
21/10/2008 17:55      21.0  18.0  23.6  19.9  83  1018   ---     E     6     6   ---   0.6 Scattered Clouds/
21/10/2008 18:55      20.0  17.0  22.6  20.0  83  1018   ---     E     5     5   ---   0.6 Scattered Clouds/
21/10/2008 19:55      20.0  17.0  22.6  20.0  83  1018   ---     N     0     0   ---   0.6 Scattered Clouds/
22/10/2008 06:55      17.0  15.0  20.0  17.0  88  1016   ---    SW     5     5   ----32740.9 Scattered Clouds/
22/10/2008 07:55      17.0  15.0  20.0  17.0  88  1016   ---    SW     5     5   ----32740.9 Broken Clouds/
22/10/2008 08:55      18.0  16.0  21.0  18.0  88  1016   ---     N     0     0   ----32740.6 Broken Clouds/
22/10/2008 10:55      21.0  17.0  23.2  21.0  78  1016   ---    NE     3     3   ----32740.6 Broken Clouds/
22/10/2008 11:55      23.0  17.0  24.6  23.0  69  1016   ---     E     3     3   ----32740.6 Broken Clouds/
22/10/2008 12:55      23.0  18.0  24.9  23.0  73  1015   ---     E     5     5   ----32741.2 Broken Clouds/
22/10/2008 13:55      23.0  17.0  24.6  23.0  69  1015   ---     E     3     3   ---   0.8 Broken Clouds/
22/10/2008 14:55      22.0  18.0  24.2  22.0  78  1016   ---     E     5     5   ---   0.8 Overcast/
22/10/2008 15:55      22.0  18.0  24.2  22.0  78  1016   ---     N     0     0   ---   0.8 Overcast/
22/10/2008 16:55      22.0  15.0  23.3  20.2  65  1015   ---     S     8     8   ---   --- Overcast/ Light Rain
22/10/2008 17:55      20.0  15.0  21.8  20.0  73  1014   ---   ENE     3     3   ---   0.8 Overcast/
22/10/2008 18:55      20.0  16.0  22.2  20.0  78  1014   ---     N     0     0   ---   0.8 Overcast/
22/10/2008 19:55      19.0  16.0  21.6  19.0  83  1014   ---   ---     0     0   ---   0.8 Overcast/
23/10/2008 06:55      18.0  15.0  20.5  18.0  83  1015   ---    SW     3     3   ---   0.9 Broken Clouds/
23/10/2008 07:55      18.0  15.0  20.5  18.0  83  1016   ---    SW     3     3   ---   0.7 Broken Clouds/
23/10/2008 08:55      19.0  16.0  21.6  19.0  83  1016   ---    SW     3     3   ---   0.8 Broken Clouds/
23/10/2008 10:55      20.0  18.0  23.0  20.0  88  1017   ---    NW     3     3   ---   0.8 Broken Clouds/
23/10/2008 11:55      22.0  17.0  23.9  22.0  73  1018   ---     N     0     0   ---   0.8 Broken Clouds/
23/10/2008 12:55      23.0  17.0  24.6  23.0  69  1017   ---     E     5     5   ---   0.8 Broken Clouds/
23/10/2008 13:55      24.0  17.0  25.3  22.5  65  1017   ---     E     8     8   ---   0.7 Broken Clouds/
23/10/2008 14:55      24.0  17.0  25.3  22.5  65  1017   ---   ENE     8     8   ---   0.7 Broken Clouds/
23/10/2008 15:55      23.0  17.0  24.6  23.0  69  1017   ---     E     5     5   ---   0.7 Broken Clouds/
23/10/2008 16:55      22.0  17.0  23.9  22.0  73  1017   ---    NW     5     5   ---   0.7 Overcast/
23/10/2008 17:55      21.0  18.0  23.6  21.0  83  1017   ---    NE     3     3   ---   --- Overcast/ Light Rain
23/10/2008 18:55      20.0  18.0  23.0  20.0  88  1018   ---   WNW     3     3   ---   --- Overcast/ Rain
23/10/2008 19:55      19.0  18.0  22.5  19.0  94  1019   ---     N     0     0   ---   --- Overcast/ Light Rain
24/10/2008 06:55      17.0  15.0  20.0  15.5  88  1019   ---    SW     6     6   ---   --- /
24/10/2008 07:55      17.0  15.0  20.0  15.5  88  1020   ---    SW     6     6   ---   --- /
24/10/2008 08:55      19.0  16.0  21.6  19.0  83  1020   ---   SSW     3     3   ---   --- /
24/10/2008 10:55      23.0  17.0  24.6  23.0  69  1021   ---     N     0     0   ---   --- /
24/10/2008 11:55      23.0  18.0  24.9  22.1  73  1021   ---   ESE     6     6   ---   0.6 Scattered Clouds/
24/10/2008 12:55      24.0  18.0  25.6  22.2  69  1021   ---   ESE    10    10   ---   0.6 Scattered Clouds/
24/10/2008 13:55      23.0  18.0  24.9  21.3  73  1021   ---     E     8     8   ---   0.6 Scattered Clouds/
24/10/2008 14:55      23.0  18.0  24.9  21.0  73  1020   ---     E    10    10   ---   0.6 Scattered Clouds/
24/10/2008 15:55      22.0  18.0  24.2  20.2  78  1020   ---     E     8     8   ---   0.6 Scattered Clouds/
24/10/2008 16:55      21.0  18.0  23.6  19.9  83  1020   ---   ESE     6     6   ---   0.6 Broken Clouds/
24/10/2008 17:55      21.0  18.0  23.6  21.0  83  1020   ---     N     0     0   ---   0.6 Broken Clouds/
24/10/2008 18:55      20.0  18.0  23.0  20.0  88  1021   ---   ---     0     0   ---   0.6 Scattered Clouds/
24/10/2008 19:55      19.0  17.0  22.0  19.0  88  1022   ---   WSW     3     3   ---   0.7 Broken Clouds/
24/10/2008 13:55      23.0  18.0  24.9  21.3  73  1021   ---     E     8     8   ---   0.6 Scattered Clouds/
25/10/2008 06:55      18.0  15.0  20.5  18.0  83  1022   ---    SW     5     5   ----32740.6 Broken Clouds/
25/10/2008 07:55      18.0  15.0  20.5  16.6  83  1022   ---    SW     6     6   ----32740.6 Scattered Clouds/
25/10/2008 08:55      19.0  17.0  22.0  19.0  88  1023   ---     N     0     0   ----32740.6 Scattered Clouds/
25/10/2008 10:55      23.0  17.0  24.6  23.0  69  1023   ---   ENE     3     3   ---   0.8 Broken Clouds/
25/10/2008 11:55      24.0  18.0  25.6  24.0  69  1023   ---     E     3     3   ---   0.8 Broken Clouds/
25/10/2008 12:55      24.0  17.0  25.3  24.0  65  1023   ---     E     3     3   ---   0.8 Broken Clouds/
25/10/2008 13:55      23.0  18.0  24.9  21.0  73  1023   ---     E    10    10   ---   0.8 Broken Clouds/
25/10/2008 14:55      23.0  18.0  24.9  21.0  73  1023   ---   ESE    10    10   ---   0.8 Scattered Clouds/
25/10/2008 15:55      22.0  18.0  24.2  22.0  78  1022   ---   ESE     3     3   ---   0.8 Broken Clouds/
25/10/2008 16:55      22.0  17.0  23.9  22.0  73  1022   ---    SE     3     3   ----32740.9 Broken Clouds/
25/10/2008 17:55      21.0  18.0  23.6  21.0  83  1022   ---     N     0     0   ---   0.6 Broken Clouds/
25/10/2008 18:55      20.0  18.0  23.0  20.0  88  1023   ---   ---     0     0   ---   0.6 Broken Clouds/
25/10/2008 19:55      20.0  17.0  22.6  20.0  83  1024   ---   ---     0     0   ---   0.6 Scattered Clouds/
25/10/2008 18:55      20.0  17.0  22.6  20.0  83  1024   ---   ---     0     0   ---   0.6 Scattered Clouds/
26/10/2008 06:55      18.0  15.0  20.5  18.0  83  1023   ---   SSW     5     5   ---   0.8 Overcast/
26/10/2008 07:55      18.0  16.0  21.0  18.0  88  1023   ---   WSW     5     5   ---   --- Overcast/ Light Rain
26/10/2008 09:55      19.0  16.0  21.6  19.0  83  1023   ---     N     0     0   ---   1.0 Overcast/
26/10/2008 10:55      19.0  17.0  22.0  19.0  88  1023   ---   WNW     5     5   ---   1.0 Overcast/
26/10/2008 11:55      19.0  17.0  22.0  19.0  88  1023   ---     N     0     0   ---   1.0 Overcast/
26/10/2008 12:55      20.0  16.0  22.2  20.0  78  1023   ---    NE     5     5   ---   0.7 Broken Clouds/
26/10/2008 13:55      21.0  16.0  22.9  19.9  73  1022   ---   ENE     6     6   ---   0.7 Broken Clouds/
26/10/2008 14:55      21.0  16.0  22.9  21.0  73  1022   ---     N     0     0   ---   0.7 Broken Clouds/
26/10/2008 15:55      21.0  16.0  22.9  21.0  73  1022   ---   ESE     5     5   ---   0.7 Broken Clouds/
26/10/2008 16:55      20.0  16.0  22.2  20.0  78  1022   ---     N     0     0   ---   0.7 Scattered Clouds/
26/10/2008 17:55      19.0  17.0  22.0  19.0  88  1022   ---   ---     0     0   ---   0.6 Scattered Clouds/
26/10/2008 18:55      19.0  16.0  21.6  19.0  83  1022   ---   ---     0     0   ---   0.6 Scattered Clouds/
27/10/2008 06:55      16.0  13.0  18.5  16.0  82  1019   ---   WSW     5     5   ---   --- /
27/10/2008 07:55      18.0  14.0  20.2  18.0  77  1019   ---    SW     5     5   ---   --- /
27/10/2008 09:55      22.0  14.0  23.0  22.0  61  1019   ---     N     0     0   ---   --- /
27/10/2008 10:55      23.0  14.0  23.8  23.0  57  1019   ---     E     3     3   ---   --- /
27/10/2008 11:55      23.0  15.0  24.1  22.1  61  1018   ---   ENE     6     6   ---   --- /
27/10/2008 12:55      24.0  14.0  24.6  23.2  54  1018   ---   ESE     6     6   ---   --- /
27/10/2008 13:55      23.0  13.0  23.6  21.0  53  1017   ---     E    10    10   ---   --- /
27/10/2008 14:55      22.0  16.0  23.6  21.0  69  1016   ---     E     6     6   ---   --- /
27/10/2008 15:55      21.0  16.0  22.9  19.9  73  1016   ---   ESE     6     6   ---   --- /
27/10/2008 16:55      21.0  16.0  22.9  21.0  73  1016   ---   ESE     3     3   ---   --- /
27/10/2008 17:55      19.0  16.0  21.6  19.0  83  1016   ---   SSW     3     3   ---   --- /
27/10/2008 18:55      19.0  16.0  21.6  19.0  83  1016   ---    SW     3     3   ---   --- /
27/10/2008 14:55      22.0  16.0  23.6  21.0  69  1016   ---     E     6     6   ---   --- /
28/10/2008 06:55      22.0  15.0  23.3  18.1  65  1011   ---   WSW    16    16   ----32740.9 Scattered Clouds/
28/10/2008 07:55      24.0  13.0  24.5  20.0  50  1010   ---    SW    23    47   ----32740.9 Scattered Clouds/
28/10/2008 09:55      26.0  13.0  26.2  24.1  45  1011   ---     S    13    13   ----32740.4 Scattered Clouds/
28/10/2008 10:55      26.0  13.0  26.2  26.0  45  1011   ---   SSW     3     3   ----32740.4 Broken Clouds/
28/10/2008 11:55      26.0  14.0  26.3  24.8  48  1009   ---   SSE     8     8   ----32740.4 Overcast/
28/10/2008 12:55      25.0  12.0  25.2  22.8  44  1009   ---   SSW    13    13   ----32740.6 Overcast/
28/10/2008 13:55      24.0  15.0  24.8  21.5  57  1010   ---    SW    13    31   ---   0.9 Overcast/
28/10/2008 14:55      20.0  16.0  22.2  14.6  78  1010   ---    SW    19    47   ---   0.6 Overcast/
28/10/2008 15:55      18.0  16.0  21.0  18.0  88  1010   ---    SW     5     5   ---   --- Overcast/ Light Rain
28/10/2008 16:55      18.0  16.0  21.0  18.0  88  1009   ---     N     0     0   ---   0.4 Broken Clouds/
28/10/2008 17:55      18.0  16.0  21.0  18.0  88  1008   ---   ---     0     0   ----3274--- Broken Clouds/
28/10/2008 18:55      18.0  17.0  21.5  18.0  94  1008   ---   ---     0     0   ----3274--- Broken Clouds/
29/10/2008 06:55      23.0  14.0  23.8  19.4  57  1009   ---   SSW    16    16   ---   0.6 Scattered Clouds/
29/10/2008 07:55      23.0  15.0  24.1  21.3  61  1010   ---     S     8     8   ----32743.6 Scattered Clouds/
29/10/2008 09:55      25.0  14.0  25.5  22.0  51  1010   ---     S    18    18   ---   --- /
29/10/2008 10:55      26.0  15.0  26.5  23.4  51  1010   ---     S    18    18   ---   0.7 Few Clouds/
29/10/2008 11:55      26.0  15.0  26.5  23.8  51  1010   ---     S    14    14   ---   0.7 Few Clouds/
29/10/2008 12:55      27.0  14.0  27.1  25.3  45  1009   ---   SSW    13    13   ---   --- /
29/10/2008 13:55      27.0  12.0  26.8  25.3  39  1009   ---   SSW    13    34   ---   --- /
29/10/2008 14:55      27.0  16.0  27.5  25.1  51  1008   ---   SSW    14    37   ---   --- /
29/10/2008 15:55      26.0  12.0  26.0  23.5  42  1008   ---   SSW    16    16   ----3274--- Few Clouds/
29/10/2008 16:55      25.0  11.0  25.0  23.4  41  1008   ---   SSW    10    10   ---   0.7 Few Clouds/
29/10/2008 17:55      25.0  10.0  24.9  24.3  39  1008   ---   SSW     6     6   ---   0.7 Few Clouds/
29/10/2008 18:55      25.0  11.0  25.0  25.0  41  1008   ---     S     5     5   ---   0.7 Few Clouds/
30/10/2008 06:55      18.0  15.0  20.5  18.0  83  1010   ---     N     0     0   ---   0.6 Broken Clouds/
30/10/2008 09:55      19.0  16.0  21.6  17.7  83  1011   ---   WNW     6     6   ---   0.7 Overcast/
30/10/2008 10:55      20.0  14.0  21.5  15.9  68  1011   ---     W    14    14   ---   0.8 Broken Clouds/
30/10/2008 11:55      21.0  14.0  22.3  17.7  64  1011   ---   WSW    13    13   ---   0.9 Broken Clouds/
30/10/2008 12:55      22.0  14.0  23.0  22.0  61  1011   ---     W     5     5   ---   0.9 Scattered Clouds/
30/10/2008 13:55      21.0  14.0  22.3  17.2  64  1011   ---     W    14    14   ---   0.9 Broken Clouds/
30/10/2008 14:55      20.0  12.0  21.0  16.4  60  1011   ---     W    13    13   ---   0.7 Scattered Clouds/
30/10/2008 15:55      20.0  12.0  21.0  17.8  60  1011   ---   WNW     8     8   ---   0.7 Scattered Clouds/
30/10/2008 16:55      19.0  12.0  20.2  19.0  64  1012   ---    SW     3     3   ---   0.8 Scattered Clouds/
30/10/2008 17:55      18.0  12.0  19.5  18.0  68  1012   ---     N     0     0   ---   0.8 Scattered Clouds/
30/10/2008 18:55      17.0  12.0  18.8  17.0  72  1013   ---   WNW     3     3   ---   0.9 Scattered Clouds/
30/10/2008 07:55      18.0  16.0  21.0  18.0  88  1011   ---     N     0     0   ---   0.6 Overcast/
31/10/2008 06:55      16.0  14.0  19.0  16.0  88  1013   ---   ---     0     0   ----32740.9 Broken Clouds/
31/10/2008 07:55      17.0  14.0  19.5  17.0  83  1013   ---   ---     0     0   ----3274--- Broken Clouds/
31/10/2008 09:55      20.0  16.0  22.2  20.0  78  1013   ---   ---     0     0   ----3274--- Broken Clouds/
31/10/2008 10:55      23.0  15.0  24.1  22.1  61  1013   ---     S     6     6   ----3274--- Broken Clouds/
31/10/2008 11:55      23.0  16.0  24.3  23.0  65  1012   ---    NE     3     3   ----3274--- Overcast/
31/10/2008 12:55      23.0  16.0  24.3  23.0  65  1011   ---     W     5     5   ----3274--- Overcast/
31/10/2008 13:55      24.0  15.0  24.8  24.0  57  1010   ---     S     3     3   ----3274--- Overcast/
31/10/2008 14:55      24.0  16.0  25.1  24.0  61  1010   ---     S     3     3   ----3274--- Overcast/
31/10/2008 15:55      23.0  15.0  24.1  23.0  61  1009   ---     N     0     0   ----32741.5 Overcast/
31/10/2008 16:55      23.0  16.0  24.3  22.1  65  1008   ---     W     6     6   ----32741.5 Broken Clouds/
31/10/2008 17:55      22.0  15.0  23.3  22.0  65  1008   ---     W     5     5   ----32741.5 Broken Clouds/
31/10/2008 18:55      21.0  14.0  22.3  19.0  64  1007   ---   NNW     8     8   ---   --- /
01/11/2008 06:55      19.0  13.0  20.5  17.7  68  1012   ---    SW     6     6   ---   0.7 Few Clouds/
01/11/2008 07:55      20.0  14.0  21.5  16.4  68  1012   ---    SW    13    13   ---   0.7 Few Clouds/
01/11/2008 09:55      22.0  14.0  23.0  18.1  61  1014   ---    SW    16    40   ---   0.7 Few Clouds/
01/11/2008 10:55      23.0  13.0  23.6  19.4  53  1014   ---    SW    16    42   ---   0.7 Few Clouds/
01/11/2008 11:55      23.0  14.0  23.8  19.4  57  1014   ---   SSW    16    39   ---   0.7 Few Clouds/
01/11/2008 12:55      23.0  14.0  23.8  21.3  57  1014   ---   SSW     8     8   ---   0.7 Few Clouds/
01/11/2008 13:55      24.0  13.0  24.5  22.2  50  1014   ---   NNE    10    10   ---   --- /
01/11/2008 14:55      23.0  14.0  23.8  20.2  57  1014   ---   SSW    13    13   ---   --- /
01/11/2008 15:55      23.0  13.0  23.6  22.1  53  1014   ---   SSW     6     6   ---   --- /
01/11/2008 16:55      21.0  13.0  22.0  16.7  60  1014   ---    SW    16    16   ---   --- /
01/11/2008 17:55      20.0  13.0  21.3  16.4  64  1015   ---    SW    13    13   ---   --- /
01/11/2008 18:55      19.0  12.0  20.2  19.0  64  1015   ---   WSW     3     3   ---   --- /
01/11/2008 13:55      24.0  13.0  24.5  22.2  50  1014   ---   NNE    10    10   ---   --- /
02/11/2008 06:55      16.0   9.0  17.2  16.0  63  1017   ---   WSW     5     5   ---   --- /
02/11/2008 07:55      18.0  11.0  19.2  16.6  64  1017   ---    SW     6     6   ---   --- /
02/11/2008 08:55      20.0  11.0  20.8  20.0  56  1018   ---     N     0     0   ---   --- /
02/11/2008 09:55      22.0  11.0  22.4  22.0  50  1018   ---   ---     0     0   ---   --- /
02/11/2008 10:55      24.0  10.0  24.0  24.0  41  1018   ---    NE     3     3   ---   --- /
02/11/2008 11:55      24.0  12.0  24.3  22.5  47  1018   ---     E     8     8   ---   --- /
02/11/2008 12:55      24.0  15.0  24.8  22.5  57  1017   ---   ENE     8     8   ---   --- /
02/11/2008 13:55      24.0  13.0  24.5  23.2  50  1017   ---     E     6     6   ---   --- /
02/11/2008 14:55      23.0  11.0  23.3  23.0  47  1017   ---     N     0     0   ---   --- /
02/11/2008 15:55      23.0  12.0  23.4  23.0  50  1017   ---   ESE     3     3   ---   --- /
02/11/2008 16:55      22.0  14.0  23.0  22.0  61  1016   ---     N     0     0   ---   --- /
02/11/2008 17:55      20.0  14.0  21.5  20.0  68  1016   ---     S     5     5   ---   --- /
02/11/2008 18:55      18.0  11.0  19.2  18.0  64  1016   ---    SW     3     3   ---   --- /
02/11/2008 17:55      20.0  14.0  21.5  20.0  68  1016   ---     S     5     5   ---   --- /
03/11/2008 07:55      20.0  11.0  20.8  18.8  56  1017   ---     S     6     6   ----32741.3 Broken Clouds/
03/11/2008 08:55      22.0  13.0  22.8  22.0  57  1017   ---     N     0     0   ----32741.3 Broken Clouds/
03/11/2008 10:55      24.0  14.0  24.6  24.0  54  1017   ---   ---     0     0   ----3274--- Broken Clouds/
03/11/2008 11:55      25.0  16.0  25.9  25.0  57  1016   ---   ---     0     0   ----3274--- Broken Clouds/
03/11/2008 12:55      24.0  17.0  25.3  24.0  65  1016   ---   ---     0     0   ----3274--- Broken Clouds/
03/11/2008 13:55      24.0  17.0  25.3  24.0  65  1015   ---   ESE     5     5   ----32741.2 Broken Clouds/
03/11/2008 14:55      24.0  18.0  25.6  24.0  69  1016   ---     N     0     0   ---   --- Overcast/ Light Rain
03/11/2008 15:55      23.0  15.0  24.1  19.2  61  1016   ---   SSW    18    42   ---   --- Overcast/ Light Rain
03/11/2008 16:55      23.0  16.0  24.3  23.0  65  1016   ---   SSW     5     5   ----32741.5 Broken Clouds/
03/11/2008 17:55      23.0  14.0  23.8  23.0  57  1016   ---   SSW     5     5   ----32741.5 Broken Clouds/
03/11/2008 18:55      22.0  15.0  23.3  22.0  65  1016   ---     N     0     0   ----32741.5 Broken Clouds/
04/11/2008 06:55      20.0  16.0  22.2  18.8  78  1014   ---     W     6     6   ----32741.2 Broken Clouds/
04/11/2008 07:55      21.0  15.0  22.5  21.0  69  1013   ---    SW     3     3   ----32741.2 Broken Clouds/
04/11/2008 08:55      23.0  16.0  24.3  23.0  65  1013   ---     N     0     0   ----32741.2 Broken Clouds/
04/11/2008 10:55      27.0  15.0  27.3  27.0  48  1013   ---     E     3     3   ----32741.2 Broken Clouds/
04/11/2008 11:55      28.0  15.0  28.0  27.5  45  1013   ---     W     6     6   ----32741.2 Broken Clouds/
04/11/2008 12:55      28.0  12.0  27.5  26.4  37  1012   ---     S    14    14   ----32741.2 Broken Clouds/
04/11/2008 13:55      28.0  14.0  27.8  26.1  42  1012   ---   SSW    18    50   ----32741.2 Broken Clouds/
04/11/2008 14:55      26.0  15.0  26.5  24.1  51  1013   ---   SSW    13    37   ---   0.7 Broken Clouds/
04/11/2008 15:55      26.0  15.0  26.5  24.6  51  1013   ---    SW    10    10   ---   0.7 Scattered Clouds/
04/11/2008 17:55      23.0  13.0  23.6  23.0  53  1014   ---    SW     5     5   ---   0.7 Few Clouds/
04/11/2008 18:55      22.0  13.0  22.8  22.0  57  1014   ---   SSW     5     5   ---   0.7 Few Clouds/
05/11/2008 06:55      20.0  15.0  21.8  16.4  73  1017   ---    SW    13    13   ---   1.2 Broken Clouds/
05/11/2008 07:55      20.0  15.0  21.8  17.8  73  1018   ---     S     8     8   ---   1.2 Broken Clouds/
05/11/2008 08:55      22.0  13.0  22.8  22.0  57  1017   ---     S     3     3   ---   1.2 Broken Clouds/
05/11/2008 09:55      23.0  12.0  23.4  23.0  50  1017   ---     S     3     3   ---   1.2 Broken Clouds/
05/11/2008 11:55      22.0  16.0  23.6  22.0  69  1017   ---     N     0     0   ---   0.5 Broken Clouds/
05/11/2008 12:55      23.0  16.0  24.3  22.1  65  1016   ---   ESE     6     6   ---   0.5 Broken Clouds/
05/11/2008 13:55      22.0  16.0  23.6  22.0  69  1015   ---     E     5     5   ---   0.6 Broken Clouds/
05/11/2008 14:55      22.0  17.0  23.9  17.9  73  1015   ---   WNW    18    18   ---   0.5 Broken Clouds/
05/11/2008 15:55      21.0  13.0  22.0  21.0  60  1015   ---     W     3     3   ---   0.5 Broken Clouds/
05/11/2008 16:55      20.0  15.0  21.8  18.8  73  1016   ---     N     6     6   ---   0.5 Broken Clouds/
05/11/2008 17:55      19.0  15.0  21.2  19.0  78  1017   ---     N     0     0   ---   0.8 Broken Clouds/
05/11/2008 18:55      18.0  15.0  20.5  18.0  83  1017   ---   ---     0     0   ---   0.5 Few Clouds/
06/11/2008 06:55      16.0  14.0  19.0  16.0  88  1014   ---    SW     5     5   ---   0.7 Broken Clouds/
06/11/2008 07:55      16.0  14.0  19.0  16.0  88  1014   ---    SW     3     3   ---   0.7 Broken Clouds/
06/11/2008 08:55      19.0  15.0  21.2  19.0  78  1014   ---     N     0     0   ---   0.7 Few Clouds/
06/11/2008 10:55      20.0  14.0  21.5  16.4  68  1015   ---   WNW    13    13   ---   0.7 Scattered Clouds/
06/11/2008 11:55      20.0  13.0  21.3  15.9  64  1015   ---    NW    14    14   ---   0.7 Scattered Clouds/
06/11/2008 12:55      20.0  13.0  21.3  15.3  64  1014   ---   WNW    16    16   ---   0.7 Scattered Clouds/
06/11/2008 13:55      19.0  12.0  20.2  14.5  64  1013   ---    NW    14    14   ---   0.7 Scattered Clouds/
06/11/2008 14:55      19.0  12.0  20.2  14.0  64  1014   ---    NW    16    16   ---   0.7 Scattered Clouds/
06/11/2008 15:55      18.0  13.0  19.8  15.5  73  1014   ---    NW     8     8   ---   0.7 Broken Clouds/
06/11/2008 16:55      18.0  12.0  19.5  15.0  68  1014   ---   WNW    10    10   ---   0.7 Broken Clouds/
06/11/2008 17:55      17.0  12.0  18.8  15.5  72  1014   ---   WNW     6     6   ---   0.7 Scattered Clouds/
06/11/2008 18:55      17.0  13.0  19.2  15.5  77  1014   ---   WNW     6     6   ---   0.7 Broken Clouds/
06/11/2008 11:55      20.0  13.0  21.3  15.9  64  1015   ---    NW    14    14   ---   0.7 Scattered Clouds/
07/11/2008 06:55      14.0  11.0  16.5  14.0  82  1014   ---   WSW     5     5   ---   0.6 Scattered Clouds/
07/11/2008 07:55      14.0  11.0  16.5  12.3  82  1014   ---     W     6     6   ---   0.6 Few Clouds/
07/11/2008 08:55      17.0  12.0  18.8  17.0  72  1015   ---     N     0     0   ---   0.6 Few Clouds/
07/11/2008 10:55      20.0  12.0  21.0  20.0  60  1015   ---   WSW     3     3   ---   0.6 Scattered Clouds/
07/11/2008 11:55      20.0  11.0  20.8  15.9  56  1015   ---   WNW    14    14   ---   0.6 Broken Clouds/
07/11/2008 12:55      21.0  11.0  21.6  19.0  53  1015   ---   WSW     8     8   ---   0.7 Scattered Clouds/
07/11/2008 13:55      21.0  11.0  21.6  18.6  53  1015   ---   WNW    10    10   ---   0.7 Scattered Clouds/
07/11/2008 14:55      19.0  13.0  20.5  13.0  68  1015   ---   WNW    21    21   ---   0.7 Scattered Clouds/
07/11/2008 15:55      19.0  11.0  20.0  16.7  60  1015   ---    NW     8     8   ---   0.7 Scattered Clouds/
07/11/2008 16:55      18.0  11.0  19.2  16.6  64  1016   ---   WSW     6     6   ---   0.7 Scattered Clouds/
07/11/2008 17:55      17.0  11.0  18.5  17.0  68  1017   ---     W     3     3   ---   0.7 Scattered Clouds/
07/11/2008 18:55      17.0  11.0  18.5  17.0  68  1017   ---     W     3     3   ---   0.7 Scattered Clouds/
07/11/2008 15:55      19.0  11.0  20.0  16.7  60  1015   ---    NW     8     8   ---   0.7 Scattered Clouds/
08/11/2008 06:55      15.0  13.0  18.0  15.0  88  1022   ---   SSW     5     5   ---   0.7 Few Clouds/
08/11/2008 07:55      16.0  12.0  18.1  16.0  77  1023   ---    SW     3     3   ---   0.7 Few Clouds/
08/11/2008 08:55      18.0  12.0  19.5  18.0  68  1023   ---   SSE     5     5   ---   0.7 Scattered Clouds/
08/11/2008 10:55      20.0  11.0  20.8  20.0  56  1023   ---   ESE     5     5   ---   0.7 Scattered Clouds/
08/11/2008 11:55      20.0  12.0  21.0  18.8  60  1023   ---     E     6     6   ---   0.7 Scattered Clouds/
08/11/2008 12:55      20.0  12.0  21.0  17.4  60  1023   ---     E    10    10   ---   0.7 Scattered Clouds/
08/11/2008 13:55      20.0  12.0  21.0  20.0  60  1023   ---   NNE     5     5   ---   0.7 Scattered Clouds/
08/11/2008 14:55      19.0  13.0  20.5  19.0  68  1023   ---   NNE     5     5   ---   0.7 Scattered Clouds/
08/11/2008 15:55      18.0  12.0  19.5  18.0  68  1023   ---   NNW     3     3   ---   0.7 Scattered Clouds/
08/11/2008 16:55      18.0  13.0  19.8  18.0  73  1024   ---     W     3     3   ---   0.7 Scattered Clouds/
08/11/2008 17:55      17.0  14.0  19.5  15.5  83  1024   ---    SW     6     6   ---   0.7 Scattered Clouds/
08/11/2008 18:55      16.0  13.0  18.5  14.4  82  1025   ---    SW     6     6   ---   0.7 Scattered Clouds/
09/11/2008 06:55      14.0  12.0  17.0  14.0  88  1027   ---   WSW     5     5   ---   0.7 Broken Clouds/
09/11/2008 07:55      15.0  13.0  18.0  15.0  88  1028   ---    SW     5     5   ---   0.7 Broken Clouds/
09/11/2008 08:55      17.0  15.0  20.0  17.0  88  1028   ---     N     0     0   ---   0.7 Broken Clouds/
09/11/2008 10:55      19.0  14.0  20.8  19.0  73  1028   ---   ---     0     0   ---   0.7 Broken Clouds/
09/11/2008 11:55      20.0  13.0  21.3  20.0  64  1028   ---    NE     3     3   ---   0.7 Broken Clouds/
09/11/2008 12:55      20.0  13.0  21.3  17.8  64  1028   ---     E     8     8   ---   0.7 Broken Clouds/
09/11/2008 13:55      19.0  13.0  20.5  16.7  68  1027   ---     E     8     8   ---   0.7 Broken Clouds/
09/11/2008 14:55      20.0  13.0  21.3  17.8  64  1027   ---     E     8     8   ---   0.7 Broken Clouds/
09/11/2008 15:55      18.0  13.0  19.8  15.5  73  1027   ---     E     8     8   ---   0.7 Broken Clouds/
09/11/2008 16:55      18.0  13.0  19.8  18.0  73  1027   ---     N     0     0   ---   0.7 Few Clouds/
09/11/2008 17:55      16.0  13.0  18.5  16.0  82  1028   ---    SW     5     5   ---   0.7 Scattered Clouds/
09/11/2008 18:55      16.0  13.0  18.5  14.4  82  1028   ---    SW     6     6   ---   0.7 Scattered Clouds/
09/11/2008 11:55      20.0  13.0  21.3  20.0  64  1028   ---    NE     3     3   ---   0.7 Broken Clouds/
10/11/2008 06:55      15.0  13.0  18.0  12.0  88  1028   ---    SW     8     8   ---   0.6 Few Clouds/
10/11/2008 07:55      15.0  14.0  18.4  13.3  94  1028   ---    SW     6     6   ---   0.6 Scattered Clouds/
10/11/2008 08:55      17.0  15.0  20.0  17.0  88  1028   ---     N     0     0   ---   0.6 Broken Clouds/
10/11/2008 10:55      17.0  15.0  20.0  17.0  88  1028   ---     W     3     3   ---   0.6 Broken Clouds/
10/11/2008 11:55      19.0  15.0  21.2  19.0  78  1028   ---   SSE     3     3   ---   0.6 Broken Clouds/
10/11/2008 12:55      19.0  13.0  20.5  19.0  68  1028   ---     N     0     0   ---   0.6 Broken Clouds/
10/11/2008 13:55      19.0  13.0  20.5  19.0  68  1027   ---   NNE     5     5   ---   0.7 Scattered Clouds/
10/11/2008 14:55      19.0  12.0  20.2  17.7  64  1027   ---    NE     6     6   ---   0.7 Scattered Clouds/
10/11/2008 15:55      18.0  12.0  19.5  16.6  68  1027   ---     E     6     6   ---   0.7 Scattered Clouds/
10/11/2008 16:55      18.0  13.0  19.8  18.0  73  1027   ---     N     0     0   ---   0.7 Scattered Clouds/
10/11/2008 18:55      15.0  12.0  17.5  13.3  82  1027   ---    SW     6     6   ---   0.7 Scattered Clouds/
11/11/2008 06:55      13.0  11.0  15.9   9.7  88  1024   ---    SW     8     8   ---   0.7 Few Clouds/
11/11/2008 07:55      14.0  12.0  17.0  10.8  88  1024   ---    SW     8     8   ---   0.7 Few Clouds/
11/11/2008 08:55      17.0  13.0  19.2  17.0  77  1024   ---     N     0     0   ---   0.7 Few Clouds/
11/11/2008 10:55      20.0  12.0  21.0  20.0  60  1024   ---   ESE     5     5   ---   0.7 Scattered Clouds/
11/11/2008 11:55      19.0  12.0  20.2  19.0  64  1024   ---     N     0     0   ---   0.7 Scattered Clouds/
11/11/2008 12:55      20.0  13.0  21.3  18.8  64  1023   ---    NE     6     6   ---   0.7 Scattered Clouds/
11/11/2008 13:55      20.0  13.0  21.3  17.8  64  1022   ---     E     8     8   ---   0.7 Scattered Clouds/
11/11/2008 14:55      20.0  12.0  21.0  17.4  60  1022   ---     E    10    10   ---   0.7 Few Clouds/
11/11/2008 15:55      18.0  11.0  19.2  18.0  64  1022   ---     N     3     3   ---   0.7 Few Clouds/
11/11/2008 16:55      17.0  11.0  18.5  17.0  68  1022   ---     N     0     0   ---   --- /
11/11/2008 17:55      15.0  11.0  17.1  13.3  77  1022   ---    SW     6     6   ---   0.7 Few Clouds/
11/11/2008 18:55      14.0  11.0  16.5  14.0  82  1022   ---    SW     5     5   ---   0.7 Few Clouds/
12/11/2008 06:55      13.0   6.0  14.2  11.2  62  1021   ---    SW     6     6   ----32740.9 Scattered Clouds/
12/11/2008 07:55      14.0   7.0  15.2  14.0  63  1021   ---    SW     5     5   ----32740.9 Scattered Clouds/
12/11/2008 08:55      17.0   9.0  18.0  17.0  59  1021   ---     N     0     0   ----32740.9 Scattered Clouds/
12/11/2008 09:55      18.0  10.0  19.0  18.0  60  1021   ---   ---     0     0   ---   --- /
12/11/2008 11:55      20.0   9.0  20.4  20.0  49  1021   ---   ENE     3     3   ----32740.7 Scattered Clouds/
12/11/2008 12:55      21.0  12.0  21.8  21.0  56  1020   ---   ENE     5     5   ---   --- /
12/11/2008 13:55      20.0  11.0  20.8  17.8  56  1020   ---     E     8     8   ---   --- /
12/11/2008 14:55      19.0  11.0  20.0  19.0  60  1019   ---   ESE     5     5   ---   0.7 Broken Clouds/
12/11/2008 15:55      19.0  12.0  20.2  19.0  64  1019   ---     N     0     0   ---   0.7 Broken Clouds/
12/11/2008 16:55      18.0  11.0  19.2  18.0  64  1019   ---   ---     0     0   ---   0.7 Broken Clouds/
12/11/2008 17:55      17.0  11.0  18.5  17.0  68  1018   ---   SSW     3     3   ---   0.9 Broken Clouds/
12/11/2008 18:55      16.0  11.0  17.8  16.0  72  1018   ---     N     0     0   ---   0.9 Broken Clouds/
12/11/2008 15:55      19.0  12.0  20.2  19.0  64  1019   ---   ---     0     0   ---   0.7 Broken Clouds/
13/11/2008 06:55      16.0  13.0  18.5  16.0  82  1014   ---   ---     0     0   ---   0.7 Broken Clouds/
13/11/2008 07:55      16.0  13.0  18.5  16.0  82  1014   ---   ---     0     0   ---   0.8 Broken Clouds/
13/11/2008 08:55      17.0  15.0  20.0  17.0  88  1014   ---   ---     0     0   ---   0.7 Broken Clouds/
13/11/2008 10:55      19.0  14.0  20.8  19.0  73  1014   ---    SE     5     5   ---   0.7 Broken Clouds/
13/11/2008 11:55      21.0  13.0  22.0  17.7  60  1014   ---    SW    13    13   ---   0.7 Scattered Clouds/
13/11/2008 12:55      21.0  12.0  21.8  17.7  56  1013   ---     S    13    13   ---   0.7 Scattered Clouds/
13/11/2008 13:55      21.0  12.0  21.8  19.0  56  1012   ---     S     8     8   ---   0.6 Scattered Clouds/
13/11/2008 14:55      21.0  12.0  21.8  17.7  56  1012   ---     S    13    13   ---   0.6 Scattered Clouds/
13/11/2008 15:55      20.0  12.0  21.0  20.0  60  1012   ---    SW     3     3   ---   0.6 Few Clouds/
13/11/2008 16:55      19.0  12.0  20.2  19.0  64  1012   ---   SSW     5     5   ---   0.6 Few Clouds/
13/11/2008 17:55      17.0  11.0  18.5  14.3  68  1012   ---   WSW     8     8   ---   0.6 Few Clouds/
13/11/2008 18:55      16.0  11.0  17.8  13.2  72  1012   ---    SW     8     8   ---   0.6 Few Clouds/
14/11/2008 06:55      15.0  10.0  16.8  15.0  72  1014   ---   WSW     3     3   ---   0.7 Few Clouds/
14/11/2008 07:55      15.0  11.0  17.1  15.0  77  1014   ---     N     0     0   ---   0.7 Few Clouds/
14/11/2008 08:55      18.0  11.0  19.2  18.0  64  1015   ---   SSE     5     5   ---   0.7 Few Clouds/
14/11/2008 10:55      20.0  11.0  20.8  17.4  56  1015   ---     S    10    10   ---   0.7 Scattered Clouds/
14/11/2008 11:55      20.0  11.0  20.8  15.1  56  1015   ---     S    18    18   ---   0.7 Scattered Clouds/
14/11/2008 12:55      19.0  10.0  19.8  13.0  56  1015   ---     W    21    21   ---   0.7 Broken Clouds/
14/11/2008 13:55      18.0   9.0  18.8  13.8  56  1015   ---     W    13    13   ---   0.8 Broken Clouds/
14/11/2008 14:55      18.0  11.0  19.2  15.0  64  1015   ---   WNW    10    10   ---   0.8 Broken Clouds/
14/11/2008 15:55      17.0   9.0  18.0  17.0  59  1015   ---     N     0     0   ---   0.9 Broken Clouds/
14/11/2008 16:55      16.0  10.0  17.5  14.4  68  1015   ---    NW     6     6   ---   0.9 Scattered Clouds/
14/11/2008 17:55      15.0   9.0  16.5  15.0  67  1016   ---   WSW     5     5   ---   0.9 Scattered Clouds/
14/11/2008 18:55      14.0   9.0  15.8  14.0  72  1016   ---    SW     5     5   ---   0.9 Scattered Clouds/
15/11/2008 06:55      12.0   7.0  13.7   8.5  71  1016   ---     W     8     8   ---   0.7 Broken Clouds/
15/11/2008 07:55      12.0   7.0  13.7  12.0  71  1016   ---     W     5     5   ---   0.7 Broken Clouds/
15/11/2008 08:55      13.0   7.0  14.4  13.0  67  1016   ---     W     5     5   ---   0.7 Broken Clouds/
15/11/2008 09:55      14.0   7.0  15.2  14.0  63  1016   ---     N     0     0   ---   0.7 Broken Clouds/
15/11/2008 11:55      17.0   7.0  17.5  15.5  52  1016   ---    NW     6     6   ---   0.7 Broken Clouds/
15/11/2008 12:55      17.0   8.0  17.7  15.5  55  1016   ---   NNW     6     6   ---   0.6 Broken Clouds/
15/11/2008 13:55      16.0   9.0  17.2  14.4  63  1015   ---    NW     6     6   ---   0.6 Broken Clouds/
15/11/2008 14:55      16.0   9.0  17.2  12.5  63  1015   ---    NW    10    10   ---   0.6 Broken Clouds/
15/11/2008 15:55      16.0   9.0  17.2  12.5  63  1015   ---     W    10    10   ---   0.6 Broken Clouds/
15/11/2008 16:55      15.0   7.0  15.9  13.3  59  1015   ---     W     6     6   ---   0.6 Broken Clouds/
15/11/2008 17:55      13.0   7.0  14.4  13.0  67  1016   ---     N     0     0   ---   0.7 Broken Clouds/
15/11/2008 18:55      13.0   8.0  14.8  13.0  72  1016   ---   ---     0     0   ---   0.7 Broken Clouds/
15/11/2008 13:55      16.0   9.0  17.2  14.4  63  1015   ---    NW     6     6   ---   0.6 Broken Clouds/
16/11/2008 06:55      12.0   6.0  13.4  12.0  67  1017   ---    SW     5     5   ---   0.9 Scattered Clouds/
16/11/2008 07:55      13.0   6.0  14.2  13.0  62  1017   ---   SSW     5     5   ---   0.8 Scattered Clouds/
16/11/2008 08:55      14.0   8.0  15.5  14.0  67  1018   ---   WSW     5     5   ---   0.8 Few Clouds/
16/11/2008 10:55      18.0   7.0  18.4  18.0  49  1018   ---     N     0     0   ---   0.8 Broken Clouds/
16/11/2008 11:55      18.0   5.0  18.1  18.0  42  1018   ---     E     5     5   ---   0.8 Broken Clouds/
16/11/2008 12:55      18.0   5.0  18.1  15.5  42  1018   ---     E     8     8   ---   0.8 Scattered Clouds/
16/11/2008 13:55      18.0   6.0  18.2  15.0  45  1017   ---    NE    10    10   ---   0.7 Scattered Clouds/
16/11/2008 14:55      18.0   7.0  18.4  13.8  49  1017   ---     E    13    13   ---   0.7 Scattered Clouds/
16/11/2008 15:55      17.0   6.0  17.4  15.5  48  1017   ---   ESE     6     6   ---   0.7 Scattered Clouds/
16/11/2008 16:55      15.0   8.0  16.2  15.0  63  1017   ---     N     0     0   ---   0.7 Scattered Clouds/
16/11/2008 17:55      15.0   8.0  16.2  13.3  63  1017   ---   SSW     6     6   ---   0.7 Scattered Clouds/
16/11/2008 18:55      14.0   8.0  15.5  14.0  67  1017   ---   WSW     3     3   ---   0.7 Scattered Clouds/
17/11/2008 06:55      12.0  10.0  14.9   8.5  88  1015   ---    SW     8     8   ---   0.6 Few Clouds/
17/11/2008 07:55      13.0  11.0  15.9  13.0  88  1015   ---     W     5     5   ---   0.6 Broken Clouds/
17/11/2008 08:55      16.0  12.0  18.1  16.0  77  1015   ---     N     0     0   ---   0.0 Scattered Clouds/
17/11/2008 10:55      19.0  11.0  20.0  16.7  60  1015   ---     E     8     8   ---   0.6 Scattered Clouds/
17/11/2008 11:55      18.0  13.0  19.8  15.5  73  1015   ---    NE     8     8   ---   --- Overcast/ Rain
17/11/2008 12:55      15.0  13.0  18.0  10.0  88  1015   ---   WNW    13    13   ---   --- Overcast/ Light Rain
17/11/2008 13:55      14.0  12.0  17.0  14.0  88  1014   ---   WSW     5     5   ---   0.7 Broken Clouds/
17/11/2008 14:55      15.0  12.0  17.5  15.0  82  1014   ---   SSW     3     3   ---   0.7 Scattered Clouds/
17/11/2008 15:55      15.0  13.0  18.0  15.0  88  1014   ---   SSW     3     3   ---   0.7 Broken Clouds/
17/11/2008 16:55      14.0  12.0  17.0  14.0  88  1014   ---     W     3     3   ---   0.6 Scattered Clouds/
17/11/2008 17:55      13.0  11.0  15.9  13.0  88  1014   ---   WSW     5     5   ---   0.7 Scattered Clouds/
17/11/2008 18:55      13.0  11.0  15.9  13.0  88  1014   ---    NW     5     5   ---   0.7 Scattered Clouds/
17/11/2008 17:55      13.0  11.0  15.9  13.0  88  1014   ---   WSW     5     5   ---   0.7 Scattered Clouds/
18/11/2008 06:55      14.0  11.0  16.5  14.0  82  1012   ---     N     0     0   ---   0.6 Broken Clouds/
18/11/2008 07:55      14.0  11.0  16.5  14.0  82  1012   ---   ---     0     0   ---   0.6 Broken Clouds/
18/11/2008 08:55      14.0  11.0  16.5  10.1  82  1013   ---    SW    10    10   ---   --- Overcast/ Light Rain
18/11/2008 10:55      17.0  11.0  18.5  17.0  68  1013   ---     N     0     0   ---   0.7 Broken Clouds/
18/11/2008 11:55      17.0  11.0  18.5  17.0  68  1012   ---    NE     5     5   ---   0.7 Broken Clouds/
18/11/2008 12:55      17.0  10.0  18.2  17.0  63  1012   ---   WNW     5     5   ---   0.7 Broken Clouds/
18/11/2008 13:55      16.0  10.0  17.5  14.4  68  1011   ---   NNE     6     6   ---   0.7 Scattered Clouds/
18/11/2008 14:55      16.0  11.0  17.8  16.0  72  1011   ---   NNE     5     5   ---   0.7 Broken Clouds/
18/11/2008 15:55      16.0  11.0  17.8  14.4  72  1011   ---     N     6     6   ---   0.7 Broken Clouds/
18/11/2008 16:55      15.0   9.0  16.5  15.0  67  1011   ---     N     0     0   ---   0.7 Broken Clouds/
18/11/2008 17:55      14.0   9.0  15.8  14.0  72  1012   ---     W     5     5   ---   0.7 Broken Clouds/
18/11/2008 18:55      13.0   9.0  15.1  13.0  77  1012   ---     N     0     0   ---   0.7 Broken Clouds/
19/11/2008 06:55      11.0   7.0  13.1   6.5  76  1014   ---    SW    10    10   ---   0.7 Few Clouds/
19/11/2008 07:55      12.0   8.0  14.1  12.0  77  1015   ---    SW     5     5   ----32740.7 Scattered Clouds/
19/11/2008 08:55      15.0  10.0  16.8  15.0  72  1016   ---     N     0     0   ----32741.3 Scattered Clouds/
19/11/2008 10:55      18.0   9.0  18.8  18.0  56  1016   ---   ---     0     0   ----32741.3 Scattered Clouds/
19/11/2008 11:55      18.0   9.0  18.8  15.5  56  1016   ---    NE     8     8   ----32741.3 Scattered Clouds/
19/11/2008 12:55      18.0   8.0  18.6  16.6  52  1016   ---     E     6     6   ----32741.2 Scattered Clouds/
19/11/2008 13:55      18.0   9.0  18.8  16.6  56  1016   ---     E     6     6   ----32741.2 Scattered Clouds/
19/11/2008 14:55      18.0   9.0  18.8  15.0  56  1016   ---     E    10    10   ----32741.2 Scattered Clouds/
19/11/2008 15:55      16.0   9.0  17.2  16.0  63  1017   ---     N     0     0   ----32741.2 Scattered Clouds/
19/11/2008 16:55      15.0  10.0  16.8  15.0  72  1017   ---    SW     3     3   ----32741.2 Scattered Clouds/
19/11/2008 17:55      15.0  10.0  16.8  15.0  72  1018   ---    SW     5     5   ----32741.2 Scattered Clouds/
19/11/2008 18:55      14.0  10.0  16.1  14.0  77  1018   ---     N     0     0   ----32741.2 Scattered Clouds/
20/11/2008 06:55      12.0   8.0  14.1  12.0  77  1021   ---   ---     0     0   ---   0.7 Few Clouds/
20/11/2008 07:55      14.0  10.0  16.1  14.0  77  1021   ---   NNW     3     3   ---   0.7 Broken Clouds/
20/11/2008 08:55      15.0  11.0  17.1  15.0  77  1022   ---     N     0     0   ---   0.7 Broken Clouds/
20/11/2008 10:55      20.0  11.0  20.8  20.0  56  1022   ---     S     5     5   ---   0.7 Scattered Clouds/
20/11/2008 11:55      20.0  11.0  20.8  14.6  56  1022   ---   WSW    19    43   ---   0.7 Broken Clouds/
20/11/2008 12:55      20.0  10.0  20.6  17.4  53  1021   ---     W    10    10   ---   0.7 Broken Clouds/
20/11/2008 13:55      17.0  11.0  18.5  12.5  68  1021   ---    SW    13    13   ---   0.7 Broken Clouds/
20/11/2008 14:55      18.0  11.0  19.2  13.8  64  1021   ---   WNW    13    13   ---   0.7 Broken Clouds/
20/11/2008 15:55      18.0  11.0  19.2  18.0  64  1021   ---     W     3     3   ---   0.7 Scattered Clouds/
20/11/2008 16:55      16.0  10.0  17.5  14.4  68  1021   ---    SW     6     6   ---   0.7 Scattered Clouds/
20/11/2008 17:55      15.0   8.0  16.2  12.0  63  1021   ---   WSW     8     8   ---   0.7 Few Clouds/
20/11/2008 18:55      16.0   8.0  16.9  10.6  59  1021   ---    SW    14    14   ---   0.7 Few Clouds/
20/11/2008 17:55      15.0   8.0  16.2  12.0  63  1021   ---   WSW     8     8   ---   0.7 Few Clouds/
21/11/2008 06:55      15.0  10.0  16.8  12.0  72  1019   ---    SW     8     8   ---   0.7 Few Clouds/
21/11/2008 07:55      16.0  10.0  17.5   9.9  68  1018   ---    SW    16    16   ---   0.7 Few Clouds/
21/11/2008 08:55      17.0  10.0  18.2  12.5  63  1018   ---   WSW    13    40   ---   0.7 Few Clouds/
21/11/2008 10:55      19.0  11.0  20.0  13.2  60  1017   ---   WSW    19    43   ---   0.7 Scattered Clouds/
21/11/2008 11:55      19.0  10.0  19.8  14.5  56  1016   ---   SSW    14    34   ---   0.7 Broken Clouds/
21/11/2008 12:55      16.0  13.0  18.5  10.6  82  1016   ---     W    14    34   ---   --- Overcast/ Light Rain
21/11/2008 13:55      15.0  12.0  17.5   7.3  82  1014   ---   WSW    21    45   ---   0.7 Broken Clouds/
21/11/2008 14:55      16.0  10.0  17.5   8.7  68  1014   ---     W    21    50   ---   0.7 Scattered Clouds/
21/11/2008 15:55      16.0  11.0  17.8   9.0  72  1013   ---     W    19    56   ---   0.7 Broken Clouds/
21/11/2008 16:55      16.0  10.0  17.5   9.6  68  1012   ---   WSW    18    18   ---   0.6 Scattered Clouds/
21/11/2008 17:55      16.0  10.0  17.5   9.0  68  1011   ---   WSW    19    42   ---   0.6 Scattered Clouds/
21/11/2008 18:55      16.0  10.0  17.5  12.5  68  1011   ---     W    10    10   ---   0.6 Scattered Clouds/
22/11/2008 06:55      16.0   9.0  17.2   8.7  63  1001   ---     W    21    21   ---   0.7 Broken Clouds/
22/11/2008 07:55      17.0  10.0  18.2  11.0  63  1000   ---     W    18    18   ---   0.7 Broken Clouds/
22/11/2008 08:55      18.0  10.0  19.0  12.4  60  1000   ---     W    18    18   ---   0.7 Scattered Clouds/
22/11/2008 11:55      19.0  10.0  19.8  11.5  56  1000   ---     W    34    66   ---   0.7 Broken Clouds/
22/11/2008 12:55      18.0  10.0  19.0   9.6  60   999   ---   WNW    39    64   ---   0.7 Broken Clouds/
22/11/2008 14:55      16.0   7.0  16.7   6.5  55   999   ---   WNW    37    71   ---   0.7 Broken Clouds/
22/11/2008 15:55      15.0   9.0  16.5   6.1  67  1000   ---   WNW    27    27   ---   0.6 Broken Clouds/
22/11/2008 16:55      14.0   9.0  15.8   4.4  72  1000   ---   WNW    29    29   ---   0.6 Broken Clouds/
22/11/2008 17:55      14.0   9.0  15.8   8.7  72  1001   ---     W    13    13   ---   0.6 Broken Clouds/
22/11/2008 18:55      13.0  10.0  15.5   4.8  82  1001   ---     W    19    19   ---   0.6 Broken Clouds/
23/11/2008 06:55      11.0   8.0  13.5   3.1  82  1003   ---     W    16    16   ---   0.7 Broken Clouds/
23/11/2008 07:55      12.0   8.0  14.1   3.0  77  1004   ---     W    21    21   ---   0.7 Broken Clouds/
23/11/2008 09:55      12.0   8.0  14.1   1.4  77  1005   ---     W    29    50   ---   0.6 Broken Clouds/
23/11/2008 11:55      13.0   8.0  14.8   3.1  72  1005   ---     W    27    45   ---   0.7 Broken Clouds/
23/11/2008 12:55      14.0   7.0  15.2   4.1  63  1005   ---     W    31    50   ---   0.7 Broken Clouds/
23/11/2008 13:55      14.0   6.0  14.9   4.6  59  1005   ---     W    27    50   ---   0.7 Broken Clouds/
23/11/2008 14:55      14.0   7.0  15.2   4.9  63  1005   ---   WNW    26    26   ---   0.7 Broken Clouds/
23/11/2008 15:55      13.0   7.0  14.4   5.5  67  1006   ---   WNW    18    18   ---   0.7 Broken Clouds/
23/11/2008 16:55      13.0   6.0  14.2   5.8  62  1007   ---     W    16    16   ---   0.7 Broken Clouds/
23/11/2008 17:55      12.0   8.0  14.1   4.1  77  1007   ---     W    18    18   ---   --- Overcast/ Light Rain
23/11/2008 18:55      11.0   8.0  13.5   9.0  82  1008   ---     W     6     6   ---   0.7 Broken Clouds/
23/11/2008 17:55      12.0   8.0  14.1   4.1  77  1007   ---     W    18    18   ---   --- Overcast/ Light Rain
24/11/2008 06:55      14.0  10.0  16.1   4.9  77  1005   ---   WSW    26    47   ---   0.7 Scattered Clouds/
24/11/2008 07:55      14.0   9.0  15.8   5.5  72  1005   ---   WSW    23    50   ---   0.7 Few Clouds/
24/11/2008 08:55      16.0   9.0  17.2  16.0  63  1006   ---    NW     3     3   ---   0.7 Few Clouds/
24/11/2008 09:55      17.0   9.0  18.0  11.9  59  1005   ---   ESE    14    14   ---   0.7 Few Clouds/
24/11/2008 11:55      17.0  10.0  18.2  10.1  63  1005   ---    NW    21    21   ---   0.7 Few Clouds/
24/11/2008 12:55      18.0  10.0  19.0  10.6  60  1005   ---    SW    27    27   ---   0.7 Scattered Clouds/
24/11/2008 13:55      17.0  10.0  18.2  12.5  63  1003   ---   SSW    13    13   ---   0.7 Broken Clouds/
24/11/2008 14:55      17.0  10.0  18.2  11.9  63  1002   ---   SSW    14    34   ---   0.7 Scattered Clouds/
24/11/2008 15:55      16.0  10.0  17.5   9.0  68  1001   ---     S    19    19   ---   0.7 Few Clouds/
24/11/2008 16:55      15.0  11.0  17.1   9.3  77  1001   ---   SSW    14    14   ---   --- Overcast/ Light Rain
24/11/2008 17:55      16.0  10.0  17.5  11.3  68  1001   ---   SSW    13    13   ---   0.7 Scattered Clouds/
24/11/2008 18:55      16.0  11.0  17.8   9.9  72  1001   ---   SSW    16    16   ---   0.7 Scattered Clouds/
24/11/2008 06:55      14.0  10.0  16.1   4.9  77  1005   ---   WSW    26    47   ---   0.7 Scattered Clouds/
25/11/2008 06:55      16.0  10.0  17.5  16.0  68  1001   ---     N     0     0   ---   0.7 Scattered Clouds/
25/11/2008 07:55      16.0  10.0  17.5  14.4  68  1001   ---     S     6     6   ---   0.7 Scattered Clouds/
25/11/2008 08:55      16.0  10.0  17.5  13.2  68  1001   ---   SSW     8     8   ---   0.7 Scattered Clouds/
25/11/2008 10:55      18.0  10.0  19.0  11.8  60  1002   ---   SSW    19    55   ---   0.7 Broken Clouds/
25/11/2008 11:55      19.0   9.0  19.6  13.7  52  1002   ---    SW    18    45   ---   0.7 Scattered Clouds/
25/11/2008 12:55      20.0   9.0  20.4  14.2  49  1001   ---   SSW    23    47   ---   0.6 Scattered Clouds/
25/11/2008 13:55      19.0   8.0  19.4  12.3  49  1001   ---    SW    26    55   ---   0.6 Scattered Clouds/
25/11/2008 14:55      18.0   9.0  18.8  11.3  56  1002   ---    SW    23    47   ---   0.6 Scattered Clouds/
25/11/2008 15:55      18.0   8.0  18.6  15.5  52  1002   ---   WSW     8     8   ---   0.6 Scattered Clouds/
25/11/2008 16:55      18.0   7.0  18.4  11.8  49  1003   ---   WSW    19    55   ---   0.6 Scattered Clouds/
25/11/2008 17:55      17.0   8.0  17.7  11.9  55  1004   ---     W    14    14   ---   0.6 Scattered Clouds/
25/11/2008 18:55      16.0  10.0  17.5   9.0  68  1005   ---   WSW    19    19   ---   0.6 Scattered Clouds/
26/11/2008 06:55      13.0   9.0  15.1  13.0  77  1013   ---    SW     5     5   ---   0.6 Broken Clouds/
26/11/2008 07:55      13.0   9.0  15.1  13.0  77  1013   ---   NNW     5     5   ---   0.6 Broken Clouds/
26/11/2008 08:55      15.0   9.0  16.5  15.0  67  1015   ---   WSW     5     5   ---   0.6 Broken Clouds/
26/11/2008 10:55      17.0   9.0  18.0  15.5  59  1016   ---     W     6     6   ---   0.6 Scattered Clouds/
26/11/2008 11:55      17.0   9.0  18.0  12.5  59  1016   ---     W    13    13   ---   0.6 Broken Clouds/
26/11/2008 12:55      17.0   7.0  17.5  17.0  52  1016   ---   WSW     5     5   ---   0.6 Broken Clouds/
26/11/2008 13:55      17.0   9.0  18.0  17.0  59  1016   ---     N     0     0   ---   0.6 Broken Clouds/
26/11/2008 14:55      16.0   9.0  17.2  16.0  63  1016   ---   ---     0     0   ---   0.6 Broken Clouds/
26/11/2008 15:55      16.0  11.0  17.8  16.0  72  1016   ---   ---     0     0   ---   0.6 Broken Clouds/
26/11/2008 16:55      15.0  10.0  16.8  13.3  72  1017   ---     W     6     6   ---   0.6 Broken Clouds/
26/11/2008 17:55      13.0   9.0  15.1   9.7  77  1018   ---     W     8     8   ---   0.7 Broken Clouds/
26/11/2008 18:55      13.0   9.0  15.1  13.0  77  1018   ---     N     0     0   ---   0.7 Scattered Clouds/
27/11/2008 06:55      12.0   7.0  13.7  10.1  71  1021   ---   SSW     6     6   ---   0.7 Broken Clouds/
27/11/2008 07:55      12.0   7.0  13.7  12.0  71  1020   ---   WSW     5     5   ---   0.7 Few Clouds/
27/11/2008 08:55      13.0   7.0  14.4  13.0  67  1020   ---     N     0     0   ---   0.9 Few Clouds/
27/11/2008 10:55      17.0   6.0  17.4  17.0  48  1021   ---   ---     0     0   ---   1.0 Few Clouds/
27/11/2008 11:55      18.0   8.0  18.6  18.0  52  1020   ---     W     5     5   ----32740.7 Scattered Clouds/
27/11/2008 12:55      18.0   7.0  18.4  18.0  49  1019   ---     W     3     3   ----32740.7 Scattered Clouds/
27/11/2008 13:55      18.0  11.0  19.2  18.0  64  1018   ---   NNW     3     3   ----32740.7 Broken Clouds/
27/11/2008 14:55      18.0  10.0  19.0  12.4  60  1018   ---   ESE    18    18   ----32740.7 Overcast/
27/11/2008 15:55      17.0  10.0  18.2  14.3  63  1018   ---     E     8     8   ---   0.7 Overcast/
27/11/2008 16:55      17.0  10.0  18.2  13.8  63  1017   ---    SE    10    10   ---   0.7 Overcast/
27/11/2008 17:55      17.0  10.0  18.2  15.5  63  1017   ---    SE     6     6   ---   0.9 Overcast/
27/11/2008 18:55      17.0   9.0  18.0  17.0  59  1016   ---   NNW     5     5   ----32740.9 Broken Clouds/
28/11/2008 06:55      18.0  12.0  19.5  10.8  68  1005   ---    SE    26    50   ---   0.7 Broken Clouds/
28/11/2008 07:55      17.0  13.0  19.2   7.8  77  1005   ---   SSE    42    64   ---   --- Overcast/ Light Rain
28/11/2008 08:55      17.0  14.0  19.5   9.8  83  1005   ---   SSE    23    47   ---   --- Overcast/ Light Rain
28/11/2008 10:55      19.0  15.0  21.2  12.3  78  1002   ---   SSW    26    66   ---   0.7 Broken Clouds/
28/11/2008 11:55      19.0  15.0  21.2  14.5  78  1001   ---   SSW    14    32   ---   0.7 Broken Clouds/
28/11/2008 12:55      20.0  11.0  20.8  13.5  56  1000   ---    SW    27    64   ---   0.7 Scattered Clouds/
28/11/2008 13:55      20.0   9.0  20.4  13.5  49  1000   ---    SW    27    69   ---   0.7 Scattered Clouds/
28/11/2008 14:55      19.0   9.0  19.6  14.0  52  1000   ---    SW    16    39   ---   0.7 Scattered Clouds/
28/11/2008 15:55      18.0   8.0  18.6  11.3  52  1000   ---   WSW    23    47   ---   0.7 Few Clouds/
28/11/2008 16:55      17.0   8.0  17.7  10.1  55  1002   ---     W    21    43   ---   0.7 Few Clouds/
28/11/2008 17:55      16.0   9.0  17.2   8.7  63  1002   ---     W    21    21   ---   0.7 Scattered Clouds/
28/11/2008 18:55      15.0   9.0  16.5   6.4  67  1003   ---     W    26    51   ---   0.7 Few Clouds/
29/11/2008 06:55      13.0   8.0  14.8   3.1  72  1007   ---   WSW    27    51   ---   0.6 Scattered Clouds/
29/11/2008 07:55      14.0   9.0  15.8   6.9  72  1009   ---     W    18    39   ---   0.7 Broken Clouds/
29/11/2008 08:55      15.0   9.0  16.5   7.6  67  1009   ---   WSW    19    39   ---   0.7 Broken Clouds/
29/11/2008 10:55      16.0  10.0  17.5  10.6  68  1010   ---   SSW    14    14   ---   0.7 Broken Clouds/
29/11/2008 11:55      16.0  10.0  17.5  13.2  68  1010   ---     W     8     8   ---   0.7 Broken Clouds/
29/11/2008 12:55      17.0  10.0  18.2  13.8  63  1010   ---     W    10    10   ---   0.7 Scattered Clouds/
29/11/2008 13:55      17.0  10.0  18.2  14.3  63  1010   ---   SSW     8     8   ---   0.7 Scattered Clouds/
29/11/2008 14:55      17.0  10.0  18.2  12.5  63  1010   ---    SW    13    13   ---   0.7 Scattered Clouds/
29/11/2008 15:55      16.0   9.0  17.2  14.4  63  1010   ---    SW     6     6   ---   0.7 Few Clouds/
29/11/2008 16:55      14.0   8.0  15.5   8.7  67  1010   ---   SSW    13    13   ---   --- /
29/11/2008 17:55      14.0   8.0  15.5  12.3  67  1011   ---    SW     6     6   ---   --- /
29/11/2008 18:55      13.0   8.0  14.8  13.0  72  1011   ---     S     5     5   ---   --- /
30/11/2008 06:55      15.0   9.0  16.5  10.0  67  1012   ---    SW    13    13   ---   0.7 Scattered Clouds/
30/11/2008 07:55      15.0   9.0  16.5   7.3  67  1012   ---   SSW    21    21   ---   0.7 Few Clouds/
30/11/2008 09:55      16.0   8.0  16.9   7.8  59  1014   ---     S    26    26   ---   0.8 Few Clouds/
30/11/2008 11:55      18.0   6.0  18.2  12.4  45  1012   ---   SSW    18    18   ----32740.9 Scattered Clouds/
30/11/2008 12:55      18.0   5.0  18.1  10.6  42  1011   ---     S    27    27   ---   --- /
30/11/2008 13:55      18.0   6.0  18.2  11.3  45  1010   ---   SSW    23    51   ---   --- /
30/11/2008 14:55      17.0   6.0  17.4   9.3  48  1010   ---   SSW    26    26   ---   --- /
30/11/2008 15:55      16.0   4.0  16.2   8.7  45  1010   ---    SW    21    43   ---   --- /
30/11/2008 16:55      16.0   5.0  16.3  11.3  48  1010   ---   SSW    13    13   ---   --- /
30/11/2008 17:55      16.0   5.0  16.3  13.2  48  1010   ---     S     8     8   ---   --- /
30/11/2008 18:55      16.0   5.0  16.3   8.4  48  1010   ---   SSW    23    47   ---   --- /
01/12/2008 06:55      15.0   6.0  15.7  12.0  55  1010   ---   SSW     8     8   ---   --- /
01/12/2008 07:55      14.0   7.0  15.2  10.1  63  1012   ---   SSE    10    10   ---   0.7 Few Clouds/
01/12/2008 08:55      15.0   7.0  15.9  13.3  59  1012   ---   SSE     6     6   ---   0.7 Few Clouds/
01/12/2008 10:55      18.0   7.0  18.4  18.0  49  1012   ---   WSW     3     3   ---   --- /
01/12/2008 11:55      19.0   6.0  19.1  19.0  43  1012   ---     N     0     0   ---   --- /
01/12/2008 12:55      19.0   6.0  19.1  17.7  43  1012   ---     W     6     6   ---   --- /
01/12/2008 13:55      19.0   5.0  18.9  16.7  40  1012   ---     W     8     8   ---   --- /
01/12/2008 14:55      18.0   3.0  17.8  15.5  37  1012   ---   SSW     8     8   ---   --- /
01/12/2008 15:55      17.0   4.0  17.1  14.3  42  1012   ---    SW     8     8   ---   --- /
01/12/2008 16:55      15.0   5.0  15.5  15.0  51  1012   ---    SW     3     3   ---   --- /
01/12/2008 17:55      14.0   4.0  14.5  12.3  51  1013   ---   SSW     6     6   ---   --- /
01/12/2008 18:55      13.0   4.0  13.7   8.9  54  1013   ---    SW    10    10   ---   --- /
02/12/2008 06:55      10.0   0.0  10.4   5.3  50  1011   ---    SW    10    10   ---   --- /
02/12/2008 07:55      10.0   0.0  10.4  10.0  50  1011   ---     N     0     0   ----3274--- Broken Clouds/
02/12/2008 08:55      14.0   5.0  14.7  10.8  55  1011   ---     S     8     8   ----3274--- Broken Clouds/
02/12/2008 10:55      18.0   7.0  18.4  15.5  49  1011   ---   SSE     8     8   ---   0.8 Few Clouds/
02/12/2008 11:55      18.0   7.0  18.4  18.0  49  1010   ---     S     3     3   ---   0.8 Broken Clouds/
02/12/2008 12:55      18.0   8.0  18.6  18.0  52  1009   ---     N     0     0   ---   0.8 Broken Clouds/
02/12/2008 13:55      18.0  10.0  19.0  18.0  60  1008   ---   ---     0     0   ---   0.8 Broken Clouds/
02/12/2008 14:55      18.0  10.0  19.0  18.0  60  1008   ---   ---     0     0   ---   0.8 Broken Clouds/
02/12/2008 15:55      17.0  10.0  18.2  17.0  63  1008   ---   ---     0     0   ---   0.7 Broken Clouds/
02/12/2008 16:55      16.0   9.0  17.2  16.0  63  1008   ---    SE     3     3   ---   0.7 Broken Clouds/
02/12/2008 17:55      15.0   8.0  16.2  15.0  63  1008   ---   SSW     5     5   ---   0.7 Broken Clouds/
02/12/2008 18:55      14.0   9.0  15.8  12.3  72  1008   ---   WSW     6     6   ---   0.7 Broken Clouds/
02/12/2008 12:55      18.0   8.0  18.6  18.0  52  1009   ---     N     0     0   ---   0.8 Broken Clouds/
02/12/2008 15:55      17.0  10.0  18.2  17.0  63  1008   ---   ---     0     0   ---   0.7 Broken Clouds/
03/12/2008 06:55      11.0   9.0  13.9  11.0  87  1005   ---   ---     0     0   ---   0.7 Broken Clouds/
03/12/2008 07:55      12.0  10.0  14.9  10.1  88  1005   ---   WNW     6     6   ---   0.7 Broken Clouds/
03/12/2008 08:55      12.0  10.0  14.9   5.3  88  1005   ---   NNE    14    14   ---   --- Overcast/ Light Rain
03/12/2008 10:55      11.0  10.0  14.4   9.0  94  1006   ---     N     6     6   ---   --- Overcast/ Light Rain
03/12/2008 11:55      12.0  10.0  14.9  12.0  88  1006   ---   NNE     3     3   ---   --- Overcast/ Light Rain
03/12/2008 12:55      12.0  10.0  14.9   8.5  88  1006   ---     S     8     8   ---   0.4 Broken Clouds/
03/12/2008 13:55      12.0  10.0  14.9  12.0  88  1005   ---   NNW     5     5   ---   --- Overcast/ Rain
03/12/2008 14:55      12.0  10.0  14.9  12.0  88  1005   ---     N     0     0   ---   --- Overcast/ Rain
03/12/2008 15:55      12.0  10.0  14.9  12.0  88  1005   ---   ---     0     0   ---   --- Overcast/ Light Rain
03/12/2008 16:55      12.0   9.0  14.5   8.5  82  1005   ---    NW     8     8   ---   --- Overcast/ Light Rain
03/12/2008 17:55      12.0   8.0  14.1   4.5  77  1005   ---   NNW    16    16   ---   --- Overcast/ Light Rain
03/12/2008 18:55      12.0   8.0  14.1   6.2  77  1005   ---    NW    13    13   ---   0.4 Broken Clouds/
04/12/2008 06:55      13.0   6.0  14.2   4.8  62  1001   ---    NW    19    50   ---   0.6 Broken Clouds/
04/12/2008 07:55      13.0   6.0  14.2   5.5  62  1002   ---    NW    18    18   ---   0.6 Broken Clouds/
04/12/2008 08:55      13.0   6.0  14.2   5.5  62  1003   ---   WNW    18    18   ---   0.6 Broken Clouds/
04/12/2008 09:55      13.0   6.0  14.2   4.8  62  1004   ---   WNW    19    19   ---   0.7 Broken Clouds/
04/12/2008 11:55      13.0   6.0  14.2   5.8  62  1006   ---   WNW    16    16   ---   0.7 Broken Clouds/
04/12/2008 12:55      13.0   7.0  14.4   4.8  67  1007   ---     W    19    19   ---   0.4 Broken Clouds/
04/12/2008 13:55      12.0   8.0  14.1  10.1  77  1007   ---     W     6     6   ---   0.6 Broken Clouds/
04/12/2008 14:55      11.0   7.0  13.1   3.1  76  1008   ---     W    16    16   ---   0.6 Broken Clouds/
04/12/2008 15:55      12.0   7.0  13.7   7.7  71  1009   ---     W    10    10   ---   0.7 Broken Clouds/
04/12/2008 16:55      12.0   8.0  14.1  12.0  77  1010   ---     N     0     0   ---   --- Overcast/ Light Rain
04/12/2008 17:55      11.0   7.0  13.1   6.5  76  1011   ---     W    10    10   ---   0.7 Broken Clouds/
04/12/2008 18:55      11.0   7.0  13.1   7.3  76  1012   ---    SW     8     8   ---   0.7 Scattered Clouds/
04/12/2008 16:55      12.0   8.0  14.1  12.0  77  1010   ---     N     0     0   ---   --- Overcast/ Light Rain
05/12/2008 06:55      13.0   6.0  14.2  13.0  62  1015   ---   ---     0     0   ---   0.7 Broken Clouds/
05/12/2008 07:55      13.0   7.0  14.4   9.7  67  1016   ---    SW     8     8   ---   0.7 Scattered Clouds/
05/12/2008 08:55      15.0   8.0  16.2  12.0  63  1016   ---   WSW     8     8   ---   0.7 Scattered Clouds/
05/12/2008 10:55      17.0   7.0  17.5  11.0  52  1016   ---   SSW    18    40   ---   0.6 Scattered Clouds/
05/12/2008 11:55      16.0   7.0  16.7   7.8  55  1015   ---   SSW    26    45   ---   0.7 Few Clouds/
05/12/2008 12:55      17.0   6.0  17.4   9.8  48  1014   ---   SSW    23    23   ---   0.7 Few Clouds/
05/12/2008 13:55      17.0   7.0  17.5  11.0  52  1013   ---   SSW    18    50   ---   0.7 Few Clouds/
05/12/2008 14:55      15.0   4.0  15.3   7.3  48  1013   ---   SSW    21    51   ---   0.7 Few Clouds/
05/12/2008 16:55      14.0   5.0  14.7   5.8  55  1013   ---    SW    21    51   ----3274-32744180.0 Scattered Clouds/
05/12/2008 18:55      14.0   2.0  14.2   6.9  44  1013   ---     S    18    18   ---   --- /
06/12/2008 06:55      14.0   9.0  15.8   7.2  72  1014   ---    SW    16    34   ---   0.6 Broken Clouds/
06/12/2008 07:55      14.0   9.0  15.8   6.9  72  1014   ---   WSW    18    18   ---   0.6 Broken Clouds/
06/12/2008 08:55      15.0  10.0  16.8   8.6  72  1015   ---    SW    16    16   ---   0.6 Broken Clouds/
06/12/2008 10:55      17.0  10.0  18.2  10.4  63  1016   ---     S    19    19   ---   0.6 Few Clouds/
06/12/2008 11:55      18.0   9.0  18.8  15.0  56  1015   ---   SSW    10    10   ---   0.7 Few Clouds/
06/12/2008 12:55      18.0   9.0  18.8  15.0  56  1015   ---    SW    10    10   ---   0.7 Scattered Clouds/
06/12/2008 13:55      18.0  11.0  19.2  12.6  64  1015   ---    NW    16    16   ---   0.6 Scattered Clouds/
06/12/2008 14:55      18.0   8.0  18.6  15.0  52  1014   ---   WSW    10    10   ---   0.6 Scattered Clouds/
06/12/2008 15:55      16.0   8.0  16.9  11.3  59  1014   ---    NW    13    13   ---   0.6 Scattered Clouds/
06/12/2008 16:55      15.0   9.0  16.5  15.0  67  1015   ---   WNW     3     3   ---   0.6 Scattered Clouds/
06/12/2008 17:55      14.0   7.0  15.2  14.0  63  1015   ---   SSW     3     3   ---   0.6 Scattered Clouds/
06/12/2008 18:55      14.0   8.0  15.5   8.0  67  1016   ---   WSW    14    14   ---   0.6 Broken Clouds/
07/12/2008 06:55      14.0   7.0  15.2  12.3  63  1017   ---     W     6     6   ---   0.6 Broken Clouds/
07/12/2008 07:55      13.0   7.0  14.4  13.0  67  1018   ---   SSW     3     3   ---   0.6 Scattered Clouds/
07/12/2008 08:55      15.0   8.0  16.2  15.0  63  1018   ---   ENE     3     3   ---   0.7 Broken Clouds/
07/12/2008 10:55      15.0   8.0  16.2  15.0  63  1019   ---     N     0     0   ---   0.7 Broken Clouds/
07/12/2008 11:55      15.0   7.0  15.9  11.3  59  1019   ---   WNW    10    10   ---   0.7 Broken Clouds/
07/12/2008 12:55      15.0   7.0  15.9   9.3  59  1019   ---     W    14    14   ---   0.7 Scattered Clouds/
07/12/2008 13:55      15.0   8.0  16.2  11.3  63  1018   ---    NW    10    10   ---   0.7 Scattered Clouds/
07/12/2008 14:55      15.0   7.0  15.9  10.0  59  1018   ---   WNW    13    13   ---   0.7 Scattered Clouds/
07/12/2008 15:55      15.0   8.0  16.2  11.3  63  1018   ---     W    10    10   ---   0.7 Broken Clouds/
07/12/2008 16:55      14.0   8.0  15.5  12.3  67  1019   ---     W     6     6   ---   0.7 Broken Clouds/
07/12/2008 17:55      14.0   7.0  15.2  14.0  63  1019   ---   WNW     5     5   ---   0.7 Broken Clouds/
07/12/2008 18:55      13.0   7.0  14.4  11.2  67  1019   ---     W     6     6   ---   0.7 Scattered Clouds/
08/12/2008 06:55      10.0   7.0  12.5  10.0  82  1020   ---    SW     5     5   ---   0.7 Broken Clouds/
08/12/2008 07:55      10.0   7.0  12.5  10.0  82  1021   ---     N     0     0   ---   0.7 Scattered Clouds/
08/12/2008 07:55      10.0   7.0  12.5  10.0  82  1021   ---   ---     0     0   ---   0.7 Scattered Clouds/None reported
08/12/2008 08:55      11.0   7.0  13.1  11.0  76  1021   ---   ---     0     0   ---   0.7 Scattered Clouds/
08/12/2008 10:55      15.0   8.0  16.2  13.3  63  1022   ---     E     6     6   ---   0.7 Broken Clouds/
08/12/2008 11:55      15.0   7.0  15.9  15.0  59  1022   ---     N     0     0   ---   0.7 Broken Clouds/
08/12/2008 12:55      14.0   8.0  15.5  10.8  67  1022   ---    NE     8     8   ---   0.7 Broken Clouds/
08/12/2008 13:55      14.0   7.0  15.2  10.8  63  1022   ---   ENE     8     8   ---   0.7 Broken Clouds/
08/12/2008 14:55      14.0   6.0  14.9  14.0  59  1022   ---     N     0     0   ---   0.7 Scattered Clouds/
08/12/2008 15:55      14.0   6.0  14.9  14.0  59  1022   ---   NNE     5     5   ---   0.7 Scattered Clouds/
08/12/2008 16:55      12.0   6.0  13.4  12.0  67  1022   ---     N     0     0   ---   0.7 Broken Clouds/
08/12/2008 17:55      11.0   5.0  12.4  11.0  66  1022   ---   WSW     5     5   ---   0.7 Scattered Clouds/
08/12/2008 18:55      11.0   6.0  12.7   7.3  71  1022   ---    SW     8     8   ---   0.7 Broken Clouds/
09/12/2008 06:55       8.0   4.0  10.0   3.8  76  1022   ---   WSW     8     8   ---   --- /
09/12/2008 07:55       9.0   3.0  10.4   9.0  66  1022   ---   WSW     5     5   ---   --- /
09/12/2008 08:55      11.0   5.0  12.4  11.0  66  1022   ---     N     0     0   ---   --- /
09/12/2008 10:55      15.0   5.0  15.5  15.0  51  1022   ---   ---     0     0   ----32741.8 Scattered Clouds/
09/12/2008 11:55      15.0   6.0  15.7  15.0  55  1021   ---   ---     0     0   ----32741.2 Scattered Clouds/
09/12/2008 12:55      16.0   4.0  16.2  13.2  45  1021   ---     E     8     8   ----32740.9 Scattered Clouds/
09/12/2008 13:55      14.0   7.0  15.2   8.7  63  1020   ---     E    13    13   ----32740.9 Broken Clouds/
09/12/2008 14:55      14.0   7.0  15.2  10.1  63  1020   ---     E    10    10   ----32740.9 Broken Clouds/
09/12/2008 15:55      14.0   8.0  15.5  14.0  67  1019   ---     N     0     0   ----3274--- Broken Clouds/
09/12/2008 16:55      13.0   7.0  14.4  11.2  67  1019   ---   SSW     6     6   ----32740.7 Broken Clouds/
09/12/2008 17:55      12.0   8.0  14.1  12.0  77  1019   ---   SSW     5     5   ----32740.7 Broken Clouds/
09/12/2008 18:55      13.0   8.0  14.8  13.0  72  1018   ---   SSW     3     3   ----32740.7 Broken Clouds/
09/12/2008 15:55      14.0   8.0  15.5  14.0  67  1019   ---     N     0     0   ----3274--- Broken Clouds/
10/12/2008 07:55      12.0   9.0  14.5  12.0  82  1014   ---   ---     0     0   ---   0.7 Broken Clouds/
10/12/2008 08:55      12.0  10.0  14.9  12.0  88  1013   ---   ---     0     0   ---   0.7 Overcast/
10/12/2008 10:55      15.0  12.0  17.5  15.0  82  1013   ---   ---     0     0   ---   0.7 Broken Clouds/
10/12/2008 11:55      16.0  12.0  18.1  16.0  77  1011   ---    NW     3     3   ---   0.7 Broken Clouds/
10/12/2008 12:55      16.0  12.0  18.1  16.0  77  1011   ---     W     3     3   ---   0.7 Overcast/
10/12/2008 13:55      15.0  12.0  17.5  15.0  82  1010   ---   NNE     3     3   ---   0.7 Broken Clouds/
10/12/2008 14:55      15.0  12.0  17.5  13.3  82  1010   ---     W     6     6   ---   0.7 Broken Clouds/
10/12/2008 16:55      15.0  12.0  17.5  15.0  82  1008   ---     W     5     5   ---   0.7 Broken Clouds/
10/12/2008 18:55      15.0  10.0  16.8  15.0  72  1008   ---   SSW     5     5   ---   0.7 Broken Clouds/
10/12/2008 15:55      15.0  13.0  18.0  13.3  88  1009   ---   WNW     6     6   ---   0.7 Broken Clouds/
11/12/2008 06:55      14.0  12.0  17.0  14.0  88  1001   ---     N     0     0   ---   0.6 Overcast/
11/12/2008 07:55      13.0  11.0  15.9   4.0  88  1001   ---     N    23    23   ---   --- Overcast/ Light Rain
11/12/2008 09:05       0.0   0.0   4.0   0.0 100   ---   ---    SW     5     5   ---   0.6 Broken Clouds/
11/12/2008 10:55      12.0  10.0  14.9  12.0  88  1001   ---     N     0     0   ---   0.6 Overcast/
11/12/2008 11:55      12.0  10.0  14.9  12.0  88  1001   ---    SW     3     3   ---   --- / Thunderstorm
11/12/2008 13:55      12.0  10.0  14.9  12.0  88  1000   ---   SSW     3     3   ---   --- Overcast/ Light Rain
11/12/2008 14:55      12.0  10.0  14.9  12.0  88  1000   ---     N     0     0   ---   0.6 Overcast/
11/12/2008 15:55      12.0  10.0  14.9  12.0  88  1000   ---   ---     0     0   ---   0.6 Overcast/
11/12/2008 16:55      12.0  10.0  14.9  12.0  88  1000   ---    SW     5     5   ---   0.6 Overcast/
11/12/2008 17:55      12.0  10.0  14.9  12.0  88  1000   ---   NNE     3     3   ---   --- Overcast/ Light Rain
11/12/2008 18:55      12.0   9.0  14.5  12.0  82  1000   ---     W     5     5   ---   --- Overcast/ Rain
12/12/2008 06:55       8.0   5.0  10.5  -2.3  81  1006   ---   WSW    19    19   ---   --- Overcast/ Light Rain
12/12/2008 07:55       7.0   4.0   9.4  -3.7  81  1006   ---   WSW    19    19   ---   --- Overcast/ Light Rain
12/12/2008 08:55       9.0   5.0  11.1   2.3  76  1006   ---     W    13    13   ---   0.6 Broken Clouds/
12/12/2008 10:55      12.0   4.0  12.9   5.3  58  1006   ---     W    14    14   ---   0.6 Broken Clouds/
12/12/2008 11:55      11.0   5.0  12.4   4.9  66  1005   ---     W    13    13   ---   0.6 Broken Clouds/
12/12/2008 12:55      11.0   5.0  12.4   2.7  66  1005   ---     W    18    18   ---   0.6 Broken Clouds/
12/12/2008 13:55      12.0   4.0  12.9   4.1  58  1005   ---     W    18    18   ---   0.6 Broken Clouds/
12/12/2008 14:55      12.0   5.0  13.1   3.3  62  1005   ---     W    19    19   ---   0.6 Broken Clouds/
12/12/2008 15:55      11.0   5.0  12.4   1.5  66  1006   ---     W    21    50   ---   0.6 Broken Clouds/
12/12/2008 16:55      11.0   4.0  12.1   1.5  62  1007   ---     W    21    21   ---   0.6 Broken Clouds/
12/12/2008 17:55      11.0   4.0  12.1   0.1  62  1007   ---     W    27    27   ---   0.6 Broken Clouds/
12/12/2008 18:55      11.0   3.0  11.9  -2.1  58  1007   ---   WNW    47    84   ---   0.7 Broken Clouds/
12/12/2008 15:55      11.0   5.0  12.4   1.5  66  1006   ---     W    21    50   ---   0.6 Broken Clouds/
13/12/2008 06:55      11.0   5.0  12.4  -0.4  66  1011   ---     W    31    53   ---   0.7 Broken Clouds/
13/12/2008 07:55      12.0   6.0  13.4   5.3  67  1012   ---   WSW    14    14   ---   0.7 Broken Clouds/
13/12/2008 08:55      12.0   7.0  13.7   4.1  71  1012   ---   WSW    18    42   ---   0.7 Broken Clouds/
13/12/2008 10:55      14.0   6.0  14.9   6.9  59  1013   ---     W    18    40   ---   0.7 Broken Clouds/
13/12/2008 11:55      14.0   5.0  14.7   8.0  55  1013   ---     W    14    40   ---   0.7 Broken Clouds/
13/12/2008 12:55      14.0   6.0  14.9   6.9  59  1012   ---     N    18    18   ---   0.7 Broken Clouds/
13/12/2008 13:55      14.0   6.0  14.9  10.1  59  1012   ---   WSW    10    10   ---   0.7 Scattered Clouds/
13/12/2008 14:55      14.0   6.0  14.9  14.0  59  1012   ---     N     5     5   ---   0.7 Scattered Clouds/
13/12/2008 15:55      13.0   7.0  14.4  13.0  67  1012   ---     W     5     5   ---   0.7 Scattered Clouds/
13/12/2008 16:55      12.0   6.0  13.4  12.0  67  1012   ---    SW     5     5   ---   0.7 Scattered Clouds/
13/12/2008 17:55      11.0   6.0  12.7  11.0  71  1012   ---   SSW     3     3   ---   1.2 Scattered Clouds/
13/12/2008 18:55      10.0   6.0  12.1  10.0  76  1012   ---     N     0     0   ----32741.0 Broken Clouds/
13/12/2008 15:55      13.0   7.0  14.4  13.0  67  1012   ---     W     5     5   ---   0.7 Scattered Clouds/
14/12/2008 06:55       9.0   7.0  11.9   9.0  87  1007   ---     W     3     3   ---   0.7 Broken Clouds/
14/12/2008 07:55       9.0   8.0  12.4   9.0  93  1007   ---     N     0     0   ---   0.7 Broken Clouds/
14/12/2008 08:55      11.0   8.0  13.5  11.0  82  1007   ---   ---     0     0   ---   0.7 Broken Clouds/
14/12/2008 10:55      14.0   7.0  15.2  10.8  63  1007   ---    SW     8     8   ---   0.7 Scattered Clouds/
14/12/2008 11:55      15.0   7.0  15.9   9.3  59  1007   ---     S    14    14   ---   0.7 Scattered Clouds/
14/12/2008 13:55      16.0   5.0  16.3  12.5  48  1005   ---   SSE    10    10   ---   0.7 Few Clouds/
14/12/2008 14:55      15.0   5.0  15.5  15.0  51  1005   ---     S     5     5   ---   0.7 Few Clouds/
14/12/2008 16:55      14.0   6.0  14.9   4.6  59  1005   ---     S    27    51   ---   0.7 Broken Clouds/
14/12/2008 17:55      13.0   5.0  13.9   3.4  58  1005   ---     S    26    55   ---   0.7 Few Clouds/
14/12/2008 18:55      14.0   5.0  14.7   3.4  55  1005   ---     S    37    64   ---   0.7 Few Clouds/
15/12/2008 06:55      15.0   6.0  15.7   9.3  55  1006   ---   SSW    14    14   ---   0.7 Scattered Clouds/
15/12/2008 07:55      15.0   7.0  15.9  11.3  59  1007   ---   SSW    10    10   ---   0.7 Scattered Clouds/
15/12/2008 08:55      16.0   8.0  16.9  13.2  59  1008   ---   SSE     8     8   ---   0.7 Scattered Clouds/
15/12/2008 10:55      18.0   7.0  18.4  12.6  49  1008   ---     S    16    16   ---   0.7 Few Clouds/
15/12/2008 11:55      18.0   7.0  18.4  11.8  49  1008   ---   SSE    19    43   ---   0.7 Scattered Clouds/
15/12/2008 12:55      19.0   7.0  19.2  12.7  46  1008   ---     S    23    23   ---   0.7 Broken Clouds/
15/12/2008 13:55      19.0   6.0  19.1  12.7  43  1008   ---     S    23    45   ---   0.7 Scattered Clouds/
15/12/2008 14:55      18.0   7.0  18.4  11.6  49  1007   ---   ESE    21    21   ---   0.7 Scattered Clouds/
15/12/2008 15:55      17.0   7.0  17.5  11.9  52  1007   ---    SE    14    14   ---   0.7 Scattered Clouds/
15/12/2008 16:55      16.0   7.0  16.7  10.6  55  1008   ---    SE    14    14   ---   0.7 Scattered Clouds/
15/12/2008 17:55      15.0   9.0  16.5   8.6  67  1008   ---    SE    16    16   ---   0.7 Scattered Clouds/
15/12/2008 18:55      15.0   9.0  16.5   6.9  67  1008   ---    SE    23    23   ---   0.7 Few Clouds/
16/12/2008 06:55      16.0   9.0  17.2  16.0  63  1008   ---     N     0     0   ---   0.7 Broken Clouds/
16/12/2008 07:55      16.0   9.0  17.2  16.0  63  1008   ---   ---     0     0   ---   0.7 Broken Clouds/
16/12/2008 08:55      15.0  11.0  17.1  13.3  77  1009   ---   NNE     6     6   ---   0.7 Scattered Clouds/
16/12/2008 09:55      17.0  10.0  18.2  17.0  63  1010   ---     N     0     0   ---   0.7 Broken Clouds/
16/12/2008 11:55      17.0   9.0  18.0  15.5  59  1010   ---   SSW     6     6   ---   0.7 Broken Clouds/
16/12/2008 12:55      18.0   8.0  18.6  15.5  52  1010   ---   SSW     8     8   ---   0.7 Broken Clouds/
16/12/2008 13:55      17.0   7.0  17.5  17.0  52  1010   ---     N     0     0   ---   0.7 Broken Clouds/
16/12/2008 14:55      17.0   5.0  17.2  14.3  45  1009   ---     S     8     8   ---   0.7 Scattered Clouds/
16/12/2008 15:55      17.0   4.0  17.1  17.0  42  1009   ---     S     5     5   ----3274--- Scattered Clouds/
16/12/2008 16:55      15.0   4.0  15.3  15.0  48  1009   ---     S     5     5   ----3274--- Scattered Clouds/
16/12/2008 17:55      14.0   4.0  14.5  10.8  51  1010   ---     S     8     8   ----3274--- Scattered Clouds/
16/12/2008 18:55      14.0   4.0  14.5  10.8  51  1010   ---   SSW     8     8   ----3274--- Scattered Clouds/
16/12/2008 09:55      17.0  10.0  18.2  17.0  63  1010   ---     N     0     0   ---   0.7 Broken Clouds/
17/12/2008 06:55      12.0   7.0  13.7  10.1  71  1008   ---   SSW     6     6   ----3274--- Broken Clouds/
17/12/2008 07:55      12.0   7.0  13.7  12.0  71  1008   ---     N     0     0   ---   0.7 Broken Clouds/
17/12/2008 08:55      13.0   8.0  14.8  13.0  72  1008   ---   ---     0     0   ---   0.7 Broken Clouds/
17/12/2008 10:55      14.0   8.0  15.5  14.0  67  1008   ---   ---     0     0   ---   0.7 Overcast/
17/12/2008 11:55      14.0   8.0  15.5  14.0  67  1008   ---   ---     0     0   ---   0.7 Overcast/
17/12/2008 12:55      14.0   6.0  14.9  14.0  59  1007   ---   ---     0     0   ---   0.7 Overcast/
17/12/2008 14:55      13.0   4.0  13.7   8.9  54  1007   ---   SSW    10    10   ---   0.7 Overcast/
17/12/2008 15:55      12.0   3.0  12.7  12.0  54  1006   ---    SW     5     5   ---   0.7 Overcast/
17/12/2008 16:55      12.0   3.0  12.7   7.7  54  1006   ---     S    10    10   ---   0.7 Broken Clouds/
17/12/2008 17:55      11.0   3.0  11.9  11.0  58  1006   ---   SSE     3     3   ----32741.0 Scattered Clouds/
17/12/2008 18:55      10.0   4.0  11.4  10.0  66  1006   ---   ESE     3     3   ---   0.9 Scattered Clouds/
18/12/2008 06:55       9.0   7.0  11.9   4.1  87  1007   ---     W    10    10   ---   0.7 Broken Clouds/
18/12/2008 07:55      10.0   8.0  12.9  10.0  87  1008   ---     N     0     0   ---   0.7 Broken Clouds/
18/12/2008 08:55      11.0   8.0  13.5  11.0  82  1009   ---   ---     0     0   ---   0.7 Broken Clouds/
18/12/2008 09:55      12.0   8.0  14.1  12.0  77  1009   ---    SW     5     5   ---   0.7 Scattered Clouds/
18/12/2008 11:55      14.0   9.0  15.8   8.7  72  1009   ---   WSW    13    31   ---   0.7 Scattered Clouds/
18/12/2008 12:55      14.0   7.0  15.2  10.1  63  1008   ---     W    10    31   ---   0.7 Broken Clouds/
18/12/2008 14:55      13.0   7.0  14.4   9.7  67  1008   ---     W     8    31   ---   0.7 Broken Clouds/
18/12/2008 15:55      13.0   7.0  14.4   5.5  67  1009   ---     W    18    40   ---   0.7 Broken Clouds/
18/12/2008 16:55      11.0   8.0  13.5   2.7  82  1009   ---     W    18    39   ---   0.7 Broken Clouds/
18/12/2008 17:55      11.0   6.0  12.7  -0.4  71  1010   ---     W    31    63   ---   0.7 Scattered Clouds/
18/12/2008 18:55      11.0   7.0  13.1   1.1  76  1011   ---     W    23    42   ---   0.7 Scattered Clouds/
19/12/2008 06:55      11.0   6.0  12.7  11.0  71  1014   ---     N     0     0   ---   0.6 Broken Clouds/
19/12/2008 07:55      10.0   7.0  12.5  10.0  82  1015   ---   ---     0     0   ---   0.6 Broken Clouds/
19/12/2008 08:55      10.0   7.0  12.5   7.9  82  1015   ---     W     6     6   ---   --- Overcast/ Light Rain
19/12/2008 10:55      12.0   9.0  14.5  12.0  82  1016   ---     N     0     0   ---   0.7 Broken Clouds/
19/12/2008 11:55      14.0   9.0  15.8   8.7  72  1015   ---   WNW    13    13   ---   0.6 Broken Clouds/
19/12/2008 12:55      14.0   8.0  15.5  12.3  67  1015   ---     W     6     6   ---   0.6 Broken Clouds/
19/12/2008 13:55      13.0   7.0  14.4   9.7  67  1015   ---     W     8     8   ---   0.6 Broken Clouds/
19/12/2008 14:55      11.0   7.0  13.1   7.3  76  1015   ---   WNW     8     8   ---   --- Overcast/ Light Rain
19/12/2008 15:55      10.0   7.0  12.5   6.2  82  1015   ---   WSW     8     8   ---   0.6 Broken Clouds/
19/12/2008 17:55       9.0   6.0  11.5   2.3  81  1016   ---    NW    13    13   ---   0.6 Broken Clouds/
19/12/2008 18:55       9.0   7.0  11.9   9.0  87  1017   ---   SSW     5     5   ---   0.6 Broken Clouds/
20/12/2008 06:55      10.0   8.0  12.9   1.4  87  1018   ---   WNW    18    18   ---   0.5 Broken Clouds/
20/12/2008 08:55      11.0   7.0  13.1   4.9  76  1019   ---   NNW    13    13   ---   0.5 Broken Clouds/
20/12/2008 11:55      12.0   8.0  14.1  12.0  77  1020   ---     N     0     0   ---   0.6 Broken Clouds/
20/12/2008 12:55      12.0   7.0  13.7   6.2  71  1020   ---     N    13    13   ---   0.6 Broken Clouds/
20/12/2008 13:55      13.0   7.0  14.4   6.6  67  1020   ---     N    14    14   ---   0.6 Broken Clouds/
20/12/2008 14:55      13.0   7.0  14.4   7.4  67  1020   ---     N    13    13   ---   0.6 Broken Clouds/
20/12/2008 15:55      12.0   7.0  13.7   8.5  71  1020   ---     N     8     8   ---   0.7 Broken Clouds/
20/12/2008 16:55      12.0   7.0  13.7   8.5  71  1020   ---    NW     8     8   ---   0.7 Broken Clouds/
20/12/2008 17:55      11.0   7.0  13.1   9.0  76  1021   ---   NNW     6     6   ---   0.7 Broken Clouds/
20/12/2008 18:55      11.0   7.0  13.1  11.0  76  1022   ---   NNW     3     3   ---   0.7 Scattered Clouds/
21/12/2008 06:55      10.0   7.0  12.5   7.9  82  1022   ---    NW     6     6   ---   0.7 Few Clouds/
21/12/2008 07:55      11.0   7.0  13.1  11.0  76  1022   ---     N     0     0   ---   0.7 Few Clouds/
21/12/2008 08:55      12.0   8.0  14.1   5.3  77  1022   ---    NW    14    14   ---   0.7 Few Clouds/
21/12/2008 11:55      15.0   9.0  16.5   7.6  67  1023   ---   WNW    19    19   ---   0.8 Scattered Clouds/
21/12/2008 12:55      15.0   8.0  16.2   8.6  63  1023   ---   WNW    16    16   ---   0.8 Scattered Clouds/
21/12/2008 13:55      15.0   9.0  16.5   7.6  67  1023   ---   WNW    19    19   ---   0.8 Scattered Clouds/
21/12/2008 14:55      15.0   9.0  16.5   7.3  67  1023   ---     W    21    21   ---   0.8 Scattered Clouds/
21/12/2008 15:55      14.0   9.0  15.8   8.0  72  1023   ---     W    14    14   ---   0.7 Scattered Clouds/
21/12/2008 16:55      13.0   9.0  15.1  13.0  77  1024   ---   WNW     5     5   ---   0.7 Scattered Clouds/
21/12/2008 17:55      12.0   9.0  14.5  12.0  82  1024   ---   WNW     5     5   ---   0.7 Scattered Clouds/
21/12/2008 18:55      12.0   9.0  14.5  10.1  82  1025   ---   WNW     6     6   ---   0.7 Scattered Clouds/
21/12/2008 16:55      13.0   9.0  15.1  13.0  77  1024   ---   WNW     5     5   ---   0.7 Scattered Clouds/
22/12/2008 06:55      10.0   8.0  12.9  10.0  87  1026   ---     N     0     0   ---   0.7 Few Clouds/
22/12/2008 07:55      10.0   8.0  12.9  10.0  87  1027   ---   WSW     5     5   ---   0.7 Few Clouds/
22/12/2008 08:55      12.0   9.0  14.5  12.0  82  1027   ---    SW     3     3   ----32740.6 Few Clouds/
22/12/2008 09:55      14.0   8.0  15.5  14.0  67  1027   ---     N     0     0   ---   --- /
22/12/2008 11:55      15.0   7.0  15.9  13.3  59  1027   ---     N     6    26   ---   0.7 Few Clouds/
22/12/2008 12:55      15.0   6.0  15.7   8.6  55  1026   ---     N    16    39   ---   0.7 Few Clouds/
22/12/2008 13:55      15.0   6.0  15.7   8.6  55  1026   ---   NNW    16    16   ---   0.7 Few Clouds/
22/12/2008 14:55      14.0   7.0  15.2  10.1  63  1025   ---   NNW    10    10   ---   0.7 Scattered Clouds/
22/12/2008 15:55      14.0   7.0  15.2   8.0  63  1025   ---   NNW    14    14   ---   0.7 Few Clouds/
22/12/2008 16:55      12.0   7.0  13.7  12.0  71  1025   ---   WNW     5     5   ---   0.7 Few Clouds/
22/12/2008 17:55      12.0   8.0  14.1  12.0  77  1025   ---     N     0     0   ---   0.7 Few Clouds/
22/12/2008 18:55      11.0   7.0  13.1  11.0  76  1025   ---   ---     0     0   ---   0.7 Scattered Clouds/
22/12/2008 17:55      12.0   8.0  14.1  12.0  77  1025   ---   ---     0     0   ---   0.7 Few Clouds/
22/12/2008 18:55      11.0   7.0  13.1  11.0  76  1025   ---   ---     0     0   ---   0.7 Scattered Clouds/
23/12/2008 06:55      10.0   9.0  13.4   7.9  94  1025   ---   SSE     6     6   ---   0.7 Few Clouds/
23/12/2008 07:55      10.0   9.0  13.4  10.0  94  1025   ---   WNW     3     3   ---   0.7 Few Clouds/
23/12/2008 08:55      12.0  10.0  14.9  12.0  88  1026   ---     N     0     0   ---   0.7 Few Clouds/
23/12/2008 10:55      16.0  10.0  17.5  16.0  68  1027   ---   ---     0     0   ---   0.8 Scattered Clouds/
23/12/2008 11:55      15.0  10.0  16.8  15.0  72  1026   ---   ---     0     0   ---   0.7 Few Clouds/
23/12/2008 12:55      15.0   9.0  16.5  13.3  67  1026   ---   NNE     6     6   ---   0.7 Few Clouds/
23/12/2008 13:55      15.0  10.0  16.8  10.0  72  1026   ---   WNW    13    13   ---   0.7 Few Clouds/
23/12/2008 14:55      14.0   9.0  15.8  10.1  72  1025   ---    NW    10    10   ---   0.9 Few Clouds/
23/12/2008 15:55      14.0   9.0  15.8   8.7  72  1025   ---   WNW    13    13   ---   0.9 Few Clouds/
23/12/2008 16:55      13.0   8.0  14.8   9.7  72  1025   ---     W     8     8   ---   0.7 Few Clouds/
23/12/2008 17:55      12.0   8.0  14.1  12.0  77  1025   ---   WSW     3     3   ---   0.7 Few Clouds/
23/12/2008 18:55      11.0   9.0  13.9  11.0  87  1026   ---    SW     5     5   ---   0.8 Scattered Clouds/
23/12/2008 17:55      12.0   8.0  14.1  12.0  77  1025   ---   WSW     3     3   ---   0.7 Few Clouds/
23/12/2008 18:55      11.0   9.0  13.9  11.0  87  1026   ---    SW     5     5   ---   0.8 Scattered Clouds/
24/12/2008 06:55      12.0   9.0  14.5  12.0  82  1026   ---     N     0     0   ---   0.7 Broken Clouds/
24/12/2008 07:55      12.0   8.0  14.1  12.0  77  1027   ---   ---     0     0   ---   0.7 Broken Clouds/
24/12/2008 08:55      12.0   9.0  14.5  12.0  82  1027   ---   ---     0     0   ---   0.7 Broken Clouds/
24/12/2008 09:55      13.0   9.0  15.1  13.0  77  1027   ---   ---     0     0   ---   0.7 Broken Clouds/
24/12/2008 11:55      14.0   9.0  15.8  14.0  72  1027   ---   ---     0     0   ---   0.7 Broken Clouds/
24/12/2008 12:55      14.0   8.0  15.5  14.0  67  1026   ---   ---     0     0   ---   0.7 Broken Clouds/
24/12/2008 13:55      15.0   8.0  16.2  13.3  63  1026   ---    SE     6     6   ---   0.7 Scattered Clouds/
24/12/2008 14:55      15.0   8.0  16.2  13.3  63  1026   ---     E     6     6   ---   0.7 Broken Clouds/
24/12/2008 15:55      14.0   9.0  15.8  10.8  72  1026   ---     E     8     8   ---   0.7 Broken Clouds/
24/12/2008 17:55      13.0   9.0  15.1  13.0  77  1025   ---     N     0     0   ---   0.7 Broken Clouds/
24/12/2008 18:55      12.0   9.0  14.5  12.0  82  1025   ---    SW     3     3   ---   0.7 Scattered Clouds/
25/12/2008 06:55      10.0   8.0  12.9  10.0  87  1021   ---     W     3     3   ---   0.7 Scattered Clouds/
25/12/2008 07:55      10.0   8.0  12.9  10.0  87  1020   ---   SSW     3     3   ---   0.7 Broken Clouds/
25/12/2008 08:55      11.0   9.0  13.9  11.0  87  1020   ---     N     0     0   ---   0.7 Broken Clouds/
25/12/2008 10:55      15.0   9.0  16.5  11.3  67  1020   ---     S    10    10   ---   0.7 Broken Clouds/
25/12/2008 11:55      15.0  10.0  16.8  15.0  72  1019   ---    NE     5     5   ---   0.7 Broken Clouds/
25/12/2008 12:55      15.0   9.0  16.5  10.0  67  1018   ---     S    13    13   ---   0.7 Broken Clouds/
25/12/2008 13:55      15.0   8.0  16.2  15.0  63  1017   ---     W     3     3   ---   0.7 Scattered Clouds/
25/12/2008 14:55      15.0   8.0  16.2  12.0  63  1017   ---     S     8     8   ---   0.7 Broken Clouds/
25/12/2008 15:55      15.0   7.0  15.9   9.3  59  1017   ---     S    14    14   ---   0.7 Broken Clouds/
25/12/2008 16:55      14.0   8.0  15.5  14.0  67  1016   ---   WSW     5     5   ---   0.7 Broken Clouds/
25/12/2008 17:55      13.0   8.0  14.8   9.7  72  1016   ---    SW     8     8   ---   0.7 Scattered Clouds/
25/12/2008 18:55      13.0   7.0  14.4   5.8  67  1016   ---    SW    16    16   ---   --- /
26/12/2008 06:55       9.0   7.0  11.9   9.0  87  1014   ---    SW     3     3   ---   0.7 Scattered Clouds/
26/12/2008 07:55       9.0   7.0  11.9   9.0  87  1014   ---     N     0     0   ---   0.7 Scattered Clouds/
26/12/2008 08:55      12.0   9.0  14.5  12.0  82  1014   ---   ---     0     0   ---   0.7 Scattered Clouds/
26/12/2008 10:55      14.0   9.0  15.8  14.0  72  1015   ---   ---     0     0   ---   0.7 Broken Clouds/
26/12/2008 11:55      15.0   9.0  16.5  15.0  67  1015   ---   WNW     3     3   ---   0.7 Broken Clouds/
26/12/2008 12:55      15.0   8.0  16.2  15.0  63  1014   ---    NW     3     3   ---   0.7 Scattered Clouds/
26/12/2008 13:55      15.0   9.0  16.5  13.3  67  1014   ---   ENE     6     6   ---   0.7 Broken Clouds/
26/12/2008 14:55      14.0  10.0  16.1  12.3  77  1014   ---   ENE     6     6   ---   0.7 Broken Clouds/
26/12/2008 15:55      14.0  10.0  16.1  10.8  77  1014   ---     E     8     8   ---   0.7 Broken Clouds/
26/12/2008 16:55      13.0   9.0  15.1  11.2  77  1014   ---     E     6     6   ---   0.7 Broken Clouds/
26/12/2008 17:55      13.0   9.0  15.1  13.0  77  1015   ---     N     0     0   ---   0.7 Broken Clouds/
26/12/2008 18:55      11.0   9.0  13.9   9.0  87  1015   ---   WSW     6     6   ---   0.7 Scattered Clouds/
27/12/2008 06:55      10.0   7.0  12.5  10.0  82  1015   ---    SW     5     5   ---   0.8 Scattered Clouds/
27/12/2008 07:55      10.0   7.0  12.5  10.0  82  1016   ---   WSW     5     5   ---   0.8 Broken Clouds/
27/12/2008 08:55      10.0   7.0  12.5  10.0  82  1016   ---    SW     5     5   ---   0.7 Few Clouds/
27/12/2008 10:55      15.0   8.0  16.2  15.0  63  1017   ---     N     0     0   ---   0.7 Few Clouds/
27/12/2008 11:55      15.0   9.0  16.5  15.0  67  1017   ---   ---     0     0   ---   0.7 Broken Clouds/
27/12/2008 12:55      14.0   9.0  15.8  14.0  72  1016   ---   NNE     5     5   ---   0.7 Broken Clouds/
27/12/2008 13:55      14.0   9.0  15.8  14.0  72  1016   ---     N     0     0   ---   0.7 Broken Clouds/
27/12/2008 14:55      14.0   9.0  15.8  14.0  72  1016   ---   ENE     5     5   ---   0.7 Broken Clouds/
27/12/2008 15:55      14.0   9.0  15.8  14.0  72  1016   ---   ENE     5     5   ---   0.7 Broken Clouds/
27/12/2008 16:55      13.0  10.0  15.5  13.0  82  1016   ---     N     0     0   ---   0.6 Broken Clouds/
27/12/2008 17:55      13.0  10.0  15.5  13.0  82  1016   ---   ---     0     0   ---   0.6 Broken Clouds/
27/12/2008 18:55      12.0   9.0  14.5  12.0  82  1016   ---     S     3     3   ---   0.6 Broken Clouds/
27/12/2008 17:55      13.0  10.0  15.5  13.0  82  1016   ---     N     0     0   ---   0.6 Broken Clouds/
28/12/2008 06:55      12.0   7.0  13.7   8.5  71  1013   ---   WSW     8     8   ---   0.7 Broken Clouds/
28/12/2008 07:55      12.0   7.0  13.7  12.0  71  1014   ---     N     0     0   ---   0.7 Broken Clouds/
28/12/2008 08:55      12.0   7.0  13.7  12.0  71  1014   ---   ---     0     0   ---   0.7 Broken Clouds/
28/12/2008 09:55      13.0   8.0  14.8  13.0  72  1015   ---   ---     0     0   ---   0.8 Broken Clouds/
28/12/2008 11:55      16.0   8.0  16.9  13.2  59  1015   ---   SSW     8     8   ---   0.7 Scattered Clouds/
28/12/2008 12:55      16.0   7.0  16.7  12.5  55  1015   ---   SSW    10    10   ---   0.7 Scattered Clouds/
28/12/2008 13:55      16.0   7.0  16.7  11.3  55  1014   ---     S    13    13   ---   0.7 Scattered Clouds/
28/12/2008 14:55      16.0   6.0  16.5  13.2  51  1013   ---    SW     8     8   ---   0.7 Scattered Clouds/
28/12/2008 15:55      15.0   5.0  15.5  13.3  51  1014   ---    SW     6     6   ---   0.7 Broken Clouds/
28/12/2008 16:55      14.0   5.0  14.7  14.0  55  1014   ---   WSW     5     5   ---   0.7 Broken Clouds/
28/12/2008 17:55      13.0   6.0  14.2  13.0  62  1014   ---     N     0     0   ---   0.7 Scattered Clouds/
28/12/2008 18:55      13.0   8.0  14.8  13.0  72  1014   ---   ---     0     0   ---   0.7 Scattered Clouds/
29/12/2008 06:55      11.0  10.0  14.4  11.0  94  1017   ---   ---     0     0   ---   --- Overcast/ Light Rain
29/12/2008 07:55      11.0  10.0  14.4  11.0  94  1018   ---    SW     3     3   ---   0.8 Overcast/
29/12/2008 08:55      11.0  10.0  14.4  11.0  94  1019   ---   WSW     5     5   ---   --- Overcast/ Light Rain
29/12/2008 10:55      14.0  11.0  16.5  14.0  82  1020   ---     N     0     0   ---   0.6 Broken Clouds/
29/12/2008 12:55      15.0  11.0  17.1  15.0  77  1020   ---     E     5     5   ---   0.6 Broken Clouds/
29/12/2008 13:55      15.0  10.0  16.8  11.3  72  1019   ---     E    10    10   ---   0.6 Broken Clouds/
29/12/2008 14:55      14.0   9.0  15.8  10.1  72  1019   ---   ENE    10    10   ---   0.6 Broken Clouds/
29/12/2008 15:55      14.0  10.0  16.1  10.8  77  1020   ---   ENE     8     8   ---   0.6 Broken Clouds/
29/12/2008 16:55      14.0  10.0  16.1  14.0  77  1020   ---     E     5     5   ---   0.6 Broken Clouds/
29/12/2008 17:55      13.0  10.0  15.5  11.2  82  1020   ---     E     6     6   ---   --- Overcast/ Rain
29/12/2008 18:55      12.0  10.0  14.9   6.2  88  1022   ---   ENE    13    13   ---   0.6 Overcast/
30/12/2008 06:55      11.0  10.0  14.4  11.0  94  1025   ---     W     5     5   ---   0.5 Overcast/
30/12/2008 07:55      11.0   9.0  13.9  11.0  87  1025   ---     S     5     5   ---   0.6 Broken Clouds/
30/12/2008 08:55      11.0   9.0  13.9  11.0  87  1026   ---     N     0     0   ---   --- Overcast/ Light Rain
30/12/2008 10:55      13.0  11.0  15.9  13.0  88  1027   ---   ---     0     0   ---   0.6 Broken Clouds/
30/12/2008 11:55      14.0  10.0  16.1  14.0  77  1027   ---   ---     0     0   ---   0.6 Broken Clouds/
30/12/2008 12:55      14.0  10.0  16.1  14.0  77  1027   ---   ---     0     0   ---   0.6 Broken Clouds/
30/12/2008 13:55      14.0  11.0  16.5  14.0  82  1027   ---   ENE     3     3   ---   0.6 Overcast/
30/12/2008 14:55      14.0  11.0  16.5  14.0  82  1027   ---   ENE     3     3   ---   0.5 Broken Clouds/
30/12/2008 15:55      14.0  11.0  16.5  14.0  82  1027   ---     N     0     0   ---   0.5 Broken Clouds/
30/12/2008 16:55      13.0  11.0  15.9  13.0  88  1027   ---   ---     0     0   ---   0.5 Broken Clouds/
30/12/2008 18:55      13.0  11.0  15.9  13.0  88  1027   ---   ---     0     0   ---   0.5 Broken Clouds/
31/12/2008 06:55      11.0   9.0  13.9  11.0  87  1029   ---    SW     5     5   ---   1.2 Broken Clouds/
31/12/2008 07:55      11.0   9.0  13.9  11.0  87  1029   ---     N     0     0   ---   1.2 Broken Clouds/
31/12/2008 08:55      11.0  11.0  15.0  11.0 100  1029   ---   ---     0     0   ---   1.2 Broken Clouds/
31/12/2008 10:55      15.0  10.0  16.8  15.0  72  1030   ---   ENE     3     3   ---   0.8 Broken Clouds/
31/12/2008 11:55      16.0  10.0  17.5  16.0  68  1030   ---    NE     5     5   ---   0.8 Broken Clouds/
31/12/2008 12:55      15.0   9.0  16.5  12.0  67  1029   ---   NNW     8     8   ---   0.8 Broken Clouds/
31/12/2008 13:55      15.0  10.0  16.8  15.0  72  1029   ---     N     3     3   ---   0.8 Broken Clouds/
31/12/2008 14:55      15.0  10.0  16.8  15.0  72  1029   ---     N     3     3   ---   0.8 Broken Clouds/
31/12/2008 15:55      14.0   9.0  15.8  14.0  72  1029   ---     N     0     0   ---   1.2 Broken Clouds/
31/12/2008 16:55      14.0  10.0  16.1  14.0  77  1029   ---   ---     0     0   ---   0.8 Few Clouds/
31/12/2008 17:55      12.0   9.0  14.5  12.0  82  1029   ---    SW     3     3   ---   0.8 Scattered Clouds/
31/12/2008 18:55      11.0   8.0  13.5  11.0  82  1029   ---    SW     3     3   ---   --- /
01/01/2009 06:55      10.0   6.0  12.1  10.0  76  1025   ---     N     0     0   ---   0.7 Scattered Clouds/
01/01/2009 07:55      10.0   6.0  12.1  10.0  76  1025   ---   ---     0     0   ---   0.7 Scattered Clouds/
01/01/2009 08:55      14.0   7.0  15.2  10.1  63  1025   ---   SSW    10    42   ---   0.7 Scattered Clouds/
01/01/2009 09:55      16.0   8.0  16.9  16.0  59  1024   ---    SW     5     5   ---   0.7 Scattered Clouds/
01/01/2009 09:55      16.0   8.0  16.9  16.0  59  1024   ---    SW     5     5   ---   0.7 Scattered Clouds/None reported
01/01/2009 11:55      16.0   9.0  17.2   9.9  63  1023   ---   SSW    16    16   ---   0.7 Scattered Clouds/
01/01/2009 12:55      16.0   9.0  17.2   9.6  63  1022   ---   SSW    18    18   ---   0.7 Scattered Clouds/
01/01/2009 13:55      16.0   9.0  17.2   9.0  63  1021   ---   SSW    19    50   ---   0.7 Scattered Clouds/
01/01/2009 14:55      15.0   8.0  16.2   8.2  63  1020   ---    SW    18    18   ---   0.7 Scattered Clouds/
01/01/2009 15:55      15.0   8.0  16.2   7.3  63  1020   ---    SW    21    40   ---   0.7 Scattered Clouds/
01/01/2009 16:55      14.0   9.0  15.8  10.1  72  1020   ---    SW    10    10   ---   --- /
01/01/2009 17:55      14.0   9.0  15.8  10.1  72  1020   ---    SW    10    10   ---   0.7 Few Clouds/
01/01/2009 18:55      14.0   9.0  15.8   6.2  72  1020   ---    SW    19    19   ---   0.7 Few Clouds/
01/01/2009 17:55      14.0   9.0  15.8  10.1  72  1020   ---    SW    10    10   ---   0.7 Few Clouds/
02/01/2009 06:55      13.0   8.0  14.8   9.7  72  1018   ---    SW     8     8   ---   0.8 Broken Clouds/
02/01/2009 07:55      14.0   7.0  15.2   6.2  63  1018   ---    SW    19    19   ---   0.8 Broken Clouds/
02/01/2009 08:55      14.0   8.0  15.5   5.8  67  1018   ---   WSW    21    21   ---   0.8 Broken Clouds/
02/01/2009 10:55      16.0   9.0  17.2  10.6  63  1018   ---   WSW    14    14   ---   0.8 Broken Clouds/
02/01/2009 11:55      16.0   9.0  17.2  10.6  63  1018   ---     W    14    14   ---   0.7 Broken Clouds/
02/01/2009 12:55      17.0  11.0  18.5  14.3  68  1017   ---     W     8     8   ---   0.7 Broken Clouds/
02/01/2009 13:55      17.0  11.0  18.5  13.8  68  1016   ---   WSW    10    10   ---   0.7 Broken Clouds/
02/01/2009 14:55      17.0  11.0  18.5  15.5  68  1016   ---   SSW     6     6   ---   0.7 Overcast/
02/01/2009 15:55      16.0  10.0  17.5  16.0  68  1016   ---    SW     5     5   ---   0.7 Overcast/
02/01/2009 16:55      15.0  10.0  16.8  15.0  72  1016   ---     S     3     3   ---   0.7 Broken Clouds/
02/01/2009 17:55      14.0  10.0  16.1  14.0  77  1015   ---     S     5     5   ---   0.7 Broken Clouds/
02/01/2009 18:55      14.0  10.0  16.1  14.0  77  1015   ---   WSW     3     3   ---   0.7 Broken Clouds/
03/01/2009 06:55      13.0   9.0  15.1   5.8  77  1010   ---    SW    16    34   ---   0.7 Broken Clouds/
03/01/2009 07:55      13.0   9.0  15.1   8.9  77  1010   ---    SW    10    10   ---   0.7 Broken Clouds/
03/01/2009 08:55      13.0  10.0  15.5   9.7  82  1011   ---    SW     8     8   ---   0.7 Broken Clouds/
03/01/2009 10:55      14.0  10.0  16.1  14.0  77  1011   ---     S     3     3   ---   0.7 Broken Clouds/
03/01/2009 11:55      14.0   9.0  15.8  10.1  72  1010   ---    SW    10    29   ---   --- Overcast/ Light Rain
03/01/2009 12:55      13.0   9.0  15.1  13.0  77  1010   ---   SSW     5     5   ---   0.7 Broken Clouds/
03/01/2009 13:55      15.0   8.0  16.2  13.3  63  1009   ---   WSW     6     6   ---   0.7 Broken Clouds/
03/01/2009 14:55      15.0   9.0  16.5  12.0  67  1009   ---    SW     8    27   ---   0.5 Broken Clouds/
03/01/2009 15:55      14.0  10.0  16.1  12.3  77  1009   ---   WSW     6     6   ---   0.7 Broken Clouds/
03/01/2009 16:55      13.0  10.0  15.5  11.2  82  1009   ---     W     6     6   ---   --- Overcast/ Light Rain
03/01/2009 17:55      13.0   9.0  15.1   5.5  77  1009   ---     W    18    18   ---   0.7 Broken Clouds/
03/01/2009 18:55      13.0   9.0  15.1   5.8  77  1010   ---     W    16    34   ---   0.7 Broken Clouds/
04/01/2009 06:55      10.0   8.0  12.9  10.0  87  1011   ---     N     0     0   ---   0.6 Broken Clouds/
04/01/2009 07:55      10.0   8.0  12.9  10.0  87  1012   ---   ---     0     0   ---   0.7 Broken Clouds/
04/01/2009 08:55      11.0  10.0  14.4  11.0  94  1012   ---   ---     0     0   ---   0.7 Broken Clouds/
04/01/2009 10:55      12.0   8.0  14.1  10.1  77  1013   ---     W     6     6   ---   0.7 Broken Clouds/
04/01/2009 11:55      12.0   8.0  14.1   6.2  77  1012   ---    NW    13    13   ---   0.7 Broken Clouds/
04/01/2009 12:55      12.0   7.0  13.7   6.2  71  1012   ---   WNW    13    13   ---   0.7 Broken Clouds/
04/01/2009 13:55      12.0   8.0  14.1   6.2  77  1011   ---    NW    13    13   ---   0.7 Broken Clouds/
04/01/2009 14:55      12.0   8.0  14.1   8.5  77  1011   ---    NW     8     8   ---   0.7 Broken Clouds/
04/01/2009 15:55      12.0   8.0  14.1   8.5  77  1011   ---    NW     8     8   ---   0.7 Broken Clouds/
04/01/2009 17:55      11.0   8.0  13.5  11.0  82  1011   ---     N     0     0   ---   0.6 Broken Clouds/
04/01/2009 18:55      11.0  10.0  14.4  11.0  94  1011   ---   ---     0     0   ---   0.6 Broken Clouds/
05/01/2009 06:55       9.0   8.0  12.4   9.0  93  1009   ---   ---     0     0   ---   0.3 Overcast/
05/01/2009 07:55       9.0   8.0  12.4   9.0  93  1009   ---   WNW     5     5   ---   0.3 Overcast/
05/01/2009 08:55       9.0   8.0  12.4   9.0  93  1009   ---     W     5     5   ---   0.3 Overcast/
05/01/2009 10:55      10.0   8.0  12.9  10.0  87  1010   ---    NW     3     3   ---   0.3 Overcast/
05/01/2009 11:55      10.0   8.0  12.9  10.0  87  1010   ---   WNW     3     3   ---   --- Overcast/ Light Rain
05/01/2009 12:55      10.0   9.0  13.4  10.0  94  1009   ---     N     0     0   ---   0.3 Overcast/
05/01/2009 13:55      10.0   8.0  12.9  10.0  87  1009   ---   ---     0     0   ---   0.3 Overcast/
05/01/2009 14:55      10.0   7.0  12.5   7.9  82  1009   ---    NW     6     6   ---   0.3 Broken Clouds/
05/01/2009 16:55      11.0   7.0  13.1  11.0  76  1009   ---    NW     5     5   ---   0.4 Broken Clouds/
05/01/2009 17:55      10.0   6.0  12.1  10.0  76  1010   ---     W     3     3   ---   0.4 Broken Clouds/
05/01/2009 18:55      10.0   6.0  12.1  10.0  76  1010   ---     N     0     0   ---   0.4 Broken Clouds/
06/01/2009 06:55       7.0   3.0   9.0   2.7  76  1013   ---   WSW     8     8   ---   1.2 Few Clouds/
06/01/2009 07:55       7.0   3.0   9.0   4.6  76  1013   ---    SW     6     6   ---   --- /
06/01/2009 08:55       9.0   5.0  11.1   9.0  76  1014   ---   SSW     5     5   ---   --- /
06/01/2009 10:55      13.0   6.0  14.2  13.0  62  1014   ---     E     3     3   ---   0.7 Scattered Clouds/
06/01/2009 11:55      13.0   5.0  13.9  13.0  58  1014   ---     N     0     0   ---   0.7 Scattered Clouds/
06/01/2009 12:55      13.0   5.0  13.9  13.0  58  1013   ---   ---     0     0   ---   0.7 Scattered Clouds/
06/01/2009 13:55      13.0   5.0  13.9  13.0  58  1013   ---   ---     0     0   ---   0.7 Broken Clouds/
06/01/2009 14:55      12.0   6.0  13.4  10.1  67  1013   ---     E     6     6   ---   0.7 Scattered Clouds/
06/01/2009 15:55      12.0   6.0  13.4  12.0  67  1013   ---   NNE     3     3   ---   0.7 Scattered Clouds/
06/01/2009 16:55      11.0   5.0  12.4  11.0  66  1013   ---     W     5     5   ---   1.2 Few Clouds/
06/01/2009 17:55       9.0   5.0  11.1   9.0  76  1013   ---   WSW     5     5   ---   0.8 Few Clouds/
06/01/2009 18:55       8.0   4.0  10.0   8.0  76  1013   ---   WSW     3     3   ---   --- /
07/01/2009 06:55       9.0   7.0  11.9   9.0  87  1013   ---     N     0     0   ---   0.7 Broken Clouds/
07/01/2009 07:55       9.0   7.0  11.9   9.0  87  1012   ---   ---     0     0   ---   0.7 Broken Clouds/
07/01/2009 08:55      10.0   7.0  12.5  10.0  82  1012   ---   ---     0     0   ---   0.7 Broken Clouds/
07/01/2009 10:55      12.0   7.0  13.7   8.5  71  1013   ---   ENE     8     8   ---   0.7 Broken Clouds/
07/01/2009 11:55      15.0   9.0  16.5  10.0  67  1012   ---     S    13    13   ---   0.7 Broken Clouds/
07/01/2009 12:55      15.0   8.0  16.2   8.6  63  1012   ---   SSW    16    16   ---   0.7 Scattered Clouds/
07/01/2009 13:55      14.0   6.0  14.9  10.8  59  1012   ---   SSW     8     8   ---   0.7 Broken Clouds/
07/01/2009 14:55      14.0   7.0  15.2  10.1  63  1011   ---   SSW    10    10   ---   0.7 Scattered Clouds/
07/01/2009 15:55      14.0   7.0  15.2  14.0  63  1011   ---     N     0     0   ---   0.7 Broken Clouds/
07/01/2009 16:55      14.0   7.0  15.2  14.0  63  1012   ---    SW     5     5   ---   0.7 Broken Clouds/
07/01/2009 17:55      13.0   7.0  14.4  11.2  67  1012   ---   SSW     6     6   ---   0.7 Scattered Clouds/
07/01/2009 18:55      13.0   8.0  14.8  11.2  72  1012   ---     S     6     6   ---   0.7 Broken Clouds/
08/01/2009 06:55      11.0   6.0  12.7   9.0  71  1014   ---    SW     6     6   ---   0.8 Broken Clouds/
08/01/2009 07:55      11.0   6.0  12.7  11.0  71  1014   ---   WSW     5     5   ---   0.8 Broken Clouds/
08/01/2009 08:55      12.0   7.0  13.7  12.0  71  1015   ---    SW     5     5   ---   0.8 Broken Clouds/
08/01/2009 10:55      15.0   8.0  16.2  15.0  63  1016   ---    NE     5     5   ---   0.8 Scattered Clouds/
08/01/2009 11:55      15.0   5.0  15.5  13.3  51  1016   ---   ENE     6     6   ---   0.8 Few Clouds/
08/01/2009 12:55      16.0   5.0  16.3  12.5  48  1015   ---     E    10    10   ---   0.7 Few Clouds/
08/01/2009 14:55      15.0   9.0  16.5  12.0  67  1015   ---   ENE     8     8   ---   0.7 Few Clouds/
08/01/2009 15:55      15.0  10.0  16.8  13.3  72  1015   ---     E     6     6   ---   0.7 Scattered Clouds/
08/01/2009 16:55      14.0  10.0  16.1  14.0  77  1015   ---     N     0     0   ---   0.7 Scattered Clouds/
08/01/2009 17:55      13.0  10.0  15.5  11.2  82  1016   ---   ENE     6     6   ---   0.7 Broken Clouds/
08/01/2009 18:55      13.0  10.0  15.5   9.7  82  1016   ---   ENE     8     8   ---   0.7 Broken Clouds/
08/01/2009 11:55      15.0   5.0  15.5  13.3  51  1016   ---   ENE     6     6   ---   0.8 Few Clouds/
09/01/2009 06:55      11.0   8.0  13.5  11.0  82  1018   ---   WSW     5     5   ---   0.6 Scattered Clouds/
09/01/2009 07:55      11.0   8.0  13.5   7.3  82  1019   ---    SW     8     8   ---   0.5 Broken Clouds/
09/01/2009 08:55      12.0   9.0  14.5  12.0  82  1019   ---    SW     5     5   ---   0.7 Broken Clouds/
09/01/2009 10:55      14.0  10.0  16.1  14.0  77  1019   ---     N     0     0   ---   1.2 Overcast/
09/01/2009 11:55      14.0  10.0  16.1  14.0  77  1019   ---   ---     0     0   ---   1.2 Overcast/
09/01/2009 12:55      15.0  10.0  16.8  15.0  72  1018   ---   ESE     3     3   ---   1.2 Overcast/
09/01/2009 13:55      15.0  11.0  17.1  15.0  77  1018   ---     N     0     0   ---   1.2 Broken Clouds/
09/01/2009 14:55      15.0  12.0  17.5  12.0  82  1017   ---     E     8     8   ---   0.5 Broken Clouds/
09/01/2009 15:55      14.0  11.0  16.5  10.8  82  1017   ---     E     8     8   ---   0.5 Overcast/
09/01/2009 16:55      13.0  11.0  15.9  13.0  88  1017   ---     N     0     0   ---   0.4 Overcast/
09/01/2009 17:55      13.0  11.0  15.9  11.2  88  1016   ---     E     6     6   ---   0.4 Broken Clouds/
09/01/2009 18:55      12.0  10.0  14.9  12.0  88  1016   ---     N     0     0   ---   0.4 Scattered Clouds/
09/01/2009 17:55      13.0  11.0  15.9  11.2  88  1016   ---     E     6     6   ---   0.4 Broken Clouds/
10/01/2009 06:55      10.0   9.0  13.4  10.0  94  1015   ---     N     0     0   ---   0.7 Scattered Clouds/
10/01/2009 07:55      10.0   8.0  12.9  10.0  87  1016   ---    SW     5     5   ---   0.7 Scattered Clouds/
10/01/2009 08:55      12.0   9.0  14.5  12.0  82  1016   ---     N     0     0   ---   0.7 Few Clouds/
10/01/2009 10:55      15.0  10.0  16.8  13.3  72  1017   ---    SW     6     6   ---   0.7 Scattered Clouds/
10/01/2009 12:55      16.0   9.0  17.2  16.0  63  1017   ---    SW     5     5   ---   0.7 Scattered Clouds/
10/01/2009 13:55      17.0   9.0  18.0  15.5  59  1017   ---     W     6     6   ---   0.7 Scattered Clouds/
10/01/2009 14:55      16.0   8.0  16.9  14.4  59  1017   ---     S     6     6   ---   0.7 Scattered Clouds/
10/01/2009 15:55      15.0   8.0  16.2  15.0  63  1017   ---     N     0     0   ---   0.7 Scattered Clouds/
10/01/2009 16:55      14.0   9.0  15.8  14.0  72  1017   ---   SSW     5     5   ---   0.7 Scattered Clouds/
10/01/2009 17:55      12.0   7.0  13.7  12.0  71  1017   ---     N     0     0   ---   0.7 Scattered Clouds/
10/01/2009 18:55      12.0   8.0  14.1  12.0  77  1018   ---   ---     0     0   ---   0.7 Scattered Clouds/
10/01/2009 17:55      12.0   7.0  13.7  12.0  71  1017   ---   ---     0     0   ---   0.7 Scattered Clouds/
11/01/2009 06:55      10.0   8.0  12.9   6.2  87  1021   ---    SW     8     8   ---   --- /
11/01/2009 07:55       9.0   8.0  12.4   6.8  93  1021   ---   WSW     6     6   ---   0.7 Few Clouds/
11/01/2009 08:55      11.0   8.0  13.5  11.0  82  1022   ---     N     0     0   ---   0.7 Few Clouds/
11/01/2009 09:55      13.0  10.0  15.5  13.0  82  1023   ---   ---     0     0   ----32740.9 Scattered Clouds/
11/01/2009 11:55      14.0  10.0  16.1  14.0  77  1023   ---   ---     0     0   ----32740.6 Broken Clouds/
11/01/2009 12:55      14.0   9.0  15.8  14.0  72  1023   ---   ---     0     0   ----32740.6 Broken Clouds/
11/01/2009 13:55      15.0  10.0  16.8  15.0  72  1022   ---   ---     0     0   ---   0.6 Broken Clouds/
11/01/2009 14:55      14.0  11.0  16.5  12.3  82  1022   ---     E     6     6   ---   0.6 Broken Clouds/
11/01/2009 15:55      14.0  11.0  16.5  14.0  82  1022   ---   ENE     5     5   ---   0.6 Overcast/
11/01/2009 16:55      13.0  11.0  15.9  11.2  88  1022   ---   ENE     6     6   ---   0.6 Overcast/
11/01/2009 17:55      13.0  11.0  15.9   6.6  88  1022   ---     E    14    14   ---   0.6 Overcast/
11/01/2009 18:55      13.0  11.0  15.9   5.8  88  1022   ---     E    16    16   ---   0.4 Broken Clouds/
11/01/2009 11:55      14.0  10.0  16.1  14.0  77  1023   ---     N     0     0   ----32740.6 Broken Clouds/
11/01/2009 13:55      15.0  10.0  16.8  15.0  72  1022   ---   ---     0     0   ---   0.6 Broken Clouds/


Updated Automatically by Ambient Software's Virtual Weather Station  V 12.07
 All rights reserved. Unauthorized duplication or distribution is prohibited
 Never base important decisions on this or any weather information obtained from the Internet